<?xml version="1.0" encoding="UTF-8" standalone="no" ?>
<gpx xmlns="http://www.topografix.com/GPX/1/1" xmlns:xsi="http://www.w3.org/2001/XMLSchema-instance" xsi:schemaLocation="http://www.topografix.com/GPX/1/1 http://www.topografix.com/GPX/1/1/gpx.xsd" version="1.1" creator="VisuGPX - https://www.visugpx.com">
  <metadata>
    <name>Edirne-Mostar</name>
  </metadata>
  <trk>
    <name><![CDATA[Tour d'Europe: étape 646]]></name>
    <extensions>
      <line xmlns="http://www.topografix.com/GPX/gpx_style/0/2">
        <color>880088</color>
        <width>4</width>
      </line>
    </extensions>
    <trkseg>
      <trkpt lat="42.60275" lon="23.02981">
        <ele>765.480992</ele>
        <time>2022-04-05T07:02:01.309Z</time>
      </trkpt>
      <trkpt lat="42.60281" lon="23.02991">
        <ele>765.480992</ele>
        <time>2022-04-05T07:02:03.457Z</time>
      </trkpt>
      <trkpt lat="42.60277" lon="23.02975">
        <ele>765.480992</ele>
        <time>2022-04-05T07:02:05.421Z</time>
      </trkpt>
      <trkpt lat="42.60268" lon="23.02973">
        <ele>765.480992</ele>
        <time>2022-04-05T07:02:12.233Z</time>
      </trkpt>
      <trkpt lat="42.60259" lon="23.02969">
        <ele>765.480992</ele>
        <time>2022-04-05T07:02:17.185Z</time>
      </trkpt>
      <trkpt lat="42.6025" lon="23.02966">
        <ele>765.480992</ele>
        <time>2022-04-05T07:02:21.196Z</time>
      </trkpt>
      <trkpt lat="42.6024" lon="23.02962">
        <ele>765.480992</ele>
        <time>2022-04-05T07:02:26.203Z</time>
      </trkpt>
      <trkpt lat="42.60232" lon="23.02955">
        <ele>765.480992</ele>
        <time>2022-04-05T07:02:30.206Z</time>
      </trkpt>
      <trkpt lat="42.60222" lon="23.0295">
        <ele>765.480992</ele>
        <time>2022-04-05T07:02:33.212Z</time>
      </trkpt>
      <trkpt lat="42.60211" lon="23.02949">
        <ele>765.180998</ele>
        <time>2022-04-05T07:02:37.204Z</time>
      </trkpt>
      <trkpt lat="42.602" lon="23.02946">
        <ele>763.704977</ele>
        <time>2022-04-05T07:02:41.201Z</time>
      </trkpt>
      <trkpt lat="42.602" lon="23.02932">
        <ele>762.281152</ele>
        <time>2022-04-05T07:02:46.207Z</time>
      </trkpt>
      <trkpt lat="42.60202" lon="23.02918">
        <ele>760.919215</ele>
        <time>2022-04-05T07:02:50.201Z</time>
      </trkpt>
      <trkpt lat="42.60198" lon="23.02906">
        <ele>759.642903</ele>
        <time>2022-04-05T07:02:54.240Z</time>
      </trkpt>
      <trkpt lat="42.60192" lon="23.02896">
        <ele>758.380701</ele>
        <time>2022-04-05T07:03:04.203Z</time>
      </trkpt>
      <trkpt lat="42.60184" lon="23.02887">
        <ele>757.058664</ele>
        <time>2022-04-05T07:03:08.302Z</time>
      </trkpt>
      <trkpt lat="42.60175" lon="23.02879">
        <ele>755.591362</ele>
        <time>2022-04-05T07:03:12.262Z</time>
      </trkpt>
      <trkpt lat="42.60167" lon="23.0287">
        <ele>754.273057</ele>
        <time>2022-04-05T07:03:15.203Z</time>
      </trkpt>
      <trkpt lat="42.60159" lon="23.02861">
        <ele>752.86553</ele>
        <time>2022-04-05T07:03:18.243Z</time>
      </trkpt>
      <trkpt lat="42.60149" lon="23.02854">
        <ele>751.389466</ele>
        <time>2022-04-05T07:03:21.215Z</time>
      </trkpt>
      <trkpt lat="42.60141" lon="23.02845">
        <ele>750.085913</ele>
        <time>2022-04-05T07:03:24.207Z</time>
      </trkpt>
      <trkpt lat="42.60133" lon="23.02839">
        <ele>748.888687</ele>
        <time>2022-04-05T07:03:27.225Z</time>
      </trkpt>
      <trkpt lat="42.60124" lon="23.02832">
        <ele>747.447248</ele>
        <time>2022-04-05T07:03:30.206Z</time>
      </trkpt>
      <trkpt lat="42.60114" lon="23.02832">
        <ele>746.185602</ele>
        <time>2022-04-05T07:03:34.207Z</time>
      </trkpt>
      <trkpt lat="42.60105" lon="23.02842">
        <ele>744.745582</ele>
        <time>2022-04-05T07:03:40.197Z</time>
      </trkpt>
      <trkpt lat="42.60099" lon="23.02851">
        <ele>743.52492</ele>
        <time>2022-04-05T07:03:46.248Z</time>
      </trkpt>
      <trkpt lat="42.60094" lon="23.02864">
        <ele>742.126996</ele>
        <time>2022-04-05T07:03:53.194Z</time>
      </trkpt>
      <trkpt lat="42.60074" lon="23.02866">
        <ele>742.148711</ele>
        <time>2022-04-05T07:04:52.190Z</time>
      </trkpt>
      <trkpt lat="42.60068" lon="23.02855">
        <ele>742.311646</ele>
        <time>2022-04-05T07:04:56.192Z</time>
      </trkpt>
      <trkpt lat="42.60061" lon="23.02848">
        <ele>742.461913</ele>
        <time>2022-04-05T07:04:59.188Z</time>
      </trkpt>
      <trkpt lat="42.60053" lon="23.0284">
        <ele>742.623255</ele>
        <time>2022-04-05T07:05:02.206Z</time>
      </trkpt>
      <trkpt lat="42.60047" lon="23.02829">
        <ele>742.785874</ele>
        <time>2022-04-05T07:05:05.202Z</time>
      </trkpt>
      <trkpt lat="42.6004" lon="23.02819">
        <ele>742.952402</ele>
        <time>2022-04-05T07:05:08.210Z</time>
      </trkpt>
      <trkpt lat="42.60034" lon="23.0281">
        <ele>743.103569</ele>
        <time>2022-04-05T07:05:11.191Z</time>
      </trkpt>
      <trkpt lat="42.60027" lon="23.02801">
        <ele>743.269117</ele>
        <time>2022-04-05T07:05:15.254Z</time>
      </trkpt>
      <trkpt lat="42.60021" lon="23.0279">
        <ele>743.435912</ele>
        <time>2022-04-05T07:05:20.207Z</time>
      </trkpt>
      <trkpt lat="42.60016" lon="23.02779">
        <ele>743.595577</ele>
        <time>2022-04-05T07:05:24.213Z</time>
      </trkpt>
      <trkpt lat="42.60008" lon="23.02771">
        <ele>743.757166</ele>
        <time>2022-04-05T07:05:27.219Z</time>
      </trkpt>
      <trkpt lat="42.59999" lon="23.02763">
        <ele>743.932689</ele>
        <time>2022-04-05T07:05:30.198Z</time>
      </trkpt>
      <trkpt lat="42.59989" lon="23.02756">
        <ele>744.12843</ele>
        <time>2022-04-05T07:05:33.200Z</time>
      </trkpt>
      <trkpt lat="42.59978" lon="23.02748">
        <ele>744.327681</ele>
        <time>2022-04-05T07:05:36.198Z</time>
      </trkpt>
      <trkpt lat="42.59969" lon="23.0274">
        <ele>744.516197</ele>
        <time>2022-04-05T07:05:39.212Z</time>
      </trkpt>
      <trkpt lat="42.5996" lon="23.02734">
        <ele>744.672841</ele>
        <time>2022-04-05T07:05:41.219Z</time>
      </trkpt>
      <trkpt lat="42.59952" lon="23.02728">
        <ele>744.832351</ele>
        <time>2022-04-05T07:05:43.192Z</time>
      </trkpt>
      <trkpt lat="42.59942" lon="23.02725">
        <ele>744.975859</ele>
        <time>2022-04-05T07:05:45.247Z</time>
      </trkpt>
      <trkpt lat="42.59932" lon="23.02719">
        <ele>745.14797</ele>
        <time>2022-04-05T07:05:48.200Z</time>
      </trkpt>
      <trkpt lat="42.59923" lon="23.0271">
        <ele>745.319176</ele>
        <time>2022-04-05T07:05:51.200Z</time>
      </trkpt>
      <trkpt lat="42.59913" lon="23.02699">
        <ele>745.506014</ele>
        <time>2022-04-05T07:05:54.212Z</time>
      </trkpt>
      <trkpt lat="42.59902" lon="23.0269">
        <ele>745.701998</ele>
        <time>2022-04-05T07:05:57.194Z</time>
      </trkpt>
      <trkpt lat="42.59892" lon="23.0268">
        <ele>745.882512</ele>
        <time>2022-04-05T07:06:00.197Z</time>
      </trkpt>
      <trkpt lat="42.59883" lon="23.02671">
        <ele>746.048776</ele>
        <time>2022-04-05T07:06:03.195Z</time>
      </trkpt>
      <trkpt lat="42.59873" lon="23.02664">
        <ele>746.216118</ele>
        <time>2022-04-05T07:06:06.223Z</time>
      </trkpt>
      <trkpt lat="42.59865" lon="23.02655">
        <ele>746.367705</ele>
        <time>2022-04-05T07:06:09.202Z</time>
      </trkpt>
      <trkpt lat="42.59857" lon="23.02647">
        <ele>746.521356</ele>
        <time>2022-04-05T07:06:13.203Z</time>
      </trkpt>
      <trkpt lat="42.59846" lon="23.0264">
        <ele>746.705787</ele>
        <time>2022-04-05T07:06:17.193Z</time>
      </trkpt>
      <trkpt lat="42.59838" lon="23.02634">
        <ele>746.848908</ele>
        <time>2022-04-05T07:06:20.210Z</time>
      </trkpt>
      <trkpt lat="42.59829" lon="23.02625">
        <ele>747.01453</ele>
        <time>2022-04-05T07:06:24.202Z</time>
      </trkpt>
      <trkpt lat="42.59821" lon="23.02619">
        <ele>747.153178</ele>
        <time>2022-04-05T07:06:27.199Z</time>
      </trkpt>
      <trkpt lat="42.59813" lon="23.02611">
        <ele>747.299719</ele>
        <time>2022-04-05T07:06:30.196Z</time>
      </trkpt>
      <trkpt lat="42.59804" lon="23.02601">
        <ele>747.473836</ele>
        <time>2022-04-05T07:06:34.204Z</time>
      </trkpt>
      <trkpt lat="42.59794" lon="23.02594">
        <ele>747.134179</ele>
        <time>2022-04-05T07:06:38.208Z</time>
      </trkpt>
      <trkpt lat="42.59786" lon="23.02587">
        <ele>746.501908</ele>
        <time>2022-04-05T07:06:42.205Z</time>
      </trkpt>
      <trkpt lat="42.59778" lon="23.0258">
        <ele>745.942397</ele>
        <time>2022-04-05T07:06:45.197Z</time>
      </trkpt>
      <trkpt lat="42.59771" lon="23.02571">
        <ele>745.356409</ele>
        <time>2022-04-05T07:06:48.212Z</time>
      </trkpt>
      <trkpt lat="42.59763" lon="23.02563">
        <ele>744.769352</ele>
        <time>2022-04-05T07:06:51.192Z</time>
      </trkpt>
      <trkpt lat="42.59753" lon="23.02558">
        <ele>744.113615</ele>
        <time>2022-04-05T07:06:55.206Z</time>
      </trkpt>
      <trkpt lat="42.59744" lon="23.02549">
        <ele>743.476049</ele>
        <time>2022-04-05T07:06:59.209Z</time>
      </trkpt>
      <trkpt lat="42.59734" lon="23.02543">
        <ele>742.811029</ele>
        <time>2022-04-05T07:07:03.192Z</time>
      </trkpt>
      <trkpt lat="42.59728" lon="23.02533">
        <ele>742.208743</ele>
        <time>2022-04-05T07:07:06.212Z</time>
      </trkpt>
      <trkpt lat="42.59719" lon="23.02523">
        <ele>741.502453</ele>
        <time>2022-04-05T07:07:09.203Z</time>
      </trkpt>
      <trkpt lat="42.59709" lon="23.02513">
        <ele>740.75361</ele>
        <time>2022-04-05T07:07:12.197Z</time>
      </trkpt>
      <trkpt lat="42.59698" lon="23.02504">
        <ele>739.979752</ele>
        <time>2022-04-05T07:07:15.199Z</time>
      </trkpt>
      <trkpt lat="42.59687" lon="23.02495">
        <ele>739.217002</ele>
        <time>2022-04-05T07:07:18.206Z</time>
      </trkpt>
      <trkpt lat="42.59677" lon="23.02487">
        <ele>738.510801</ele>
        <time>2022-04-05T07:07:21.200Z</time>
      </trkpt>
      <trkpt lat="42.59668" lon="23.02479">
        <ele>737.86085</ele>
        <time>2022-04-05T07:07:24.255Z</time>
      </trkpt>
      <trkpt lat="42.59659" lon="23.02471">
        <ele>737.173008</ele>
        <time>2022-04-05T07:07:27.204Z</time>
      </trkpt>
      <trkpt lat="42.59651" lon="23.02463">
        <ele>736.643773</ele>
        <time>2022-04-05T07:07:30.196Z</time>
      </trkpt>
      <trkpt lat="42.59643" lon="23.02453">
        <ele>737.027114</ele>
        <time>2022-04-05T07:07:34.208Z</time>
      </trkpt>
      <trkpt lat="42.59645" lon="23.0244">
        <ele>737.359162</ele>
        <time>2022-04-05T07:07:37.209Z</time>
      </trkpt>
      <trkpt lat="42.5965" lon="23.02426">
        <ele>737.751125</ele>
        <time>2022-04-05T07:07:40.253Z</time>
      </trkpt>
      <trkpt lat="42.59656" lon="23.02414">
        <ele>738.124879</ele>
        <time>2022-04-05T07:07:43.204Z</time>
      </trkpt>
      <trkpt lat="42.59663" lon="23.02402">
        <ele>738.516992</ele>
        <time>2022-04-05T07:07:46.202Z</time>
      </trkpt>
      <trkpt lat="42.59669" lon="23.0239">
        <ele>738.897398</ele>
        <time>2022-04-05T07:07:49.206Z</time>
      </trkpt>
      <trkpt lat="42.59674" lon="23.02377">
        <ele>739.266363</ele>
        <time>2022-04-05T07:07:52.221Z</time>
      </trkpt>
      <trkpt lat="42.59677" lon="23.02362">
        <ele>739.663552</ele>
        <time>2022-04-05T07:07:55.207Z</time>
      </trkpt>
      <trkpt lat="42.59679" lon="23.02348">
        <ele>740.044295</ele>
        <time>2022-04-05T07:07:58.224Z</time>
      </trkpt>
      <trkpt lat="42.59684" lon="23.02336">
        <ele>740.384103</ele>
        <time>2022-04-05T07:08:01.201Z</time>
      </trkpt>
      <trkpt lat="42.5969" lon="23.02325">
        <ele>740.724631</ele>
        <time>2022-04-05T07:08:04.203Z</time>
      </trkpt>
      <trkpt lat="42.59696" lon="23.02315">
        <ele>741.067702</ele>
        <time>2022-04-05T07:08:07.202Z</time>
      </trkpt>
      <trkpt lat="42.59703" lon="23.02305">
        <ele>741.430612</ele>
        <time>2022-04-05T07:08:10.195Z</time>
      </trkpt>
      <trkpt lat="42.59706" lon="23.02292">
        <ele>741.778197</ele>
        <time>2022-04-05T07:08:14.223Z</time>
      </trkpt>
      <trkpt lat="42.59705" lon="23.02276">
        <ele>742.168591</ele>
        <time>2022-04-05T07:08:18.213Z</time>
      </trkpt>
      <trkpt lat="42.59705" lon="23.02264">
        <ele>742.48131</ele>
        <time>2022-04-05T07:08:21.193Z</time>
      </trkpt>
      <trkpt lat="42.59705" lon="23.0225">
        <ele>742.853039</ele>
        <time>2022-04-05T07:08:24.214Z</time>
      </trkpt>
      <trkpt lat="42.59706" lon="23.02237">
        <ele>742.766757</ele>
        <time>2022-04-05T07:08:27.194Z</time>
      </trkpt>
      <trkpt lat="42.59707" lon="23.02222">
        <ele>742.608681</ele>
        <time>2022-04-05T07:08:30.223Z</time>
      </trkpt>
      <trkpt lat="42.59709" lon="23.02207">
        <ele>742.443603</ele>
        <time>2022-04-05T07:08:33.213Z</time>
      </trkpt>
      <trkpt lat="42.5971" lon="23.02193">
        <ele>742.290333</ele>
        <time>2022-04-05T07:08:36.198Z</time>
      </trkpt>
      <trkpt lat="42.59709" lon="23.02179">
        <ele>742.142592</ele>
        <time>2022-04-05T07:08:39.211Z</time>
      </trkpt>
      <trkpt lat="42.5971" lon="23.02165">
        <ele>741.991444</ele>
        <time>2022-04-05T07:08:42.203Z</time>
      </trkpt>
      <trkpt lat="42.59709" lon="23.02149">
        <ele>741.825039</ele>
        <time>2022-04-05T07:08:45.209Z</time>
      </trkpt>
      <trkpt lat="42.59708" lon="23.02134">
        <ele>741.669078</ele>
        <time>2022-04-05T07:08:48.203Z</time>
      </trkpt>
      <trkpt lat="42.59707" lon="23.0212">
        <ele>741.520178</ele>
        <time>2022-04-05T07:08:52.196Z</time>
      </trkpt>
      <trkpt lat="42.59705" lon="23.02108">
        <ele>741.38392</ele>
        <time>2022-04-05T07:08:55.199Z</time>
      </trkpt>
      <trkpt lat="42.59705" lon="23.02095">
        <ele>741.246713</ele>
        <time>2022-04-05T07:08:58.216Z</time>
      </trkpt>
      <trkpt lat="42.59704" lon="23.02082">
        <ele>741.113096</ele>
        <time>2022-04-05T07:09:01.215Z</time>
      </trkpt>
      <trkpt lat="42.59704" lon="23.0207">
        <ele>740.979199</ele>
        <time>2022-04-05T07:09:04.194Z</time>
      </trkpt>
      <trkpt lat="42.59704" lon="23.02056">
        <ele>740.837797</ele>
        <time>2022-04-05T07:09:07.223Z</time>
      </trkpt>
      <trkpt lat="42.59704" lon="23.02041">
        <ele>740.675047</ele>
        <time>2022-04-05T07:09:11.216Z</time>
      </trkpt>
      <trkpt lat="42.59706" lon="23.02025">
        <ele>740.501351</ele>
        <time>2022-04-05T07:09:15.202Z</time>
      </trkpt>
      <trkpt lat="42.59707" lon="23.02011">
        <ele>740.354127</ele>
        <time>2022-04-05T07:09:18.199Z</time>
      </trkpt>
      <trkpt lat="42.59706" lon="23.01999">
        <ele>740.576248</ele>
        <time>2022-04-05T07:09:21.192Z</time>
      </trkpt>
      <trkpt lat="42.59705" lon="23.01984">
        <ele>741.280457</ele>
        <time>2022-04-05T07:09:25.211Z</time>
      </trkpt>
      <trkpt lat="42.59704" lon="23.01969">
        <ele>741.983411</ele>
        <time>2022-04-05T07:09:29.207Z</time>
      </trkpt>
      <trkpt lat="42.59704" lon="23.01956">
        <ele>742.580144</ele>
        <time>2022-04-05T07:09:32.195Z</time>
      </trkpt>
      <trkpt lat="42.59704" lon="23.01943">
        <ele>743.16724</ele>
        <time>2022-04-05T07:09:35.207Z</time>
      </trkpt>
      <trkpt lat="42.59702" lon="23.0193">
        <ele>743.782025</ele>
        <time>2022-04-05T07:09:41.249Z</time>
      </trkpt>
      <trkpt lat="42.59702" lon="23.01917">
        <ele>744.397229</ele>
        <time>2022-04-05T07:09:48.193Z</time>
      </trkpt>
      <trkpt lat="42.59704" lon="23.01904">
        <ele>744.982244</ele>
        <time>2022-04-05T07:09:54.210Z</time>
      </trkpt>
      <trkpt lat="42.59704" lon="23.01891">
        <ele>745.597449</ele>
        <time>2022-04-05T07:10:01.222Z</time>
      </trkpt>
      <trkpt lat="42.59705" lon="23.01878">
        <ele>746.176393</ele>
        <time>2022-04-05T07:10:07.199Z</time>
      </trkpt>
      <trkpt lat="42.59705" lon="23.01865">
        <ele>746.786496</ele>
        <time>2022-04-05T07:10:14.227Z</time>
      </trkpt>
      <trkpt lat="42.59702" lon="23.01853">
        <ele>747.398151</ele>
        <time>2022-04-05T07:10:23.223Z</time>
      </trkpt>
      <trkpt lat="42.597" lon="23.01841">
        <ele>747.965445</ele>
        <time>2022-04-05T07:10:32.207Z</time>
      </trkpt>
      <trkpt lat="42.59698" lon="23.01828">
        <ele>748.55535</ele>
        <time>2022-04-05T07:10:41.226Z</time>
      </trkpt>
      <trkpt lat="42.59694" lon="23.01816">
        <ele>749.188947</ele>
        <time>2022-04-05T07:10:50.233Z</time>
      </trkpt>
      <trkpt lat="42.5969" lon="23.01804">
        <ele>749.799052</ele>
        <time>2022-04-05T07:11:00.205Z</time>
      </trkpt>
      <trkpt lat="42.59684" lon="23.01793">
        <ele>750.391036</ele>
        <time>2022-04-05T07:11:09.206Z</time>
      </trkpt>
      <trkpt lat="42.59679" lon="23.01782">
        <ele>750.995231</ele>
        <time>2022-04-05T07:11:18.208Z</time>
      </trkpt>
      <trkpt lat="42.59675" lon="23.01771">
        <ele>751.570573</ele>
        <time>2022-04-05T07:11:28.223Z</time>
      </trkpt>
      <trkpt lat="42.59668" lon="23.01761">
        <ele>752.019064</ele>
        <time>2022-04-05T07:11:38.210Z</time>
      </trkpt>
      <trkpt lat="42.59662" lon="23.01751">
        <ele>752.444392</ele>
        <time>2022-04-05T07:11:47.219Z</time>
      </trkpt>
      <trkpt lat="42.59655" lon="23.01742">
        <ele>752.863424</ele>
        <time>2022-04-05T07:11:57.207Z</time>
      </trkpt>
      <trkpt lat="42.59648" lon="23.01734">
        <ele>753.264604</ele>
        <time>2022-04-05T07:12:06.204Z</time>
      </trkpt>
      <trkpt lat="42.59641" lon="23.01726">
        <ele>753.670599</ele>
        <time>2022-04-05T07:12:15.201Z</time>
      </trkpt>
      <trkpt lat="42.59632" lon="23.01722">
        <ele>754.082799</ele>
        <time>2022-04-05T07:12:25.208Z</time>
      </trkpt>
      <trkpt lat="42.59619" lon="23.01702">
        <ele>754.947273</ele>
        <time>2022-04-05T07:27:04.228Z</time>
      </trkpt>
      <trkpt lat="42.59613" lon="23.01692">
        <ele>755.38074</ele>
        <time>2022-04-05T07:27:12.212Z</time>
      </trkpt>
      <trkpt lat="42.59608" lon="23.01681">
        <ele>755.780489</ele>
        <time>2022-04-05T07:27:19.204Z</time>
      </trkpt>
      <trkpt lat="42.59604" lon="23.01669">
        <ele>756.223805</ele>
        <time>2022-04-05T07:27:26.218Z</time>
      </trkpt>
      <trkpt lat="42.59602" lon="23.01656">
        <ele>756.643662</ele>
        <time>2022-04-05T07:27:32.204Z</time>
      </trkpt>
      <trkpt lat="42.59599" lon="23.01643">
        <ele>757.089695</ele>
        <time>2022-04-05T07:27:38.220Z</time>
      </trkpt>
      <trkpt lat="42.59594" lon="23.01629">
        <ele>757.57941</ele>
        <time>2022-04-05T07:27:44.209Z</time>
      </trkpt>
      <trkpt lat="42.59591" lon="23.01614">
        <ele>758.092756</ele>
        <time>2022-04-05T07:27:48.234Z</time>
      </trkpt>
      <trkpt lat="42.59589" lon="23.01598">
        <ele>758.620833</ele>
        <time>2022-04-05T07:27:51.232Z</time>
      </trkpt>
      <trkpt lat="42.59586" lon="23.01582">
        <ele>759.144914</ele>
        <time>2022-04-05T07:27:54.219Z</time>
      </trkpt>
      <trkpt lat="42.59584" lon="23.01564">
        <ele>758.963196</ele>
        <time>2022-04-05T07:27:57.230Z</time>
      </trkpt>
      <trkpt lat="42.59583" lon="23.01549">
        <ele>758.017774</ele>
        <time>2022-04-05T07:27:59.261Z</time>
      </trkpt>
      <trkpt lat="42.59581" lon="23.01536">
        <ele>757.129359</ele>
        <time>2022-04-05T07:28:01.241Z</time>
      </trkpt>
      <trkpt lat="42.59579" lon="23.01521">
        <ele>756.188269</ele>
        <time>2022-04-05T07:28:03.256Z</time>
      </trkpt>
      <trkpt lat="42.59576" lon="23.01508">
        <ele>755.307845</ele>
        <time>2022-04-05T07:28:05.214Z</time>
      </trkpt>
      <trkpt lat="42.59574" lon="23.01495">
        <ele>754.433664</ele>
        <time>2022-04-05T07:28:07.233Z</time>
      </trkpt>
      <trkpt lat="42.59571" lon="23.0148">
        <ele>753.455194</ele>
        <time>2022-04-05T07:28:09.226Z</time>
      </trkpt>
      <trkpt lat="42.59568" lon="23.01466">
        <ele>752.530921</ele>
        <time>2022-04-05T07:28:11.225Z</time>
      </trkpt>
      <trkpt lat="42.59565" lon="23.01451">
        <ele>751.488536</ele>
        <time>2022-04-05T07:28:14.233Z</time>
      </trkpt>
      <trkpt lat="42.59562" lon="23.01436">
        <ele>750.547444</ele>
        <time>2022-04-05T07:28:17.204Z</time>
      </trkpt>
      <trkpt lat="42.59558" lon="23.01423">
        <ele>749.597051</ele>
        <time>2022-04-05T07:28:20.219Z</time>
      </trkpt>
      <trkpt lat="42.59554" lon="23.0141">
        <ele>748.682956</ele>
        <time>2022-04-05T07:28:23.228Z</time>
      </trkpt>
      <trkpt lat="42.59548" lon="23.01394">
        <ele>747.545906</ele>
        <time>2022-04-05T07:28:26.220Z</time>
      </trkpt>
      <trkpt lat="42.59543" lon="23.0138">
        <ele>746.519956</ele>
        <time>2022-04-05T07:28:29.218Z</time>
      </trkpt>
      <trkpt lat="42.59537" lon="23.01368">
        <ele>745.613443</ele>
        <time>2022-04-05T07:28:33.249Z</time>
      </trkpt>
      <trkpt lat="42.59531" lon="23.01357">
        <ele>744.733021</ele>
        <time>2022-04-05T07:28:37.222Z</time>
      </trkpt>
      <trkpt lat="42.59526" lon="23.01347">
        <ele>743.914915</ele>
        <time>2022-04-05T07:28:41.239Z</time>
      </trkpt>
      <trkpt lat="42.59522" lon="23.01334">
        <ele>743.475438</ele>
        <time>2022-04-05T07:28:45.220Z</time>
      </trkpt>
      <trkpt lat="42.59515" lon="23.01321">
        <ele>743.055975</ele>
        <time>2022-04-05T07:28:49.224Z</time>
      </trkpt>
      <trkpt lat="42.59509" lon="23.01307">
        <ele>742.628817</ele>
        <time>2022-04-05T07:28:53.234Z</time>
      </trkpt>
      <trkpt lat="42.59504" lon="23.01296">
        <ele>742.292616</ele>
        <time>2022-04-05T07:28:57.235Z</time>
      </trkpt>
      <trkpt lat="42.59498" lon="23.01283">
        <ele>741.907836</ele>
        <time>2022-04-05T07:29:02.217Z</time>
      </trkpt>
      <trkpt lat="42.59493" lon="23.01272">
        <ele>741.556886</ele>
        <time>2022-04-05T07:29:06.200Z</time>
      </trkpt>
      <trkpt lat="42.59488" lon="23.01261">
        <ele>741.223845</ele>
        <time>2022-04-05T07:29:09.207Z</time>
      </trkpt>
      <trkpt lat="42.59481" lon="23.01248">
        <ele>740.814366</ele>
        <time>2022-04-05T07:29:13.222Z</time>
      </trkpt>
      <trkpt lat="42.59476" lon="23.01238">
        <ele>740.466612</ele>
        <time>2022-04-05T07:29:17.219Z</time>
      </trkpt>
      <trkpt lat="42.59472" lon="23.01224">
        <ele>740.085792</ele>
        <time>2022-04-05T07:29:22.225Z</time>
      </trkpt>
      <trkpt lat="42.59465" lon="23.01213">
        <ele>739.720737</ele>
        <time>2022-04-05T07:29:27.210Z</time>
      </trkpt>
      <trkpt lat="42.59459" lon="23.01201">
        <ele>739.338749</ele>
        <time>2022-04-05T07:29:32.236Z</time>
      </trkpt>
      <trkpt lat="42.59457" lon="23.01188">
        <ele>738.99127</ele>
        <time>2022-04-05T07:29:39.206Z</time>
      </trkpt>
      <trkpt lat="42.5945" lon="23.01178">
        <ele>738.649396</ele>
        <time>2022-04-05T07:29:46.220Z</time>
      </trkpt>
      <trkpt lat="42.59441" lon="23.01161">
        <ele>738.071952</ele>
        <time>2022-04-05T07:30:36.236Z</time>
      </trkpt>
      <trkpt lat="42.59434" lon="23.01146">
        <ele>737.628052</ele>
        <time>2022-04-05T07:30:40.223Z</time>
      </trkpt>
      <trkpt lat="42.59429" lon="23.01136">
        <ele>737.255118</ele>
        <time>2022-04-05T07:30:42.209Z</time>
      </trkpt>
      <trkpt lat="42.59425" lon="23.01125">
        <ele>736.753066</ele>
        <time>2022-04-05T07:30:44.216Z</time>
      </trkpt>
      <trkpt lat="42.5942" lon="23.01113">
        <ele>736.247506</ele>
        <time>2022-04-05T07:30:46.264Z</time>
      </trkpt>
      <trkpt lat="42.59416" lon="23.011">
        <ele>735.675228</ele>
        <time>2022-04-05T07:30:48.228Z</time>
      </trkpt>
      <trkpt lat="42.5941" lon="23.01085">
        <ele>735.009211</ele>
        <time>2022-04-05T07:30:50.229Z</time>
      </trkpt>
      <trkpt lat="42.59403" lon="23.01068">
        <ele>734.236603</ele>
        <time>2022-04-05T07:30:52.232Z</time>
      </trkpt>
      <trkpt lat="42.59395" lon="23.01049">
        <ele>733.360539</ele>
        <time>2022-04-05T07:30:54.226Z</time>
      </trkpt>
      <trkpt lat="42.59388" lon="23.01029">
        <ele>732.461392</ele>
        <time>2022-04-05T07:30:56.228Z</time>
      </trkpt>
      <trkpt lat="42.59381" lon="23.01008">
        <ele>731.569948</ele>
        <time>2022-04-05T07:30:58.236Z</time>
      </trkpt>
      <trkpt lat="42.59374" lon="23.00989">
        <ele>730.713098</ele>
        <time>2022-04-05T07:31:00.217Z</time>
      </trkpt>
      <trkpt lat="42.59367" lon="23.00971">
        <ele>729.89095</ele>
        <time>2022-04-05T07:31:02.226Z</time>
      </trkpt>
      <trkpt lat="42.5936" lon="23.00953">
        <ele>729.093917</ele>
        <time>2022-04-05T07:31:04.219Z</time>
      </trkpt>
      <trkpt lat="42.59353" lon="23.00936">
        <ele>728.317102</ele>
        <time>2022-04-05T07:31:06.262Z</time>
      </trkpt>
      <trkpt lat="42.59346" lon="23.0092">
        <ele>727.559266</ele>
        <time>2022-04-05T07:31:08.236Z</time>
      </trkpt>
      <trkpt lat="42.59339" lon="23.00904">
        <ele>726.775127</ele>
        <time>2022-04-05T07:31:10.216Z</time>
      </trkpt>
      <trkpt lat="42.59335" lon="23.00887">
        <ele>726.038939</ele>
        <time>2022-04-05T07:31:12.225Z</time>
      </trkpt>
      <trkpt lat="42.59334" lon="23.00869">
        <ele>725.257975</ele>
        <time>2022-04-05T07:31:14.221Z</time>
      </trkpt>
      <trkpt lat="42.59335" lon="23.00852">
        <ele>724.539373</ele>
        <time>2022-04-05T07:31:16.236Z</time>
      </trkpt>
      <trkpt lat="42.59336" lon="23.00837">
        <ele>723.87806</ele>
        <time>2022-04-05T07:31:18.201Z</time>
      </trkpt>
      <trkpt lat="42.5934" lon="23.00824">
        <ele>723.274162</ele>
        <time>2022-04-05T07:31:20.205Z</time>
      </trkpt>
      <trkpt lat="42.59343" lon="23.00811">
        <ele>722.704625</ele>
        <time>2022-04-05T07:31:22.212Z</time>
      </trkpt>
      <trkpt lat="42.59346" lon="23.00799">
        <ele>722.178201</ele>
        <time>2022-04-05T07:31:24.220Z</time>
      </trkpt>
      <trkpt lat="42.59349" lon="23.00782">
        <ele>721.425532</ele>
        <time>2022-04-05T07:31:27.216Z</time>
      </trkpt>
      <trkpt lat="42.59351" lon="23.00767">
        <ele>720.756946</ele>
        <time>2022-04-05T07:31:30.208Z</time>
      </trkpt>
      <trkpt lat="42.59354" lon="23.00754">
        <ele>720.1508</ele>
        <time>2022-04-05T07:31:33.212Z</time>
      </trkpt>
      <trkpt lat="42.59356" lon="23.00741">
        <ele>719.601964</ele>
        <time>2022-04-05T07:31:36.206Z</time>
      </trkpt>
      <trkpt lat="42.59359" lon="23.00725">
        <ele>718.918452</ele>
        <time>2022-04-05T07:31:40.212Z</time>
      </trkpt>
      <trkpt lat="42.59361" lon="23.00712">
        <ele>718.346831</ele>
        <time>2022-04-05T07:31:43.239Z</time>
      </trkpt>
      <trkpt lat="42.59363" lon="23.00699">
        <ele>717.770854</ele>
        <time>2022-04-05T07:31:46.208Z</time>
      </trkpt>
      <trkpt lat="42.59366" lon="23.00687">
        <ele>717.240335</ele>
        <time>2022-04-05T07:31:49.235Z</time>
      </trkpt>
      <trkpt lat="42.59367" lon="23.00675">
        <ele>717.268337</ele>
        <time>2022-04-05T07:31:52.225Z</time>
      </trkpt>
      <trkpt lat="42.59365" lon="23.00662">
        <ele>717.309846</ele>
        <time>2022-04-05T07:31:55.219Z</time>
      </trkpt>
      <trkpt lat="42.59362" lon="23.0065">
        <ele>717.3511</ele>
        <time>2022-04-05T07:31:58.231Z</time>
      </trkpt>
      <trkpt lat="42.59356" lon="23.0064">
        <ele>717.391886</ele>
        <time>2022-04-05T07:32:01.213Z</time>
      </trkpt>
      <trkpt lat="42.59345" lon="23.00633">
        <ele>717.445482</ele>
        <time>2022-04-05T07:32:05.234Z</time>
      </trkpt>
      <trkpt lat="42.59335" lon="23.0063">
        <ele>717.489101</ele>
        <time>2022-04-05T07:32:08.219Z</time>
      </trkpt>
      <trkpt lat="42.59325" lon="23.00628">
        <ele>717.53272</ele>
        <time>2022-04-05T07:32:11.217Z</time>
      </trkpt>
      <trkpt lat="42.59316" lon="23.00628">
        <ele>717.574417</ele>
        <time>2022-04-05T07:32:14.236Z</time>
      </trkpt>
      <trkpt lat="42.59307" lon="23.00628">
        <ele>717.61355</ele>
        <time>2022-04-05T07:32:17.211Z</time>
      </trkpt>
      <trkpt lat="42.59298" lon="23.00629">
        <ele>717.653082</ele>
        <time>2022-04-05T07:32:20.252Z</time>
      </trkpt>
      <trkpt lat="42.59288" lon="23.00628">
        <ele>717.693164</ele>
        <time>2022-04-05T07:32:23.225Z</time>
      </trkpt>
      <trkpt lat="42.59279" lon="23.00625">
        <ele>717.733567</ele>
        <time>2022-04-05T07:32:26.207Z</time>
      </trkpt>
      <trkpt lat="42.59269" lon="23.00617">
        <ele>717.782719</ele>
        <time>2022-04-05T07:32:30.216Z</time>
      </trkpt>
      <trkpt lat="42.59265" lon="23.00605">
        <ele>717.825676</ele>
        <time>2022-04-05T07:32:33.207Z</time>
      </trkpt>
      <trkpt lat="42.59264" lon="23.00592">
        <ele>717.868888</ele>
        <time>2022-04-05T07:32:36.307Z</time>
      </trkpt>
      <trkpt lat="42.59264" lon="23.00579">
        <ele>717.91046</ele>
        <time>2022-04-05T07:32:39.286Z</time>
      </trkpt>
      <trkpt lat="42.59264" lon="23.00564">
        <ele>717.958098</ele>
        <time>2022-04-05T07:32:43.233Z</time>
      </trkpt>
      <trkpt lat="42.59264" lon="23.00549">
        <ele>718.005416</ele>
        <time>2022-04-05T07:32:47.211Z</time>
      </trkpt>
      <trkpt lat="42.59264" lon="23.00533">
        <ele>718.772573</ele>
        <time>2022-04-05T07:32:51.218Z</time>
      </trkpt>
      <trkpt lat="42.59264" lon="23.0052">
        <ele>719.464395</ele>
        <time>2022-04-05T07:32:54.208Z</time>
      </trkpt>
      <trkpt lat="42.59265" lon="23.00506">
        <ele>720.159779</ele>
        <time>2022-04-05T07:32:57.212Z</time>
      </trkpt>
      <trkpt lat="42.59266" lon="23.00493">
        <ele>720.850476</ele>
        <time>2022-04-05T07:33:00.259Z</time>
      </trkpt>
      <trkpt lat="42.59267" lon="23.0048">
        <ele>721.535512</ele>
        <time>2022-04-05T07:33:03.206Z</time>
      </trkpt>
      <trkpt lat="42.59268" lon="23.00468">
        <ele>722.186031</ele>
        <time>2022-04-05T07:33:06.206Z</time>
      </trkpt>
      <trkpt lat="42.59268" lon="23.00455">
        <ele>722.831352</ele>
        <time>2022-04-05T07:33:09.257Z</time>
      </trkpt>
      <trkpt lat="42.59268" lon="23.00443">
        <ele>723.48168</ele>
        <time>2022-04-05T07:33:12.214Z</time>
      </trkpt>
      <trkpt lat="42.59268" lon="23.0043">
        <ele>724.173501</ele>
        <time>2022-04-05T07:33:15.200Z</time>
      </trkpt>
      <trkpt lat="42.59268" lon="23.00417">
        <ele>724.813272</ele>
        <time>2022-04-05T07:33:18.207Z</time>
      </trkpt>
      <trkpt lat="42.59268" lon="23.00401">
        <ele>725.640294</ele>
        <time>2022-04-05T07:33:22.303Z</time>
      </trkpt>
      <trkpt lat="42.59268" lon="23.00386">
        <ele>726.441308</ele>
        <time>2022-04-05T07:33:26.230Z</time>
      </trkpt>
      <trkpt lat="42.59268" lon="23.0037">
        <ele>727.263159</ele>
        <time>2022-04-05T07:33:30.203Z</time>
      </trkpt>
      <trkpt lat="42.59268" lon="23.00356">
        <ele>727.9971</ele>
        <time>2022-04-05T07:33:34.239Z</time>
      </trkpt>
      <trkpt lat="42.59268" lon="23.00341">
        <ele>728.767035</ele>
        <time>2022-04-05T07:33:38.227Z</time>
      </trkpt>
      <trkpt lat="42.59268" lon="23.00325">
        <ele>729.620064</ele>
        <time>2022-04-05T07:33:42.205Z</time>
      </trkpt>
      <trkpt lat="42.59268" lon="23.00312">
        <ele>730.285842</ele>
        <time>2022-04-05T07:33:45.207Z</time>
      </trkpt>
      <trkpt lat="42.59268" lon="23.003">
        <ele>730.849829</ele>
        <time>2022-04-05T07:33:48.207Z</time>
      </trkpt>
      <trkpt lat="42.59269" lon="23.00287">
        <ele>731.240283</ele>
        <time>2022-04-05T07:33:51.197Z</time>
      </trkpt>
      <trkpt lat="42.5927" lon="23.00272">
        <ele>731.719405</ele>
        <time>2022-04-05T07:33:55.263Z</time>
      </trkpt>
      <trkpt lat="42.59269" lon="23.00258">
        <ele>732.168875</ele>
        <time>2022-04-05T07:33:59.225Z</time>
      </trkpt>
      <trkpt lat="42.59269" lon="23.00243">
        <ele>732.627337</ele>
        <time>2022-04-05T07:34:03.211Z</time>
      </trkpt>
      <trkpt lat="42.5927" lon="23.00227">
        <ele>733.133964</ele>
        <time>2022-04-05T07:34:07.241Z</time>
      </trkpt>
      <trkpt lat="42.5927" lon="23.00211">
        <ele>733.630095</ele>
        <time>2022-04-05T07:34:11.223Z</time>
      </trkpt>
      <trkpt lat="42.5927" lon="23.00195">
        <ele>734.138873</ele>
        <time>2022-04-05T07:34:15.214Z</time>
      </trkpt>
      <trkpt lat="42.5927" lon="23.00179">
        <ele>734.641282</ele>
        <time>2022-04-05T07:34:19.225Z</time>
      </trkpt>
      <trkpt lat="42.5927" lon="23.00165">
        <ele>735.06846</ele>
        <time>2022-04-05T07:34:22.220Z</time>
      </trkpt>
      <trkpt lat="42.5927" lon="23.00153">
        <ele>735.454656</ele>
        <time>2022-04-05T07:34:25.221Z</time>
      </trkpt>
      <trkpt lat="42.59271" lon="23.00141">
        <ele>735.844807</ele>
        <time>2022-04-05T07:34:28.235Z</time>
      </trkpt>
      <trkpt lat="42.59272" lon="23.00127">
        <ele>736.277967</ele>
        <time>2022-04-05T07:34:31.211Z</time>
      </trkpt>
      <trkpt lat="42.59273" lon="23.00113">
        <ele>736.716886</ele>
        <time>2022-04-05T07:34:34.233Z</time>
      </trkpt>
      <trkpt lat="42.59275" lon="23.00099">
        <ele>737.172365</ele>
        <time>2022-04-05T07:34:37.224Z</time>
      </trkpt>
      <trkpt lat="42.59277" lon="23.00085">
        <ele>737.624883</ele>
        <time>2022-04-05T07:34:40.198Z</time>
      </trkpt>
      <trkpt lat="42.59279" lon="23.00071">
        <ele>738.0774</ele>
        <time>2022-04-05T07:34:43.237Z</time>
      </trkpt>
      <trkpt lat="42.59282" lon="23.00057">
        <ele>738.298118</ele>
        <time>2022-04-05T07:34:46.224Z</time>
      </trkpt>
      <trkpt lat="42.59285" lon="23.00043">
        <ele>738.021115</ele>
        <time>2022-04-05T07:34:49.240Z</time>
      </trkpt>
      <trkpt lat="42.59289" lon="23.0003">
        <ele>737.744446</ele>
        <time>2022-04-05T07:34:52.225Z</time>
      </trkpt>
      <trkpt lat="42.59292" lon="23.00018">
        <ele>737.490759</ele>
        <time>2022-04-05T07:34:55.218Z</time>
      </trkpt>
      <trkpt lat="42.59296" lon="23.00005">
        <ele>737.23049</ele>
        <time>2022-04-05T07:34:58.240Z</time>
      </trkpt>
      <trkpt lat="42.59299" lon="22.99993">
        <ele>736.976667</ele>
        <time>2022-04-05T07:35:01.222Z</time>
      </trkpt>
      <trkpt lat="42.59303" lon="22.99981">
        <ele>736.719725</ele>
        <time>2022-04-05T07:35:04.233Z</time>
      </trkpt>
      <trkpt lat="42.59307" lon="22.9997">
        <ele>736.475685</ele>
        <time>2022-04-05T07:35:07.228Z</time>
      </trkpt>
      <trkpt lat="42.59311" lon="22.99959">
        <ele>736.228317</ele>
        <time>2022-04-05T07:35:10.220Z</time>
      </trkpt>
      <trkpt lat="42.59314" lon="22.99947">
        <ele>735.987386</ele>
        <time>2022-04-05T07:35:13.226Z</time>
      </trkpt>
      <trkpt lat="42.59319" lon="22.99932">
        <ele>735.673732</ele>
        <time>2022-04-05T07:35:17.224Z</time>
      </trkpt>
      <trkpt lat="42.59322" lon="22.99921">
        <ele>735.432918</ele>
        <time>2022-04-05T07:35:20.215Z</time>
      </trkpt>
      <trkpt lat="42.59326" lon="22.99909">
        <ele>735.184394</ele>
        <time>2022-04-05T07:35:23.226Z</time>
      </trkpt>
      <trkpt lat="42.5933" lon="22.99898">
        <ele>734.936381</ele>
        <time>2022-04-05T07:35:26.252Z</time>
      </trkpt>
      <trkpt lat="42.59334" lon="22.99887">
        <ele>734.696246</ele>
        <time>2022-04-05T07:35:29.204Z</time>
      </trkpt>
      <trkpt lat="42.59337" lon="22.99875">
        <ele>734.454478</ele>
        <time>2022-04-05T07:35:32.225Z</time>
      </trkpt>
      <trkpt lat="42.59341" lon="22.99861">
        <ele>734.159146</ele>
        <time>2022-04-05T07:35:36.218Z</time>
      </trkpt>
      <trkpt lat="42.59345" lon="22.99847">
        <ele>733.866871</ele>
        <time>2022-04-05T07:35:40.232Z</time>
      </trkpt>
      <trkpt lat="42.59348" lon="22.99834">
        <ele>733.620981</ele>
        <time>2022-04-05T07:35:44.226Z</time>
      </trkpt>
      <trkpt lat="42.59352" lon="22.99819">
        <ele>733.923002</ele>
        <time>2022-04-05T07:35:48.241Z</time>
      </trkpt>
      <trkpt lat="42.59356" lon="22.99804">
        <ele>734.215243</ele>
        <time>2022-04-05T07:35:52.243Z</time>
      </trkpt>
      <trkpt lat="42.5936" lon="22.9979">
        <ele>734.511903</ele>
        <time>2022-04-05T07:35:56.216Z</time>
      </trkpt>
      <trkpt lat="42.59364" lon="22.99776">
        <ele>734.789845</ele>
        <time>2022-04-05T07:36:00.222Z</time>
      </trkpt>
      <trkpt lat="42.59369" lon="22.99764">
        <ele>735.063665</ele>
        <time>2022-04-05T07:36:04.221Z</time>
      </trkpt>
      <trkpt lat="42.59375" lon="22.9975">
        <ele>735.355438</ele>
        <time>2022-04-05T07:36:08.221Z</time>
      </trkpt>
      <trkpt lat="42.59381" lon="22.99736">
        <ele>735.654274</ele>
        <time>2022-04-05T07:36:12.224Z</time>
      </trkpt>
      <trkpt lat="42.59386" lon="22.99724">
        <ele>735.927641</ele>
        <time>2022-04-05T07:36:16.255Z</time>
      </trkpt>
      <trkpt lat="42.59392" lon="22.99713">
        <ele>736.192949</ele>
        <time>2022-04-05T07:36:20.227Z</time>
      </trkpt>
      <trkpt lat="42.59397" lon="22.99703">
        <ele>736.432688</ele>
        <time>2022-04-05T07:36:24.220Z</time>
      </trkpt>
      <trkpt lat="42.59404" lon="22.99691">
        <ele>736.716468</ele>
        <time>2022-04-05T07:36:29.238Z</time>
      </trkpt>
      <trkpt lat="42.59412" lon="22.99682">
        <ele>736.982753</ele>
        <time>2022-04-05T07:36:33.261Z</time>
      </trkpt>
      <trkpt lat="42.59421" lon="22.99674">
        <ele>737.259882</ele>
        <time>2022-04-05T07:36:38.227Z</time>
      </trkpt>
      <trkpt lat="42.59429" lon="22.99665">
        <ele>737.537496</ele>
        <time>2022-04-05T07:36:43.211Z</time>
      </trkpt>
      <trkpt lat="42.59438" lon="22.99655">
        <ele>737.826243</ele>
        <time>2022-04-05T07:36:48.216Z</time>
      </trkpt>
      <trkpt lat="42.59445" lon="22.99647">
        <ele>738.068552</ele>
        <time>2022-04-05T07:36:52.253Z</time>
      </trkpt>
      <trkpt lat="42.59454" lon="22.99637">
        <ele>738.531876</ele>
        <time>2022-04-05T07:36:57.238Z</time>
      </trkpt>
      <trkpt lat="42.59461" lon="22.9963">
        <ele>739.16581</ele>
        <time>2022-04-05T07:37:01.244Z</time>
      </trkpt>
      <trkpt lat="42.59469" lon="22.99622">
        <ele>739.844221</ele>
        <time>2022-04-05T07:37:05.216Z</time>
      </trkpt>
      <trkpt lat="42.59475" lon="22.99613">
        <ele>740.493132</ele>
        <time>2022-04-05T07:37:09.237Z</time>
      </trkpt>
      <trkpt lat="42.59483" lon="22.99604">
        <ele>741.241041</ele>
        <time>2022-04-05T07:37:14.214Z</time>
      </trkpt>
      <trkpt lat="42.59491" lon="22.99594">
        <ele>741.975261</ele>
        <time>2022-04-05T07:37:19.244Z</time>
      </trkpt>
      <trkpt lat="42.59499" lon="22.99586">
        <ele>742.709411</ele>
        <time>2022-04-05T07:37:24.222Z</time>
      </trkpt>
      <trkpt lat="42.59507" lon="22.99577">
        <ele>743.450001</ele>
        <time>2022-04-05T07:37:29.208Z</time>
      </trkpt>
      <trkpt lat="42.59514" lon="22.99567">
        <ele>744.129104</ele>
        <time>2022-04-05T07:37:35.272Z</time>
      </trkpt>
      <trkpt lat="42.59521" lon="22.99557">
        <ele>744.856939</ele>
        <time>2022-04-05T07:37:40.232Z</time>
      </trkpt>
      <trkpt lat="42.59528" lon="22.99546">
        <ele>745.616829</ele>
        <time>2022-04-05T07:37:45.230Z</time>
      </trkpt>
      <trkpt lat="42.59535" lon="22.99535">
        <ele>746.353937</ele>
        <time>2022-04-05T07:37:50.220Z</time>
      </trkpt>
      <trkpt lat="42.59542" lon="22.99524">
        <ele>747.118496</ele>
        <time>2022-04-05T07:37:55.231Z</time>
      </trkpt>
      <trkpt lat="42.59548" lon="22.99514">
        <ele>747.805619</ele>
        <time>2022-04-05T07:37:59.244Z</time>
      </trkpt>
      <trkpt lat="42.59555" lon="22.99503">
        <ele>748.525114</ele>
        <time>2022-04-05T07:38:03.206Z</time>
      </trkpt>
      <trkpt lat="42.59561" lon="22.9949">
        <ele>749.34924</ele>
        <time>2022-04-05T07:38:07.219Z</time>
      </trkpt>
      <trkpt lat="42.59566" lon="22.99479">
        <ele>750.04215</ele>
        <time>2022-04-05T07:38:11.224Z</time>
      </trkpt>
      <trkpt lat="42.59572" lon="22.99467">
        <ele>750.781571</ele>
        <time>2022-04-05T07:38:15.224Z</time>
      </trkpt>
      <trkpt lat="42.59577" lon="22.99454">
        <ele>750.520141</ele>
        <time>2022-04-05T07:38:19.248Z</time>
      </trkpt>
      <trkpt lat="42.59581" lon="22.99441">
        <ele>749.963006</ele>
        <time>2022-04-05T07:38:23.218Z</time>
      </trkpt>
      <trkpt lat="42.59585" lon="22.99427">
        <ele>749.407849</ele>
        <time>2022-04-05T07:38:27.278Z</time>
      </trkpt>
      <trkpt lat="42.59589" lon="22.99413">
        <ele>748.840393</ele>
        <time>2022-04-05T07:38:31.226Z</time>
      </trkpt>
      <trkpt lat="42.59592" lon="22.99398">
        <ele>748.238007</ele>
        <time>2022-04-05T07:38:35.234Z</time>
      </trkpt>
      <trkpt lat="42.59594" lon="22.99385">
        <ele>747.727627</ele>
        <time>2022-04-05T07:38:38.228Z</time>
      </trkpt>
      <trkpt lat="42.59596" lon="22.99372">
        <ele>747.216419</ele>
        <time>2022-04-05T07:38:41.222Z</time>
      </trkpt>
      <trkpt lat="42.59597" lon="22.99358">
        <ele>746.699306</ele>
        <time>2022-04-05T07:38:44.221Z</time>
      </trkpt>
      <trkpt lat="42.59597" lon="22.99344">
        <ele>746.168815</ele>
        <time>2022-04-05T07:38:47.225Z</time>
      </trkpt>
      <trkpt lat="42.59597" lon="22.9933">
        <ele>745.604193</ele>
        <time>2022-04-05T07:38:50.212Z</time>
      </trkpt>
      <trkpt lat="42.59597" lon="22.99314">
        <ele>744.997544</ele>
        <time>2022-04-05T07:38:53.228Z</time>
      </trkpt>
      <trkpt lat="42.59596" lon="22.99296">
        <ele>744.309914</ele>
        <time>2022-04-05T07:38:56.234Z</time>
      </trkpt>
      <trkpt lat="42.59596" lon="22.99283">
        <ele>743.804199</ele>
        <time>2022-04-05T07:38:58.223Z</time>
      </trkpt>
      <trkpt lat="42.59594" lon="22.99269">
        <ele>743.296152</ele>
        <time>2022-04-05T07:39:00.227Z</time>
      </trkpt>
      <trkpt lat="42.59593" lon="22.99256">
        <ele>742.763213</ele>
        <time>2022-04-05T07:39:02.273Z</time>
      </trkpt>
      <trkpt lat="42.5959" lon="22.99241">
        <ele>742.189903</ele>
        <time>2022-04-05T07:39:04.234Z</time>
      </trkpt>
      <trkpt lat="42.59588" lon="22.99226">
        <ele>741.614864</ele>
        <time>2022-04-05T07:39:06.225Z</time>
      </trkpt>
      <trkpt lat="42.59585" lon="22.99209">
        <ele>741.110361</ele>
        <time>2022-04-05T07:39:08.214Z</time>
      </trkpt>
      <trkpt lat="42.59583" lon="22.99192">
        <ele>740.577977</ele>
        <time>2022-04-05T07:39:10.215Z</time>
      </trkpt>
      <trkpt lat="42.5958" lon="22.99173">
        <ele>739.998522</ele>
        <time>2022-04-05T07:39:12.212Z</time>
      </trkpt>
      <trkpt lat="42.59576" lon="22.99153">
        <ele>739.382584</ele>
        <time>2022-04-05T07:39:14.224Z</time>
      </trkpt>
      <trkpt lat="42.59572" lon="22.99132">
        <ele>738.751116</ele>
        <time>2022-04-05T07:39:16.226Z</time>
      </trkpt>
      <trkpt lat="42.59568" lon="22.99111">
        <ele>738.096361</ele>
        <time>2022-04-05T07:39:18.227Z</time>
      </trkpt>
      <trkpt lat="42.59563" lon="22.99089">
        <ele>737.407881</ele>
        <time>2022-04-05T07:39:20.224Z</time>
      </trkpt>
      <trkpt lat="42.59559" lon="22.99066">
        <ele>736.698228</ele>
        <time>2022-04-05T07:39:22.216Z</time>
      </trkpt>
      <trkpt lat="42.59554" lon="22.99042">
        <ele>735.976019</ele>
        <time>2022-04-05T07:39:24.343Z</time>
      </trkpt>
      <trkpt lat="42.59551" lon="22.9903">
        <ele>735.601818</ele>
        <time>2022-04-05T07:39:25.260Z</time>
      </trkpt>
      <trkpt lat="42.59549" lon="22.99018">
        <ele>735.224749</ele>
        <time>2022-04-05T07:39:26.243Z</time>
      </trkpt>
      <trkpt lat="42.59546" lon="22.99006">
        <ele>734.84194</ele>
        <time>2022-04-05T07:39:27.226Z</time>
      </trkpt>
      <trkpt lat="42.59544" lon="22.98994">
        <ele>734.466959</ele>
        <time>2022-04-05T07:39:28.202Z</time>
      </trkpt>
      <trkpt lat="42.59542" lon="22.98981">
        <ele>734.239801</ele>
        <time>2022-04-05T07:39:29.242Z</time>
      </trkpt>
      <trkpt lat="42.59539" lon="22.98969">
        <ele>734.072316</ele>
        <time>2022-04-05T07:39:30.214Z</time>
      </trkpt>
      <trkpt lat="42.59537" lon="22.98956">
        <ele>733.901472</ele>
        <time>2022-04-05T07:39:31.227Z</time>
      </trkpt>
      <trkpt lat="42.59534" lon="22.98943">
        <ele>733.733844</ele>
        <time>2022-04-05T07:39:32.207Z</time>
      </trkpt>
      <trkpt lat="42.59532" lon="22.9893">
        <ele>733.561768</ele>
        <time>2022-04-05T07:39:33.261Z</time>
      </trkpt>
      <trkpt lat="42.59529" lon="22.98917">
        <ele>733.391807</ele>
        <time>2022-04-05T07:39:34.231Z</time>
      </trkpt>
      <trkpt lat="42.59527" lon="22.98904">
        <ele>733.219368</ele>
        <time>2022-04-05T07:39:35.235Z</time>
      </trkpt>
      <trkpt lat="42.59525" lon="22.98891">
        <ele>733.052711</ele>
        <time>2022-04-05T07:39:36.269Z</time>
      </trkpt>
      <trkpt lat="42.59522" lon="22.98879">
        <ele>732.886055</ele>
        <time>2022-04-05T07:39:37.222Z</time>
      </trkpt>
      <trkpt lat="42.5952" lon="22.98866">
        <ele>732.71651</ele>
        <time>2022-04-05T07:39:38.228Z</time>
      </trkpt>
      <trkpt lat="42.59518" lon="22.98853">
        <ele>732.546549</ele>
        <time>2022-04-05T07:39:39.200Z</time>
      </trkpt>
      <trkpt lat="42.59515" lon="22.9884">
        <ele>732.378246</ele>
        <time>2022-04-05T07:39:40.234Z</time>
      </trkpt>
      <trkpt lat="42.59513" lon="22.98828">
        <ele>732.213663</ele>
        <time>2022-04-05T07:39:41.227Z</time>
      </trkpt>
      <trkpt lat="42.59511" lon="22.98815">
        <ele>732.051975</ele>
        <time>2022-04-05T07:39:42.240Z</time>
      </trkpt>
      <trkpt lat="42.59509" lon="22.98803">
        <ele>731.896057</ele>
        <time>2022-04-05T07:39:43.316Z</time>
      </trkpt>
      <trkpt lat="42.59507" lon="22.98792">
        <ele>731.740516</ele>
        <time>2022-04-05T07:39:44.233Z</time>
      </trkpt>
      <trkpt lat="42.59505" lon="22.9878">
        <ele>731.584082</ele>
        <time>2022-04-05T07:39:45.234Z</time>
      </trkpt>
      <trkpt lat="42.59501" lon="22.98756">
        <ele>731.280485</ele>
        <time>2022-04-05T07:39:47.259Z</time>
      </trkpt>
      <trkpt lat="42.59497" lon="22.98734">
        <ele>731.28766</ele>
        <time>2022-04-05T07:39:49.236Z</time>
      </trkpt>
      <trkpt lat="42.59494" lon="22.98713">
        <ele>731.355096</ele>
        <time>2022-04-05T07:39:51.237Z</time>
      </trkpt>
      <trkpt lat="42.5949" lon="22.98692">
        <ele>731.42065</ele>
        <time>2022-04-05T07:39:53.233Z</time>
      </trkpt>
      <trkpt lat="42.59487" lon="22.98672">
        <ele>731.482631</ele>
        <time>2022-04-05T07:39:55.221Z</time>
      </trkpt>
      <trkpt lat="42.59483" lon="22.98654">
        <ele>731.540949</ele>
        <time>2022-04-05T07:39:57.208Z</time>
      </trkpt>
      <trkpt lat="42.59481" lon="22.98637">
        <ele>731.594228</ele>
        <time>2022-04-05T07:39:59.207Z</time>
      </trkpt>
      <trkpt lat="42.59478" lon="22.98621">
        <ele>731.643057</ele>
        <time>2022-04-05T07:40:01.209Z</time>
      </trkpt>
      <trkpt lat="42.59476" lon="22.98607">
        <ele>731.687319</ele>
        <time>2022-04-05T07:40:03.225Z</time>
      </trkpt>
      <trkpt lat="42.59473" lon="22.98594">
        <ele>731.728712</ele>
        <time>2022-04-05T07:40:05.235Z</time>
      </trkpt>
      <trkpt lat="42.5947" lon="22.98577">
        <ele>731.782574</ele>
        <time>2022-04-05T07:40:08.210Z</time>
      </trkpt>
      <trkpt lat="42.59467" lon="22.9856">
        <ele>731.834656</ele>
        <time>2022-04-05T07:40:11.221Z</time>
      </trkpt>
      <trkpt lat="42.59464" lon="22.98544">
        <ele>731.884755</ele>
        <time>2022-04-05T07:40:14.223Z</time>
      </trkpt>
      <trkpt lat="42.59461" lon="22.98529">
        <ele>731.932484</ele>
        <time>2022-04-05T07:40:17.219Z</time>
      </trkpt>
      <trkpt lat="42.59459" lon="22.98514">
        <ele>731.991418</ele>
        <time>2022-04-05T07:40:20.268Z</time>
      </trkpt>
      <trkpt lat="42.59456" lon="22.985">
        <ele>732.415576</ele>
        <time>2022-04-05T07:40:23.225Z</time>
      </trkpt>
      <trkpt lat="42.59453" lon="22.98487">
        <ele>732.822354</ele>
        <time>2022-04-05T07:40:26.221Z</time>
      </trkpt>
      <trkpt lat="42.5945" lon="22.98475">
        <ele>733.200881</ele>
        <time>2022-04-05T07:40:29.275Z</time>
      </trkpt>
      <trkpt lat="42.59449" lon="22.98462">
        <ele>733.577702</ele>
        <time>2022-04-05T07:40:32.243Z</time>
      </trkpt>
      <trkpt lat="42.59446" lon="22.98447">
        <ele>734.045328</ele>
        <time>2022-04-05T07:40:36.228Z</time>
      </trkpt>
      <trkpt lat="42.59443" lon="22.98431">
        <ele>734.507243</ele>
        <time>2022-04-05T07:40:40.226Z</time>
      </trkpt>
      <trkpt lat="42.5944" lon="22.98416">
        <ele>734.975805</ele>
        <time>2022-04-05T07:40:44.220Z</time>
      </trkpt>
      <trkpt lat="42.59438" lon="22.98401">
        <ele>735.424434</ele>
        <time>2022-04-05T07:40:48.221Z</time>
      </trkpt>
      <trkpt lat="42.59435" lon="22.98386">
        <ele>735.870221</ele>
        <time>2022-04-05T07:40:52.221Z</time>
      </trkpt>
      <trkpt lat="42.59432" lon="22.98371">
        <ele>736.327477</ele>
        <time>2022-04-05T07:40:56.230Z</time>
      </trkpt>
      <trkpt lat="42.5943" lon="22.98357">
        <ele>736.771334</ele>
        <time>2022-04-05T07:41:00.222Z</time>
      </trkpt>
      <trkpt lat="42.59428" lon="22.98343">
        <ele>737.17643</ele>
        <time>2022-04-05T07:41:04.201Z</time>
      </trkpt>
      <trkpt lat="42.59425" lon="22.9833">
        <ele>737.57943</ele>
        <time>2022-04-05T07:41:08.234Z</time>
      </trkpt>
      <trkpt lat="42.59422" lon="22.98316">
        <ele>737.995811</ele>
        <time>2022-04-05T07:41:12.233Z</time>
      </trkpt>
      <trkpt lat="42.5942" lon="22.98302">
        <ele>738.433077</ele>
        <time>2022-04-05T07:41:16.248Z</time>
      </trkpt>
      <trkpt lat="42.59417" lon="22.98288">
        <ele>738.861834</ele>
        <time>2022-04-05T07:41:20.246Z</time>
      </trkpt>
      <trkpt lat="42.59414" lon="22.98275">
        <ele>739.247973</ele>
        <time>2022-04-05T07:41:24.210Z</time>
      </trkpt>
      <trkpt lat="42.59411" lon="22.9826">
        <ele>739.651144</ele>
        <time>2022-04-05T07:41:29.245Z</time>
      </trkpt>
      <trkpt lat="42.59408" lon="22.98245">
        <ele>740.060445</ele>
        <time>2022-04-05T07:41:34.225Z</time>
      </trkpt>
      <trkpt lat="42.59406" lon="22.98232">
        <ele>740.442676</ele>
        <time>2022-04-05T07:41:39.263Z</time>
      </trkpt>
      <trkpt lat="42.59403" lon="22.98218">
        <ele>740.834714</ele>
        <time>2022-04-05T07:41:44.207Z</time>
      </trkpt>
      <trkpt lat="42.59401" lon="22.98204">
        <ele>741.225662</ele>
        <time>2022-04-05T07:41:49.228Z</time>
      </trkpt>
      <trkpt lat="42.59397" lon="22.98188">
        <ele>741.651818</ele>
        <time>2022-04-05T07:41:54.221Z</time>
      </trkpt>
      <trkpt lat="42.59395" lon="22.98176">
        <ele>741.984303</ele>
        <time>2022-04-05T07:41:58.246Z</time>
      </trkpt>
      <trkpt lat="42.59393" lon="22.98163">
        <ele>742.354599</ele>
        <time>2022-04-05T07:42:03.235Z</time>
      </trkpt>
      <trkpt lat="42.5939" lon="22.9815">
        <ele>742.728509</ele>
        <time>2022-04-05T07:42:08.232Z</time>
      </trkpt>
      <trkpt lat="42.59387" lon="22.98135">
        <ele>743.136039</ele>
        <time>2022-04-05T07:42:13.276Z</time>
      </trkpt>
      <trkpt lat="42.59385" lon="22.98121">
        <ele>743.534393</ele>
        <time>2022-04-05T07:42:18.231Z</time>
      </trkpt>
      <trkpt lat="42.59383" lon="22.98106">
        <ele>743.944037</ele>
        <time>2022-04-05T07:42:23.237Z</time>
      </trkpt>
      <trkpt lat="42.59382" lon="22.98093">
        <ele>744.278034</ele>
        <time>2022-04-05T07:42:27.244Z</time>
      </trkpt>
      <trkpt lat="42.59379" lon="22.98079">
        <ele>744.689947</ele>
        <time>2022-04-05T07:42:32.236Z</time>
      </trkpt>
      <trkpt lat="42.59376" lon="22.98067">
        <ele>745.027138</ele>
        <time>2022-04-05T07:42:36.255Z</time>
      </trkpt>
      <trkpt lat="42.59373" lon="22.98054">
        <ele>745.396954</ele>
        <time>2022-04-05T07:42:41.219Z</time>
      </trkpt>
      <trkpt lat="42.59371" lon="22.98041">
        <ele>745.73382</ele>
        <time>2022-04-05T07:42:46.257Z</time>
      </trkpt>
      <trkpt lat="42.59369" lon="22.98029">
        <ele>746.274748</ele>
        <time>2022-04-05T07:42:51.214Z</time>
      </trkpt>
      <trkpt lat="42.59367" lon="22.98016">
        <ele>746.814723</ele>
        <time>2022-04-05T07:42:56.241Z</time>
      </trkpt>
      <trkpt lat="42.59365" lon="22.98004">
        <ele>747.326276</ele>
        <time>2022-04-05T07:43:01.230Z</time>
      </trkpt>
      <trkpt lat="42.59362" lon="22.97992">
        <ele>747.860029</ele>
        <time>2022-04-05T07:43:06.231Z</time>
      </trkpt>
      <trkpt lat="42.59359" lon="22.97978">
        <ele>748.47473</ele>
        <time>2022-04-05T07:43:11.239Z</time>
      </trkpt>
      <trkpt lat="42.59355" lon="22.97965">
        <ele>749.044028</ele>
        <time>2022-04-05T07:43:16.232Z</time>
      </trkpt>
      <trkpt lat="42.59352" lon="22.97952">
        <ele>749.59538</ele>
        <time>2022-04-05T07:43:21.216Z</time>
      </trkpt>
      <trkpt lat="42.59348" lon="22.9794">
        <ele>750.161362</ele>
        <time>2022-04-05T07:43:26.216Z</time>
      </trkpt>
      <trkpt lat="42.59344" lon="22.97929">
        <ele>750.683728</ele>
        <time>2022-04-05T07:43:31.268Z</time>
      </trkpt>
      <trkpt lat="42.5934" lon="22.97916">
        <ele>751.261464</ele>
        <time>2022-04-05T07:43:36.213Z</time>
      </trkpt>
      <trkpt lat="42.59335" lon="22.97904">
        <ele>751.844906</ele>
        <time>2022-04-05T07:43:41.227Z</time>
      </trkpt>
      <trkpt lat="42.59331" lon="22.97891">
        <ele>752.417348</ele>
        <time>2022-04-05T07:43:46.235Z</time>
      </trkpt>
      <trkpt lat="42.59326" lon="22.97879">
        <ele>752.999554</ele>
        <time>2022-04-05T07:43:51.250Z</time>
      </trkpt>
      <trkpt lat="42.59322" lon="22.97867">
        <ele>753.569521</ele>
        <time>2022-04-05T07:43:56.234Z</time>
      </trkpt>
      <trkpt lat="42.59317" lon="22.97855">
        <ele>754.108427</ele>
        <time>2022-04-05T07:44:01.238Z</time>
      </trkpt>
      <trkpt lat="42.59312" lon="22.97844">
        <ele>754.641159</ele>
        <time>2022-04-05T07:44:06.215Z</time>
      </trkpt>
      <trkpt lat="42.59306" lon="22.97832">
        <ele>755.248698</ele>
        <time>2022-04-05T07:44:12.248Z</time>
      </trkpt>
      <trkpt lat="42.59302" lon="22.97821">
        <ele>755.783522</ele>
        <time>2022-04-05T07:44:17.211Z</time>
      </trkpt>
      <trkpt lat="42.59298" lon="22.97809">
        <ele>756.198175</ele>
        <time>2022-04-05T07:44:22.243Z</time>
      </trkpt>
      <trkpt lat="42.59293" lon="22.97796">
        <ele>756.595794</ele>
        <time>2022-04-05T07:44:28.224Z</time>
      </trkpt>
      <trkpt lat="42.59287" lon="22.97783">
        <ele>756.987215</ele>
        <time>2022-04-05T07:44:34.260Z</time>
      </trkpt>
      <trkpt lat="42.59282" lon="22.97773">
        <ele>757.322681</ele>
        <time>2022-04-05T07:44:39.215Z</time>
      </trkpt>
      <trkpt lat="42.59277" lon="22.97763">
        <ele>757.660361</ele>
        <time>2022-04-05T07:44:44.225Z</time>
      </trkpt>
      <trkpt lat="42.59271" lon="22.97753">
        <ele>758.013353</ele>
        <time>2022-04-05T07:44:49.229Z</time>
      </trkpt>
      <trkpt lat="42.59266" lon="22.97741">
        <ele>758.39902</ele>
        <time>2022-04-05T07:44:55.233Z</time>
      </trkpt>
      <trkpt lat="42.5926" lon="22.97729">
        <ele>758.759518</ele>
        <time>2022-04-05T07:45:00.245Z</time>
      </trkpt>
      <trkpt lat="42.59255" lon="22.97718">
        <ele>759.144033</ele>
        <time>2022-04-05T07:45:05.221Z</time>
      </trkpt>
      <trkpt lat="42.59249" lon="22.97706">
        <ele>759.528274</ele>
        <time>2022-04-05T07:45:10.226Z</time>
      </trkpt>
      <trkpt lat="42.59243" lon="22.97693">
        <ele>759.933651</ele>
        <time>2022-04-05T07:45:15.258Z</time>
      </trkpt>
      <trkpt lat="42.59238" lon="22.9768">
        <ele>760.33056</ele>
        <time>2022-04-05T07:45:20.225Z</time>
      </trkpt>
      <trkpt lat="42.59234" lon="22.97668">
        <ele>760.690734</ele>
        <time>2022-04-05T07:45:24.244Z</time>
      </trkpt>
      <trkpt lat="42.5923" lon="22.97657">
        <ele>761.040507</ele>
        <time>2022-04-05T07:45:28.226Z</time>
      </trkpt>
      <trkpt lat="42.59225" lon="22.97646">
        <ele>761.376673</ele>
        <time>2022-04-05T07:45:32.240Z</time>
      </trkpt>
      <trkpt lat="42.59219" lon="22.97635">
        <ele>761.742831</ele>
        <time>2022-04-05T07:45:36.316Z</time>
      </trkpt>
      <trkpt lat="42.59214" lon="22.97625">
        <ele>762.082056</ele>
        <time>2022-04-05T07:45:40.225Z</time>
      </trkpt>
      <trkpt lat="42.5921" lon="22.97613">
        <ele>762.437243</ele>
        <time>2022-04-05T07:45:44.221Z</time>
      </trkpt>
      <trkpt lat="42.59205" lon="22.97602">
        <ele>762.60277</ele>
        <time>2022-04-05T07:45:48.221Z</time>
      </trkpt>
      <trkpt lat="42.592" lon="22.9759">
        <ele>762.660153</ele>
        <time>2022-04-05T07:45:52.216Z</time>
      </trkpt>
      <trkpt lat="42.59194" lon="22.97579">
        <ele>762.715797</ele>
        <time>2022-04-05T07:45:56.227Z</time>
      </trkpt>
      <trkpt lat="42.59189" lon="22.97567">
        <ele>762.77787</ele>
        <time>2022-04-05T07:46:01.235Z</time>
      </trkpt>
      <trkpt lat="42.59184" lon="22.97556">
        <ele>762.830589</ele>
        <time>2022-04-05T07:46:05.239Z</time>
      </trkpt>
      <trkpt lat="42.59179" lon="22.97544">
        <ele>762.886731</ele>
        <time>2022-04-05T07:46:09.260Z</time>
      </trkpt>
      <trkpt lat="42.59174" lon="22.97533">
        <ele>762.942277</ele>
        <time>2022-04-05T07:46:13.238Z</time>
      </trkpt>
      <trkpt lat="42.5917" lon="22.97522">
        <ele>762.996024</ele>
        <time>2022-04-05T07:46:17.226Z</time>
      </trkpt>
      <trkpt lat="42.59164" lon="22.97511">
        <ele>763.053656</ele>
        <time>2022-04-05T07:46:21.223Z</time>
      </trkpt>
      <trkpt lat="42.59159" lon="22.97499">
        <ele>763.111341</ele>
        <time>2022-04-05T07:46:25.231Z</time>
      </trkpt>
      <trkpt lat="42.59154" lon="22.97488">
        <ele>763.167953</ele>
        <time>2022-04-05T07:46:29.208Z</time>
      </trkpt>
      <trkpt lat="42.59148" lon="22.97477">
        <ele>763.223237</ele>
        <time>2022-04-05T07:46:33.209Z</time>
      </trkpt>
      <trkpt lat="42.59143" lon="22.97465">
        <ele>763.280325</ele>
        <time>2022-04-05T07:46:37.229Z</time>
      </trkpt>
      <trkpt lat="42.59138" lon="22.97453">
        <ele>763.339453</ele>
        <time>2022-04-05T07:46:41.301Z</time>
      </trkpt>
      <trkpt lat="42.59133" lon="22.97442">
        <ele>763.395158</ele>
        <time>2022-04-05T07:46:45.244Z</time>
      </trkpt>
      <trkpt lat="42.59127" lon="22.9743">
        <ele>763.452714</ele>
        <time>2022-04-05T07:46:49.218Z</time>
      </trkpt>
      <trkpt lat="42.59122" lon="22.97419">
        <ele>763.508897</ele>
        <time>2022-04-05T07:46:53.222Z</time>
      </trkpt>
      <trkpt lat="42.59117" lon="22.97407">
        <ele>763.568096</ele>
        <time>2022-04-05T07:46:57.212Z</time>
      </trkpt>
      <trkpt lat="42.59111" lon="22.97394">
        <ele>763.724969</ele>
        <time>2022-04-05T07:47:01.228Z</time>
      </trkpt>
      <trkpt lat="42.59105" lon="22.9738">
        <ele>763.970724</ele>
        <time>2022-04-05T07:47:05.242Z</time>
      </trkpt>
      <trkpt lat="42.591" lon="22.97366">
        <ele>764.225964</ele>
        <time>2022-04-05T07:47:09.210Z</time>
      </trkpt>
      <trkpt lat="42.59095" lon="22.97355">
        <ele>764.419926</ele>
        <time>2022-04-05T07:47:12.220Z</time>
      </trkpt>
      <trkpt lat="42.59089" lon="22.97342">
        <ele>764.660828</ele>
        <time>2022-04-05T07:47:16.240Z</time>
      </trkpt>
      <trkpt lat="42.59083" lon="22.97329">
        <ele>764.908242</ele>
        <time>2022-04-05T07:47:20.226Z</time>
      </trkpt>
      <trkpt lat="42.59076" lon="22.97316">
        <ele>765.156728</ele>
        <time>2022-04-05T07:47:24.277Z</time>
      </trkpt>
      <trkpt lat="42.5907" lon="22.97303">
        <ele>765.39645</ele>
        <time>2022-04-05T07:47:28.223Z</time>
      </trkpt>
      <trkpt lat="42.59064" lon="22.97291">
        <ele>765.625504</ele>
        <time>2022-04-05T07:47:32.245Z</time>
      </trkpt>
      <trkpt lat="42.59059" lon="22.97279">
        <ele>765.84376</ele>
        <time>2022-04-05T07:47:36.237Z</time>
      </trkpt>
      <trkpt lat="42.59055" lon="22.97266">
        <ele>766.057365</ele>
        <time>2022-04-05T07:47:40.224Z</time>
      </trkpt>
      <trkpt lat="42.59051" lon="22.97254">
        <ele>766.272454</ele>
        <time>2022-04-05T07:47:44.223Z</time>
      </trkpt>
      <trkpt lat="42.59045" lon="22.97241">
        <ele>766.507475</ele>
        <time>2022-04-05T07:47:48.240Z</time>
      </trkpt>
      <trkpt lat="42.59039" lon="22.97228">
        <ele>766.750887</ele>
        <time>2022-04-05T07:47:52.274Z</time>
      </trkpt>
      <trkpt lat="42.59033" lon="22.97215">
        <ele>766.981054</ele>
        <time>2022-04-05T07:47:56.222Z</time>
      </trkpt>
      <trkpt lat="42.59028" lon="22.97204">
        <ele>767.193127</ele>
        <time>2022-04-05T07:48:00.223Z</time>
      </trkpt>
      <trkpt lat="42.59023" lon="22.97191">
        <ele>767.424868</ele>
        <time>2022-04-05T07:48:04.227Z</time>
      </trkpt>
      <trkpt lat="42.59018" lon="22.97178">
        <ele>767.925466</ele>
        <time>2022-04-05T07:48:08.220Z</time>
      </trkpt>
      <trkpt lat="42.59013" lon="22.97166">
        <ele>768.411736</ele>
        <time>2022-04-05T07:48:12.217Z</time>
      </trkpt>
      <trkpt lat="42.59009" lon="22.97155">
        <ele>768.85399</ele>
        <time>2022-04-05T07:48:16.233Z</time>
      </trkpt>
      <trkpt lat="42.59005" lon="22.97144">
        <ele>769.2914</ele>
        <time>2022-04-05T07:48:20.226Z</time>
      </trkpt>
      <trkpt lat="42.59001" lon="22.97132">
        <ele>769.764338</ele>
        <time>2022-04-05T07:48:25.237Z</time>
      </trkpt>
      <trkpt lat="42.58996" lon="22.9712">
        <ele>770.248941</ele>
        <time>2022-04-05T07:48:30.225Z</time>
      </trkpt>
      <trkpt lat="42.58992" lon="22.97107">
        <ele>770.742024</ele>
        <time>2022-04-05T07:48:35.224Z</time>
      </trkpt>
      <trkpt lat="42.58988" lon="22.97096">
        <ele>771.184472</ele>
        <time>2022-04-05T07:48:40.217Z</time>
      </trkpt>
      <trkpt lat="42.58985" lon="22.97083">
        <ele>771.643422</ele>
        <time>2022-04-05T07:48:45.226Z</time>
      </trkpt>
      <trkpt lat="42.58983" lon="22.97071">
        <ele>772.084693</ele>
        <time>2022-04-05T07:48:50.257Z</time>
      </trkpt>
      <trkpt lat="42.58979" lon="22.97058">
        <ele>772.595505</ele>
        <time>2022-04-05T07:48:56.235Z</time>
      </trkpt>
      <trkpt lat="42.58977" lon="22.97044">
        <ele>773.111791</ele>
        <time>2022-04-05T07:49:02.222Z</time>
      </trkpt>
      <trkpt lat="42.58974" lon="22.97032">
        <ele>773.550022</ele>
        <time>2022-04-05T07:49:07.237Z</time>
      </trkpt>
      <trkpt lat="42.5897" lon="22.97018">
        <ele>774.057343</ele>
        <time>2022-04-05T07:49:13.223Z</time>
      </trkpt>
      <trkpt lat="42.58967" lon="22.97007">
        <ele>774.504653</ele>
        <time>2022-04-05T07:49:18.266Z</time>
      </trkpt>
      <trkpt lat="42.58963" lon="22.96994">
        <ele>774.997026</ele>
        <time>2022-04-05T07:49:24.227Z</time>
      </trkpt>
      <trkpt lat="42.58961" lon="22.9698">
        <ele>775.486893</ele>
        <time>2022-04-05T07:49:30.206Z</time>
      </trkpt>
      <trkpt lat="42.58957" lon="22.96968">
        <ele>775.953064</ele>
        <time>2022-04-05T07:49:35.244Z</time>
      </trkpt>
      <trkpt lat="42.58954" lon="22.96956">
        <ele>776.436705</ele>
        <time>2022-04-05T07:49:40.237Z</time>
      </trkpt>
      <trkpt lat="42.58951" lon="22.96943">
        <ele>777.021916</ele>
        <time>2022-04-05T07:49:46.255Z</time>
      </trkpt>
      <trkpt lat="42.58947" lon="22.96928">
        <ele>777.6335</ele>
        <time>2022-04-05T07:49:52.215Z</time>
      </trkpt>
      <trkpt lat="42.58944" lon="22.96917">
        <ele>778.14845</ele>
        <time>2022-04-05T07:49:57.255Z</time>
      </trkpt>
      <trkpt lat="42.5894" lon="22.96905">
        <ele>778.670763</ele>
        <time>2022-04-05T07:50:02.225Z</time>
      </trkpt>
      <trkpt lat="42.58937" lon="22.96893">
        <ele>779.189282</ele>
        <time>2022-04-05T07:50:07.214Z</time>
      </trkpt>
      <trkpt lat="42.58933" lon="22.96881">
        <ele>779.694453</ele>
        <time>2022-04-05T07:50:12.226Z</time>
      </trkpt>
      <trkpt lat="42.58929" lon="22.96868">
        <ele>780.256666</ele>
        <time>2022-04-05T07:50:18.245Z</time>
      </trkpt>
      <trkpt lat="42.58926" lon="22.96856">
        <ele>780.777135</ele>
        <time>2022-04-05T07:50:23.230Z</time>
      </trkpt>
      <trkpt lat="42.58922" lon="22.96845">
        <ele>781.293142</ele>
        <time>2022-04-05T07:50:28.248Z</time>
      </trkpt>
      <trkpt lat="42.58919" lon="22.96833">
        <ele>781.796527</ele>
        <time>2022-04-05T07:50:33.212Z</time>
      </trkpt>
      <trkpt lat="42.58914" lon="22.96821">
        <ele>782.328357</ele>
        <time>2022-04-05T07:50:38.237Z</time>
      </trkpt>
      <trkpt lat="42.58912" lon="22.96808">
        <ele>782.90149</ele>
        <time>2022-04-05T07:50:43.204Z</time>
      </trkpt>
      <trkpt lat="42.58908" lon="22.96795">
        <ele>783.457992</ele>
        <time>2022-04-05T07:50:48.205Z</time>
      </trkpt>
      <trkpt lat="42.58905" lon="22.96781">
        <ele>784.056883</ele>
        <time>2022-04-05T07:50:54.209Z</time>
      </trkpt>
      <trkpt lat="42.58902" lon="22.96769">
        <ele>784.556602</ele>
        <time>2022-04-05T07:50:58.220Z</time>
      </trkpt>
      <trkpt lat="42.58897" lon="22.96755">
        <ele>785.169496</ele>
        <time>2022-04-05T07:51:02.231Z</time>
      </trkpt>
      <trkpt lat="42.58893" lon="22.96743">
        <ele>785.729366</ele>
        <time>2022-04-05T07:51:06.217Z</time>
      </trkpt>
      <trkpt lat="42.58888" lon="22.96729">
        <ele>785.904555</ele>
        <time>2022-04-05T07:51:10.220Z</time>
      </trkpt>
      <trkpt lat="42.58884" lon="22.96716">
        <ele>785.79975</ele>
        <time>2022-04-05T07:51:14.249Z</time>
      </trkpt>
      <trkpt lat="42.58882" lon="22.96704">
        <ele>785.709795</ele>
        <time>2022-04-05T07:51:18.220Z</time>
      </trkpt>
      <trkpt lat="42.58877" lon="22.96692">
        <ele>785.604017</ele>
        <time>2022-04-05T07:51:24.234Z</time>
      </trkpt>
      <trkpt lat="42.58873" lon="22.96681">
        <ele>785.514013</ele>
        <time>2022-04-05T07:51:27.212Z</time>
      </trkpt>
      <trkpt lat="42.5887" lon="22.96669">
        <ele>785.420685</ele>
        <time>2022-04-05T07:51:30.220Z</time>
      </trkpt>
      <trkpt lat="42.58865" lon="22.96655">
        <ele>785.306713</ele>
        <time>2022-04-05T07:51:33.226Z</time>
      </trkpt>
      <trkpt lat="42.58861" lon="22.9664">
        <ele>785.191241</ele>
        <time>2022-04-05T07:51:36.260Z</time>
      </trkpt>
      <trkpt lat="42.58858" lon="22.96627">
        <ele>785.084744</ele>
        <time>2022-04-05T07:51:39.228Z</time>
      </trkpt>
      <trkpt lat="42.58855" lon="22.96613">
        <ele>784.981648</ele>
        <time>2022-04-05T07:51:42.237Z</time>
      </trkpt>
      <trkpt lat="42.58852" lon="22.966">
        <ele>784.875878</ele>
        <time>2022-04-05T07:51:45.224Z</time>
      </trkpt>
      <trkpt lat="42.58849" lon="22.96587">
        <ele>784.779801</ele>
        <time>2022-04-05T07:51:48.224Z</time>
      </trkpt>
      <trkpt lat="42.58845" lon="22.96574">
        <ele>784.676705</ele>
        <time>2022-04-05T07:51:51.227Z</time>
      </trkpt>
      <trkpt lat="42.58842" lon="22.9656">
        <ele>784.56611</ele>
        <time>2022-04-05T07:51:54.228Z</time>
      </trkpt>
      <trkpt lat="42.58838" lon="22.96545">
        <ele>784.450271</ele>
        <time>2022-04-05T07:51:57.225Z</time>
      </trkpt>
      <trkpt lat="42.58833" lon="22.96532">
        <ele>784.33948</ele>
        <time>2022-04-05T07:52:00.237Z</time>
      </trkpt>
      <trkpt lat="42.58828" lon="22.96518">
        <ele>784.226688</ele>
        <time>2022-04-05T07:52:03.238Z</time>
      </trkpt>
      <trkpt lat="42.58823" lon="22.96505">
        <ele>784.183161</ele>
        <time>2022-04-05T07:52:06.233Z</time>
      </trkpt>
      <trkpt lat="42.58818" lon="22.96492">
        <ele>784.225655</ele>
        <time>2022-04-05T07:52:09.222Z</time>
      </trkpt>
      <trkpt lat="42.58813" lon="22.96479">
        <ele>784.268037</ele>
        <time>2022-04-05T07:52:12.222Z</time>
      </trkpt>
      <trkpt lat="42.58807" lon="22.96466">
        <ele>784.311708</ele>
        <time>2022-04-05T07:52:15.231Z</time>
      </trkpt>
      <trkpt lat="42.588" lon="22.96452">
        <ele>784.359489</ele>
        <time>2022-04-05T07:52:18.208Z</time>
      </trkpt>
      <trkpt lat="42.58795" lon="22.96438">
        <ele>784.404685</ele>
        <time>2022-04-05T07:52:21.229Z</time>
      </trkpt>
      <trkpt lat="42.58789" lon="22.96425">
        <ele>784.447666</ele>
        <time>2022-04-05T07:52:24.222Z</time>
      </trkpt>
      <trkpt lat="42.58782" lon="22.96413">
        <ele>784.490271</ele>
        <time>2022-04-05T07:52:27.261Z</time>
      </trkpt>
      <trkpt lat="42.58775" lon="22.964">
        <ele>784.537711</ele>
        <time>2022-04-05T07:52:30.238Z</time>
      </trkpt>
      <trkpt lat="42.58768" lon="22.96386">
        <ele>784.584251</ele>
        <time>2022-04-05T07:52:33.219Z</time>
      </trkpt>
      <trkpt lat="42.58761" lon="22.96374">
        <ele>784.630586</ele>
        <time>2022-04-05T07:52:36.221Z</time>
      </trkpt>
      <trkpt lat="42.58753" lon="22.96362">
        <ele>784.676069</ele>
        <time>2022-04-05T07:52:39.241Z</time>
      </trkpt>
      <trkpt lat="42.58745" lon="22.96349">
        <ele>784.723432</ele>
        <time>2022-04-05T07:52:42.238Z</time>
      </trkpt>
      <trkpt lat="42.58737" lon="22.96337">
        <ele>784.770576</ele>
        <time>2022-04-05T07:52:45.236Z</time>
      </trkpt>
      <trkpt lat="42.58728" lon="22.96325">
        <ele>784.819085</ele>
        <time>2022-04-05T07:52:48.249Z</time>
      </trkpt>
      <trkpt lat="42.58719" lon="22.96314">
        <ele>784.850307</ele>
        <time>2022-04-05T07:52:51.229Z</time>
      </trkpt>
      <trkpt lat="42.5871" lon="22.96303">
        <ele>784.64163</ele>
        <time>2022-04-05T07:52:54.220Z</time>
      </trkpt>
      <trkpt lat="42.58701" lon="22.96291">
        <ele>784.43122</ele>
        <time>2022-04-05T07:52:57.205Z</time>
      </trkpt>
      <trkpt lat="42.58692" lon="22.96277">
        <ele>784.201177</ele>
        <time>2022-04-05T07:53:00.199Z</time>
      </trkpt>
      <trkpt lat="42.58686" lon="22.96268">
        <ele>784.043228</ele>
        <time>2022-04-05T07:53:02.206Z</time>
      </trkpt>
      <trkpt lat="42.5868" lon="22.96259">
        <ele>783.887377</ele>
        <time>2022-04-05T07:53:04.196Z</time>
      </trkpt>
      <trkpt lat="42.58671" lon="22.96245">
        <ele>783.661857</ele>
        <time>2022-04-05T07:53:07.222Z</time>
      </trkpt>
      <trkpt lat="42.58662" lon="22.96232">
        <ele>783.446697</ele>
        <time>2022-04-05T07:53:10.207Z</time>
      </trkpt>
      <trkpt lat="42.58653" lon="22.9622">
        <ele>783.232177</ele>
        <time>2022-04-05T07:53:13.205Z</time>
      </trkpt>
      <trkpt lat="42.58644" lon="22.96209">
        <ele>783.021074</ele>
        <time>2022-04-05T07:53:16.200Z</time>
      </trkpt>
      <trkpt lat="42.58634" lon="22.96197">
        <ele>782.796592</ele>
        <time>2022-04-05T07:53:19.200Z</time>
      </trkpt>
      <trkpt lat="42.58627" lon="22.96188">
        <ele>782.642721</ele>
        <time>2022-04-05T07:53:21.202Z</time>
      </trkpt>
      <trkpt lat="42.58621" lon="22.9618">
        <ele>782.488465</ele>
        <time>2022-04-05T07:53:23.221Z</time>
      </trkpt>
      <trkpt lat="42.58611" lon="22.96168">
        <ele>782.263566</ele>
        <time>2022-04-05T07:53:26.204Z</time>
      </trkpt>
      <trkpt lat="42.58602" lon="22.96155">
        <ele>782.052012</ele>
        <time>2022-04-05T07:53:29.198Z</time>
      </trkpt>
      <trkpt lat="42.58593" lon="22.96144">
        <ele>781.837554</ele>
        <time>2022-04-05T07:53:32.207Z</time>
      </trkpt>
      <trkpt lat="42.58584" lon="22.96132">
        <ele>781.815357</ele>
        <time>2022-04-05T07:53:35.196Z</time>
      </trkpt>
      <trkpt lat="42.58575" lon="22.96122">
        <ele>781.810231</ele>
        <time>2022-04-05T07:53:38.199Z</time>
      </trkpt>
      <trkpt lat="42.58566" lon="22.96112">
        <ele>781.805304</ele>
        <time>2022-04-05T07:53:41.216Z</time>
      </trkpt>
      <trkpt lat="42.58559" lon="22.96103">
        <ele>781.800695</ele>
        <time>2022-04-05T07:53:44.201Z</time>
      </trkpt>
      <trkpt lat="42.5855" lon="22.96094">
        <ele>781.795691</ele>
        <time>2022-04-05T07:53:47.197Z</time>
      </trkpt>
      <trkpt lat="42.58541" lon="22.96084">
        <ele>781.790696</ele>
        <time>2022-04-05T07:53:50.202Z</time>
      </trkpt>
      <trkpt lat="42.58531" lon="22.96074">
        <ele>781.78533</ele>
        <time>2022-04-05T07:53:53.211Z</time>
      </trkpt>
      <trkpt lat="42.58522" lon="22.96063">
        <ele>781.779966</ele>
        <time>2022-04-05T07:53:56.197Z</time>
      </trkpt>
      <trkpt lat="42.58513" lon="22.96053">
        <ele>781.774896</ele>
        <time>2022-04-05T07:53:59.205Z</time>
      </trkpt>
      <trkpt lat="42.58505" lon="22.96043">
        <ele>781.769943</ele>
        <time>2022-04-05T07:54:02.194Z</time>
      </trkpt>
      <trkpt lat="42.58497" lon="22.96034">
        <ele>781.765202</ele>
        <time>2022-04-05T07:54:05.200Z</time>
      </trkpt>
      <trkpt lat="42.58489" lon="22.96025">
        <ele>781.76068</ele>
        <time>2022-04-05T07:54:08.201Z</time>
      </trkpt>
      <trkpt lat="42.58482" lon="22.96016">
        <ele>781.756387</ele>
        <time>2022-04-05T07:54:11.198Z</time>
      </trkpt>
      <trkpt lat="42.58474" lon="22.96007">
        <ele>781.752011</ele>
        <time>2022-04-05T07:54:14.206Z</time>
      </trkpt>
      <trkpt lat="42.58466" lon="22.96">
        <ele>781.747649</ele>
        <time>2022-04-05T07:54:17.212Z</time>
      </trkpt>
      <trkpt lat="42.58459" lon="22.95992">
        <ele>781.743334</ele>
        <time>2022-04-05T07:54:20.205Z</time>
      </trkpt>
      <trkpt lat="42.58451" lon="22.95984">
        <ele>781.821972</ele>
        <time>2022-04-05T07:54:23.200Z</time>
      </trkpt>
      <trkpt lat="42.58443" lon="22.95976">
        <ele>782.038585</ele>
        <time>2022-04-05T07:54:26.197Z</time>
      </trkpt>
      <trkpt lat="42.58435" lon="22.95969">
        <ele>782.253421</ele>
        <time>2022-04-05T07:54:29.199Z</time>
      </trkpt>
      <trkpt lat="42.58426" lon="22.95961">
        <ele>782.471843</ele>
        <time>2022-04-05T07:54:32.208Z</time>
      </trkpt>
      <trkpt lat="42.58417" lon="22.95954">
        <ele>782.692715</ele>
        <time>2022-04-05T07:54:35.209Z</time>
      </trkpt>
      <trkpt lat="42.58408" lon="22.95948">
        <ele>782.924055</ele>
        <time>2022-04-05T07:54:38.201Z</time>
      </trkpt>
      <trkpt lat="42.58398" lon="22.95943">
        <ele>783.152751</ele>
        <time>2022-04-05T07:54:41.210Z</time>
      </trkpt>
      <trkpt lat="42.58388" lon="22.95938">
        <ele>783.387825</ele>
        <time>2022-04-05T07:54:44.201Z</time>
      </trkpt>
      <trkpt lat="42.58377" lon="22.95934">
        <ele>783.629509</ele>
        <time>2022-04-05T07:54:47.200Z</time>
      </trkpt>
      <trkpt lat="42.58366" lon="22.95931">
        <ele>783.889452</ele>
        <time>2022-04-05T07:54:50.200Z</time>
      </trkpt>
      <trkpt lat="42.58355" lon="22.95928">
        <ele>784.131455</ele>
        <time>2022-04-05T07:54:53.204Z</time>
      </trkpt>
      <trkpt lat="42.58344" lon="22.95925">
        <ele>784.375312</ele>
        <time>2022-04-05T07:54:56.198Z</time>
      </trkpt>
      <trkpt lat="42.58333" lon="22.95924">
        <ele>784.607978</ele>
        <time>2022-04-05T07:54:59.206Z</time>
      </trkpt>
      <trkpt lat="42.58324" lon="22.95922">
        <ele>784.811234</ele>
        <time>2022-04-05T07:55:02.206Z</time>
      </trkpt>
      <trkpt lat="42.58314" lon="22.95921">
        <ele>785.02769</ele>
        <time>2022-04-05T07:55:05.208Z</time>
      </trkpt>
      <trkpt lat="42.58304" lon="22.9592">
        <ele>785.243716</ele>
        <time>2022-04-05T07:55:08.201Z</time>
      </trkpt>
      <trkpt lat="42.58295" lon="22.95921">
        <ele>785.440113</ele>
        <time>2022-04-05T07:55:11.200Z</time>
      </trkpt>
      <trkpt lat="42.58286" lon="22.95921">
        <ele>785.638867</ele>
        <time>2022-04-05T07:55:14.199Z</time>
      </trkpt>
      <trkpt lat="42.58276" lon="22.95922">
        <ele>786.519747</ele>
        <time>2022-04-05T07:55:17.205Z</time>
      </trkpt>
      <trkpt lat="42.58266" lon="22.95924">
        <ele>787.521206</ele>
        <time>2022-04-05T07:55:20.201Z</time>
      </trkpt>
      <trkpt lat="42.58256" lon="22.95927">
        <ele>788.423343</ele>
        <time>2022-04-05T07:55:23.198Z</time>
      </trkpt>
      <trkpt lat="42.58245" lon="22.95929">
        <ele>789.552592</ele>
        <time>2022-04-05T07:55:27.202Z</time>
      </trkpt>
      <trkpt lat="42.58236" lon="22.95931">
        <ele>790.412389</ele>
        <time>2022-04-05T07:55:30.195Z</time>
      </trkpt>
      <trkpt lat="42.58226" lon="22.95935">
        <ele>791.386973</ele>
        <time>2022-04-05T07:55:33.198Z</time>
      </trkpt>
      <trkpt lat="42.58217" lon="22.9594">
        <ele>792.314967</ele>
        <time>2022-04-05T07:55:36.224Z</time>
      </trkpt>
      <trkpt lat="42.58207" lon="22.95945">
        <ele>793.336166</ele>
        <time>2022-04-05T07:55:40.196Z</time>
      </trkpt>
      <trkpt lat="42.58197" lon="22.95948">
        <ele>794.276279</ele>
        <time>2022-04-05T07:55:43.208Z</time>
      </trkpt>
      <trkpt lat="42.58187" lon="22.9595">
        <ele>795.278754</ele>
        <time>2022-04-05T07:55:46.200Z</time>
      </trkpt>
      <trkpt lat="42.58177" lon="22.95955">
        <ele>796.286814</ele>
        <time>2022-04-05T07:55:49.225Z</time>
      </trkpt>
      <trkpt lat="42.58168" lon="22.95959">
        <ele>797.190707</ele>
        <time>2022-04-05T07:55:52.197Z</time>
      </trkpt>
      <trkpt lat="42.58159" lon="22.95965">
        <ele>798.103966</ele>
        <time>2022-04-05T07:55:55.201Z</time>
      </trkpt>
      <trkpt lat="42.58149" lon="22.95971">
        <ele>799.159576</ele>
        <time>2022-04-05T07:55:58.221Z</time>
      </trkpt>
      <trkpt lat="42.58141" lon="22.95977">
        <ele>800.037686</ele>
        <time>2022-04-05T07:56:01.200Z</time>
      </trkpt>
      <trkpt lat="42.5813" lon="22.95984">
        <ele>801.188238</ele>
        <time>2022-04-05T07:56:05.200Z</time>
      </trkpt>
      <trkpt lat="42.58122" lon="22.9599">
        <ele>802.066545</ele>
        <time>2022-04-05T07:56:08.201Z</time>
      </trkpt>
      <trkpt lat="42.58111" lon="22.95995">
        <ele>802.615496</ele>
        <time>2022-04-05T07:56:12.209Z</time>
      </trkpt>
      <trkpt lat="42.58103" lon="22.95999">
        <ele>802.04587</ele>
        <time>2022-04-05T07:56:15.228Z</time>
      </trkpt>
      <trkpt lat="42.58093" lon="22.96001">
        <ele>801.466904</ele>
        <time>2022-04-05T07:56:18.225Z</time>
      </trkpt>
      <trkpt lat="42.58081" lon="22.96003">
        <ele>800.71301</ele>
        <time>2022-04-05T07:56:22.222Z</time>
      </trkpt>
      <trkpt lat="42.58072" lon="22.96005">
        <ele>800.128773</ele>
        <time>2022-04-05T07:56:25.233Z</time>
      </trkpt>
      <trkpt lat="42.58062" lon="22.96006">
        <ele>799.505096</ele>
        <time>2022-04-05T07:56:28.216Z</time>
      </trkpt>
      <trkpt lat="42.58052" lon="22.96007">
        <ele>798.869451</ele>
        <time>2022-04-05T07:56:31.218Z</time>
      </trkpt>
      <trkpt lat="42.58043" lon="22.96006">
        <ele>798.283563</ele>
        <time>2022-04-05T07:56:34.242Z</time>
      </trkpt>
      <trkpt lat="42.58033" lon="22.96006">
        <ele>797.716981</ele>
        <time>2022-04-05T07:56:37.219Z</time>
      </trkpt>
      <trkpt lat="42.58022" lon="22.96005">
        <ele>796.992313</ele>
        <time>2022-04-05T07:56:41.232Z</time>
      </trkpt>
      <trkpt lat="42.58012" lon="22.96003">
        <ele>796.403045</ele>
        <time>2022-04-05T07:56:44.224Z</time>
      </trkpt>
      <trkpt lat="42.58003" lon="22.96001">
        <ele>795.778476</ele>
        <time>2022-04-05T07:56:47.245Z</time>
      </trkpt>
      <trkpt lat="42.57994" lon="22.95998">
        <ele>795.20969</ele>
        <time>2022-04-05T07:56:50.257Z</time>
      </trkpt>
      <trkpt lat="42.57985" lon="22.95995">
        <ele>794.627737</ele>
        <time>2022-04-05T07:56:53.218Z</time>
      </trkpt>
      <trkpt lat="42.57973" lon="22.95991">
        <ele>793.889868</ele>
        <time>2022-04-05T07:56:57.228Z</time>
      </trkpt>
      <trkpt lat="42.57964" lon="22.95986">
        <ele>793.273645</ele>
        <time>2022-04-05T07:57:00.233Z</time>
      </trkpt>
      <trkpt lat="42.57955" lon="22.95981">
        <ele>792.679742</ele>
        <time>2022-04-05T07:57:03.228Z</time>
      </trkpt>
      <trkpt lat="42.57946" lon="22.95975">
        <ele>792.07273</ele>
        <time>2022-04-05T07:57:06.228Z</time>
      </trkpt>
      <trkpt lat="42.57938" lon="22.95969">
        <ele>791.711594</ele>
        <time>2022-04-05T07:57:09.218Z</time>
      </trkpt>
      <trkpt lat="42.57928" lon="22.95961">
        <ele>792.125988</ele>
        <time>2022-04-05T07:57:13.228Z</time>
      </trkpt>
      <trkpt lat="42.57919" lon="22.95952">
        <ele>792.528492</ele>
        <time>2022-04-05T07:57:17.219Z</time>
      </trkpt>
      <trkpt lat="42.57911" lon="22.95945">
        <ele>792.847957</ele>
        <time>2022-04-05T07:57:20.226Z</time>
      </trkpt>
      <trkpt lat="42.57902" lon="22.95935">
        <ele>793.255644</ele>
        <time>2022-04-05T07:57:24.227Z</time>
      </trkpt>
      <trkpt lat="42.57895" lon="22.95927">
        <ele>793.576634</ele>
        <time>2022-04-05T07:57:27.230Z</time>
      </trkpt>
      <trkpt lat="42.57889" lon="22.95919">
        <ele>793.902753</ele>
        <time>2022-04-05T07:57:30.226Z</time>
      </trkpt>
      <trkpt lat="42.57881" lon="22.95909">
        <ele>794.2797</ele>
        <time>2022-04-05T07:57:34.222Z</time>
      </trkpt>
      <trkpt lat="42.57873" lon="22.95899">
        <ele>794.650891</ele>
        <time>2022-04-05T07:57:38.258Z</time>
      </trkpt>
      <trkpt lat="42.57866" lon="22.95888">
        <ele>795.037599</ele>
        <time>2022-04-05T07:57:42.239Z</time>
      </trkpt>
      <trkpt lat="42.57861" lon="22.95876">
        <ele>795.378457</ele>
        <time>2022-04-05T07:57:45.231Z</time>
      </trkpt>
      <trkpt lat="42.57857" lon="22.95866">
        <ele>795.699001</ele>
        <time>2022-04-05T07:57:48.229Z</time>
      </trkpt>
      <trkpt lat="42.57852" lon="22.95855">
        <ele>796.033</ele>
        <time>2022-04-05T07:57:51.228Z</time>
      </trkpt>
      <trkpt lat="42.57846" lon="22.95841">
        <ele>796.439517</ele>
        <time>2022-04-05T07:57:55.221Z</time>
      </trkpt>
      <trkpt lat="42.57841" lon="22.95827">
        <ele>796.850843</ele>
        <time>2022-04-05T07:57:59.234Z</time>
      </trkpt>
      <trkpt lat="42.57838" lon="22.95815">
        <ele>797.174821</ele>
        <time>2022-04-05T07:58:02.218Z</time>
      </trkpt>
      <trkpt lat="42.57834" lon="22.95801">
        <ele>797.575178</ele>
        <time>2022-04-05T07:58:06.219Z</time>
      </trkpt>
      <trkpt lat="42.57828" lon="22.95789">
        <ele>797.94602</ele>
        <time>2022-04-05T07:58:10.233Z</time>
      </trkpt>
      <trkpt lat="42.57823" lon="22.95776">
        <ele>797.926756</ele>
        <time>2022-04-05T07:58:14.263Z</time>
      </trkpt>
      <trkpt lat="42.57817" lon="22.95764">
        <ele>797.846376</ele>
        <time>2022-04-05T07:58:18.227Z</time>
      </trkpt>
      <trkpt lat="42.5781" lon="22.95751">
        <ele>797.757672</ele>
        <time>2022-04-05T07:58:22.238Z</time>
      </trkpt>
      <trkpt lat="42.57803" lon="22.95742">
        <ele>797.685886</ele>
        <time>2022-04-05T07:58:25.256Z</time>
      </trkpt>
      <trkpt lat="42.57797" lon="22.95733">
        <ele>797.616188</ele>
        <time>2022-04-05T07:58:28.224Z</time>
      </trkpt>
      <trkpt lat="42.57788" lon="22.95723">
        <ele>797.529506</ele>
        <time>2022-04-05T07:58:32.234Z</time>
      </trkpt>
      <trkpt lat="42.5778" lon="22.95711">
        <ele>797.440547</ele>
        <time>2022-04-05T07:58:36.274Z</time>
      </trkpt>
      <trkpt lat="42.57773" lon="22.95701">
        <ele>797.363525</ele>
        <time>2022-04-05T07:58:39.237Z</time>
      </trkpt>
      <trkpt lat="42.57766" lon="22.95691">
        <ele>797.28429</ele>
        <time>2022-04-05T07:58:42.243Z</time>
      </trkpt>
      <trkpt lat="42.57759" lon="22.9568">
        <ele>797.207606</ele>
        <time>2022-04-05T07:58:45.228Z</time>
      </trkpt>
      <trkpt lat="42.5775" lon="22.95671">
        <ele>797.126204</ele>
        <time>2022-04-05T07:58:48.228Z</time>
      </trkpt>
      <trkpt lat="42.57741" lon="22.95662">
        <ele>797.041686</ele>
        <time>2022-04-05T07:58:51.206Z</time>
      </trkpt>
      <trkpt lat="42.5773" lon="22.95651">
        <ele>796.942374</ele>
        <time>2022-04-05T07:58:54.229Z</time>
      </trkpt>
      <trkpt lat="42.57722" lon="22.95645">
        <ele>796.869419</ele>
        <time>2022-04-05T07:58:56.212Z</time>
      </trkpt>
      <trkpt lat="42.57713" lon="22.95639">
        <ele>796.792112</ele>
        <time>2022-04-05T07:58:58.247Z</time>
      </trkpt>
      <trkpt lat="42.57703" lon="22.95632">
        <ele>796.714805</ele>
        <time>2022-04-05T07:59:00.217Z</time>
      </trkpt>
      <trkpt lat="42.57694" lon="22.95626">
        <ele>796.568576</ele>
        <time>2022-04-05T07:59:02.235Z</time>
      </trkpt>
      <trkpt lat="42.57685" lon="22.9562">
        <ele>795.97151</ele>
        <time>2022-04-05T07:59:04.215Z</time>
      </trkpt>
      <trkpt lat="42.57675" lon="22.95615">
        <ele>795.374088</ele>
        <time>2022-04-05T07:59:06.215Z</time>
      </trkpt>
      <trkpt lat="42.57666" lon="22.9561">
        <ele>794.788153</ele>
        <time>2022-04-05T07:59:08.224Z</time>
      </trkpt>
      <trkpt lat="42.57655" lon="22.95605">
        <ele>794.1862</ele>
        <time>2022-04-05T07:59:10.237Z</time>
      </trkpt>
      <trkpt lat="42.57645" lon="22.95601">
        <ele>793.543839</ele>
        <time>2022-04-05T07:59:12.233Z</time>
      </trkpt>
      <trkpt lat="42.57633" lon="22.95598">
        <ele>792.873132</ele>
        <time>2022-04-05T07:59:14.218Z</time>
      </trkpt>
      <trkpt lat="42.57621" lon="22.95595">
        <ele>792.174338</ele>
        <time>2022-04-05T07:59:16.225Z</time>
      </trkpt>
      <trkpt lat="42.57608" lon="22.95594">
        <ele>791.423991</ele>
        <time>2022-04-05T07:59:18.239Z</time>
      </trkpt>
      <trkpt lat="42.57594" lon="22.95592">
        <ele>790.646739</ele>
        <time>2022-04-05T07:59:20.247Z</time>
      </trkpt>
      <trkpt lat="42.5758" lon="22.95592">
        <ele>789.814723</ele>
        <time>2022-04-05T07:59:22.227Z</time>
      </trkpt>
      <trkpt lat="42.57564" lon="22.95594">
        <ele>788.945581</ele>
        <time>2022-04-05T07:59:24.202Z</time>
      </trkpt>
      <trkpt lat="42.57548" lon="22.95597">
        <ele>788.013841</ele>
        <time>2022-04-05T07:59:26.209Z</time>
      </trkpt>
      <trkpt lat="42.57532" lon="22.95602">
        <ele>787.062459</ele>
        <time>2022-04-05T07:59:28.224Z</time>
      </trkpt>
      <trkpt lat="42.57515" lon="22.95608">
        <ele>786.028085</ele>
        <time>2022-04-05T07:59:30.221Z</time>
      </trkpt>
      <trkpt lat="42.57506" lon="22.95612">
        <ele>785.482235</ele>
        <time>2022-04-05T07:59:31.225Z</time>
      </trkpt>
      <trkpt lat="42.57496" lon="22.95616">
        <ele>784.925598</ele>
        <time>2022-04-05T07:59:32.258Z</time>
      </trkpt>
      <trkpt lat="42.57487" lon="22.95621">
        <ele>784.338798</ele>
        <time>2022-04-05T07:59:33.223Z</time>
      </trkpt>
      <trkpt lat="42.57478" lon="22.95625">
        <ele>783.769822</ele>
        <time>2022-04-05T07:59:34.234Z</time>
      </trkpt>
      <trkpt lat="42.57468" lon="22.95629">
        <ele>783.192581</ele>
        <time>2022-04-05T07:59:35.218Z</time>
      </trkpt>
      <trkpt lat="42.57459" lon="22.95634">
        <ele>782.611265</ele>
        <time>2022-04-05T07:59:36.240Z</time>
      </trkpt>
      <trkpt lat="42.57449" lon="22.95638">
        <ele>782.017609</ele>
        <time>2022-04-05T07:59:37.300Z</time>
      </trkpt>
      <trkpt lat="42.57439" lon="22.95643">
        <ele>781.41847</ele>
        <time>2022-04-05T07:59:38.228Z</time>
      </trkpt>
      <trkpt lat="42.5743" lon="22.95647">
        <ele>780.844007</ele>
        <time>2022-04-05T07:59:39.228Z</time>
      </trkpt>
      <trkpt lat="42.5742" lon="22.95651">
        <ele>780.275031</ele>
        <time>2022-04-05T07:59:40.228Z</time>
      </trkpt>
      <trkpt lat="42.57411" lon="22.95656">
        <ele>779.704665</ele>
        <time>2022-04-05T07:59:41.231Z</time>
      </trkpt>
      <trkpt lat="42.57402" lon="22.9566">
        <ele>779.137048</ele>
        <time>2022-04-05T07:59:42.224Z</time>
      </trkpt>
      <trkpt lat="42.57393" lon="22.95664">
        <ele>778.580411</ele>
        <time>2022-04-05T07:59:43.272Z</time>
      </trkpt>
      <trkpt lat="42.57384" lon="22.95669">
        <ele>778.030395</ele>
        <time>2022-04-05T07:59:44.210Z</time>
      </trkpt>
      <trkpt lat="42.57375" lon="22.95673">
        <ele>777.477836</ele>
        <time>2022-04-05T07:59:45.217Z</time>
      </trkpt>
      <trkpt lat="42.57366" lon="22.95677">
        <ele>776.94308</ele>
        <time>2022-04-05T07:59:46.208Z</time>
      </trkpt>
      <trkpt lat="42.57358" lon="22.95681">
        <ele>776.413778</ele>
        <time>2022-04-05T07:59:47.219Z</time>
      </trkpt>
      <trkpt lat="42.57341" lon="22.9569">
        <ele>775.759795</ele>
        <time>2022-04-05T07:59:49.247Z</time>
      </trkpt>
      <trkpt lat="42.57325" lon="22.95698">
        <ele>775.377337</ele>
        <time>2022-04-05T07:59:51.233Z</time>
      </trkpt>
      <trkpt lat="42.5731" lon="22.95706">
        <ele>775.010923</ele>
        <time>2022-04-05T07:59:53.221Z</time>
      </trkpt>
      <trkpt lat="42.57295" lon="22.95713">
        <ele>774.671392</ele>
        <time>2022-04-05T07:59:55.239Z</time>
      </trkpt>
      <trkpt lat="42.57281" lon="22.95721">
        <ele>774.338933</ele>
        <time>2022-04-05T07:59:57.206Z</time>
      </trkpt>
      <trkpt lat="42.57268" lon="22.95728">
        <ele>774.015069</ele>
        <time>2022-04-05T07:59:59.250Z</time>
      </trkpt>
      <trkpt lat="42.57254" lon="22.95736">
        <ele>773.6935</ele>
        <time>2022-04-05T08:00:01.256Z</time>
      </trkpt>
      <trkpt lat="42.57241" lon="22.95743">
        <ele>773.36608</ele>
        <time>2022-04-05T08:00:03.316Z</time>
      </trkpt>
      <trkpt lat="42.57227" lon="22.9575">
        <ele>773.047183</ele>
        <time>2022-04-05T08:00:05.271Z</time>
      </trkpt>
      <trkpt lat="42.57215" lon="22.95757">
        <ele>772.743884</ele>
        <time>2022-04-05T08:00:07.228Z</time>
      </trkpt>
      <trkpt lat="42.57202" lon="22.95765">
        <ele>772.442692</ele>
        <time>2022-04-05T08:00:09.217Z</time>
      </trkpt>
      <trkpt lat="42.5719" lon="22.95773">
        <ele>772.147584</ele>
        <time>2022-04-05T08:00:11.225Z</time>
      </trkpt>
      <trkpt lat="42.57178" lon="22.9578">
        <ele>771.970293</ele>
        <time>2022-04-05T08:00:13.227Z</time>
      </trkpt>
      <trkpt lat="42.57166" lon="22.95787">
        <ele>771.924048</ele>
        <time>2022-04-05T08:00:15.228Z</time>
      </trkpt>
      <trkpt lat="42.57154" lon="22.95794">
        <ele>771.878016</ele>
        <time>2022-04-05T08:00:17.214Z</time>
      </trkpt>
      <trkpt lat="42.57143" lon="22.95802">
        <ele>771.833895</ele>
        <time>2022-04-05T08:00:19.247Z</time>
      </trkpt>
      <trkpt lat="42.57132" lon="22.95809">
        <ele>771.79032</ele>
        <time>2022-04-05T08:00:21.241Z</time>
      </trkpt>
      <trkpt lat="42.5712" lon="22.95815">
        <ele>771.747381</ele>
        <time>2022-04-05T08:00:23.228Z</time>
      </trkpt>
      <trkpt lat="42.5711" lon="22.95822">
        <ele>771.706582</ele>
        <time>2022-04-05T08:00:25.207Z</time>
      </trkpt>
      <trkpt lat="42.57099" lon="22.95828">
        <ele>771.665462</ele>
        <time>2022-04-05T08:00:27.253Z</time>
      </trkpt>
      <trkpt lat="42.57088" lon="22.95835">
        <ele>771.623272</ele>
        <time>2022-04-05T08:00:29.228Z</time>
      </trkpt>
      <trkpt lat="42.57077" lon="22.95841">
        <ele>771.581932</ele>
        <time>2022-04-05T08:00:31.222Z</time>
      </trkpt>
      <trkpt lat="42.57067" lon="22.95848">
        <ele>771.541653</ele>
        <time>2022-04-05T08:00:33.251Z</time>
      </trkpt>
      <trkpt lat="42.57057" lon="22.95854">
        <ele>771.501169</ele>
        <time>2022-04-05T08:00:35.212Z</time>
      </trkpt>
      <trkpt lat="42.57047" lon="22.95861">
        <ele>771.462717</ele>
        <time>2022-04-05T08:00:37.217Z</time>
      </trkpt>
      <trkpt lat="42.57037" lon="22.95867">
        <ele>771.426085</ele>
        <time>2022-04-05T08:00:39.217Z</time>
      </trkpt>
      <trkpt lat="42.57028" lon="22.95872">
        <ele>771.39073</ele>
        <time>2022-04-05T08:00:41.237Z</time>
      </trkpt>
      <trkpt lat="42.57019" lon="22.95878">
        <ele>771.359772</ele>
        <time>2022-04-05T08:00:43.228Z</time>
      </trkpt>
      <trkpt lat="42.57011" lon="22.95884">
        <ele>771.358265</ele>
        <time>2022-04-05T08:00:45.238Z</time>
      </trkpt>
      <trkpt lat="42.57003" lon="22.9589">
        <ele>771.356739</ele>
        <time>2022-04-05T08:00:47.216Z</time>
      </trkpt>
      <trkpt lat="42.56994" lon="22.95895">
        <ele>771.355139</ele>
        <time>2022-04-05T08:00:49.224Z</time>
      </trkpt>
      <trkpt lat="42.56985" lon="22.95901">
        <ele>771.353499</ele>
        <time>2022-04-05T08:00:51.237Z</time>
      </trkpt>
      <trkpt lat="42.56976" lon="22.95908">
        <ele>771.351789</ele>
        <time>2022-04-05T08:00:53.208Z</time>
      </trkpt>
      <trkpt lat="42.56966" lon="22.95914">
        <ele>771.35007</ele>
        <time>2022-04-05T08:00:55.221Z</time>
      </trkpt>
      <trkpt lat="42.56957" lon="22.9592">
        <ele>771.348351</ele>
        <time>2022-04-05T08:00:57.217Z</time>
      </trkpt>
      <trkpt lat="42.56947" lon="22.95926">
        <ele>771.346641</ele>
        <time>2022-04-05T08:00:59.218Z</time>
      </trkpt>
      <trkpt lat="42.56938" lon="22.95932">
        <ele>771.344947</ele>
        <time>2022-04-05T08:01:01.257Z</time>
      </trkpt>
      <trkpt lat="42.56929" lon="22.95938">
        <ele>771.343256</ele>
        <time>2022-04-05T08:01:03.234Z</time>
      </trkpt>
      <trkpt lat="42.56919" lon="22.95945">
        <ele>771.341536</ele>
        <time>2022-04-05T08:01:05.220Z</time>
      </trkpt>
      <trkpt lat="42.5691" lon="22.95951">
        <ele>771.339841</ele>
        <time>2022-04-05T08:01:07.202Z</time>
      </trkpt>
      <trkpt lat="42.56901" lon="22.95957">
        <ele>771.338221</ele>
        <time>2022-04-05T08:01:09.261Z</time>
      </trkpt>
      <trkpt lat="42.56892" lon="22.95963">
        <ele>771.336586</ele>
        <time>2022-04-05T08:01:11.225Z</time>
      </trkpt>
      <trkpt lat="42.56883" lon="22.95968">
        <ele>771.335011</ele>
        <time>2022-04-05T08:01:13.222Z</time>
      </trkpt>
      <trkpt lat="42.56875" lon="22.95974">
        <ele>771.333464</ele>
        <time>2022-04-05T08:01:15.223Z</time>
      </trkpt>
      <trkpt lat="42.56867" lon="22.9598">
        <ele>771.331914</ele>
        <time>2022-04-05T08:01:17.214Z</time>
      </trkpt>
      <trkpt lat="42.56858" lon="22.95987">
        <ele>771.334646</ele>
        <time>2022-04-05T08:01:19.223Z</time>
      </trkpt>
      <trkpt lat="42.5685" lon="22.95994">
        <ele>771.375072</ele>
        <time>2022-04-05T08:01:21.223Z</time>
      </trkpt>
      <trkpt lat="42.56841" lon="22.96">
        <ele>771.415697</ele>
        <time>2022-04-05T08:01:23.219Z</time>
      </trkpt>
      <trkpt lat="42.56833" lon="22.96007">
        <ele>771.455268</ele>
        <time>2022-04-05T08:01:25.266Z</time>
      </trkpt>
      <trkpt lat="42.56825" lon="22.96014">
        <ele>771.493132</ele>
        <time>2022-04-05T08:01:27.227Z</time>
      </trkpt>
      <trkpt lat="42.56817" lon="22.9602">
        <ele>771.530996</ele>
        <time>2022-04-05T08:01:29.219Z</time>
      </trkpt>
      <trkpt lat="42.56809" lon="22.96027">
        <ele>771.569208</ele>
        <time>2022-04-05T08:01:31.233Z</time>
      </trkpt>
      <trkpt lat="42.56801" lon="22.96034">
        <ele>771.60812</ele>
        <time>2022-04-05T08:01:33.226Z</time>
      </trkpt>
      <trkpt lat="42.56793" lon="22.9604">
        <ele>771.646333</ele>
        <time>2022-04-05T08:01:35.223Z</time>
      </trkpt>
      <trkpt lat="42.56782" lon="22.96049">
        <ele>771.697442</ele>
        <time>2022-04-05T08:01:38.229Z</time>
      </trkpt>
      <trkpt lat="42.56772" lon="22.96057">
        <ele>771.74603</ele>
        <time>2022-04-05T08:01:41.237Z</time>
      </trkpt>
      <trkpt lat="42.56762" lon="22.96064">
        <ele>771.790296</ele>
        <time>2022-04-05T08:01:44.218Z</time>
      </trkpt>
      <trkpt lat="42.56753" lon="22.96071">
        <ele>771.834276</ele>
        <time>2022-04-05T08:01:47.243Z</time>
      </trkpt>
      <trkpt lat="42.56743" lon="22.96078">
        <ele>771.88043</ele>
        <time>2022-04-05T08:01:50.221Z</time>
      </trkpt>
      <trkpt lat="42.56733" lon="22.96084">
        <ele>771.922905</ele>
        <time>2022-04-05T08:01:53.221Z</time>
      </trkpt>
      <trkpt lat="42.56725" lon="22.96092">
        <ele>771.964653</ele>
        <time>2022-04-05T08:01:56.284Z</time>
      </trkpt>
      <trkpt lat="42.56716" lon="22.96099">
        <ele>772.00555</ele>
        <time>2022-04-05T08:01:59.239Z</time>
      </trkpt>
      <trkpt lat="42.56707" lon="22.96106">
        <ele>772.047617</ele>
        <time>2022-04-05T08:02:02.234Z</time>
      </trkpt>
      <trkpt lat="42.56699" lon="22.96114">
        <ele>772.210754</ele>
        <time>2022-04-05T08:02:05.228Z</time>
      </trkpt>
      <trkpt lat="42.5669" lon="22.96121">
        <ele>772.461932</ele>
        <time>2022-04-05T08:02:08.224Z</time>
      </trkpt>
      <trkpt lat="42.56681" lon="22.96128">
        <ele>772.702562</ele>
        <time>2022-04-05T08:02:11.223Z</time>
      </trkpt>
      <trkpt lat="42.56671" lon="22.96135">
        <ele>772.948627</ele>
        <time>2022-04-05T08:02:14.259Z</time>
      </trkpt>
      <trkpt lat="42.56662" lon="22.96141">
        <ele>773.195045</ele>
        <time>2022-04-05T08:02:17.211Z</time>
      </trkpt>
      <trkpt lat="42.56654" lon="22.96148">
        <ele>773.420451</ele>
        <time>2022-04-05T08:02:20.219Z</time>
      </trkpt>
      <trkpt lat="42.56646" lon="22.96154">
        <ele>773.644701</ele>
        <time>2022-04-05T08:02:23.205Z</time>
      </trkpt>
      <trkpt lat="42.56637" lon="22.96161">
        <ele>773.868951</ele>
        <time>2022-04-05T08:02:26.213Z</time>
      </trkpt>
      <trkpt lat="42.56628" lon="22.96168">
        <ele>774.111248</ele>
        <time>2022-04-05T08:02:29.208Z</time>
      </trkpt>
      <trkpt lat="42.56619" lon="22.96175">
        <ele>774.356114</ele>
        <time>2022-04-05T08:02:32.217Z</time>
      </trkpt>
      <trkpt lat="42.5661" lon="22.96181">
        <ele>774.594319</ele>
        <time>2022-04-05T08:02:35.253Z</time>
      </trkpt>
      <trkpt lat="42.56601" lon="22.96187">
        <ele>774.832301</ele>
        <time>2022-04-05T08:02:38.214Z</time>
      </trkpt>
      <trkpt lat="42.56592" lon="22.96193">
        <ele>775.073922</ele>
        <time>2022-04-05T08:02:41.268Z</time>
      </trkpt>
      <trkpt lat="42.56583" lon="22.962">
        <ele>775.316626</ele>
        <time>2022-04-05T08:02:44.225Z</time>
      </trkpt>
      <trkpt lat="42.56574" lon="22.96207">
        <ele>775.560981</ele>
        <time>2022-04-05T08:02:47.218Z</time>
      </trkpt>
      <trkpt lat="42.56565" lon="22.96213">
        <ele>775.793756</ele>
        <time>2022-04-05T08:02:50.215Z</time>
      </trkpt>
      <trkpt lat="42.56556" lon="22.9622">
        <ele>776.03276</ele>
        <time>2022-04-05T08:02:53.257Z</time>
      </trkpt>
      <trkpt lat="42.56547" lon="22.96227">
        <ele>776.281409</ele>
        <time>2022-04-05T08:02:56.229Z</time>
      </trkpt>
      <trkpt lat="42.56538" lon="22.96234">
        <ele>776.415151</ele>
        <time>2022-04-05T08:02:59.212Z</time>
      </trkpt>
      <trkpt lat="42.56529" lon="22.96241">
        <ele>776.547347</ele>
        <time>2022-04-05T08:03:02.231Z</time>
      </trkpt>
      <trkpt lat="42.5652" lon="22.96248">
        <ele>776.676778</ele>
        <time>2022-04-05T08:03:05.216Z</time>
      </trkpt>
      <trkpt lat="42.5651" lon="22.96255">
        <ele>776.81052</ele>
        <time>2022-04-05T08:03:08.208Z</time>
      </trkpt>
      <trkpt lat="42.56501" lon="22.96262">
        <ele>776.940121</ele>
        <time>2022-04-05T08:03:11.226Z</time>
      </trkpt>
      <trkpt lat="42.56492" lon="22.96268">
        <ele>777.066978</ele>
        <time>2022-04-05T08:03:14.233Z</time>
      </trkpt>
      <trkpt lat="42.56482" lon="22.96273">
        <ele>777.19717</ele>
        <time>2022-04-05T08:03:17.240Z</time>
      </trkpt>
      <trkpt lat="42.56473" lon="22.96279">
        <ele>777.322093</ele>
        <time>2022-04-05T08:03:20.235Z</time>
      </trkpt>
      <trkpt lat="42.56464" lon="22.96284">
        <ele>777.449701</ele>
        <time>2022-04-05T08:03:23.219Z</time>
      </trkpt>
      <trkpt lat="42.56454" lon="22.96289">
        <ele>777.573303</ele>
        <time>2022-04-05T08:03:26.260Z</time>
      </trkpt>
      <trkpt lat="42.56445" lon="22.96294">
        <ele>777.700312</ele>
        <time>2022-04-05T08:03:29.230Z</time>
      </trkpt>
      <trkpt lat="42.56435" lon="22.96298">
        <ele>777.826149</ele>
        <time>2022-04-05T08:03:32.217Z</time>
      </trkpt>
      <trkpt lat="42.56426" lon="22.96302">
        <ele>777.94848</ele>
        <time>2022-04-05T08:03:35.249Z</time>
      </trkpt>
      <trkpt lat="42.56417" lon="22.96306">
        <ele>778.061717</ele>
        <time>2022-04-05T08:03:38.230Z</time>
      </trkpt>
      <trkpt lat="42.56405" lon="22.96311">
        <ele>778.211709</ele>
        <time>2022-04-05T08:03:42.235Z</time>
      </trkpt>
      <trkpt lat="42.56394" lon="22.96315">
        <ele>778.358144</ele>
        <time>2022-04-05T08:03:46.226Z</time>
      </trkpt>
      <trkpt lat="42.56385" lon="22.96317">
        <ele>778.470942</ele>
        <time>2022-04-05T08:03:49.235Z</time>
      </trkpt>
      <trkpt lat="42.56373" lon="22.96321">
        <ele>778.685451</ele>
        <time>2022-04-05T08:03:53.210Z</time>
      </trkpt>
      <trkpt lat="42.56362" lon="22.96324">
        <ele>778.942902</ele>
        <time>2022-04-05T08:03:57.266Z</time>
      </trkpt>
      <trkpt lat="42.56351" lon="22.96327">
        <ele>779.187932</ele>
        <time>2022-04-05T08:04:01.207Z</time>
      </trkpt>
      <trkpt lat="42.56339" lon="22.9633">
        <ele>779.445092</ele>
        <time>2022-04-05T08:04:05.225Z</time>
      </trkpt>
      <trkpt lat="42.56328" lon="22.96333">
        <ele>779.691928</ele>
        <time>2022-04-05T08:04:09.245Z</time>
      </trkpt>
      <trkpt lat="42.56316" lon="22.96336">
        <ele>779.9394</ele>
        <time>2022-04-05T08:04:13.236Z</time>
      </trkpt>
      <trkpt lat="42.56305" lon="22.96339">
        <ele>780.181686</ele>
        <time>2022-04-05T08:04:17.228Z</time>
      </trkpt>
      <trkpt lat="42.56296" lon="22.96341">
        <ele>780.389433</ele>
        <time>2022-04-05T08:04:21.230Z</time>
      </trkpt>
      <trkpt lat="42.56287" lon="22.96343">
        <ele>780.595161</ele>
        <time>2022-04-05T08:04:25.224Z</time>
      </trkpt>
      <trkpt lat="42.56277" lon="22.96346">
        <ele>780.809935</ele>
        <time>2022-04-05T08:04:29.235Z</time>
      </trkpt>
      <trkpt lat="42.56267" lon="22.96348">
        <ele>781.030707</ele>
        <time>2022-04-05T08:04:33.221Z</time>
      </trkpt>
      <trkpt lat="42.56257" lon="22.9635">
        <ele>781.244984</ele>
        <time>2022-04-05T08:04:37.216Z</time>
      </trkpt>
      <trkpt lat="42.56246" lon="22.96353">
        <ele>781.476606</ele>
        <time>2022-04-05T08:04:41.250Z</time>
      </trkpt>
      <trkpt lat="42.56236" lon="22.96355">
        <ele>781.698309</ele>
        <time>2022-04-05T08:04:45.235Z</time>
      </trkpt>
      <trkpt lat="42.56226" lon="22.96358">
        <ele>781.934184</ele>
        <time>2022-04-05T08:04:49.261Z</time>
      </trkpt>
      <trkpt lat="42.56216" lon="22.96361">
        <ele>782.146492</ele>
        <time>2022-04-05T08:04:53.229Z</time>
      </trkpt>
      <trkpt lat="42.56206" lon="22.96364">
        <ele>782.370744</ele>
        <time>2022-04-05T08:04:57.235Z</time>
      </trkpt>
      <trkpt lat="42.56197" lon="22.96366">
        <ele>782.492616</ele>
        <time>2022-04-05T08:05:01.283Z</time>
      </trkpt>
      <trkpt lat="42.56187" lon="22.96369">
        <ele>782.598135</ele>
        <time>2022-04-05T08:05:05.229Z</time>
      </trkpt>
      <trkpt lat="42.56178" lon="22.96371">
        <ele>782.701409</ele>
        <time>2022-04-05T08:05:09.236Z</time>
      </trkpt>
      <trkpt lat="42.56168" lon="22.96374">
        <ele>782.810221</ele>
        <time>2022-04-05T08:05:13.231Z</time>
      </trkpt>
      <trkpt lat="42.56157" lon="22.96377">
        <ele>782.927419</ele>
        <time>2022-04-05T08:05:17.230Z</time>
      </trkpt>
      <trkpt lat="42.56148" lon="22.96379">
        <ele>783.026664</ele>
        <time>2022-04-05T08:05:20.228Z</time>
      </trkpt>
      <trkpt lat="42.56139" lon="22.96382">
        <ele>783.124704</ele>
        <time>2022-04-05T08:05:23.242Z</time>
      </trkpt>
      <trkpt lat="42.56127" lon="22.96385">
        <ele>783.251495</ele>
        <time>2022-04-05T08:05:27.234Z</time>
      </trkpt>
      <trkpt lat="42.56115" lon="22.96388">
        <ele>783.377823</ele>
        <time>2022-04-05T08:05:31.226Z</time>
      </trkpt>
      <trkpt lat="42.56106" lon="22.9639">
        <ele>783.47423</ele>
        <time>2022-04-05T08:05:34.226Z</time>
      </trkpt>
      <trkpt lat="42.56097" lon="22.96392">
        <ele>783.575564</ele>
        <time>2022-04-05T08:05:37.216Z</time>
      </trkpt>
      <trkpt lat="42.56087" lon="22.96395">
        <ele>783.68079</ele>
        <time>2022-04-05T08:05:40.215Z</time>
      </trkpt>
      <trkpt lat="42.56078" lon="22.96397">
        <ele>783.785619</ele>
        <time>2022-04-05T08:05:43.219Z</time>
      </trkpt>
      <trkpt lat="42.56067" lon="22.96399">
        <ele>783.899004</ele>
        <time>2022-04-05T08:05:46.218Z</time>
      </trkpt>
      <trkpt lat="42.56057" lon="22.96402">
        <ele>784.013825</ele>
        <time>2022-04-05T08:05:49.216Z</time>
      </trkpt>
      <trkpt lat="42.56047" lon="22.96404">
        <ele>784.122202</ele>
        <time>2022-04-05T08:05:52.214Z</time>
      </trkpt>
      <trkpt lat="42.56036" lon="22.96407">
        <ele>784.2415</ele>
        <time>2022-04-05T08:05:55.223Z</time>
      </trkpt>
      <trkpt lat="42.56024" lon="22.9641">
        <ele>784.223488</ele>
        <time>2022-04-05T08:05:58.216Z</time>
      </trkpt>
      <trkpt lat="42.56015" lon="22.96412">
        <ele>783.944674</ele>
        <time>2022-04-05T08:06:00.226Z</time>
      </trkpt>
      <trkpt lat="42.56006" lon="22.96414">
        <ele>783.663697</ele>
        <time>2022-04-05T08:06:02.221Z</time>
      </trkpt>
      <trkpt lat="42.55996" lon="22.96417">
        <ele>783.37506</ele>
        <time>2022-04-05T08:06:04.242Z</time>
      </trkpt>
      <trkpt lat="42.55987" lon="22.96419">
        <ele>783.092827</ele>
        <time>2022-04-05T08:06:06.224Z</time>
      </trkpt>
      <trkpt lat="42.55978" lon="22.96422">
        <ele>782.816089</ele>
        <time>2022-04-05T08:06:08.216Z</time>
      </trkpt>
      <trkpt lat="42.55969" lon="22.96425">
        <ele>782.515596</ele>
        <time>2022-04-05T08:06:10.216Z</time>
      </trkpt>
      <trkpt lat="42.55959" lon="22.96428">
        <ele>782.214598</ele>
        <time>2022-04-05T08:06:12.225Z</time>
      </trkpt>
      <trkpt lat="42.55949" lon="22.96431">
        <ele>781.902103</ele>
        <time>2022-04-05T08:06:14.224Z</time>
      </trkpt>
      <trkpt lat="42.55938" lon="22.96433">
        <ele>781.576136</ele>
        <time>2022-04-05T08:06:16.216Z</time>
      </trkpt>
      <trkpt lat="42.55927" lon="22.96436">
        <ele>781.229949</ele>
        <time>2022-04-05T08:06:18.214Z</time>
      </trkpt>
      <trkpt lat="42.55915" lon="22.96439">
        <ele>780.865012</ele>
        <time>2022-04-05T08:06:20.225Z</time>
      </trkpt>
      <trkpt lat="42.55903" lon="22.96442">
        <ele>780.471078</ele>
        <time>2022-04-05T08:06:22.213Z</time>
      </trkpt>
      <trkpt lat="42.5589" lon="22.96445">
        <ele>780.078011</ele>
        <time>2022-04-05T08:06:24.240Z</time>
      </trkpt>
      <trkpt lat="42.55877" lon="22.96449">
        <ele>779.66917</ele>
        <time>2022-04-05T08:06:26.264Z</time>
      </trkpt>
      <trkpt lat="42.55863" lon="22.96452">
        <ele>779.2492</ele>
        <time>2022-04-05T08:06:28.217Z</time>
      </trkpt>
      <trkpt lat="42.55849" lon="22.96455">
        <ele>778.804389</ele>
        <time>2022-04-05T08:06:30.221Z</time>
      </trkpt>
      <trkpt lat="42.55835" lon="22.96458">
        <ele>778.280767</ele>
        <time>2022-04-05T08:06:32.264Z</time>
      </trkpt>
      <trkpt lat="42.5582" lon="22.96461">
        <ele>777.748783</ele>
        <time>2022-04-05T08:06:34.203Z</time>
      </trkpt>
      <trkpt lat="42.55806" lon="22.96465">
        <ele>777.212368</ele>
        <time>2022-04-05T08:06:36.237Z</time>
      </trkpt>
      <trkpt lat="42.5579" lon="22.96467">
        <ele>776.660389</ele>
        <time>2022-04-05T08:06:38.271Z</time>
      </trkpt>
      <trkpt lat="42.55775" lon="22.9647">
        <ele>776.097965</ele>
        <time>2022-04-05T08:06:40.216Z</time>
      </trkpt>
      <trkpt lat="42.5576" lon="22.96473">
        <ele>775.530906</ele>
        <time>2022-04-05T08:06:42.220Z</time>
      </trkpt>
      <trkpt lat="42.55744" lon="22.96475">
        <ele>774.954407</ele>
        <time>2022-04-05T08:06:44.257Z</time>
      </trkpt>
      <trkpt lat="42.55727" lon="22.96478">
        <ele>774.358954</ele>
        <time>2022-04-05T08:06:46.238Z</time>
      </trkpt>
      <trkpt lat="42.55711" lon="22.96481">
        <ele>773.755624</ele>
        <time>2022-04-05T08:06:48.234Z</time>
      </trkpt>
      <trkpt lat="42.55695" lon="22.96484">
        <ele>773.162323</ele>
        <time>2022-04-05T08:06:50.315Z</time>
      </trkpt>
      <trkpt lat="42.55679" lon="22.96487">
        <ele>772.570121</ele>
        <time>2022-04-05T08:06:52.218Z</time>
      </trkpt>
      <trkpt lat="42.55662" lon="22.9649">
        <ele>771.96697</ele>
        <time>2022-04-05T08:06:54.320Z</time>
      </trkpt>
      <trkpt lat="42.55645" lon="22.96493">
        <ele>771.350265</ele>
        <time>2022-04-05T08:06:56.242Z</time>
      </trkpt>
      <trkpt lat="42.55628" lon="22.96495">
        <ele>770.722316</ele>
        <time>2022-04-05T08:06:58.213Z</time>
      </trkpt>
      <trkpt lat="42.55612" lon="22.96498">
        <ele>770.105285</ele>
        <time>2022-04-05T08:07:00.214Z</time>
      </trkpt>
      <trkpt lat="42.55595" lon="22.96501">
        <ele>769.48858</ele>
        <time>2022-04-05T08:07:02.218Z</time>
      </trkpt>
      <trkpt lat="42.55578" lon="22.96504">
        <ele>768.86427</ele>
        <time>2022-04-05T08:07:04.203Z</time>
      </trkpt>
      <trkpt lat="42.55561" lon="22.96506">
        <ele>768.240282</ele>
        <time>2022-04-05T08:07:06.222Z</time>
      </trkpt>
      <trkpt lat="42.55544" lon="22.96509">
        <ele>767.616902</ele>
        <time>2022-04-05T08:07:08.221Z</time>
      </trkpt>
      <trkpt lat="42.55527" lon="22.96511">
        <ele>766.972189</ele>
        <time>2022-04-05T08:07:10.224Z</time>
      </trkpt>
      <trkpt lat="42.5551" lon="22.96513">
        <ele>766.335032</ele>
        <time>2022-04-05T08:07:12.247Z</time>
      </trkpt>
      <trkpt lat="42.55492" lon="22.96516">
        <ele>765.716032</ele>
        <time>2022-04-05T08:07:14.266Z</time>
      </trkpt>
      <trkpt lat="42.55475" lon="22.96519">
        <ele>765.292747</ele>
        <time>2022-04-05T08:07:16.241Z</time>
      </trkpt>
      <trkpt lat="42.55457" lon="22.96522">
        <ele>764.866119</ele>
        <time>2022-04-05T08:07:18.238Z</time>
      </trkpt>
      <trkpt lat="42.5544" lon="22.96525">
        <ele>764.435196</ele>
        <time>2022-04-05T08:07:20.213Z</time>
      </trkpt>
      <trkpt lat="42.55422" lon="22.96528">
        <ele>763.997756</ele>
        <time>2022-04-05T08:07:22.220Z</time>
      </trkpt>
      <trkpt lat="42.55413" lon="22.9653">
        <ele>763.778929</ele>
        <time>2022-04-05T08:07:23.289Z</time>
      </trkpt>
      <trkpt lat="42.55395" lon="22.96533">
        <ele>763.35826</ele>
        <time>2022-04-05T08:07:25.213Z</time>
      </trkpt>
      <trkpt lat="42.55379" lon="22.96535">
        <ele>762.954789</ele>
        <time>2022-04-05T08:07:27.298Z</time>
      </trkpt>
      <trkpt lat="42.55362" lon="22.96539">
        <ele>762.554149</ele>
        <time>2022-04-05T08:07:29.225Z</time>
      </trkpt>
      <trkpt lat="42.55346" lon="22.96542">
        <ele>762.149009</ele>
        <time>2022-04-05T08:07:31.214Z</time>
      </trkpt>
      <trkpt lat="42.55329" lon="22.96545">
        <ele>761.748143</ele>
        <time>2022-04-05T08:07:33.245Z</time>
      </trkpt>
      <trkpt lat="42.55313" lon="22.96547">
        <ele>761.4058</ele>
        <time>2022-04-05T08:07:35.214Z</time>
      </trkpt>
      <trkpt lat="42.55296" lon="22.9655">
        <ele>761.36466</ele>
        <time>2022-04-05T08:07:37.223Z</time>
      </trkpt>
      <trkpt lat="42.55278" lon="22.96552">
        <ele>761.322649</ele>
        <time>2022-04-05T08:07:39.211Z</time>
      </trkpt>
      <trkpt lat="42.55261" lon="22.96555">
        <ele>761.281704</ele>
        <time>2022-04-05T08:07:41.237Z</time>
      </trkpt>
      <trkpt lat="42.55245" lon="22.96558">
        <ele>761.241784</ele>
        <time>2022-04-05T08:07:43.206Z</time>
      </trkpt>
      <trkpt lat="42.55229" lon="22.96559">
        <ele>761.205532</ele>
        <time>2022-04-05T08:07:45.269Z</time>
      </trkpt>
      <trkpt lat="42.55214" lon="22.96561">
        <ele>761.168136</ele>
        <time>2022-04-05T08:07:47.239Z</time>
      </trkpt>
      <trkpt lat="42.552" lon="22.96563">
        <ele>761.134906</ele>
        <time>2022-04-05T08:07:49.226Z</time>
      </trkpt>
      <trkpt lat="42.55188" lon="22.96564">
        <ele>761.105668</ele>
        <time>2022-04-05T08:07:51.219Z</time>
      </trkpt>
      <trkpt lat="42.55175" lon="22.96564">
        <ele>761.076899</ele>
        <time>2022-04-05T08:07:53.236Z</time>
      </trkpt>
      <trkpt lat="42.55164" lon="22.96565">
        <ele>761.048796</ele>
        <time>2022-04-05T08:07:55.219Z</time>
      </trkpt>
      <trkpt lat="42.55151" lon="22.96566">
        <ele>761.019756</ele>
        <time>2022-04-05T08:07:57.228Z</time>
      </trkpt>
      <trkpt lat="42.55141" lon="22.96567">
        <ele>760.994047</ele>
        <time>2022-04-05T08:07:59.272Z</time>
      </trkpt>
      <trkpt lat="42.5513" lon="22.96567">
        <ele>760.617043</ele>
        <time>2022-04-05T08:08:01.221Z</time>
      </trkpt>
      <trkpt lat="42.55121" lon="22.96566">
        <ele>760.037473</ele>
        <time>2022-04-05T08:08:03.222Z</time>
      </trkpt>
      <trkpt lat="42.55107" lon="22.96565">
        <ele>759.210793</ele>
        <time>2022-04-05T08:08:06.213Z</time>
      </trkpt>
      <trkpt lat="42.55098" lon="22.96563">
        <ele>758.61243</ele>
        <time>2022-04-05T08:08:08.243Z</time>
      </trkpt>
      <trkpt lat="42.55087" lon="22.96559">
        <ele>757.936201</ele>
        <time>2022-04-05T08:08:10.227Z</time>
      </trkpt>
      <trkpt lat="42.55075" lon="22.96554">
        <ele>757.135576</ele>
        <time>2022-04-05T08:08:12.223Z</time>
      </trkpt>
      <trkpt lat="42.55062" lon="22.96549">
        <ele>756.29766</ele>
        <time>2022-04-05T08:08:14.231Z</time>
      </trkpt>
      <trkpt lat="42.55049" lon="22.96541">
        <ele>755.439759</ele>
        <time>2022-04-05T08:08:16.207Z</time>
      </trkpt>
      <trkpt lat="42.55036" lon="22.96533">
        <ele>754.575349</ele>
        <time>2022-04-05T08:08:18.231Z</time>
      </trkpt>
      <trkpt lat="42.55025" lon="22.96523">
        <ele>753.737981</ele>
        <time>2022-04-05T08:08:20.217Z</time>
      </trkpt>
      <trkpt lat="42.55013" lon="22.96513">
        <ele>752.894946</ele>
        <time>2022-04-05T08:08:22.220Z</time>
      </trkpt>
      <trkpt lat="42.55" lon="22.965">
        <ele>751.919833</ele>
        <time>2022-04-05T08:08:24.222Z</time>
      </trkpt>
      <trkpt lat="42.54986" lon="22.96489">
        <ele>750.90291</ele>
        <time>2022-04-05T08:08:26.218Z</time>
      </trkpt>
      <trkpt lat="42.54972" lon="22.96476">
        <ele>749.893846</ele>
        <time>2022-04-05T08:08:28.219Z</time>
      </trkpt>
      <trkpt lat="42.54958" lon="22.96464">
        <ele>749.158561</ele>
        <time>2022-04-05T08:08:30.222Z</time>
      </trkpt>
      <trkpt lat="42.54943" lon="22.9645">
        <ele>748.389632</ele>
        <time>2022-04-05T08:08:32.242Z</time>
      </trkpt>
      <trkpt lat="42.54928" lon="22.96438">
        <ele>747.654181</ele>
        <time>2022-04-05T08:08:34.243Z</time>
      </trkpt>
      <trkpt lat="42.54914" lon="22.96426">
        <ele>746.92256</ele>
        <time>2022-04-05T08:08:36.234Z</time>
      </trkpt>
      <trkpt lat="42.54898" lon="22.96416">
        <ele>746.176526</ele>
        <time>2022-04-05T08:08:38.223Z</time>
      </trkpt>
      <trkpt lat="42.54882" lon="22.96405">
        <ele>745.436532</ele>
        <time>2022-04-05T08:08:40.218Z</time>
      </trkpt>
      <trkpt lat="42.54873" lon="22.96401">
        <ele>745.015819</ele>
        <time>2022-04-05T08:08:41.222Z</time>
      </trkpt>
      <trkpt lat="42.54863" lon="22.96397">
        <ele>744.585912</ele>
        <time>2022-04-05T08:08:42.278Z</time>
      </trkpt>
      <trkpt lat="42.54853" lon="22.96393">
        <ele>744.132344</ele>
        <time>2022-04-05T08:08:43.241Z</time>
      </trkpt>
      <trkpt lat="42.54843" lon="22.9639">
        <ele>743.680264</ele>
        <time>2022-04-05T08:08:44.206Z</time>
      </trkpt>
      <trkpt lat="42.54833" lon="22.96387">
        <ele>743.255285</ele>
        <time>2022-04-05T08:08:45.221Z</time>
      </trkpt>
      <trkpt lat="42.54823" lon="22.96383">
        <ele>742.825716</ele>
        <time>2022-04-05T08:08:46.218Z</time>
      </trkpt>
      <trkpt lat="42.54813" lon="22.9638">
        <ele>742.358952</ele>
        <time>2022-04-05T08:08:47.318Z</time>
      </trkpt>
      <trkpt lat="42.54801" lon="22.96378">
        <ele>741.911068</ele>
        <time>2022-04-05T08:08:48.240Z</time>
      </trkpt>
      <trkpt lat="42.54789" lon="22.96375">
        <ele>741.494965</ele>
        <time>2022-04-05T08:08:49.245Z</time>
      </trkpt>
      <trkpt lat="42.54779" lon="22.96373">
        <ele>741.111376</ele>
        <time>2022-04-05T08:08:50.223Z</time>
      </trkpt>
      <trkpt lat="42.54769" lon="22.9637">
        <ele>740.759839</ele>
        <time>2022-04-05T08:08:51.224Z</time>
      </trkpt>
      <trkpt lat="42.5476" lon="22.96368">
        <ele>740.43332</ele>
        <time>2022-04-05T08:08:52.236Z</time>
      </trkpt>
      <trkpt lat="42.54744" lon="22.96363">
        <ele>739.844856</ele>
        <time>2022-04-05T08:08:54.216Z</time>
      </trkpt>
      <trkpt lat="42.54729" lon="22.96355">
        <ele>739.285868</ele>
        <time>2022-04-05T08:08:56.227Z</time>
      </trkpt>
      <trkpt lat="42.54715" lon="22.96348">
        <ele>738.735014</ele>
        <time>2022-04-05T08:08:58.302Z</time>
      </trkpt>
      <trkpt lat="42.54701" lon="22.96341">
        <ele>738.203979</ele>
        <time>2022-04-05T08:09:00.249Z</time>
      </trkpt>
      <trkpt lat="42.54689" lon="22.96333">
        <ele>737.714565</ele>
        <time>2022-04-05T08:09:02.235Z</time>
      </trkpt>
      <trkpt lat="42.54676" lon="22.96326">
        <ele>737.230556</ele>
        <time>2022-04-05T08:09:04.248Z</time>
      </trkpt>
      <trkpt lat="42.54664" lon="22.96319">
        <ele>736.753603</ele>
        <time>2022-04-05T08:09:06.228Z</time>
      </trkpt>
      <trkpt lat="42.5465" lon="22.96316">
        <ele>736.249565</ele>
        <time>2022-04-05T08:09:08.264Z</time>
      </trkpt>
      <trkpt lat="42.54638" lon="22.96313">
        <ele>735.820539</ele>
        <time>2022-04-05T08:09:10.225Z</time>
      </trkpt>
      <trkpt lat="42.54627" lon="22.96311">
        <ele>735.475822</ele>
        <time>2022-04-05T08:09:13.240Z</time>
      </trkpt>
      <trkpt lat="42.54632" lon="22.963">
        <ele>735.178164</ele>
        <time>2022-04-05T08:10:21.221Z</time>
      </trkpt>
      <trkpt lat="42.54624" lon="22.96288">
        <ele>734.820641</ele>
        <time>2022-04-05T08:10:25.219Z</time>
      </trkpt>
      <trkpt lat="42.54615" lon="22.96283">
        <ele>734.539096</ele>
        <time>2022-04-05T08:10:27.216Z</time>
      </trkpt>
      <trkpt lat="42.54606" lon="22.96279">
        <ele>734.234538</ele>
        <time>2022-04-05T08:10:29.216Z</time>
      </trkpt>
      <trkpt lat="42.54597" lon="22.96273">
        <ele>733.930472</ele>
        <time>2022-04-05T08:10:31.233Z</time>
      </trkpt>
      <trkpt lat="42.54587" lon="22.96265">
        <ele>733.57762</ele>
        <time>2022-04-05T08:10:33.229Z</time>
      </trkpt>
      <trkpt lat="42.54575" lon="22.96257">
        <ele>733.169837</ele>
        <time>2022-04-05T08:10:35.228Z</time>
      </trkpt>
      <trkpt lat="42.54564" lon="22.96248">
        <ele>732.790835</ele>
        <time>2022-04-05T08:10:37.219Z</time>
      </trkpt>
      <trkpt lat="42.54554" lon="22.9624">
        <ele>732.439963</ele>
        <time>2022-04-05T08:10:39.315Z</time>
      </trkpt>
      <trkpt lat="42.54545" lon="22.96234">
        <ele>732.13881</ele>
        <time>2022-04-05T08:10:41.226Z</time>
      </trkpt>
      <trkpt lat="42.54537" lon="22.96228">
        <ele>731.865374</ele>
        <time>2022-04-05T08:10:43.212Z</time>
      </trkpt>
      <trkpt lat="42.54528" lon="22.96221">
        <ele>731.547703</ele>
        <time>2022-04-05T08:10:46.213Z</time>
      </trkpt>
      <trkpt lat="42.54518" lon="22.96214">
        <ele>731.194679</ele>
        <time>2022-04-05T08:10:49.221Z</time>
      </trkpt>
      <trkpt lat="42.54506" lon="22.96206">
        <ele>730.78421</ele>
        <time>2022-04-05T08:10:52.219Z</time>
      </trkpt>
      <trkpt lat="42.54495" lon="22.96201">
        <ele>730.431606</ele>
        <time>2022-04-05T08:10:54.230Z</time>
      </trkpt>
      <trkpt lat="42.54482" lon="22.96196">
        <ele>729.887141</ele>
        <time>2022-04-05T08:10:56.212Z</time>
      </trkpt>
      <trkpt lat="42.5447" lon="22.96188">
        <ele>729.316164</ele>
        <time>2022-04-05T08:10:58.260Z</time>
      </trkpt>
      <trkpt lat="42.54458" lon="22.9618">
        <ele>728.729554</ele>
        <time>2022-04-05T08:11:00.228Z</time>
      </trkpt>
      <trkpt lat="42.54447" lon="22.96173">
        <ele>728.203132</ele>
        <time>2022-04-05T08:11:02.217Z</time>
      </trkpt>
      <trkpt lat="42.54435" lon="22.96166">
        <ele>727.655216</ele>
        <time>2022-04-05T08:11:05.221Z</time>
      </trkpt>
      <trkpt lat="42.54422" lon="22.96174">
        <ele>727.043398</ele>
        <time>2022-04-05T08:11:08.217Z</time>
      </trkpt>
      <trkpt lat="42.54416" lon="22.96188">
        <ele>726.52176</ele>
        <time>2022-04-05T08:11:10.228Z</time>
      </trkpt>
      <trkpt lat="42.54415" lon="22.96204">
        <ele>725.996457</ele>
        <time>2022-04-05T08:11:12.204Z</time>
      </trkpt>
      <trkpt lat="42.54415" lon="22.96219">
        <ele>725.54144</ele>
        <time>2022-04-05T08:11:14.219Z</time>
      </trkpt>
      <trkpt lat="42.54416" lon="22.96233">
        <ele>725.097327</ele>
        <time>2022-04-05T08:11:16.226Z</time>
      </trkpt>
      <trkpt lat="42.54417" lon="22.96248">
        <ele>724.596712</ele>
        <time>2022-04-05T08:11:19.210Z</time>
      </trkpt>
      <trkpt lat="42.54419" lon="22.96266">
        <ele>724.037265</ele>
        <time>2022-04-05T08:11:22.212Z</time>
      </trkpt>
      <trkpt lat="42.5442" lon="22.96279">
        <ele>723.629815</ele>
        <time>2022-04-05T08:11:24.221Z</time>
      </trkpt>
      <trkpt lat="42.54421" lon="22.96295">
        <ele>723.109832</ele>
        <time>2022-04-05T08:11:27.221Z</time>
      </trkpt>
      <trkpt lat="42.54423" lon="22.96311">
        <ele>722.593899</ele>
        <time>2022-04-05T08:11:30.235Z</time>
      </trkpt>
      <trkpt lat="42.54425" lon="22.96328">
        <ele>722.166692</ele>
        <time>2022-04-05T08:11:33.256Z</time>
      </trkpt>
      <trkpt lat="42.54428" lon="22.96344">
        <ele>721.751489</ele>
        <time>2022-04-05T08:11:36.235Z</time>
      </trkpt>
      <trkpt lat="42.5443" lon="22.96358">
        <ele>721.376516</ele>
        <time>2022-04-05T08:11:39.230Z</time>
      </trkpt>
      <trkpt lat="42.5443" lon="22.96374">
        <ele>720.972556</ele>
        <time>2022-04-05T08:11:42.230Z</time>
      </trkpt>
      <trkpt lat="42.54431" lon="22.9639">
        <ele>720.562912</ele>
        <time>2022-04-05T08:11:45.253Z</time>
      </trkpt>
      <trkpt lat="42.54433" lon="22.96403">
        <ele>720.219932</ele>
        <time>2022-04-05T08:11:48.221Z</time>
      </trkpt>
      <trkpt lat="42.54432" lon="22.96416">
        <ele>719.882136</ele>
        <time>2022-04-05T08:11:51.219Z</time>
      </trkpt>
      <trkpt lat="42.54429" lon="22.96431">
        <ele>719.490821</ele>
        <time>2022-04-05T08:11:54.217Z</time>
      </trkpt>
      <trkpt lat="42.54422" lon="22.96443">
        <ele>719.089952</ele>
        <time>2022-04-05T08:11:57.224Z</time>
      </trkpt>
      <trkpt lat="42.54418" lon="22.96454">
        <ele>718.780673</ele>
        <time>2022-04-05T08:11:59.223Z</time>
      </trkpt>
      <trkpt lat="42.54413" lon="22.96468">
        <ele>718.405269</ele>
        <time>2022-04-05T08:12:01.219Z</time>
      </trkpt>
      <trkpt lat="42.54409" lon="22.96481">
        <ele>718.052513</ele>
        <time>2022-04-05T08:12:03.230Z</time>
      </trkpt>
      <trkpt lat="42.54403" lon="22.96497">
        <ele>717.597214</ele>
        <time>2022-04-05T08:12:05.215Z</time>
      </trkpt>
      <trkpt lat="42.54396" lon="22.96512">
        <ele>717.141603</ele>
        <time>2022-04-05T08:12:07.209Z</time>
      </trkpt>
      <trkpt lat="42.54389" lon="22.96527">
        <ele>716.681185</ele>
        <time>2022-04-05T08:12:09.217Z</time>
      </trkpt>
      <trkpt lat="42.54381" lon="22.96541">
        <ele>716.398781</ele>
        <time>2022-04-05T08:12:11.212Z</time>
      </trkpt>
      <trkpt lat="42.54377" lon="22.96555">
        <ele>716.375727</ele>
        <time>2022-04-05T08:12:13.220Z</time>
      </trkpt>
      <trkpt lat="42.54368" lon="22.96569">
        <ele>716.349445</ele>
        <time>2022-04-05T08:12:15.244Z</time>
      </trkpt>
      <trkpt lat="42.5436" lon="22.96582">
        <ele>716.32428</ele>
        <time>2022-04-05T08:12:17.255Z</time>
      </trkpt>
      <trkpt lat="42.54351" lon="22.96593">
        <ele>716.29914</ele>
        <time>2022-04-05T08:12:19.232Z</time>
      </trkpt>
      <trkpt lat="42.54343" lon="22.96604">
        <ele>716.277022</ele>
        <time>2022-04-05T08:12:21.209Z</time>
      </trkpt>
      <trkpt lat="42.54336" lon="22.96614">
        <ele>716.256209</ele>
        <time>2022-04-05T08:12:23.224Z</time>
      </trkpt>
      <trkpt lat="42.54328" lon="22.96625">
        <ele>716.234058</ele>
        <time>2022-04-05T08:12:25.208Z</time>
      </trkpt>
      <trkpt lat="42.5432" lon="22.96636">
        <ele>716.210532</ele>
        <time>2022-04-05T08:12:27.230Z</time>
      </trkpt>
      <trkpt lat="42.54312" lon="22.96645">
        <ele>716.189178</ele>
        <time>2022-04-05T08:12:29.218Z</time>
      </trkpt>
      <trkpt lat="42.54304" lon="22.96654">
        <ele>716.168978</ele>
        <time>2022-04-05T08:12:31.221Z</time>
      </trkpt>
      <trkpt lat="42.54294" lon="22.96663">
        <ele>716.144272</ele>
        <time>2022-04-05T08:12:34.217Z</time>
      </trkpt>
      <trkpt lat="42.54284" lon="22.9667">
        <ele>716.122574</ele>
        <time>2022-04-05T08:12:37.235Z</time>
      </trkpt>
      <trkpt lat="42.54273" lon="22.96676">
        <ele>716.097533</ele>
        <time>2022-04-05T08:12:40.253Z</time>
      </trkpt>
      <trkpt lat="42.54263" lon="22.96682">
        <ele>716.07616</ele>
        <time>2022-04-05T08:12:43.209Z</time>
      </trkpt>
      <trkpt lat="42.54253" lon="22.96687">
        <ele>716.055197</ele>
        <time>2022-04-05T08:12:47.244Z</time>
      </trkpt>
      <trkpt lat="42.54244" lon="22.96692">
        <ele>716.465134</ele>
        <time>2022-04-05T08:12:51.233Z</time>
      </trkpt>
      <trkpt lat="42.54236" lon="22.96696">
        <ele>717.157119</ele>
        <time>2022-04-05T08:12:55.253Z</time>
      </trkpt>
      <trkpt lat="42.54227" lon="22.967">
        <ele>717.899647</ele>
        <time>2022-04-05T08:13:01.222Z</time>
      </trkpt>
      <trkpt lat="42.54217" lon="22.96704">
        <ele>718.707127</ele>
        <time>2022-04-05T08:13:08.224Z</time>
      </trkpt>
      <trkpt lat="42.54208" lon="22.96708">
        <ele>719.418852</ele>
        <time>2022-04-05T08:13:15.243Z</time>
      </trkpt>
      <trkpt lat="42.54198" lon="22.96713">
        <ele>720.164844</ele>
        <time>2022-04-05T08:13:22.236Z</time>
      </trkpt>
      <trkpt lat="42.54189" lon="22.96718">
        <ele>720.956362</ele>
        <time>2022-04-05T08:13:28.221Z</time>
      </trkpt>
      <trkpt lat="42.54179" lon="22.96722">
        <ele>721.716724</ele>
        <time>2022-04-05T08:13:35.259Z</time>
      </trkpt>
      <trkpt lat="42.5417" lon="22.96726">
        <ele>722.470666</ele>
        <time>2022-04-05T08:13:41.233Z</time>
      </trkpt>
      <trkpt lat="42.54161" lon="22.96729">
        <ele>723.195326</ele>
        <time>2022-04-05T08:13:47.256Z</time>
      </trkpt>
      <trkpt lat="42.54151" lon="22.96732">
        <ele>723.957054</ele>
        <time>2022-04-05T08:13:53.278Z</time>
      </trkpt>
      <trkpt lat="42.54141" lon="22.96735">
        <ele>724.740805</ele>
        <time>2022-04-05T08:13:59.280Z</time>
      </trkpt>
      <trkpt lat="42.54132" lon="22.96739">
        <ele>725.482898</ele>
        <time>2022-04-05T08:14:06.234Z</time>
      </trkpt>
      <trkpt lat="42.54122" lon="22.96742">
        <ele>726.253056</ele>
        <time>2022-04-05T08:14:13.232Z</time>
      </trkpt>
      <trkpt lat="42.54111" lon="22.96746">
        <ele>727.07613</ele>
        <time>2022-04-05T08:14:19.248Z</time>
      </trkpt>
      <trkpt lat="42.54102" lon="22.96752">
        <ele>727.831526</ele>
        <time>2022-04-05T08:14:25.235Z</time>
      </trkpt>
      <trkpt lat="42.54093" lon="22.96757">
        <ele>728.571258</ele>
        <time>2022-04-05T08:14:31.241Z</time>
      </trkpt>
      <trkpt lat="42.54084" lon="22.96762">
        <ele>729.349911</ele>
        <time>2022-04-05T08:14:38.230Z</time>
      </trkpt>
      <trkpt lat="42.54074" lon="22.96767">
        <ele>729.973655</ele>
        <time>2022-04-05T08:14:44.227Z</time>
      </trkpt>
      <trkpt lat="42.54066" lon="22.96772">
        <ele>730.385823</ele>
        <time>2022-04-05T08:14:50.221Z</time>
      </trkpt>
      <trkpt lat="42.54057" lon="22.96778">
        <ele>730.779876</ele>
        <time>2022-04-05T08:14:56.232Z</time>
      </trkpt>
      <trkpt lat="42.54048" lon="22.96784">
        <ele>731.207771</ele>
        <time>2022-04-05T08:15:02.240Z</time>
      </trkpt>
      <trkpt lat="42.5404" lon="22.9679">
        <ele>731.62993</ele>
        <time>2022-04-05T08:15:08.241Z</time>
      </trkpt>
      <trkpt lat="42.54032" lon="22.96797">
        <ele>732.017911</ele>
        <time>2022-04-05T08:15:14.212Z</time>
      </trkpt>
      <trkpt lat="42.54024" lon="22.96804">
        <ele>732.437936</ele>
        <time>2022-04-05T08:15:21.222Z</time>
      </trkpt>
      <trkpt lat="42.54016" lon="22.96811">
        <ele>732.847401</ele>
        <time>2022-04-05T08:15:26.224Z</time>
      </trkpt>
      <trkpt lat="42.54009" lon="22.96819">
        <ele>733.235596</ele>
        <time>2022-04-05T08:15:31.210Z</time>
      </trkpt>
      <trkpt lat="42.54001" lon="22.96828">
        <ele>733.688608</ele>
        <time>2022-04-05T08:15:36.231Z</time>
      </trkpt>
      <trkpt lat="42.53993" lon="22.96838">
        <ele>734.157386</ele>
        <time>2022-04-05T08:15:40.248Z</time>
      </trkpt>
      <trkpt lat="42.53984" lon="22.96848">
        <ele>734.630432</ele>
        <time>2022-04-05T08:15:44.227Z</time>
      </trkpt>
      <trkpt lat="42.53976" lon="22.96857">
        <ele>735.088602</ele>
        <time>2022-04-05T08:15:48.224Z</time>
      </trkpt>
      <trkpt lat="42.53969" lon="22.96865">
        <ele>735.474352</ele>
        <time>2022-04-05T08:15:51.221Z</time>
      </trkpt>
      <trkpt lat="42.5396" lon="22.96874">
        <ele>735.935449</ele>
        <time>2022-04-05T08:15:54.224Z</time>
      </trkpt>
      <trkpt lat="42.53952" lon="22.96884">
        <ele>736.408508</ele>
        <time>2022-04-05T08:15:57.221Z</time>
      </trkpt>
      <trkpt lat="42.53944" lon="22.96893">
        <ele>736.874603</ele>
        <time>2022-04-05T08:16:00.226Z</time>
      </trkpt>
      <trkpt lat="42.53936" lon="22.96902">
        <ele>737.304348</ele>
        <time>2022-04-05T08:16:03.265Z</time>
      </trkpt>
      <trkpt lat="42.53927" lon="22.9691">
        <ele>737.25883</ele>
        <time>2022-04-05T08:16:06.218Z</time>
      </trkpt>
      <trkpt lat="42.5392" lon="22.96918">
        <ele>736.984099</ele>
        <time>2022-04-05T08:16:09.218Z</time>
      </trkpt>
      <trkpt lat="42.53913" lon="22.96926">
        <ele>736.695631</ele>
        <time>2022-04-05T08:16:12.225Z</time>
      </trkpt>
      <trkpt lat="42.53906" lon="22.96934">
        <ele>736.426417</ele>
        <time>2022-04-05T08:16:15.224Z</time>
      </trkpt>
      <trkpt lat="42.539" lon="22.96943">
        <ele>736.150826</ele>
        <time>2022-04-05T08:16:18.222Z</time>
      </trkpt>
      <trkpt lat="42.53893" lon="22.96952">
        <ele>735.873468</ele>
        <time>2022-04-05T08:16:21.244Z</time>
      </trkpt>
      <trkpt lat="42.53886" lon="22.9696">
        <ele>735.602849</ele>
        <time>2022-04-05T08:16:24.215Z</time>
      </trkpt>
      <trkpt lat="42.5388" lon="22.96968">
        <ele>735.330017</ele>
        <time>2022-04-05T08:16:27.217Z</time>
      </trkpt>
      <trkpt lat="42.53871" lon="22.96979">
        <ele>734.977996</ele>
        <time>2022-04-05T08:16:31.223Z</time>
      </trkpt>
      <trkpt lat="42.53864" lon="22.96989">
        <ele>734.684485</ele>
        <time>2022-04-05T08:16:34.234Z</time>
      </trkpt>
      <trkpt lat="42.53858" lon="22.96998">
        <ele>734.404062</ele>
        <time>2022-04-05T08:16:37.225Z</time>
      </trkpt>
      <trkpt lat="42.53851" lon="22.97007">
        <ele>734.109662</ele>
        <time>2022-04-05T08:16:40.213Z</time>
      </trkpt>
      <trkpt lat="42.53844" lon="22.97017">
        <ele>733.808104</ele>
        <time>2022-04-05T08:16:43.233Z</time>
      </trkpt>
      <trkpt lat="42.53837" lon="22.97027">
        <ele>733.515899</ele>
        <time>2022-04-05T08:16:46.226Z</time>
      </trkpt>
      <trkpt lat="42.5383" lon="22.97037">
        <ele>733.19443</ele>
        <time>2022-04-05T08:16:49.226Z</time>
      </trkpt>
      <trkpt lat="42.53821" lon="22.97047">
        <ele>732.850962</ele>
        <time>2022-04-05T08:16:52.232Z</time>
      </trkpt>
      <trkpt lat="42.53812" lon="22.97058">
        <ele>732.48892</ele>
        <time>2022-04-05T08:16:55.240Z</time>
      </trkpt>
      <trkpt lat="42.53804" lon="22.97072">
        <ele>732.103105</ele>
        <time>2022-04-05T08:16:58.224Z</time>
      </trkpt>
      <trkpt lat="42.53798" lon="22.97081">
        <ele>731.662345</ele>
        <time>2022-04-05T08:17:00.221Z</time>
      </trkpt>
      <trkpt lat="42.53792" lon="22.97091">
        <ele>731.170831</ele>
        <time>2022-04-05T08:17:02.273Z</time>
      </trkpt>
      <trkpt lat="42.53785" lon="22.97101">
        <ele>730.64534</ele>
        <time>2022-04-05T08:17:04.236Z</time>
      </trkpt>
      <trkpt lat="42.53778" lon="22.97112">
        <ele>730.099524</ele>
        <time>2022-04-05T08:17:06.248Z</time>
      </trkpt>
      <trkpt lat="42.53771" lon="22.97124">
        <ele>729.535589</ele>
        <time>2022-04-05T08:17:08.214Z</time>
      </trkpt>
      <trkpt lat="42.53763" lon="22.97135">
        <ele>728.943399</ele>
        <time>2022-04-05T08:17:10.236Z</time>
      </trkpt>
      <trkpt lat="42.53755" lon="22.97147">
        <ele>728.334609</ele>
        <time>2022-04-05T08:17:12.232Z</time>
      </trkpt>
      <trkpt lat="42.53747" lon="22.9716">
        <ele>727.712945</ele>
        <time>2022-04-05T08:17:14.226Z</time>
      </trkpt>
      <trkpt lat="42.53739" lon="22.97172">
        <ele>727.076371</ele>
        <time>2022-04-05T08:17:16.214Z</time>
      </trkpt>
      <trkpt lat="42.5373" lon="22.97184">
        <ele>726.431889</ele>
        <time>2022-04-05T08:17:18.229Z</time>
      </trkpt>
      <trkpt lat="42.53721" lon="22.97196">
        <ele>725.791799</ele>
        <time>2022-04-05T08:17:20.252Z</time>
      </trkpt>
      <trkpt lat="42.53713" lon="22.97209">
        <ele>725.157972</ele>
        <time>2022-04-05T08:17:22.266Z</time>
      </trkpt>
      <trkpt lat="42.53704" lon="22.97221">
        <ele>724.511592</ele>
        <time>2022-04-05T08:17:24.235Z</time>
      </trkpt>
      <trkpt lat="42.53696" lon="22.97233">
        <ele>723.871309</ele>
        <time>2022-04-05T08:17:26.221Z</time>
      </trkpt>
      <trkpt lat="42.53687" lon="22.97246">
        <ele>723.214258</ele>
        <time>2022-04-05T08:17:28.232Z</time>
      </trkpt>
      <trkpt lat="42.53678" lon="22.97258">
        <ele>722.892358</ele>
        <time>2022-04-05T08:17:30.203Z</time>
      </trkpt>
      <trkpt lat="42.53669" lon="22.9727">
        <ele>723.004054</ele>
        <time>2022-04-05T08:17:32.257Z</time>
      </trkpt>
      <trkpt lat="42.53661" lon="22.97281">
        <ele>723.111134</ele>
        <time>2022-04-05T08:17:34.230Z</time>
      </trkpt>
      <trkpt lat="42.53652" lon="22.97292">
        <ele>723.214839</ele>
        <time>2022-04-05T08:17:36.206Z</time>
      </trkpt>
      <trkpt lat="42.53645" lon="22.97301">
        <ele>723.308556</ele>
        <time>2022-04-05T08:17:38.222Z</time>
      </trkpt>
      <trkpt lat="42.53638" lon="22.9731">
        <ele>723.392576</ele>
        <time>2022-04-05T08:17:40.206Z</time>
      </trkpt>
      <trkpt lat="42.53629" lon="22.97322">
        <ele>723.50931</ele>
        <time>2022-04-05T08:17:43.222Z</time>
      </trkpt>
      <trkpt lat="42.53621" lon="22.97334">
        <ele>723.617187</ele>
        <time>2022-04-05T08:17:46.207Z</time>
      </trkpt>
      <trkpt lat="42.53613" lon="22.97345">
        <ele>723.720449</ele>
        <time>2022-04-05T08:17:49.245Z</time>
      </trkpt>
      <trkpt lat="42.53605" lon="22.97355">
        <ele>723.818301</ele>
        <time>2022-04-05T08:17:52.216Z</time>
      </trkpt>
      <trkpt lat="42.53598" lon="22.97365">
        <ele>723.912846</ele>
        <time>2022-04-05T08:17:55.215Z</time>
      </trkpt>
      <trkpt lat="42.53591" lon="22.97375">
        <ele>724.003859</ele>
        <time>2022-04-05T08:17:58.233Z</time>
      </trkpt>
      <trkpt lat="42.53583" lon="22.97384">
        <ele>724.09342</ele>
        <time>2022-04-05T08:18:01.240Z</time>
      </trkpt>
      <trkpt lat="42.53576" lon="22.97393">
        <ele>724.186665</ele>
        <time>2022-04-05T08:18:04.215Z</time>
      </trkpt>
      <trkpt lat="42.53569" lon="22.97403">
        <ele>724.276401</ele>
        <time>2022-04-05T08:18:07.265Z</time>
      </trkpt>
      <trkpt lat="42.53562" lon="22.97412">
        <ele>724.363124</ele>
        <time>2022-04-05T08:18:10.228Z</time>
      </trkpt>
      <trkpt lat="42.53556" lon="22.97421">
        <ele>724.447164</ele>
        <time>2022-04-05T08:18:13.214Z</time>
      </trkpt>
      <trkpt lat="42.53549" lon="22.97431">
        <ele>724.687985</ele>
        <time>2022-04-05T08:18:16.223Z</time>
      </trkpt>
      <trkpt lat="42.53542" lon="22.97439">
        <ele>724.996683</ele>
        <time>2022-04-05T08:18:19.222Z</time>
      </trkpt>
      <trkpt lat="42.53536" lon="22.97448">
        <ele>725.292631</ele>
        <time>2022-04-05T08:18:22.258Z</time>
      </trkpt>
      <trkpt lat="42.53529" lon="22.97457">
        <ele>725.592969</ele>
        <time>2022-04-05T08:18:25.210Z</time>
      </trkpt>
      <trkpt lat="42.53521" lon="22.97467">
        <ele>725.962808</ele>
        <time>2022-04-05T08:18:29.229Z</time>
      </trkpt>
      <trkpt lat="42.53514" lon="22.97478">
        <ele>726.335486</ele>
        <time>2022-04-05T08:18:33.243Z</time>
      </trkpt>
      <trkpt lat="42.53506" lon="22.97488">
        <ele>726.683384</ele>
        <time>2022-04-05T08:18:37.241Z</time>
      </trkpt>
      <trkpt lat="42.53498" lon="22.97498">
        <ele>727.035986</ele>
        <time>2022-04-05T08:18:41.236Z</time>
      </trkpt>
      <trkpt lat="42.53491" lon="22.97508">
        <ele>727.389293</ele>
        <time>2022-04-05T08:18:45.203Z</time>
      </trkpt>
      <trkpt lat="42.53483" lon="22.97518">
        <ele>727.737842</ele>
        <time>2022-04-05T08:18:49.244Z</time>
      </trkpt>
      <trkpt lat="42.53476" lon="22.97528">
        <ele>728.07765</ele>
        <time>2022-04-05T08:18:53.234Z</time>
      </trkpt>
      <trkpt lat="42.53468" lon="22.97539">
        <ele>728.424944</ele>
        <time>2022-04-05T08:18:57.231Z</time>
      </trkpt>
      <trkpt lat="42.53462" lon="22.97548">
        <ele>728.747064</ele>
        <time>2022-04-05T08:19:01.217Z</time>
      </trkpt>
      <trkpt lat="42.53455" lon="22.97557">
        <ele>729.062899</ele>
        <time>2022-04-05T08:19:05.221Z</time>
      </trkpt>
      <trkpt lat="42.53448" lon="22.97566">
        <ele>729.373016</ele>
        <time>2022-04-05T08:19:09.227Z</time>
      </trkpt>
      <trkpt lat="42.53441" lon="22.97576">
        <ele>729.707067</ele>
        <time>2022-04-05T08:19:13.223Z</time>
      </trkpt>
      <trkpt lat="42.53433" lon="22.97585">
        <ele>730.035091</ele>
        <time>2022-04-05T08:19:17.244Z</time>
      </trkpt>
      <trkpt lat="42.53426" lon="22.97595">
        <ele>730.375538</ele>
        <time>2022-04-05T08:19:21.223Z</time>
      </trkpt>
      <trkpt lat="42.53418" lon="22.97605">
        <ele>730.526122</ele>
        <time>2022-04-05T08:19:25.261Z</time>
      </trkpt>
      <trkpt lat="42.53412" lon="22.97614">
        <ele>730.649187</ele>
        <time>2022-04-05T08:19:29.234Z</time>
      </trkpt>
      <trkpt lat="42.53405" lon="22.97623">
        <ele>730.772259</ele>
        <time>2022-04-05T08:19:33.218Z</time>
      </trkpt>
      <trkpt lat="42.53398" lon="22.97633">
        <ele>730.903367</ele>
        <time>2022-04-05T08:19:37.242Z</time>
      </trkpt>
      <trkpt lat="42.5339" lon="22.97644">
        <ele>731.042095</ele>
        <time>2022-04-05T08:19:41.220Z</time>
      </trkpt>
      <trkpt lat="42.53382" lon="22.97655">
        <ele>731.189118</ele>
        <time>2022-04-05T08:19:45.237Z</time>
      </trkpt>
      <trkpt lat="42.53374" lon="22.97666">
        <ele>731.331887</ele>
        <time>2022-04-05T08:19:49.229Z</time>
      </trkpt>
      <trkpt lat="42.53366" lon="22.97677">
        <ele>731.478052</ele>
        <time>2022-04-05T08:19:53.232Z</time>
      </trkpt>
      <trkpt lat="42.53358" lon="22.97687">
        <ele>731.621069</ele>
        <time>2022-04-05T08:19:57.244Z</time>
      </trkpt>
      <trkpt lat="42.5335" lon="22.97699">
        <ele>731.771228</ele>
        <time>2022-04-05T08:20:01.234Z</time>
      </trkpt>
      <trkpt lat="42.53342" lon="22.97709">
        <ele>731.909784</ele>
        <time>2022-04-05T08:20:05.220Z</time>
      </trkpt>
      <trkpt lat="42.53334" lon="22.9772">
        <ele>732.056608</ele>
        <time>2022-04-05T08:20:09.231Z</time>
      </trkpt>
      <trkpt lat="42.53327" lon="22.97728">
        <ele>732.172254</ele>
        <time>2022-04-05T08:20:12.231Z</time>
      </trkpt>
      <trkpt lat="42.53319" lon="22.9774">
        <ele>732.327792</ele>
        <time>2022-04-05T08:20:16.225Z</time>
      </trkpt>
      <trkpt lat="42.53312" lon="22.97751">
        <ele>732.463384</ele>
        <time>2022-04-05T08:20:20.214Z</time>
      </trkpt>
      <trkpt lat="42.53304" lon="22.97761">
        <ele>732.599448</ele>
        <time>2022-04-05T08:20:24.231Z</time>
      </trkpt>
      <trkpt lat="42.53296" lon="22.97772">
        <ele>732.749815</ele>
        <time>2022-04-05T08:20:28.222Z</time>
      </trkpt>
      <trkpt lat="42.53289" lon="22.97781">
        <ele>732.881347</ele>
        <time>2022-04-05T08:20:31.228Z</time>
      </trkpt>
      <trkpt lat="42.53282" lon="22.9779">
        <ele>733.024549</ele>
        <time>2022-04-05T08:20:34.245Z</time>
      </trkpt>
      <trkpt lat="42.53275" lon="22.97799">
        <ele>733.162989</ele>
        <time>2022-04-05T08:20:37.219Z</time>
      </trkpt>
      <trkpt lat="42.53267" lon="22.97809">
        <ele>733.306851</ele>
        <time>2022-04-05T08:20:40.233Z</time>
      </trkpt>
      <trkpt lat="42.5326" lon="22.97818">
        <ele>733.450712</ele>
        <time>2022-04-05T08:20:43.271Z</time>
      </trkpt>
      <trkpt lat="42.53252" lon="22.97828">
        <ele>733.602272</ele>
        <time>2022-04-05T08:20:46.217Z</time>
      </trkpt>
      <trkpt lat="42.53244" lon="22.97838">
        <ele>733.750675</ele>
        <time>2022-04-05T08:20:49.222Z</time>
      </trkpt>
      <trkpt lat="42.53237" lon="22.97848">
        <ele>733.899944</ele>
        <time>2022-04-05T08:20:52.240Z</time>
      </trkpt>
      <trkpt lat="42.53229" lon="22.97859">
        <ele>734.052411</ele>
        <time>2022-04-05T08:20:55.217Z</time>
      </trkpt>
      <trkpt lat="42.53221" lon="22.9787">
        <ele>734.20883</ele>
        <time>2022-04-05T08:20:58.230Z</time>
      </trkpt>
      <trkpt lat="42.53213" lon="22.9788">
        <ele>734.366472</ele>
        <time>2022-04-05T08:21:01.227Z</time>
      </trkpt>
      <trkpt lat="42.53205" lon="22.97892">
        <ele>734.534711</ele>
        <time>2022-04-05T08:21:04.217Z</time>
      </trkpt>
      <trkpt lat="42.53196" lon="22.97904">
        <ele>734.710089</ele>
        <time>2022-04-05T08:21:07.233Z</time>
      </trkpt>
      <trkpt lat="42.53187" lon="22.97917">
        <ele>734.896558</ele>
        <time>2022-04-05T08:21:10.228Z</time>
      </trkpt>
      <trkpt lat="42.53181" lon="22.97925">
        <ele>735.023906</ele>
        <time>2022-04-05T08:21:12.237Z</time>
      </trkpt>
      <trkpt lat="42.53174" lon="22.97934">
        <ele>735.153471</ele>
        <time>2022-04-05T08:21:14.217Z</time>
      </trkpt>
      <trkpt lat="42.53168" lon="22.97944">
        <ele>735.129185</ele>
        <time>2022-04-05T08:21:16.225Z</time>
      </trkpt>
      <trkpt lat="42.53161" lon="22.97953">
        <ele>734.905951</ele>
        <time>2022-04-05T08:21:18.227Z</time>
      </trkpt>
      <trkpt lat="42.53154" lon="22.97962">
        <ele>734.678882</ele>
        <time>2022-04-05T08:21:20.226Z</time>
      </trkpt>
      <trkpt lat="42.53147" lon="22.97971">
        <ele>734.448891</ele>
        <time>2022-04-05T08:21:22.239Z</time>
      </trkpt>
      <trkpt lat="42.5314" lon="22.9798">
        <ele>734.222303</ele>
        <time>2022-04-05T08:21:24.229Z</time>
      </trkpt>
      <trkpt lat="42.53134" lon="22.97989">
        <ele>733.999467</ele>
        <time>2022-04-05T08:21:26.239Z</time>
      </trkpt>
      <trkpt lat="42.53127" lon="22.97998">
        <ele>733.774808</ele>
        <time>2022-04-05T08:21:28.244Z</time>
      </trkpt>
      <trkpt lat="42.5312" lon="22.98007">
        <ele>733.548947</ele>
        <time>2022-04-05T08:21:30.220Z</time>
      </trkpt>
      <trkpt lat="42.53113" lon="22.98016">
        <ele>733.319889</ele>
        <time>2022-04-05T08:21:32.215Z</time>
      </trkpt>
      <trkpt lat="42.53106" lon="22.98025">
        <ele>733.094028</ele>
        <time>2022-04-05T08:21:34.222Z</time>
      </trkpt>
      <trkpt lat="42.53099" lon="22.98034">
        <ele>732.871747</ele>
        <time>2022-04-05T08:21:36.229Z</time>
      </trkpt>
      <trkpt lat="42.53093" lon="22.98043">
        <ele>732.652219</ele>
        <time>2022-04-05T08:21:38.256Z</time>
      </trkpt>
      <trkpt lat="42.53086" lon="22.98051">
        <ele>732.430993</ele>
        <time>2022-04-05T08:21:40.228Z</time>
      </trkpt>
      <trkpt lat="42.53077" lon="22.98064">
        <ele>732.116716</ele>
        <time>2022-04-05T08:21:43.220Z</time>
      </trkpt>
      <trkpt lat="42.53068" lon="22.98077">
        <ele>731.809506</ele>
        <time>2022-04-05T08:21:46.219Z</time>
      </trkpt>
      <trkpt lat="42.53058" lon="22.9809">
        <ele>731.496891</ele>
        <time>2022-04-05T08:21:49.256Z</time>
      </trkpt>
      <trkpt lat="42.53049" lon="22.98102">
        <ele>731.188777</ele>
        <time>2022-04-05T08:21:52.245Z</time>
      </trkpt>
      <trkpt lat="42.5304" lon="22.98113">
        <ele>730.962692</ele>
        <time>2022-04-05T08:21:55.208Z</time>
      </trkpt>
      <trkpt lat="42.53031" lon="22.98126">
        <ele>730.968668</ele>
        <time>2022-04-05T08:21:58.228Z</time>
      </trkpt>
      <trkpt lat="42.53022" lon="22.98139">
        <ele>730.974733</ele>
        <time>2022-04-05T08:22:01.265Z</time>
      </trkpt>
      <trkpt lat="42.53013" lon="22.9815">
        <ele>730.980357</ele>
        <time>2022-04-05T08:22:04.222Z</time>
      </trkpt>
      <trkpt lat="42.53004" lon="22.98162">
        <ele>730.986116</ele>
        <time>2022-04-05T08:22:07.219Z</time>
      </trkpt>
      <trkpt lat="42.52995" lon="22.98175">
        <ele>730.991933</ele>
        <time>2022-04-05T08:22:10.229Z</time>
      </trkpt>
      <trkpt lat="42.52986" lon="22.98187">
        <ele>730.997917</ele>
        <time>2022-04-05T08:22:13.234Z</time>
      </trkpt>
      <trkpt lat="42.52977" lon="22.98199">
        <ele>731.003669</ele>
        <time>2022-04-05T08:22:16.235Z</time>
      </trkpt>
      <trkpt lat="42.52968" lon="22.98212">
        <ele>731.009453</ele>
        <time>2022-04-05T08:22:19.221Z</time>
      </trkpt>
      <trkpt lat="42.52959" lon="22.98224">
        <ele>731.015261</ele>
        <time>2022-04-05T08:22:22.217Z</time>
      </trkpt>
      <trkpt lat="42.52951" lon="22.98236">
        <ele>731.02082</ele>
        <time>2022-04-05T08:22:25.255Z</time>
      </trkpt>
      <trkpt lat="42.52942" lon="22.98247">
        <ele>731.026196</ele>
        <time>2022-04-05T08:22:28.219Z</time>
      </trkpt>
      <trkpt lat="42.52934" lon="22.98258">
        <ele>731.031524</ele>
        <time>2022-04-05T08:22:31.211Z</time>
      </trkpt>
      <trkpt lat="42.52925" lon="22.9827">
        <ele>731.037148</ele>
        <time>2022-04-05T08:22:34.222Z</time>
      </trkpt>
      <trkpt lat="42.52916" lon="22.98282">
        <ele>731.043092</ele>
        <time>2022-04-05T08:22:37.224Z</time>
      </trkpt>
      <trkpt lat="42.52908" lon="22.98294">
        <ele>730.997548</ele>
        <time>2022-04-05T08:22:40.216Z</time>
      </trkpt>
      <trkpt lat="42.52901" lon="22.98303">
        <ele>730.958016</ele>
        <time>2022-04-05T08:22:42.228Z</time>
      </trkpt>
      <trkpt lat="42.52895" lon="22.98312">
        <ele>730.917721</ele>
        <time>2022-04-05T08:22:44.215Z</time>
      </trkpt>
      <trkpt lat="42.52888" lon="22.98321">
        <ele>730.874435</ele>
        <time>2022-04-05T08:22:46.260Z</time>
      </trkpt>
      <trkpt lat="42.52878" lon="22.98334">
        <ele>730.813952</ele>
        <time>2022-04-05T08:22:49.211Z</time>
      </trkpt>
      <trkpt lat="42.52871" lon="22.98343">
        <ele>730.773038</ele>
        <time>2022-04-05T08:22:51.221Z</time>
      </trkpt>
      <trkpt lat="42.52862" lon="22.98355">
        <ele>730.717604</ele>
        <time>2022-04-05T08:22:54.222Z</time>
      </trkpt>
      <trkpt lat="42.52853" lon="22.98368">
        <ele>730.6611</ele>
        <time>2022-04-05T08:22:57.234Z</time>
      </trkpt>
      <trkpt lat="42.52844" lon="22.9838">
        <ele>730.605098</ele>
        <time>2022-04-05T08:23:00.220Z</time>
      </trkpt>
      <trkpt lat="42.52835" lon="22.98392">
        <ele>730.550428</ele>
        <time>2022-04-05T08:23:03.228Z</time>
      </trkpt>
      <trkpt lat="42.52826" lon="22.98404">
        <ele>730.496441</ele>
        <time>2022-04-05T08:23:06.223Z</time>
      </trkpt>
      <trkpt lat="42.52818" lon="22.98416">
        <ele>730.44299</ele>
        <time>2022-04-05T08:23:09.219Z</time>
      </trkpt>
      <trkpt lat="42.52809" lon="22.98428">
        <ele>730.387168</ele>
        <time>2022-04-05T08:23:12.224Z</time>
      </trkpt>
      <trkpt lat="42.528" lon="22.98439">
        <ele>730.333222</ele>
        <time>2022-04-05T08:23:15.234Z</time>
      </trkpt>
      <trkpt lat="42.5279" lon="22.98452">
        <ele>730.275923</ele>
        <time>2022-04-05T08:23:18.219Z</time>
      </trkpt>
      <trkpt lat="42.52781" lon="22.98464">
        <ele>730.322699</ele>
        <time>2022-04-05T08:23:21.238Z</time>
      </trkpt>
      <trkpt lat="42.52772" lon="22.98477">
        <ele>730.423749</ele>
        <time>2022-04-05T08:23:24.242Z</time>
      </trkpt>
      <trkpt lat="42.52762" lon="22.98489">
        <ele>730.520277</ele>
        <time>2022-04-05T08:23:27.227Z</time>
      </trkpt>
      <trkpt lat="42.52754" lon="22.985">
        <ele>730.612423</ele>
        <time>2022-04-05T08:23:30.233Z</time>
      </trkpt>
      <trkpt lat="42.52744" lon="22.98512">
        <ele>730.708789</ele>
        <time>2022-04-05T08:23:33.219Z</time>
      </trkpt>
      <trkpt lat="42.52735" lon="22.98525">
        <ele>730.807227</ele>
        <time>2022-04-05T08:23:36.238Z</time>
      </trkpt>
      <trkpt lat="42.52726" lon="22.98537">
        <ele>730.904745</ele>
        <time>2022-04-05T08:23:39.221Z</time>
      </trkpt>
      <trkpt lat="42.52717" lon="22.98549">
        <ele>730.998887</ele>
        <time>2022-04-05T08:23:42.230Z</time>
      </trkpt>
      <trkpt lat="42.52708" lon="22.98561">
        <ele>731.092873</ele>
        <time>2022-04-05T08:23:45.232Z</time>
      </trkpt>
      <trkpt lat="42.52699" lon="22.98572">
        <ele>731.179503</ele>
        <time>2022-04-05T08:23:48.228Z</time>
      </trkpt>
      <trkpt lat="42.52691" lon="22.98584">
        <ele>731.272036</ele>
        <time>2022-04-05T08:23:51.216Z</time>
      </trkpt>
      <trkpt lat="42.52682" lon="22.98596">
        <ele>731.365876</ele>
        <time>2022-04-05T08:23:54.233Z</time>
      </trkpt>
      <trkpt lat="42.52673" lon="22.98608">
        <ele>731.458943</ele>
        <time>2022-04-05T08:23:57.221Z</time>
      </trkpt>
      <trkpt lat="42.52664" lon="22.9862">
        <ele>731.55501</ele>
        <time>2022-04-05T08:24:00.219Z</time>
      </trkpt>
      <trkpt lat="42.52655" lon="22.98633">
        <ele>731.639471</ele>
        <time>2022-04-05T08:24:03.265Z</time>
      </trkpt>
      <trkpt lat="42.52646" lon="22.98645">
        <ele>731.709647</ele>
        <time>2022-04-05T08:24:06.224Z</time>
      </trkpt>
      <trkpt lat="42.52637" lon="22.98657">
        <ele>731.781103</ele>
        <time>2022-04-05T08:24:09.211Z</time>
      </trkpt>
      <trkpt lat="42.52628" lon="22.9867">
        <ele>731.853062</ele>
        <time>2022-04-05T08:24:12.246Z</time>
      </trkpt>
      <trkpt lat="42.52619" lon="22.98682">
        <ele>731.920223</ele>
        <time>2022-04-05T08:24:15.230Z</time>
      </trkpt>
      <trkpt lat="42.52611" lon="22.98694">
        <ele>731.98812</ele>
        <time>2022-04-05T08:24:18.221Z</time>
      </trkpt>
      <trkpt lat="42.52603" lon="22.98707">
        <ele>732.059571</ele>
        <time>2022-04-05T08:24:21.222Z</time>
      </trkpt>
      <trkpt lat="42.52594" lon="22.98721">
        <ele>732.134165</ele>
        <time>2022-04-05T08:24:24.229Z</time>
      </trkpt>
      <trkpt lat="42.52585" lon="22.98734">
        <ele>732.204886</ele>
        <time>2022-04-05T08:24:27.223Z</time>
      </trkpt>
      <trkpt lat="42.52577" lon="22.98747">
        <ele>732.27628</ele>
        <time>2022-04-05T08:24:30.217Z</time>
      </trkpt>
      <trkpt lat="42.52571" lon="22.98756">
        <ele>732.325762</ele>
        <time>2022-04-05T08:24:32.230Z</time>
      </trkpt>
      <trkpt lat="42.52563" lon="22.98769">
        <ele>732.39525</ele>
        <time>2022-04-05T08:24:35.223Z</time>
      </trkpt>
      <trkpt lat="42.52555" lon="22.98782">
        <ele>732.464166</ele>
        <time>2022-04-05T08:24:38.217Z</time>
      </trkpt>
      <trkpt lat="42.52549" lon="22.98791">
        <ele>732.514524</ele>
        <time>2022-04-05T08:24:40.225Z</time>
      </trkpt>
      <trkpt lat="42.52543" lon="22.98801">
        <ele>732.564758</ele>
        <time>2022-04-05T08:24:42.242Z</time>
      </trkpt>
      <trkpt lat="42.52535" lon="22.98814">
        <ele>732.587619</ele>
        <time>2022-04-05T08:24:45.227Z</time>
      </trkpt>
      <trkpt lat="42.52527" lon="22.98827">
        <ele>732.555495</ele>
        <time>2022-04-05T08:24:48.227Z</time>
      </trkpt>
      <trkpt lat="42.52518" lon="22.9884">
        <ele>732.523398</ele>
        <time>2022-04-05T08:24:51.228Z</time>
      </trkpt>
      <trkpt lat="42.5251" lon="22.98854">
        <ele>732.491233</ele>
        <time>2022-04-05T08:24:54.237Z</time>
      </trkpt>
      <trkpt lat="42.52502" lon="22.98868">
        <ele>732.458271</ele>
        <time>2022-04-05T08:24:57.219Z</time>
      </trkpt>
      <trkpt lat="42.52493" lon="22.98882">
        <ele>732.424724</ele>
        <time>2022-04-05T08:25:00.222Z</time>
      </trkpt>
      <trkpt lat="42.52485" lon="22.98895">
        <ele>732.391496</ele>
        <time>2022-04-05T08:25:03.223Z</time>
      </trkpt>
      <trkpt lat="42.52479" lon="22.98905">
        <ele>732.368263</ele>
        <time>2022-04-05T08:25:05.266Z</time>
      </trkpt>
      <trkpt lat="42.52473" lon="22.98916">
        <ele>732.344003</ele>
        <time>2022-04-05T08:25:07.211Z</time>
      </trkpt>
      <trkpt lat="42.52467" lon="22.98925">
        <ele>732.32077</ele>
        <time>2022-04-05T08:25:09.240Z</time>
      </trkpt>
      <trkpt lat="42.52461" lon="22.98935">
        <ele>732.298126</ele>
        <time>2022-04-05T08:25:11.228Z</time>
      </trkpt>
      <trkpt lat="42.52453" lon="22.98948">
        <ele>732.26609</ele>
        <time>2022-04-05T08:25:14.224Z</time>
      </trkpt>
      <trkpt lat="42.52445" lon="22.98962">
        <ele>732.23434</ele>
        <time>2022-04-05T08:25:17.226Z</time>
      </trkpt>
      <trkpt lat="42.52437" lon="22.98975">
        <ele>732.202631</ele>
        <time>2022-04-05T08:25:20.213Z</time>
      </trkpt>
      <trkpt lat="42.52429" lon="22.98988">
        <ele>732.171304</ele>
        <time>2022-04-05T08:25:23.220Z</time>
      </trkpt>
      <trkpt lat="42.52423" lon="22.98997">
        <ele>732.138162</ele>
        <time>2022-04-05T08:25:25.230Z</time>
      </trkpt>
      <trkpt lat="42.52417" lon="22.99007">
        <ele>732.050785</ele>
        <time>2022-04-05T08:25:27.245Z</time>
      </trkpt>
      <trkpt lat="42.52411" lon="22.99017">
        <ele>731.96229</ele>
        <time>2022-04-05T08:25:29.290Z</time>
      </trkpt>
      <trkpt lat="42.52405" lon="22.99027">
        <ele>731.87655</ele>
        <time>2022-04-05T08:25:31.243Z</time>
      </trkpt>
      <trkpt lat="42.52399" lon="22.99036">
        <ele>731.791927</ele>
        <time>2022-04-05T08:25:33.268Z</time>
      </trkpt>
      <trkpt lat="42.52393" lon="22.99046">
        <ele>731.700076</ele>
        <time>2022-04-05T08:25:35.237Z</time>
      </trkpt>
      <trkpt lat="42.52386" lon="22.99056">
        <ele>731.612699</ele>
        <time>2022-04-05T08:25:37.227Z</time>
      </trkpt>
      <trkpt lat="42.5238" lon="22.99066">
        <ele>731.524277</ele>
        <time>2022-04-05T08:25:39.248Z</time>
      </trkpt>
      <trkpt lat="42.52374" lon="22.99077">
        <ele>731.429879</ele>
        <time>2022-04-05T08:25:41.235Z</time>
      </trkpt>
      <trkpt lat="42.52368" lon="22.99087">
        <ele>731.337122</ele>
        <time>2022-04-05T08:25:43.233Z</time>
      </trkpt>
      <trkpt lat="42.52361" lon="22.99098">
        <ele>731.240502</ele>
        <time>2022-04-05T08:25:45.292Z</time>
      </trkpt>
      <trkpt lat="42.52354" lon="22.99109">
        <ele>731.140797</ele>
        <time>2022-04-05T08:25:47.239Z</time>
      </trkpt>
      <trkpt lat="42.52347" lon="22.9912">
        <ele>731.044177</ele>
        <time>2022-04-05T08:25:49.244Z</time>
      </trkpt>
      <trkpt lat="42.52341" lon="22.99131">
        <ele>730.949055</ele>
        <time>2022-04-05T08:25:51.216Z</time>
      </trkpt>
      <trkpt lat="42.52334" lon="22.99142">
        <ele>730.851906</ele>
        <time>2022-04-05T08:25:53.222Z</time>
      </trkpt>
      <trkpt lat="42.52327" lon="22.99154">
        <ele>730.750894</ele>
        <time>2022-04-05T08:25:55.272Z</time>
      </trkpt>
      <trkpt lat="42.5232" lon="22.99165">
        <ele>730.646991</ele>
        <time>2022-04-05T08:25:57.274Z</time>
      </trkpt>
      <trkpt lat="42.52313" lon="22.99176">
        <ele>730.549348</ele>
        <time>2022-04-05T08:25:59.246Z</time>
      </trkpt>
      <trkpt lat="42.52306" lon="22.99188">
        <ele>730.464698</ele>
        <time>2022-04-05T08:26:01.359Z</time>
      </trkpt>
      <trkpt lat="42.52299" lon="22.992">
        <ele>730.4013</ele>
        <time>2022-04-05T08:26:03.217Z</time>
      </trkpt>
      <trkpt lat="42.52292" lon="22.99212">
        <ele>730.337942</ele>
        <time>2022-04-05T08:26:05.205Z</time>
      </trkpt>
      <trkpt lat="42.52285" lon="22.99224">
        <ele>730.273593</ele>
        <time>2022-04-05T08:26:07.219Z</time>
      </trkpt>
      <trkpt lat="42.52277" lon="22.99236">
        <ele>730.20691</ele>
        <time>2022-04-05T08:26:09.228Z</time>
      </trkpt>
      <trkpt lat="42.5227" lon="22.99248">
        <ele>730.142879</ele>
        <time>2022-04-05T08:26:11.230Z</time>
      </trkpt>
      <trkpt lat="42.52262" lon="22.9926">
        <ele>730.080055</ele>
        <time>2022-04-05T08:26:13.232Z</time>
      </trkpt>
      <trkpt lat="42.52255" lon="22.99272">
        <ele>730.016657</ele>
        <time>2022-04-05T08:26:15.230Z</time>
      </trkpt>
      <trkpt lat="42.52248" lon="22.99283">
        <ele>729.954199</ele>
        <time>2022-04-05T08:26:17.272Z</time>
      </trkpt>
      <trkpt lat="42.5224" lon="22.99295">
        <ele>729.888724</ele>
        <time>2022-04-05T08:26:19.229Z</time>
      </trkpt>
      <trkpt lat="42.52233" lon="22.99306">
        <ele>729.829363</ele>
        <time>2022-04-05T08:26:21.213Z</time>
      </trkpt>
      <trkpt lat="42.52226" lon="22.99317">
        <ele>729.769291</ele>
        <time>2022-04-05T08:26:23.267Z</time>
      </trkpt>
      <trkpt lat="42.5222" lon="22.99329">
        <ele>729.708318</ele>
        <time>2022-04-05T08:26:25.236Z</time>
      </trkpt>
      <trkpt lat="42.52213" lon="22.99341">
        <ele>729.647645</ele>
        <time>2022-04-05T08:26:27.237Z</time>
      </trkpt>
      <trkpt lat="42.52206" lon="22.99352">
        <ele>729.587685</ele>
        <time>2022-04-05T08:26:29.222Z</time>
      </trkpt>
      <trkpt lat="42.522" lon="22.99364">
        <ele>729.529705</ele>
        <time>2022-04-05T08:26:31.228Z</time>
      </trkpt>
      <trkpt lat="42.52194" lon="22.99374">
        <ele>729.435506</ele>
        <time>2022-04-05T08:26:33.227Z</time>
      </trkpt>
      <trkpt lat="42.52187" lon="22.99385">
        <ele>729.223505</ele>
        <time>2022-04-05T08:26:35.228Z</time>
      </trkpt>
      <trkpt lat="42.52181" lon="22.99396">
        <ele>729.023904</ele>
        <time>2022-04-05T08:26:37.208Z</time>
      </trkpt>
      <trkpt lat="42.52176" lon="22.99406">
        <ele>728.829149</ele>
        <time>2022-04-05T08:26:39.229Z</time>
      </trkpt>
      <trkpt lat="42.5217" lon="22.99416">
        <ele>728.635714</ele>
        <time>2022-04-05T08:26:41.217Z</time>
      </trkpt>
      <trkpt lat="42.52164" lon="22.99426">
        <ele>728.444648</ele>
        <time>2022-04-05T08:26:43.217Z</time>
      </trkpt>
      <trkpt lat="42.52157" lon="22.9944">
        <ele>728.169882</ele>
        <time>2022-04-05T08:26:46.228Z</time>
      </trkpt>
      <trkpt lat="42.52148" lon="22.99454">
        <ele>727.894897</ele>
        <time>2022-04-05T08:26:49.234Z</time>
      </trkpt>
      <trkpt lat="42.52142" lon="22.99464">
        <ele>727.697654</ele>
        <time>2022-04-05T08:26:51.263Z</time>
      </trkpt>
      <trkpt lat="42.52137" lon="22.99475">
        <ele>727.494357</ele>
        <time>2022-04-05T08:26:53.228Z</time>
      </trkpt>
      <trkpt lat="42.5213" lon="22.99485">
        <ele>727.285822</ele>
        <time>2022-04-05T08:26:55.241Z</time>
      </trkpt>
      <trkpt lat="42.52123" lon="22.99497">
        <ele>727.06505</ele>
        <time>2022-04-05T08:26:57.280Z</time>
      </trkpt>
      <trkpt lat="42.52117" lon="22.99508">
        <ele>726.849269</ele>
        <time>2022-04-05T08:26:59.220Z</time>
      </trkpt>
      <trkpt lat="42.5211" lon="22.99519">
        <ele>726.623499</ele>
        <time>2022-04-05T08:27:01.219Z</time>
      </trkpt>
      <trkpt lat="42.52103" lon="22.9953">
        <ele>726.399144</ele>
        <time>2022-04-05T08:27:03.256Z</time>
      </trkpt>
      <trkpt lat="42.52096" lon="22.99543">
        <ele>726.158636</ele>
        <time>2022-04-05T08:27:05.224Z</time>
      </trkpt>
      <trkpt lat="42.52089" lon="22.99554">
        <ele>725.927997</ele>
        <time>2022-04-05T08:27:07.228Z</time>
      </trkpt>
      <trkpt lat="42.52082" lon="22.99567">
        <ele>725.711152</ele>
        <time>2022-04-05T08:27:09.227Z</time>
      </trkpt>
      <trkpt lat="42.52075" lon="22.99579">
        <ele>725.550349</ele>
        <time>2022-04-05T08:27:11.232Z</time>
      </trkpt>
      <trkpt lat="42.52067" lon="22.99592">
        <ele>725.386692</ele>
        <time>2022-04-05T08:27:13.237Z</time>
      </trkpt>
      <trkpt lat="42.52059" lon="22.99604">
        <ele>725.221933</ele>
        <time>2022-04-05T08:27:15.234Z</time>
      </trkpt>
      <trkpt lat="42.52051" lon="22.99618">
        <ele>725.053923</ele>
        <time>2022-04-05T08:27:17.237Z</time>
      </trkpt>
      <trkpt lat="42.52043" lon="22.9963">
        <ele>724.883838</ele>
        <time>2022-04-05T08:27:19.216Z</time>
      </trkpt>
      <trkpt lat="42.52035" lon="22.99643">
        <ele>724.719678</ele>
        <time>2022-04-05T08:27:21.217Z</time>
      </trkpt>
      <trkpt lat="42.52027" lon="22.99656">
        <ele>724.554753</ele>
        <time>2022-04-05T08:27:23.217Z</time>
      </trkpt>
      <trkpt lat="42.5202" lon="22.99669">
        <ele>724.38759</ele>
        <time>2022-04-05T08:27:25.233Z</time>
      </trkpt>
      <trkpt lat="42.52012" lon="22.99682">
        <ele>724.222756</ele>
        <time>2022-04-05T08:27:27.219Z</time>
      </trkpt>
      <trkpt lat="42.52004" lon="22.99694">
        <ele>724.059463</ele>
        <time>2022-04-05T08:27:29.225Z</time>
      </trkpt>
      <trkpt lat="42.51997" lon="22.99707">
        <ele>723.897885</ele>
        <time>2022-04-05T08:27:31.238Z</time>
      </trkpt>
      <trkpt lat="42.51989" lon="22.9972">
        <ele>723.73305</ele>
        <time>2022-04-05T08:27:33.229Z</time>
      </trkpt>
      <trkpt lat="42.51981" lon="22.99732">
        <ele>723.566379</ele>
        <time>2022-04-05T08:27:35.240Z</time>
      </trkpt>
      <trkpt lat="42.51974" lon="22.99745">
        <ele>723.403242</ele>
        <time>2022-04-05T08:27:37.234Z</time>
      </trkpt>
      <trkpt lat="42.51966" lon="22.99758">
        <ele>723.268524</ele>
        <time>2022-04-05T08:27:39.230Z</time>
      </trkpt>
      <trkpt lat="42.51958" lon="22.99771">
        <ele>723.167248</ele>
        <time>2022-04-05T08:27:41.220Z</time>
      </trkpt>
      <trkpt lat="42.5195" lon="22.99784">
        <ele>723.066498</ele>
        <time>2022-04-05T08:27:43.262Z</time>
      </trkpt>
      <trkpt lat="42.51943" lon="22.99796">
        <ele>722.967737</ele>
        <time>2022-04-05T08:27:45.223Z</time>
      </trkpt>
      <trkpt lat="42.51936" lon="22.99809">
        <ele>722.86997</ele>
        <time>2022-04-05T08:27:47.227Z</time>
      </trkpt>
      <trkpt lat="42.51928" lon="22.99821">
        <ele>722.773151</ele>
        <time>2022-04-05T08:27:49.225Z</time>
      </trkpt>
      <trkpt lat="42.51921" lon="22.99833">
        <ele>722.675743</ele>
        <time>2022-04-05T08:27:51.234Z</time>
      </trkpt>
      <trkpt lat="42.51913" lon="22.99845">
        <ele>722.580801</ele>
        <time>2022-04-05T08:27:53.236Z</time>
      </trkpt>
      <trkpt lat="42.51906" lon="22.99857">
        <ele>722.48639</ele>
        <time>2022-04-05T08:27:55.235Z</time>
      </trkpt>
      <trkpt lat="42.51898" lon="22.9987">
        <ele>722.38719</ele>
        <time>2022-04-05T08:27:57.223Z</time>
      </trkpt>
      <trkpt lat="42.51891" lon="22.99882">
        <ele>722.290247</ele>
        <time>2022-04-05T08:27:59.218Z</time>
      </trkpt>
      <trkpt lat="42.51883" lon="22.99894">
        <ele>722.191435</ele>
        <time>2022-04-05T08:28:01.221Z</time>
      </trkpt>
      <trkpt lat="42.51876" lon="22.99907">
        <ele>722.093491</ele>
        <time>2022-04-05T08:28:03.227Z</time>
      </trkpt>
      <trkpt lat="42.51868" lon="22.99919">
        <ele>721.994729</ele>
        <time>2022-04-05T08:28:05.269Z</time>
      </trkpt>
      <trkpt lat="42.51861" lon="22.99932">
        <ele>721.895016</ele>
        <time>2022-04-05T08:28:07.230Z</time>
      </trkpt>
      <trkpt lat="42.51853" lon="22.99944">
        <ele>721.750309</ele>
        <time>2022-04-05T08:28:09.229Z</time>
      </trkpt>
      <trkpt lat="42.51847" lon="22.99956">
        <ele>721.484763</ele>
        <time>2022-04-05T08:28:11.275Z</time>
      </trkpt>
      <trkpt lat="42.5184" lon="22.99967">
        <ele>721.224795</ele>
        <time>2022-04-05T08:28:13.236Z</time>
      </trkpt>
      <trkpt lat="42.51833" lon="22.9998">
        <ele>720.956381</ele>
        <time>2022-04-05T08:28:15.237Z</time>
      </trkpt>
      <trkpt lat="42.51826" lon="22.99991">
        <ele>720.689042</ele>
        <time>2022-04-05T08:28:17.262Z</time>
      </trkpt>
      <trkpt lat="42.5182" lon="23.00005">
        <ele>720.410331</ele>
        <time>2022-04-05T08:28:19.208Z</time>
      </trkpt>
      <trkpt lat="42.51812" lon="23.00017">
        <ele>720.127002</ele>
        <time>2022-04-05T08:28:21.217Z</time>
      </trkpt>
      <trkpt lat="42.51805" lon="23.00029">
        <ele>719.849649</ele>
        <time>2022-04-05T08:28:23.242Z</time>
      </trkpt>
      <trkpt lat="42.51797" lon="23.00042">
        <ele>719.565549</ele>
        <time>2022-04-05T08:28:25.232Z</time>
      </trkpt>
      <trkpt lat="42.5179" lon="23.00054">
        <ele>719.283952</ele>
        <time>2022-04-05T08:28:27.222Z</time>
      </trkpt>
      <trkpt lat="42.51783" lon="23.00066">
        <ele>719.005381</ele>
        <time>2022-04-05T08:28:29.225Z</time>
      </trkpt>
      <trkpt lat="42.51775" lon="23.00079">
        <ele>718.718177</ele>
        <time>2022-04-05T08:28:31.225Z</time>
      </trkpt>
      <trkpt lat="42.51767" lon="23.00092">
        <ele>718.422607</ele>
        <time>2022-04-05T08:28:33.243Z</time>
      </trkpt>
      <trkpt lat="42.51759" lon="23.00106">
        <ele>718.111414</ele>
        <time>2022-04-05T08:28:35.222Z</time>
      </trkpt>
      <trkpt lat="42.51751" lon="23.00119">
        <ele>717.800095</ele>
        <time>2022-04-05T08:28:37.215Z</time>
      </trkpt>
      <trkpt lat="42.51742" lon="23.00135">
        <ele>717.494562</ele>
        <time>2022-04-05T08:28:39.267Z</time>
      </trkpt>
      <trkpt lat="42.51734" lon="23.0015">
        <ele>717.3324</ele>
        <time>2022-04-05T08:28:41.257Z</time>
      </trkpt>
      <trkpt lat="42.51725" lon="23.00164">
        <ele>717.175548</ele>
        <time>2022-04-05T08:28:43.219Z</time>
      </trkpt>
      <trkpt lat="42.51716" lon="23.00179">
        <ele>717.008485</ele>
        <time>2022-04-05T08:28:45.258Z</time>
      </trkpt>
      <trkpt lat="42.51707" lon="23.00193">
        <ele>716.852843</ele>
        <time>2022-04-05T08:28:47.230Z</time>
      </trkpt>
      <trkpt lat="42.51698" lon="23.00207">
        <ele>716.703164</ele>
        <time>2022-04-05T08:28:49.220Z</time>
      </trkpt>
      <trkpt lat="42.5169" lon="23.0022">
        <ele>716.556447</ele>
        <time>2022-04-05T08:28:51.264Z</time>
      </trkpt>
      <trkpt lat="42.51682" lon="23.00232">
        <ele>716.425072</ele>
        <time>2022-04-05T08:28:53.236Z</time>
      </trkpt>
      <trkpt lat="42.51676" lon="23.00243">
        <ele>716.303615</ele>
        <time>2022-04-05T08:28:55.220Z</time>
      </trkpt>
      <trkpt lat="42.51669" lon="23.00254">
        <ele>716.18017</ele>
        <time>2022-04-05T08:28:57.223Z</time>
      </trkpt>
      <trkpt lat="42.51662" lon="23.00264">
        <ele>716.067718</ele>
        <time>2022-04-05T08:28:59.234Z</time>
      </trkpt>
      <trkpt lat="42.51656" lon="23.00273">
        <ele>715.963067</ele>
        <time>2022-04-05T08:29:01.215Z</time>
      </trkpt>
      <trkpt lat="42.5165" lon="23.00283">
        <ele>715.856928</ele>
        <time>2022-04-05T08:29:03.230Z</time>
      </trkpt>
      <trkpt lat="42.51644" lon="23.00293">
        <ele>715.750252</ele>
        <time>2022-04-05T08:29:05.225Z</time>
      </trkpt>
      <trkpt lat="42.51638" lon="23.00302">
        <ele>715.644307</ele>
        <time>2022-04-05T08:29:07.231Z</time>
      </trkpt>
      <trkpt lat="42.51632" lon="23.00312">
        <ele>715.541036</ele>
        <time>2022-04-05T08:29:09.229Z</time>
      </trkpt>
      <trkpt lat="42.51626" lon="23.00321">
        <ele>715.422651</ele>
        <time>2022-04-05T08:29:11.242Z</time>
      </trkpt>
      <trkpt lat="42.5162" lon="23.00332">
        <ele>715.263484</ele>
        <time>2022-04-05T08:29:13.257Z</time>
      </trkpt>
      <trkpt lat="42.51614" lon="23.00341">
        <ele>715.110957</ele>
        <time>2022-04-05T08:29:15.240Z</time>
      </trkpt>
      <trkpt lat="42.51608" lon="23.00351">
        <ele>714.95363</ele>
        <time>2022-04-05T08:29:17.224Z</time>
      </trkpt>
      <trkpt lat="42.51602" lon="23.00361">
        <ele>714.799119</ele>
        <time>2022-04-05T08:29:19.225Z</time>
      </trkpt>
      <trkpt lat="42.51596" lon="23.00371">
        <ele>714.640754</ele>
        <time>2022-04-05T08:29:21.236Z</time>
      </trkpt>
      <trkpt lat="42.5159" lon="23.00381">
        <ele>714.482271</ele>
        <time>2022-04-05T08:29:23.234Z</time>
      </trkpt>
      <trkpt lat="42.51584" lon="23.00392">
        <ele>714.324101</ele>
        <time>2022-04-05T08:29:25.238Z</time>
      </trkpt>
      <trkpt lat="42.51578" lon="23.00402">
        <ele>714.159031</ele>
        <time>2022-04-05T08:29:27.233Z</time>
      </trkpt>
      <trkpt lat="42.51571" lon="23.00414">
        <ele>713.984087</ele>
        <time>2022-04-05T08:29:29.239Z</time>
      </trkpt>
      <trkpt lat="42.51565" lon="23.00425">
        <ele>713.804394</ele>
        <time>2022-04-05T08:29:31.258Z</time>
      </trkpt>
      <trkpt lat="42.51558" lon="23.00437">
        <ele>713.625657</ele>
        <time>2022-04-05T08:29:33.231Z</time>
      </trkpt>
      <trkpt lat="42.51551" lon="23.00449">
        <ele>713.437995</ele>
        <time>2022-04-05T08:29:35.206Z</time>
      </trkpt>
      <trkpt lat="42.51543" lon="23.00462">
        <ele>713.23865</ele>
        <time>2022-04-05T08:29:37.233Z</time>
      </trkpt>
      <trkpt lat="42.51535" lon="23.00475">
        <ele>713.028696</ele>
        <time>2022-04-05T08:29:39.242Z</time>
      </trkpt>
      <trkpt lat="42.51527" lon="23.00488">
        <ele>712.823301</ele>
        <time>2022-04-05T08:29:41.263Z</time>
      </trkpt>
      <trkpt lat="42.51519" lon="23.00502">
        <ele>712.612268</ele>
        <time>2022-04-05T08:29:43.226Z</time>
      </trkpt>
      <trkpt lat="42.51511" lon="23.00516">
        <ele>712.415724</ele>
        <time>2022-04-05T08:29:45.227Z</time>
      </trkpt>
      <trkpt lat="42.51503" lon="23.0053">
        <ele>712.234417</ele>
        <time>2022-04-05T08:29:47.256Z</time>
      </trkpt>
      <trkpt lat="42.51495" lon="23.00543">
        <ele>712.055299</ele>
        <time>2022-04-05T08:29:49.235Z</time>
      </trkpt>
      <trkpt lat="42.51486" lon="23.00557">
        <ele>711.877216</ele>
        <time>2022-04-05T08:29:51.225Z</time>
      </trkpt>
      <trkpt lat="42.51478" lon="23.00571">
        <ele>711.693413</ele>
        <time>2022-04-05T08:29:53.219Z</time>
      </trkpt>
      <trkpt lat="42.5147" lon="23.00586">
        <ele>711.507178</ele>
        <time>2022-04-05T08:29:55.220Z</time>
      </trkpt>
      <trkpt lat="42.51461" lon="23.006">
        <ele>711.320776</ele>
        <time>2022-04-05T08:29:57.233Z</time>
      </trkpt>
      <trkpt lat="42.51452" lon="23.00614">
        <ele>711.132035</ele>
        <time>2022-04-05T08:29:59.264Z</time>
      </trkpt>
      <trkpt lat="42.51443" lon="23.00629">
        <ele>710.940863</ele>
        <time>2022-04-05T08:30:01.227Z</time>
      </trkpt>
      <trkpt lat="42.51435" lon="23.00643">
        <ele>710.756982</ele>
        <time>2022-04-05T08:30:03.228Z</time>
      </trkpt>
      <trkpt lat="42.51427" lon="23.00657">
        <ele>710.578826</ele>
        <time>2022-04-05T08:30:05.228Z</time>
      </trkpt>
      <trkpt lat="42.51419" lon="23.00671">
        <ele>710.401531</ele>
        <time>2022-04-05T08:30:07.226Z</time>
      </trkpt>
      <trkpt lat="42.51411" lon="23.00684">
        <ele>710.229017</ele>
        <time>2022-04-05T08:30:09.205Z</time>
      </trkpt>
      <trkpt lat="42.51403" lon="23.00696">
        <ele>710.065524</ele>
        <time>2022-04-05T08:30:11.237Z</time>
      </trkpt>
      <trkpt lat="42.51396" lon="23.00708">
        <ele>709.922867</ele>
        <time>2022-04-05T08:30:13.238Z</time>
      </trkpt>
      <trkpt lat="42.51389" lon="23.0072">
        <ele>709.778117</ele>
        <time>2022-04-05T08:30:15.227Z</time>
      </trkpt>
      <trkpt lat="42.51382" lon="23.00732">
        <ele>709.640058</ele>
        <time>2022-04-05T08:30:17.232Z</time>
      </trkpt>
      <trkpt lat="42.51375" lon="23.00743">
        <ele>709.495965</ele>
        <time>2022-04-05T08:30:19.243Z</time>
      </trkpt>
      <trkpt lat="42.51368" lon="23.00755">
        <ele>709.35347</ele>
        <time>2022-04-05T08:30:21.220Z</time>
      </trkpt>
      <trkpt lat="42.51361" lon="23.00767">
        <ele>709.210905</ele>
        <time>2022-04-05T08:30:23.235Z</time>
      </trkpt>
      <trkpt lat="42.51354" lon="23.00779">
        <ele>709.070664</ele>
        <time>2022-04-05T08:30:25.231Z</time>
      </trkpt>
      <trkpt lat="42.51347" lon="23.0079">
        <ele>708.937187</ele>
        <time>2022-04-05T08:30:27.254Z</time>
      </trkpt>
      <trkpt lat="42.51341" lon="23.00801">
        <ele>708.808943</ele>
        <time>2022-04-05T08:30:29.223Z</time>
      </trkpt>
      <trkpt lat="42.51334" lon="23.00812">
        <ele>708.671391</ele>
        <time>2022-04-05T08:30:31.222Z</time>
      </trkpt>
      <trkpt lat="42.51327" lon="23.00822">
        <ele>708.54387</ele>
        <time>2022-04-05T08:30:33.221Z</time>
      </trkpt>
      <trkpt lat="42.51321" lon="23.00832">
        <ele>708.417541</ele>
        <time>2022-04-05T08:30:35.247Z</time>
      </trkpt>
      <trkpt lat="42.51314" lon="23.00843">
        <ele>708.290019</ele>
        <time>2022-04-05T08:30:37.215Z</time>
      </trkpt>
      <trkpt lat="42.51308" lon="23.00853">
        <ele>708.158616</ele>
        <time>2022-04-05T08:30:39.255Z</time>
      </trkpt>
      <trkpt lat="42.51301" lon="23.00865">
        <ele>708.025932</ele>
        <time>2022-04-05T08:30:41.227Z</time>
      </trkpt>
      <trkpt lat="42.51294" lon="23.00876">
        <ele>707.885619</ele>
        <time>2022-04-05T08:30:43.240Z</time>
      </trkpt>
      <trkpt lat="42.51287" lon="23.00888">
        <ele>707.749547</ele>
        <time>2022-04-05T08:30:45.236Z</time>
      </trkpt>
      <trkpt lat="42.5128" lon="23.009">
        <ele>707.660201</ele>
        <time>2022-04-05T08:30:47.225Z</time>
      </trkpt>
      <trkpt lat="42.51273" lon="23.00912">
        <ele>707.568423</ele>
        <time>2022-04-05T08:30:49.235Z</time>
      </trkpt>
      <trkpt lat="42.51265" lon="23.00925">
        <ele>707.472491</ele>
        <time>2022-04-05T08:30:51.266Z</time>
      </trkpt>
      <trkpt lat="42.51258" lon="23.00938">
        <ele>707.372236</ele>
        <time>2022-04-05T08:30:53.227Z</time>
      </trkpt>
      <trkpt lat="42.5125" lon="23.00951">
        <ele>707.272477</ele>
        <time>2022-04-05T08:30:55.228Z</time>
      </trkpt>
      <trkpt lat="42.51242" lon="23.00964">
        <ele>707.173675</ele>
        <time>2022-04-05T08:30:57.277Z</time>
      </trkpt>
      <trkpt lat="42.51235" lon="23.00977">
        <ele>707.075302</ele>
        <time>2022-04-05T08:30:59.225Z</time>
      </trkpt>
      <trkpt lat="42.51227" lon="23.0099">
        <ele>706.978622</ele>
        <time>2022-04-05T08:31:01.228Z</time>
      </trkpt>
      <trkpt lat="42.51219" lon="23.01002">
        <ele>706.883591</ele>
        <time>2022-04-05T08:31:03.273Z</time>
      </trkpt>
      <trkpt lat="42.51212" lon="23.01015">
        <ele>706.787045</ele>
        <time>2022-04-05T08:31:05.237Z</time>
      </trkpt>
      <trkpt lat="42.51204" lon="23.01027">
        <ele>706.692428</ele>
        <time>2022-04-05T08:31:07.256Z</time>
      </trkpt>
      <trkpt lat="42.51196" lon="23.0104">
        <ele>706.598205</ele>
        <time>2022-04-05T08:31:09.251Z</time>
      </trkpt>
      <trkpt lat="42.51189" lon="23.01052">
        <ele>706.505055</ele>
        <time>2022-04-05T08:31:11.221Z</time>
      </trkpt>
      <trkpt lat="42.51182" lon="23.01064">
        <ele>706.412311</ele>
        <time>2022-04-05T08:31:13.208Z</time>
      </trkpt>
      <trkpt lat="42.51175" lon="23.01076">
        <ele>706.321351</ele>
        <time>2022-04-05T08:31:15.227Z</time>
      </trkpt>
      <trkpt lat="42.51168" lon="23.01088">
        <ele>706.367532</ele>
        <time>2022-04-05T08:31:17.239Z</time>
      </trkpt>
      <trkpt lat="42.51161" lon="23.011">
        <ele>706.412487</ele>
        <time>2022-04-05T08:31:19.214Z</time>
      </trkpt>
      <trkpt lat="42.51154" lon="23.01111">
        <ele>706.456949</ele>
        <time>2022-04-05T08:31:21.232Z</time>
      </trkpt>
      <trkpt lat="42.51147" lon="23.01122">
        <ele>706.500422</ele>
        <time>2022-04-05T08:31:23.220Z</time>
      </trkpt>
      <trkpt lat="42.51141" lon="23.01134">
        <ele>706.545101</ele>
        <time>2022-04-05T08:31:25.237Z</time>
      </trkpt>
      <trkpt lat="42.51134" lon="23.01145">
        <ele>706.590293</ele>
        <time>2022-04-05T08:31:27.223Z</time>
      </trkpt>
      <trkpt lat="42.51127" lon="23.01157">
        <ele>706.635958</ele>
        <time>2022-04-05T08:31:29.219Z</time>
      </trkpt>
      <trkpt lat="42.5112" lon="23.01169">
        <ele>706.680655</ele>
        <time>2022-04-05T08:31:31.215Z</time>
      </trkpt>
      <trkpt lat="42.51113" lon="23.0118">
        <ele>706.724647</ele>
        <time>2022-04-05T08:31:33.235Z</time>
      </trkpt>
      <trkpt lat="42.51107" lon="23.01191">
        <ele>706.766918</ele>
        <time>2022-04-05T08:31:35.225Z</time>
      </trkpt>
      <trkpt lat="42.511" lon="23.01201">
        <ele>706.808695</ele>
        <time>2022-04-05T08:31:37.275Z</time>
      </trkpt>
      <trkpt lat="42.51094" lon="23.01212">
        <ele>706.851202</ele>
        <time>2022-04-05T08:31:39.241Z</time>
      </trkpt>
      <trkpt lat="42.51087" lon="23.01223">
        <ele>706.893709</ele>
        <time>2022-04-05T08:31:41.235Z</time>
      </trkpt>
      <trkpt lat="42.51081" lon="23.01234">
        <ele>706.935512</ele>
        <time>2022-04-05T08:31:43.253Z</time>
      </trkpt>
      <trkpt lat="42.51074" lon="23.01244">
        <ele>706.977813</ele>
        <time>2022-04-05T08:31:45.232Z</time>
      </trkpt>
      <trkpt lat="42.51068" lon="23.01255">
        <ele>707.019384</ele>
        <time>2022-04-05T08:31:47.234Z</time>
      </trkpt>
      <trkpt lat="42.51062" lon="23.01265">
        <ele>707.057512</ele>
        <time>2022-04-05T08:31:49.218Z</time>
      </trkpt>
      <trkpt lat="42.51053" lon="23.01279">
        <ele>707.276434</ele>
        <time>2022-04-05T08:31:52.234Z</time>
      </trkpt>
      <trkpt lat="42.51047" lon="23.01288">
        <ele>707.430517</ele>
        <time>2022-04-05T08:31:54.255Z</time>
      </trkpt>
      <trkpt lat="42.51039" lon="23.01302">
        <ele>707.649221</ele>
        <time>2022-04-05T08:31:57.220Z</time>
      </trkpt>
      <trkpt lat="42.51031" lon="23.01315">
        <ele>707.867302</ele>
        <time>2022-04-05T08:32:00.220Z</time>
      </trkpt>
      <trkpt lat="42.51023" lon="23.01328">
        <ele>708.083321</ele>
        <time>2022-04-05T08:32:03.227Z</time>
      </trkpt>
      <trkpt lat="42.51015" lon="23.01341">
        <ele>708.295839</ele>
        <time>2022-04-05T08:32:06.225Z</time>
      </trkpt>
      <trkpt lat="42.51008" lon="23.01354">
        <ele>708.492376</ele>
        <time>2022-04-05T08:32:09.213Z</time>
      </trkpt>
      <trkpt lat="42.51001" lon="23.01364">
        <ele>708.670768</ele>
        <time>2022-04-05T08:32:12.230Z</time>
      </trkpt>
      <trkpt lat="42.50995" lon="23.01376">
        <ele>708.85305</ele>
        <time>2022-04-05T08:32:15.213Z</time>
      </trkpt>
      <trkpt lat="42.50988" lon="23.01387">
        <ele>709.042458</ele>
        <time>2022-04-05T08:32:18.234Z</time>
      </trkpt>
      <trkpt lat="42.50981" lon="23.01399">
        <ele>709.22884</ele>
        <time>2022-04-05T08:32:21.259Z</time>
      </trkpt>
      <trkpt lat="42.50974" lon="23.0141">
        <ele>709.415473</ele>
        <time>2022-04-05T08:32:24.223Z</time>
      </trkpt>
      <trkpt lat="42.50967" lon="23.01422">
        <ele>709.598829</ele>
        <time>2022-04-05T08:32:27.238Z</time>
      </trkpt>
      <trkpt lat="42.5096" lon="23.01433">
        <ele>709.782093</ele>
        <time>2022-04-05T08:32:30.244Z</time>
      </trkpt>
      <trkpt lat="42.50953" lon="23.01444">
        <ele>709.964478</ele>
        <time>2022-04-05T08:32:33.221Z</time>
      </trkpt>
      <trkpt lat="42.50947" lon="23.01455">
        <ele>710.137704</ele>
        <time>2022-04-05T08:32:36.241Z</time>
      </trkpt>
      <trkpt lat="42.5094" lon="23.01466">
        <ele>710.26193</ele>
        <time>2022-04-05T08:32:39.237Z</time>
      </trkpt>
      <trkpt lat="42.50934" lon="23.01476">
        <ele>710.384202</ele>
        <time>2022-04-05T08:32:42.263Z</time>
      </trkpt>
      <trkpt lat="42.50927" lon="23.01488">
        <ele>710.513412</ele>
        <time>2022-04-05T08:32:45.232Z</time>
      </trkpt>
      <trkpt lat="42.5092" lon="23.01498">
        <ele>710.638406</ele>
        <time>2022-04-05T08:32:48.218Z</time>
      </trkpt>
      <trkpt lat="42.50914" lon="23.01509">
        <ele>710.763324</ele>
        <time>2022-04-05T08:32:51.215Z</time>
      </trkpt>
      <trkpt lat="42.50907" lon="23.01521">
        <ele>710.899731</ele>
        <time>2022-04-05T08:32:54.237Z</time>
      </trkpt>
      <trkpt lat="42.50899" lon="23.01533">
        <ele>711.037767</ele>
        <time>2022-04-05T08:32:57.227Z</time>
      </trkpt>
      <trkpt lat="42.50892" lon="23.01545">
        <ele>711.177082</ele>
        <time>2022-04-05T08:33:00.228Z</time>
      </trkpt>
      <trkpt lat="42.50885" lon="23.01557">
        <ele>711.318542</ele>
        <time>2022-04-05T08:33:03.221Z</time>
      </trkpt>
      <trkpt lat="42.50878" lon="23.01569">
        <ele>711.450738</ele>
        <time>2022-04-05T08:33:06.225Z</time>
      </trkpt>
      <trkpt lat="42.50871" lon="23.0158">
        <ele>711.585078</ele>
        <time>2022-04-05T08:33:09.224Z</time>
      </trkpt>
      <trkpt lat="42.50863" lon="23.01592">
        <ele>711.720298</ele>
        <time>2022-04-05T08:33:12.265Z</time>
      </trkpt>
      <trkpt lat="42.50856" lon="23.01604">
        <ele>711.853802</ele>
        <time>2022-04-05T08:33:15.232Z</time>
      </trkpt>
      <trkpt lat="42.5085" lon="23.01615">
        <ele>711.988002</ele>
        <time>2022-04-05T08:33:18.208Z</time>
      </trkpt>
      <trkpt lat="42.50843" lon="23.01627">
        <ele>712.121573</ele>
        <time>2022-04-05T08:33:21.219Z</time>
      </trkpt>
      <trkpt lat="42.50836" lon="23.01639">
        <ele>712.25369</ele>
        <time>2022-04-05T08:33:24.237Z</time>
      </trkpt>
      <trkpt lat="42.50829" lon="23.0165">
        <ele>712.392146</ele>
        <time>2022-04-05T08:33:27.220Z</time>
      </trkpt>
      <trkpt lat="42.50822" lon="23.01662">
        <ele>712.532719</ele>
        <time>2022-04-05T08:33:30.226Z</time>
      </trkpt>
      <trkpt lat="42.50814" lon="23.01674">
        <ele>712.675615</ele>
        <time>2022-04-05T08:33:33.237Z</time>
      </trkpt>
      <trkpt lat="42.50807" lon="23.01686">
        <ele>712.816991</ele>
        <time>2022-04-05T08:33:36.216Z</time>
      </trkpt>
      <trkpt lat="42.50799" lon="23.01697">
        <ele>712.961101</ele>
        <time>2022-04-05T08:33:39.239Z</time>
      </trkpt>
      <trkpt lat="42.50792" lon="23.01709">
        <ele>713.106139</ele>
        <time>2022-04-05T08:33:42.226Z</time>
      </trkpt>
      <trkpt lat="42.50785" lon="23.01721">
        <ele>713.247311</ele>
        <time>2022-04-05T08:33:45.247Z</time>
      </trkpt>
      <trkpt lat="42.50778" lon="23.01733">
        <ele>713.387712</ele>
        <time>2022-04-05T08:33:48.218Z</time>
      </trkpt>
      <trkpt lat="42.50772" lon="23.01744">
        <ele>713.517043</ele>
        <time>2022-04-05T08:33:51.209Z</time>
      </trkpt>
      <trkpt lat="42.50765" lon="23.01755">
        <ele>713.651841</ele>
        <time>2022-04-05T08:33:54.225Z</time>
      </trkpt>
      <trkpt lat="42.50758" lon="23.01767">
        <ele>713.793064</ele>
        <time>2022-04-05T08:33:57.229Z</time>
      </trkpt>
      <trkpt lat="42.5075" lon="23.0178">
        <ele>713.943289</ele>
        <time>2022-04-05T08:34:00.225Z</time>
      </trkpt>
      <trkpt lat="42.50743" lon="23.01792">
        <ele>714.092076</ele>
        <time>2022-04-05T08:34:03.230Z</time>
      </trkpt>
      <trkpt lat="42.50735" lon="23.01804">
        <ele>714.240952</ele>
        <time>2022-04-05T08:34:06.211Z</time>
      </trkpt>
      <trkpt lat="42.50728" lon="23.01816">
        <ele>714.38456</ele>
        <time>2022-04-05T08:34:09.229Z</time>
      </trkpt>
      <trkpt lat="42.50721" lon="23.01828">
        <ele>714.526651</ele>
        <time>2022-04-05T08:34:12.275Z</time>
      </trkpt>
      <trkpt lat="42.50714" lon="23.01839">
        <ele>714.541993</ele>
        <time>2022-04-05T08:34:15.220Z</time>
      </trkpt>
      <trkpt lat="42.50707" lon="23.01851">
        <ele>714.50874</ele>
        <time>2022-04-05T08:34:18.222Z</time>
      </trkpt>
      <trkpt lat="42.507" lon="23.01863">
        <ele>714.475809</ele>
        <time>2022-04-05T08:34:21.229Z</time>
      </trkpt>
      <trkpt lat="42.50693" lon="23.01875">
        <ele>714.443065</ele>
        <time>2022-04-05T08:34:24.225Z</time>
      </trkpt>
      <trkpt lat="42.50686" lon="23.01886">
        <ele>714.410153</ele>
        <time>2022-04-05T08:34:27.225Z</time>
      </trkpt>
      <trkpt lat="42.50679" lon="23.01898">
        <ele>714.377578</ele>
        <time>2022-04-05T08:34:30.228Z</time>
      </trkpt>
      <trkpt lat="42.50671" lon="23.0191">
        <ele>714.343574</ele>
        <time>2022-04-05T08:34:33.227Z</time>
      </trkpt>
      <trkpt lat="42.50664" lon="23.01922">
        <ele>714.307969</ele>
        <time>2022-04-05T08:34:36.256Z</time>
      </trkpt>
      <trkpt lat="42.50656" lon="23.01934">
        <ele>714.272747</ele>
        <time>2022-04-05T08:34:39.224Z</time>
      </trkpt>
      <trkpt lat="42.50649" lon="23.01946">
        <ele>714.238764</ele>
        <time>2022-04-05T08:34:42.233Z</time>
      </trkpt>
      <trkpt lat="42.50642" lon="23.01958">
        <ele>714.205307</ele>
        <time>2022-04-05T08:34:45.226Z</time>
      </trkpt>
      <trkpt lat="42.50634" lon="23.01971">
        <ele>714.169052</ele>
        <time>2022-04-05T08:34:48.217Z</time>
      </trkpt>
      <trkpt lat="42.50626" lon="23.01985">
        <ele>714.132482</ele>
        <time>2022-04-05T08:34:51.237Z</time>
      </trkpt>
      <trkpt lat="42.50619" lon="23.01997">
        <ele>714.098347</ele>
        <time>2022-04-05T08:34:54.226Z</time>
      </trkpt>
      <trkpt lat="42.50612" lon="23.02009">
        <ele>714.063481</ele>
        <time>2022-04-05T08:34:57.222Z</time>
      </trkpt>
      <trkpt lat="42.50604" lon="23.02023">
        <ele>714.004759</ele>
        <time>2022-04-05T08:35:00.224Z</time>
      </trkpt>
      <trkpt lat="42.50596" lon="23.02036">
        <ele>713.86356</ele>
        <time>2022-04-05T08:35:03.277Z</time>
      </trkpt>
      <trkpt lat="42.50587" lon="23.0205">
        <ele>713.715671</ele>
        <time>2022-04-05T08:35:06.235Z</time>
      </trkpt>
      <trkpt lat="42.50578" lon="23.02064">
        <ele>713.567856</ele>
        <time>2022-04-05T08:35:09.262Z</time>
      </trkpt>
      <trkpt lat="42.50573" lon="23.02075">
        <ele>713.46264</ele>
        <time>2022-04-05T08:35:11.237Z</time>
      </trkpt>
      <trkpt lat="42.50567" lon="23.02085">
        <ele>713.358004</ele>
        <time>2022-04-05T08:35:13.225Z</time>
      </trkpt>
      <trkpt lat="42.50561" lon="23.02095">
        <ele>713.253996</ele>
        <time>2022-04-05T08:35:15.236Z</time>
      </trkpt>
      <trkpt lat="42.50555" lon="23.02104">
        <ele>713.151237</ele>
        <time>2022-04-05T08:35:17.214Z</time>
      </trkpt>
      <trkpt lat="42.50549" lon="23.02114">
        <ele>713.049807</ele>
        <time>2022-04-05T08:35:19.223Z</time>
      </trkpt>
      <trkpt lat="42.50543" lon="23.02124">
        <ele>712.948503</ele>
        <time>2022-04-05T08:35:21.232Z</time>
      </trkpt>
      <trkpt lat="42.50537" lon="23.02133">
        <ele>712.847877</ele>
        <time>2022-04-05T08:35:23.240Z</time>
      </trkpt>
      <trkpt lat="42.50532" lon="23.02143">
        <ele>712.745253</ele>
        <time>2022-04-05T08:35:25.242Z</time>
      </trkpt>
      <trkpt lat="42.50526" lon="23.02153">
        <ele>712.645904</ele>
        <time>2022-04-05T08:35:27.220Z</time>
      </trkpt>
      <trkpt lat="42.5052" lon="23.02163">
        <ele>712.544653</ele>
        <time>2022-04-05T08:35:29.235Z</time>
      </trkpt>
      <trkpt lat="42.50515" lon="23.02173">
        <ele>712.440708</ele>
        <time>2022-04-05T08:35:31.243Z</time>
      </trkpt>
      <trkpt lat="42.50508" lon="23.02183">
        <ele>712.337853</ele>
        <time>2022-04-05T08:35:33.228Z</time>
      </trkpt>
      <trkpt lat="42.50503" lon="23.02192">
        <ele>712.237227</ele>
        <time>2022-04-05T08:35:35.224Z</time>
      </trkpt>
      <trkpt lat="42.50497" lon="23.02203">
        <ele>712.130691</ele>
        <time>2022-04-05T08:35:37.257Z</time>
      </trkpt>
      <trkpt lat="42.50491" lon="23.02213">
        <ele>712.010212</ele>
        <time>2022-04-05T08:35:39.234Z</time>
      </trkpt>
      <trkpt lat="42.50484" lon="23.02224">
        <ele>711.849369</ele>
        <time>2022-04-05T08:35:41.260Z</time>
      </trkpt>
      <trkpt lat="42.50478" lon="23.02235">
        <ele>711.687767</ele>
        <time>2022-04-05T08:35:43.236Z</time>
      </trkpt>
      <trkpt lat="42.50472" lon="23.02247">
        <ele>711.529833</ele>
        <time>2022-04-05T08:35:45.267Z</time>
      </trkpt>
      <trkpt lat="42.50465" lon="23.02257">
        <ele>711.37084</ele>
        <time>2022-04-05T08:35:47.219Z</time>
      </trkpt>
      <trkpt lat="42.50458" lon="23.02269">
        <ele>711.204611</ele>
        <time>2022-04-05T08:35:49.236Z</time>
      </trkpt>
      <trkpt lat="42.50451" lon="23.0228">
        <ele>711.034499</ele>
        <time>2022-04-05T08:35:51.260Z</time>
      </trkpt>
      <trkpt lat="42.50444" lon="23.02292">
        <ele>710.862732</ele>
        <time>2022-04-05T08:35:53.252Z</time>
      </trkpt>
      <trkpt lat="42.50437" lon="23.02304">
        <ele>710.691036</ele>
        <time>2022-04-05T08:35:55.224Z</time>
      </trkpt>
      <trkpt lat="42.5043" lon="23.02316">
        <ele>710.511298</ele>
        <time>2022-04-05T08:35:57.228Z</time>
      </trkpt>
      <trkpt lat="42.50423" lon="23.02327">
        <ele>710.343144</ele>
        <time>2022-04-05T08:35:59.253Z</time>
      </trkpt>
      <trkpt lat="42.50415" lon="23.02339">
        <ele>710.171039</ele>
        <time>2022-04-05T08:36:01.235Z</time>
      </trkpt>
      <trkpt lat="42.50408" lon="23.0235">
        <ele>710.000925</ele>
        <time>2022-04-05T08:36:03.221Z</time>
      </trkpt>
      <trkpt lat="42.50401" lon="23.02362">
        <ele>709.82882</ele>
        <time>2022-04-05T08:36:05.276Z</time>
      </trkpt>
      <trkpt lat="42.50394" lon="23.02374">
        <ele>709.656849</ele>
        <time>2022-04-05T08:36:07.239Z</time>
      </trkpt>
      <trkpt lat="42.50386" lon="23.02385">
        <ele>709.482151</ele>
        <time>2022-04-05T08:36:09.239Z</time>
      </trkpt>
      <trkpt lat="42.50379" lon="23.02398">
        <ele>709.3013</ele>
        <time>2022-04-05T08:36:11.213Z</time>
      </trkpt>
      <trkpt lat="42.50372" lon="23.0241">
        <ele>709.147912</ele>
        <time>2022-04-05T08:36:13.233Z</time>
      </trkpt>
      <trkpt lat="42.50364" lon="23.02423">
        <ele>708.994887</ele>
        <time>2022-04-05T08:36:15.231Z</time>
      </trkpt>
      <trkpt lat="42.50356" lon="23.02435">
        <ele>708.838171</ele>
        <time>2022-04-05T08:36:17.223Z</time>
      </trkpt>
      <trkpt lat="42.50348" lon="23.02448">
        <ele>708.683713</ele>
        <time>2022-04-05T08:36:19.219Z</time>
      </trkpt>
      <trkpt lat="42.5034" lon="23.02461">
        <ele>708.52862</ele>
        <time>2022-04-05T08:36:21.236Z</time>
      </trkpt>
      <trkpt lat="42.50332" lon="23.02474">
        <ele>708.369734</ele>
        <time>2022-04-05T08:36:23.236Z</time>
      </trkpt>
      <trkpt lat="42.50324" lon="23.02487">
        <ele>708.208589</ele>
        <time>2022-04-05T08:36:25.221Z</time>
      </trkpt>
      <trkpt lat="42.50317" lon="23.025">
        <ele>708.050506</ele>
        <time>2022-04-05T08:36:27.263Z</time>
      </trkpt>
      <trkpt lat="42.50309" lon="23.02513">
        <ele>707.89162</ele>
        <time>2022-04-05T08:36:29.234Z</time>
      </trkpt>
      <trkpt lat="42.50301" lon="23.02526">
        <ele>707.735798</ele>
        <time>2022-04-05T08:36:31.233Z</time>
      </trkpt>
      <trkpt lat="42.50293" lon="23.02539">
        <ele>707.582964</ele>
        <time>2022-04-05T08:36:33.244Z</time>
      </trkpt>
      <trkpt lat="42.50286" lon="23.02551">
        <ele>707.431662</ele>
        <time>2022-04-05T08:36:35.242Z</time>
      </trkpt>
      <trkpt lat="42.50279" lon="23.02563">
        <ele>707.288672</ele>
        <time>2022-04-05T08:36:37.217Z</time>
      </trkpt>
      <trkpt lat="42.50272" lon="23.02575">
        <ele>707.145596</ele>
        <time>2022-04-05T08:36:39.263Z</time>
      </trkpt>
      <trkpt lat="42.50265" lon="23.02586">
        <ele>707.007198</ele>
        <time>2022-04-05T08:36:41.232Z</time>
      </trkpt>
      <trkpt lat="42.50258" lon="23.02598">
        <ele>707.020136</ele>
        <time>2022-04-05T08:36:43.236Z</time>
      </trkpt>
      <trkpt lat="42.50251" lon="23.02609">
        <ele>707.04654</ele>
        <time>2022-04-05T08:36:45.272Z</time>
      </trkpt>
      <trkpt lat="42.50244" lon="23.0262">
        <ele>707.072321</ele>
        <time>2022-04-05T08:36:47.226Z</time>
      </trkpt>
      <trkpt lat="42.50238" lon="23.0263">
        <ele>707.098087</ele>
        <time>2022-04-05T08:36:49.233Z</time>
      </trkpt>
      <trkpt lat="42.50232" lon="23.02641">
        <ele>707.122967</ele>
        <time>2022-04-05T08:36:51.244Z</time>
      </trkpt>
      <trkpt lat="42.50225" lon="23.02651">
        <ele>707.147105</ele>
        <time>2022-04-05T08:36:53.218Z</time>
      </trkpt>
      <trkpt lat="42.50219" lon="23.02661">
        <ele>707.171231</ele>
        <time>2022-04-05T08:36:55.238Z</time>
      </trkpt>
      <trkpt lat="42.50214" lon="23.02671">
        <ele>707.194029</ele>
        <time>2022-04-05T08:36:57.238Z</time>
      </trkpt>
      <trkpt lat="42.50208" lon="23.02681">
        <ele>707.218011</ele>
        <time>2022-04-05T08:36:59.229Z</time>
      </trkpt>
      <trkpt lat="42.50202" lon="23.02691">
        <ele>707.24155</ele>
        <time>2022-04-05T08:37:01.225Z</time>
      </trkpt>
      <trkpt lat="42.50196" lon="23.02701">
        <ele>707.265404</ele>
        <time>2022-04-05T08:37:03.238Z</time>
      </trkpt>
      <trkpt lat="42.5019" lon="23.02711">
        <ele>707.288635</ele>
        <time>2022-04-05T08:37:05.254Z</time>
      </trkpt>
      <trkpt lat="42.50184" lon="23.02721">
        <ele>707.311766</ele>
        <time>2022-04-05T08:37:07.266Z</time>
      </trkpt>
      <trkpt lat="42.50178" lon="23.02731">
        <ele>707.335319</ele>
        <time>2022-04-05T08:37:09.220Z</time>
      </trkpt>
      <trkpt lat="42.50172" lon="23.0274">
        <ele>707.358131</ele>
        <time>2022-04-05T08:37:11.240Z</time>
      </trkpt>
      <trkpt lat="42.50166" lon="23.02751">
        <ele>707.382103</ele>
        <time>2022-04-05T08:37:13.224Z</time>
      </trkpt>
      <trkpt lat="42.5016" lon="23.02761">
        <ele>707.406528</ele>
        <time>2022-04-05T08:37:15.226Z</time>
      </trkpt>
      <trkpt lat="42.50154" lon="23.02773">
        <ele>707.432712</ele>
        <time>2022-04-05T08:37:17.225Z</time>
      </trkpt>
      <trkpt lat="42.50148" lon="23.02783">
        <ele>707.470647</ele>
        <time>2022-04-05T08:37:19.229Z</time>
      </trkpt>
      <trkpt lat="42.50141" lon="23.02794">
        <ele>707.518523</ele>
        <time>2022-04-05T08:37:21.223Z</time>
      </trkpt>
      <trkpt lat="42.50135" lon="23.02805">
        <ele>707.563393</ele>
        <time>2022-04-05T08:37:23.223Z</time>
      </trkpt>
      <trkpt lat="42.50129" lon="23.02815">
        <ele>707.610451</ele>
        <time>2022-04-05T08:37:25.252Z</time>
      </trkpt>
      <trkpt lat="42.50122" lon="23.02826">
        <ele>707.658909</ele>
        <time>2022-04-05T08:37:27.227Z</time>
      </trkpt>
      <trkpt lat="42.50115" lon="23.02837">
        <ele>707.705473</ele>
        <time>2022-04-05T08:37:29.275Z</time>
      </trkpt>
      <trkpt lat="42.50109" lon="23.02848">
        <ele>707.753932</ele>
        <time>2022-04-05T08:37:31.237Z</time>
      </trkpt>
      <trkpt lat="42.50102" lon="23.02859">
        <ele>707.801789</ele>
        <time>2022-04-05T08:37:33.234Z</time>
      </trkpt>
      <trkpt lat="42.50096" lon="23.0287">
        <ele>707.849955</ele>
        <time>2022-04-05T08:37:35.229Z</time>
      </trkpt>
      <trkpt lat="42.50089" lon="23.02881">
        <ele>707.899468</ele>
        <time>2022-04-05T08:37:37.256Z</time>
      </trkpt>
      <trkpt lat="42.50083" lon="23.02892">
        <ele>707.944338</ele>
        <time>2022-04-05T08:37:39.230Z</time>
      </trkpt>
      <trkpt lat="42.50077" lon="23.02902">
        <ele>707.988453</ele>
        <time>2022-04-05T08:37:41.226Z</time>
      </trkpt>
      <trkpt lat="42.50071" lon="23.02911">
        <ele>708.030295</ele>
        <time>2022-04-05T08:37:43.229Z</time>
      </trkpt>
      <trkpt lat="42.50065" lon="23.02921">
        <ele>708.073003</ele>
        <time>2022-04-05T08:37:45.232Z</time>
      </trkpt>
      <trkpt lat="42.50059" lon="23.02932">
        <ele>708.11869</ele>
        <time>2022-04-05T08:37:47.223Z</time>
      </trkpt>
      <trkpt lat="42.50053" lon="23.02942">
        <ele>708.164667</ele>
        <time>2022-04-05T08:37:49.233Z</time>
      </trkpt>
      <trkpt lat="42.50047" lon="23.02952">
        <ele>708.207967</ele>
        <time>2022-04-05T08:37:51.273Z</time>
      </trkpt>
      <trkpt lat="42.50039" lon="23.02966">
        <ele>708.268393</ele>
        <time>2022-04-05T08:37:54.228Z</time>
      </trkpt>
      <trkpt lat="42.5003" lon="23.02979">
        <ele>708.560881</ele>
        <time>2022-04-05T08:37:57.263Z</time>
      </trkpt>
      <trkpt lat="42.50022" lon="23.02993">
        <ele>708.876743</ele>
        <time>2022-04-05T08:38:00.226Z</time>
      </trkpt>
      <trkpt lat="42.50014" lon="23.03007">
        <ele>709.177029</ele>
        <time>2022-04-05T08:38:03.223Z</time>
      </trkpt>
      <trkpt lat="42.50007" lon="23.03019">
        <ele>709.457948</ele>
        <time>2022-04-05T08:38:06.226Z</time>
      </trkpt>
      <trkpt lat="42.5" lon="23.0303">
        <ele>709.703321</ele>
        <time>2022-04-05T08:38:09.220Z</time>
      </trkpt>
      <trkpt lat="42.49994" lon="23.0304">
        <ele>709.947349</ele>
        <time>2022-04-05T08:38:12.219Z</time>
      </trkpt>
      <trkpt lat="42.49987" lon="23.03051">
        <ele>710.191376</ele>
        <time>2022-04-05T08:38:15.224Z</time>
      </trkpt>
      <trkpt lat="42.49981" lon="23.0306">
        <ele>710.406967</ele>
        <time>2022-04-05T08:38:18.222Z</time>
      </trkpt>
      <trkpt lat="42.49975" lon="23.0307">
        <ele>710.635248</ele>
        <time>2022-04-05T08:38:21.239Z</time>
      </trkpt>
      <trkpt lat="42.49969" lon="23.0308">
        <ele>710.860654</ele>
        <time>2022-04-05T08:38:24.232Z</time>
      </trkpt>
      <trkpt lat="42.49963" lon="23.0309">
        <ele>711.079337</ele>
        <time>2022-04-05T08:38:27.236Z</time>
      </trkpt>
      <trkpt lat="42.49957" lon="23.03099">
        <ele>711.297507</ele>
        <time>2022-04-05T08:38:30.212Z</time>
      </trkpt>
      <trkpt lat="42.4995" lon="23.03111">
        <ele>711.568638</ele>
        <time>2022-04-05T08:38:34.213Z</time>
      </trkpt>
      <trkpt lat="42.49944" lon="23.03121">
        <ele>711.788655</ele>
        <time>2022-04-05T08:38:37.287Z</time>
      </trkpt>
      <trkpt lat="42.49938" lon="23.0313">
        <ele>712.008319</ele>
        <time>2022-04-05T08:38:40.235Z</time>
      </trkpt>
      <trkpt lat="42.49931" lon="23.03142">
        <ele>712.287899</ele>
        <time>2022-04-05T08:38:44.219Z</time>
      </trkpt>
      <trkpt lat="42.49924" lon="23.03154">
        <ele>712.552797</ele>
        <time>2022-04-05T08:38:48.234Z</time>
      </trkpt>
      <trkpt lat="42.49918" lon="23.03164">
        <ele>712.697783</ele>
        <time>2022-04-05T08:38:51.275Z</time>
      </trkpt>
      <trkpt lat="42.4991" lon="23.03176">
        <ele>712.880456</ele>
        <time>2022-04-05T08:38:55.234Z</time>
      </trkpt>
      <trkpt lat="42.49904" lon="23.03188">
        <ele>713.050057</ele>
        <time>2022-04-05T08:38:59.229Z</time>
      </trkpt>
      <trkpt lat="42.49898" lon="23.03198">
        <ele>713.188681</ele>
        <time>2022-04-05T08:39:02.226Z</time>
      </trkpt>
      <trkpt lat="42.49893" lon="23.03208">
        <ele>713.334573</ele>
        <time>2022-04-05T08:39:05.232Z</time>
      </trkpt>
      <trkpt lat="42.49887" lon="23.03218">
        <ele>713.474098</ele>
        <time>2022-04-05T08:39:08.220Z</time>
      </trkpt>
      <trkpt lat="42.4988" lon="23.03229">
        <ele>713.640734</ele>
        <time>2022-04-05T08:39:12.209Z</time>
      </trkpt>
      <trkpt lat="42.49874" lon="23.0324">
        <ele>713.799396</ele>
        <time>2022-04-05T08:39:16.217Z</time>
      </trkpt>
      <trkpt lat="42.49866" lon="23.03252">
        <ele>713.977611</ele>
        <time>2022-04-05T08:39:20.222Z</time>
      </trkpt>
      <trkpt lat="42.49861" lon="23.03262">
        <ele>714.118072</ele>
        <time>2022-04-05T08:39:23.219Z</time>
      </trkpt>
      <trkpt lat="42.49855" lon="23.03272">
        <ele>714.26151</ele>
        <time>2022-04-05T08:39:26.300Z</time>
      </trkpt>
      <trkpt lat="42.49847" lon="23.03284">
        <ele>714.441459</ele>
        <time>2022-04-05T08:39:30.235Z</time>
      </trkpt>
      <trkpt lat="42.49841" lon="23.03294">
        <ele>714.584341</ele>
        <time>2022-04-05T08:39:33.236Z</time>
      </trkpt>
      <trkpt lat="42.49834" lon="23.03305">
        <ele>714.753282</ele>
        <time>2022-04-05T08:39:37.265Z</time>
      </trkpt>
      <trkpt lat="42.49827" lon="23.03317">
        <ele>714.924076</ele>
        <time>2022-04-05T08:39:41.216Z</time>
      </trkpt>
      <trkpt lat="42.49819" lon="23.03328">
        <ele>715.098708</ele>
        <time>2022-04-05T08:39:45.235Z</time>
      </trkpt>
      <trkpt lat="42.49814" lon="23.03338">
        <ele>715.238439</ele>
        <time>2022-04-05T08:39:48.265Z</time>
      </trkpt>
      <trkpt lat="42.49808" lon="23.03348">
        <ele>715.275565</ele>
        <time>2022-04-05T08:39:51.229Z</time>
      </trkpt>
      <trkpt lat="42.49802" lon="23.03357">
        <ele>715.152026</ele>
        <time>2022-04-05T08:39:54.214Z</time>
      </trkpt>
      <trkpt lat="42.49795" lon="23.03367">
        <ele>715.023533</ele>
        <time>2022-04-05T08:39:57.237Z</time>
      </trkpt>
      <trkpt lat="42.49789" lon="23.03378">
        <ele>714.88146</ele>
        <time>2022-04-05T08:40:00.260Z</time>
      </trkpt>
      <trkpt lat="42.49782" lon="23.03389">
        <ele>714.737189</ele>
        <time>2022-04-05T08:40:03.232Z</time>
      </trkpt>
      <trkpt lat="42.49775" lon="23.03399">
        <ele>714.597327</ele>
        <time>2022-04-05T08:40:06.245Z</time>
      </trkpt>
      <trkpt lat="42.49768" lon="23.03409">
        <ele>714.463149</ele>
        <time>2022-04-05T08:40:09.228Z</time>
      </trkpt>
      <trkpt lat="42.49761" lon="23.03418">
        <ele>714.331334</ele>
        <time>2022-04-05T08:40:12.245Z</time>
      </trkpt>
      <trkpt lat="42.49753" lon="23.03428">
        <ele>714.191024</ele>
        <time>2022-04-05T08:40:15.266Z</time>
      </trkpt>
      <trkpt lat="42.49746" lon="23.03438">
        <ele>714.045878</ele>
        <time>2022-04-05T08:40:18.229Z</time>
      </trkpt>
      <trkpt lat="42.49737" lon="23.03449">
        <ele>713.886367</ele>
        <time>2022-04-05T08:40:21.215Z</time>
      </trkpt>
      <trkpt lat="42.49728" lon="23.03461">
        <ele>713.711113</ele>
        <time>2022-04-05T08:40:24.226Z</time>
      </trkpt>
      <trkpt lat="42.49721" lon="23.0347">
        <ele>713.584986</ele>
        <time>2022-04-05T08:40:26.222Z</time>
      </trkpt>
      <trkpt lat="42.49715" lon="23.03479">
        <ele>713.455099</ele>
        <time>2022-04-05T08:40:28.237Z</time>
      </trkpt>
      <trkpt lat="42.49708" lon="23.03488">
        <ele>713.326613</ele>
        <time>2022-04-05T08:40:30.212Z</time>
      </trkpt>
      <trkpt lat="42.497" lon="23.03498">
        <ele>713.188822</ele>
        <time>2022-04-05T08:40:32.237Z</time>
      </trkpt>
      <trkpt lat="42.49693" lon="23.03508">
        <ele>713.052541</ele>
        <time>2022-04-05T08:40:34.229Z</time>
      </trkpt>
      <trkpt lat="42.49686" lon="23.03518">
        <ele>712.908202</ele>
        <time>2022-04-05T08:40:36.265Z</time>
      </trkpt>
      <trkpt lat="42.49678" lon="23.03528">
        <ele>712.639051</ele>
        <time>2022-04-05T08:40:38.241Z</time>
      </trkpt>
      <trkpt lat="42.4967" lon="23.03539">
        <ele>712.350209</ele>
        <time>2022-04-05T08:40:40.230Z</time>
      </trkpt>
      <trkpt lat="42.49663" lon="23.0355">
        <ele>712.059075</ele>
        <time>2022-04-05T08:40:42.241Z</time>
      </trkpt>
      <trkpt lat="42.49654" lon="23.03561">
        <ele>711.745833</ele>
        <time>2022-04-05T08:40:44.268Z</time>
      </trkpt>
      <trkpt lat="42.49645" lon="23.03573">
        <ele>711.422751</ele>
        <time>2022-04-05T08:40:46.237Z</time>
      </trkpt>
      <trkpt lat="42.49636" lon="23.03585">
        <ele>711.085084</ele>
        <time>2022-04-05T08:40:48.217Z</time>
      </trkpt>
      <trkpt lat="42.49627" lon="23.03598">
        <ele>710.73313</ele>
        <time>2022-04-05T08:40:50.228Z</time>
      </trkpt>
      <trkpt lat="42.49617" lon="23.03611">
        <ele>710.357694</ele>
        <time>2022-04-05T08:40:52.226Z</time>
      </trkpt>
      <trkpt lat="42.49606" lon="23.03626">
        <ele>709.950455</ele>
        <time>2022-04-05T08:40:54.223Z</time>
      </trkpt>
      <trkpt lat="42.49595" lon="23.0364">
        <ele>709.562099</ele>
        <time>2022-04-05T08:40:56.231Z</time>
      </trkpt>
      <trkpt lat="42.49585" lon="23.03654">
        <ele>709.176973</ele>
        <time>2022-04-05T08:40:58.225Z</time>
      </trkpt>
      <trkpt lat="42.49575" lon="23.03668">
        <ele>708.800163</ele>
        <time>2022-04-05T08:41:00.238Z</time>
      </trkpt>
      <trkpt lat="42.49565" lon="23.03681">
        <ele>708.436637</ele>
        <time>2022-04-05T08:41:02.221Z</time>
      </trkpt>
      <trkpt lat="42.49555" lon="23.03694">
        <ele>708.142091</ele>
        <time>2022-04-05T08:41:04.240Z</time>
      </trkpt>
      <trkpt lat="42.49546" lon="23.03707">
        <ele>708.042842</ele>
        <time>2022-04-05T08:41:06.246Z</time>
      </trkpt>
      <trkpt lat="42.49537" lon="23.03719">
        <ele>707.947956</ele>
        <time>2022-04-05T08:41:08.222Z</time>
      </trkpt>
      <trkpt lat="42.49528" lon="23.03731">
        <ele>707.853853</ele>
        <time>2022-04-05T08:41:10.225Z</time>
      </trkpt>
      <trkpt lat="42.4952" lon="23.03741">
        <ele>707.775376</ele>
        <time>2022-04-05T08:41:12.235Z</time>
      </trkpt>
      <trkpt lat="42.49513" lon="23.03751">
        <ele>707.697284</ele>
        <time>2022-04-05T08:41:14.226Z</time>
      </trkpt>
      <trkpt lat="42.49505" lon="23.03761">
        <ele>707.617641</ele>
        <time>2022-04-05T08:41:16.213Z</time>
      </trkpt>
      <trkpt lat="42.49498" lon="23.03771">
        <ele>707.536545</ele>
        <time>2022-04-05T08:41:18.233Z</time>
      </trkpt>
      <trkpt lat="42.4949" lon="23.03781">
        <ele>707.456371</ele>
        <time>2022-04-05T08:41:20.241Z</time>
      </trkpt>
      <trkpt lat="42.49483" lon="23.03791">
        <ele>707.376971</ele>
        <time>2022-04-05T08:41:22.250Z</time>
      </trkpt>
      <trkpt lat="42.49475" lon="23.03802">
        <ele>707.295458</ele>
        <time>2022-04-05T08:41:24.242Z</time>
      </trkpt>
      <trkpt lat="42.49468" lon="23.03812">
        <ele>707.215948</ele>
        <time>2022-04-05T08:41:26.223Z</time>
      </trkpt>
      <trkpt lat="42.49461" lon="23.03823">
        <ele>707.138275</ele>
        <time>2022-04-05T08:41:28.221Z</time>
      </trkpt>
      <trkpt lat="42.49454" lon="23.03832">
        <ele>707.062957</ele>
        <time>2022-04-05T08:41:30.223Z</time>
      </trkpt>
      <trkpt lat="42.49447" lon="23.03842">
        <ele>706.986995</ele>
        <time>2022-04-05T08:41:32.240Z</time>
      </trkpt>
      <trkpt lat="42.4944" lon="23.03852">
        <ele>706.911558</ele>
        <time>2022-04-05T08:41:34.229Z</time>
      </trkpt>
      <trkpt lat="42.49432" lon="23.03862">
        <ele>706.832442</ele>
        <time>2022-04-05T08:41:36.228Z</time>
      </trkpt>
      <trkpt lat="42.49425" lon="23.03873">
        <ele>706.713359</ele>
        <time>2022-04-05T08:41:38.235Z</time>
      </trkpt>
      <trkpt lat="42.49418" lon="23.03883">
        <ele>706.591734</ele>
        <time>2022-04-05T08:41:40.222Z</time>
      </trkpt>
      <trkpt lat="42.4941" lon="23.03893">
        <ele>706.462928</ele>
        <time>2022-04-05T08:41:42.234Z</time>
      </trkpt>
      <trkpt lat="42.49403" lon="23.03905">
        <ele>706.328303</ele>
        <time>2022-04-05T08:41:44.223Z</time>
      </trkpt>
      <trkpt lat="42.49395" lon="23.03915">
        <ele>706.19832</ele>
        <time>2022-04-05T08:41:46.234Z</time>
      </trkpt>
      <trkpt lat="42.49388" lon="23.03926">
        <ele>706.067891</ele>
        <time>2022-04-05T08:41:48.223Z</time>
      </trkpt>
      <trkpt lat="42.4938" lon="23.03937">
        <ele>705.934075</ele>
        <time>2022-04-05T08:41:50.277Z</time>
      </trkpt>
      <trkpt lat="42.49372" lon="23.03949">
        <ele>705.794603</ele>
        <time>2022-04-05T08:41:52.240Z</time>
      </trkpt>
      <trkpt lat="42.49364" lon="23.03961">
        <ele>705.656072</ele>
        <time>2022-04-05T08:41:54.227Z</time>
      </trkpt>
      <trkpt lat="42.49356" lon="23.03972">
        <ele>705.516434</ele>
        <time>2022-04-05T08:41:56.243Z</time>
      </trkpt>
      <trkpt lat="42.49348" lon="23.03984">
        <ele>705.37566</ele>
        <time>2022-04-05T08:41:58.228Z</time>
      </trkpt>
      <trkpt lat="42.49341" lon="23.03996">
        <ele>705.236336</ele>
        <time>2022-04-05T08:42:00.217Z</time>
      </trkpt>
      <trkpt lat="42.49333" lon="23.04007">
        <ele>705.100418</ele>
        <time>2022-04-05T08:42:02.248Z</time>
      </trkpt>
      <trkpt lat="42.49325" lon="23.04019">
        <ele>704.963335</ele>
        <time>2022-04-05T08:42:04.233Z</time>
      </trkpt>
      <trkpt lat="42.49318" lon="23.04031">
        <ele>704.82691</ele>
        <time>2022-04-05T08:42:06.219Z</time>
      </trkpt>
      <trkpt lat="42.4931" lon="23.04042">
        <ele>704.689538</ele>
        <time>2022-04-05T08:42:08.228Z</time>
      </trkpt>
      <trkpt lat="42.49302" lon="23.04054">
        <ele>704.656227</ele>
        <time>2022-04-05T08:42:10.218Z</time>
      </trkpt>
      <trkpt lat="42.49294" lon="23.04066">
        <ele>704.636404</ele>
        <time>2022-04-05T08:42:12.240Z</time>
      </trkpt>
      <trkpt lat="42.49286" lon="23.04079">
        <ele>704.616069</ele>
        <time>2022-04-05T08:42:14.231Z</time>
      </trkpt>
      <trkpt lat="42.49278" lon="23.04091">
        <ele>704.596005</ele>
        <time>2022-04-05T08:42:16.215Z</time>
      </trkpt>
      <trkpt lat="42.4927" lon="23.04103">
        <ele>704.576364</ele>
        <time>2022-04-05T08:42:18.210Z</time>
      </trkpt>
      <trkpt lat="42.49261" lon="23.04115">
        <ele>704.556029</ele>
        <time>2022-04-05T08:42:20.233Z</time>
      </trkpt>
      <trkpt lat="42.49253" lon="23.04127">
        <ele>704.536459</ele>
        <time>2022-04-05T08:42:22.254Z</time>
      </trkpt>
      <trkpt lat="42.49245" lon="23.04139">
        <ele>704.516103</ele>
        <time>2022-04-05T08:42:24.235Z</time>
      </trkpt>
      <trkpt lat="42.49237" lon="23.04152">
        <ele>704.495694</ele>
        <time>2022-04-05T08:42:26.217Z</time>
      </trkpt>
      <trkpt lat="42.49229" lon="23.04163">
        <ele>704.476366</ele>
        <time>2022-04-05T08:42:28.228Z</time>
      </trkpt>
      <trkpt lat="42.49222" lon="23.04174">
        <ele>704.458132</ele>
        <time>2022-04-05T08:42:30.282Z</time>
      </trkpt>
      <trkpt lat="42.49214" lon="23.04185">
        <ele>704.44002</ele>
        <time>2022-04-05T08:42:32.226Z</time>
      </trkpt>
      <trkpt lat="42.49207" lon="23.04197">
        <ele>704.421074</ele>
        <time>2022-04-05T08:42:34.230Z</time>
      </trkpt>
      <trkpt lat="42.49199" lon="23.04208">
        <ele>704.402933</ele>
        <time>2022-04-05T08:42:36.240Z</time>
      </trkpt>
      <trkpt lat="42.49193" lon="23.04218">
        <ele>704.387261</ele>
        <time>2022-04-05T08:42:38.218Z</time>
      </trkpt>
      <trkpt lat="42.49186" lon="23.04229">
        <ele>704.446882</ele>
        <time>2022-04-05T08:42:40.233Z</time>
      </trkpt>
      <trkpt lat="42.49178" lon="23.0424">
        <ele>704.654989</ele>
        <time>2022-04-05T08:42:42.244Z</time>
      </trkpt>
      <trkpt lat="42.49171" lon="23.0425">
        <ele>704.833962</ele>
        <time>2022-04-05T08:42:44.226Z</time>
      </trkpt>
      <trkpt lat="42.49165" lon="23.04259">
        <ele>705.005596</ele>
        <time>2022-04-05T08:42:46.257Z</time>
      </trkpt>
      <trkpt lat="42.49156" lon="23.04272">
        <ele>705.2355</ele>
        <time>2022-04-05T08:42:49.210Z</time>
      </trkpt>
      <trkpt lat="42.49148" lon="23.04285">
        <ele>705.465154</ele>
        <time>2022-04-05T08:42:52.225Z</time>
      </trkpt>
      <trkpt lat="42.49139" lon="23.04297">
        <ele>705.687986</ele>
        <time>2022-04-05T08:42:55.238Z</time>
      </trkpt>
      <trkpt lat="42.49131" lon="23.0431">
        <ele>705.915437</ele>
        <time>2022-04-05T08:42:58.228Z</time>
      </trkpt>
      <trkpt lat="42.49123" lon="23.04322">
        <ele>706.131135</ele>
        <time>2022-04-05T08:43:01.238Z</time>
      </trkpt>
      <trkpt lat="42.49115" lon="23.04334">
        <ele>706.351583</ele>
        <time>2022-04-05T08:43:04.228Z</time>
      </trkpt>
      <trkpt lat="42.49107" lon="23.04346">
        <ele>706.564848</ele>
        <time>2022-04-05T08:43:07.226Z</time>
      </trkpt>
      <trkpt lat="42.49099" lon="23.04358">
        <ele>706.775914</ele>
        <time>2022-04-05T08:43:10.217Z</time>
      </trkpt>
      <trkpt lat="42.49091" lon="23.04371">
        <ele>706.999137</ele>
        <time>2022-04-05T08:43:13.241Z</time>
      </trkpt>
      <trkpt lat="42.49084" lon="23.04383">
        <ele>707.208396</ele>
        <time>2022-04-05T08:43:16.229Z</time>
      </trkpt>
      <trkpt lat="42.49076" lon="23.04395">
        <ele>707.426299</ele>
        <time>2022-04-05T08:43:19.240Z</time>
      </trkpt>
      <trkpt lat="42.49068" lon="23.04407">
        <ele>707.640986</ele>
        <time>2022-04-05T08:43:22.214Z</time>
      </trkpt>
      <trkpt lat="42.4906" lon="23.04419">
        <ele>707.7992</ele>
        <time>2022-04-05T08:43:25.264Z</time>
      </trkpt>
      <trkpt lat="42.49053" lon="23.0443">
        <ele>707.962588</ele>
        <time>2022-04-05T08:43:28.281Z</time>
      </trkpt>
      <trkpt lat="42.49044" lon="23.04444">
        <ele>708.156426</ele>
        <time>2022-04-05T08:43:31.232Z</time>
      </trkpt>
      <trkpt lat="42.49036" lon="23.04456">
        <ele>708.317303</ele>
        <time>2022-04-05T08:43:34.228Z</time>
      </trkpt>
      <trkpt lat="42.49029" lon="23.04467">
        <ele>708.475668</ele>
        <time>2022-04-05T08:43:37.225Z</time>
      </trkpt>
      <trkpt lat="42.49021" lon="23.04478">
        <ele>708.634677</ele>
        <time>2022-04-05T08:43:40.229Z</time>
      </trkpt>
      <trkpt lat="42.49013" lon="23.0449">
        <ele>708.809278</ele>
        <time>2022-04-05T08:43:43.231Z</time>
      </trkpt>
      <trkpt lat="42.49005" lon="23.04502">
        <ele>708.975179</ele>
        <time>2022-04-05T08:43:46.235Z</time>
      </trkpt>
      <trkpt lat="42.48997" lon="23.04514">
        <ele>709.143593</ele>
        <time>2022-04-05T08:43:49.222Z</time>
      </trkpt>
      <trkpt lat="42.4899" lon="23.04526">
        <ele>709.307144</ele>
        <time>2022-04-05T08:43:52.232Z</time>
      </trkpt>
      <trkpt lat="42.48982" lon="23.04537">
        <ele>709.464135</ele>
        <time>2022-04-05T08:43:55.238Z</time>
      </trkpt>
      <trkpt lat="42.48974" lon="23.04548">
        <ele>709.626575</ele>
        <time>2022-04-05T08:43:58.222Z</time>
      </trkpt>
      <trkpt lat="42.48967" lon="23.04558">
        <ele>709.773784</ele>
        <time>2022-04-05T08:44:01.243Z</time>
      </trkpt>
      <trkpt lat="42.48961" lon="23.04567">
        <ele>709.904213</ele>
        <time>2022-04-05T08:44:04.236Z</time>
      </trkpt>
      <trkpt lat="42.48954" lon="23.04577">
        <ele>710.044556</ele>
        <time>2022-04-05T08:44:07.267Z</time>
      </trkpt>
      <trkpt lat="42.48947" lon="23.04588">
        <ele>710.188679</ele>
        <time>2022-04-05T08:44:10.232Z</time>
      </trkpt>
      <trkpt lat="42.4894" lon="23.04598">
        <ele>710.288445</ele>
        <time>2022-04-05T08:44:13.249Z</time>
      </trkpt>
      <trkpt lat="42.48934" lon="23.04608">
        <ele>710.38224</ele>
        <time>2022-04-05T08:44:16.227Z</time>
      </trkpt>
      <trkpt lat="42.48927" lon="23.04618">
        <ele>710.478492</ele>
        <time>2022-04-05T08:44:19.245Z</time>
      </trkpt>
      <trkpt lat="42.4892" lon="23.04628">
        <ele>710.578404</ele>
        <time>2022-04-05T08:44:22.235Z</time>
      </trkpt>
      <trkpt lat="42.48913" lon="23.04639">
        <ele>710.6809</ele>
        <time>2022-04-05T08:44:25.235Z</time>
      </trkpt>
      <trkpt lat="42.48906" lon="23.04649">
        <ele>710.777557</ele>
        <time>2022-04-05T08:44:28.224Z</time>
      </trkpt>
      <trkpt lat="42.489" lon="23.0466">
        <ele>710.874404</ele>
        <time>2022-04-05T08:44:31.226Z</time>
      </trkpt>
      <trkpt lat="42.48893" lon="23.04671">
        <ele>710.975972</ele>
        <time>2022-04-05T08:44:34.242Z</time>
      </trkpt>
      <trkpt lat="42.48886" lon="23.04682">
        <ele>711.080577</ele>
        <time>2022-04-05T08:44:37.239Z</time>
      </trkpt>
      <trkpt lat="42.48879" lon="23.04693">
        <ele>711.184018</ele>
        <time>2022-04-05T08:44:40.218Z</time>
      </trkpt>
      <trkpt lat="42.48872" lon="23.04705">
        <ele>711.290146</ele>
        <time>2022-04-05T08:44:43.236Z</time>
      </trkpt>
      <trkpt lat="42.48864" lon="23.04715">
        <ele>711.392919</ele>
        <time>2022-04-05T08:44:46.240Z</time>
      </trkpt>
      <trkpt lat="42.48856" lon="23.04726">
        <ele>711.502241</ele>
        <time>2022-04-05T08:44:49.238Z</time>
      </trkpt>
      <trkpt lat="42.48849" lon="23.04738">
        <ele>711.612039</ele>
        <time>2022-04-05T08:44:52.237Z</time>
      </trkpt>
      <trkpt lat="42.48841" lon="23.04749">
        <ele>711.72039</ele>
        <time>2022-04-05T08:44:55.230Z</time>
      </trkpt>
      <trkpt lat="42.48833" lon="23.04761">
        <ele>711.829661</ele>
        <time>2022-04-05T08:44:58.254Z</time>
      </trkpt>
      <trkpt lat="42.48826" lon="23.04771">
        <ele>711.873673</ele>
        <time>2022-04-05T08:45:01.272Z</time>
      </trkpt>
      <trkpt lat="42.48819" lon="23.04782">
        <ele>711.734642</ele>
        <time>2022-04-05T08:45:04.228Z</time>
      </trkpt>
      <trkpt lat="42.48813" lon="23.04794">
        <ele>711.586574</ele>
        <time>2022-04-05T08:45:07.235Z</time>
      </trkpt>
      <trkpt lat="42.48804" lon="23.04807">
        <ele>711.422336</ele>
        <time>2022-04-05T08:45:10.223Z</time>
      </trkpt>
      <trkpt lat="42.48798" lon="23.04816">
        <ele>711.293561</ele>
        <time>2022-04-05T08:45:12.241Z</time>
      </trkpt>
      <trkpt lat="42.48792" lon="23.04826">
        <ele>711.168592</ele>
        <time>2022-04-05T08:45:14.220Z</time>
      </trkpt>
      <trkpt lat="42.48786" lon="23.04835">
        <ele>711.046117</ele>
        <time>2022-04-05T08:45:16.237Z</time>
      </trkpt>
      <trkpt lat="42.4878" lon="23.04845">
        <ele>710.926234</ele>
        <time>2022-04-05T08:45:18.223Z</time>
      </trkpt>
      <trkpt lat="42.48774" lon="23.04854">
        <ele>710.799803</ele>
        <time>2022-04-05T08:45:20.259Z</time>
      </trkpt>
      <trkpt lat="42.48767" lon="23.04864">
        <ele>710.676592</ele>
        <time>2022-04-05T08:45:22.223Z</time>
      </trkpt>
      <trkpt lat="42.48761" lon="23.04874">
        <ele>710.544595</ele>
        <time>2022-04-05T08:45:24.238Z</time>
      </trkpt>
      <trkpt lat="42.48754" lon="23.04884">
        <ele>710.409926</ele>
        <time>2022-04-05T08:45:26.267Z</time>
      </trkpt>
      <trkpt lat="42.48747" lon="23.04894">
        <ele>710.277045</ele>
        <time>2022-04-05T08:45:28.227Z</time>
      </trkpt>
      <trkpt lat="42.48741" lon="23.04904">
        <ele>710.145923</ele>
        <time>2022-04-05T08:45:30.234Z</time>
      </trkpt>
      <trkpt lat="42.48734" lon="23.04915">
        <ele>710.008623</ele>
        <time>2022-04-05T08:45:32.219Z</time>
      </trkpt>
      <trkpt lat="42.48727" lon="23.04926">
        <ele>709.869444</ele>
        <time>2022-04-05T08:45:34.242Z</time>
      </trkpt>
      <trkpt lat="42.4872" lon="23.04936">
        <ele>709.732607</ele>
        <time>2022-04-05T08:45:36.229Z</time>
      </trkpt>
      <trkpt lat="42.48714" lon="23.04946">
        <ele>709.598399</ele>
        <time>2022-04-05T08:45:38.218Z</time>
      </trkpt>
      <trkpt lat="42.48707" lon="23.04957">
        <ele>709.559367</ele>
        <time>2022-04-05T08:45:40.236Z</time>
      </trkpt>
      <trkpt lat="42.48699" lon="23.04968">
        <ele>709.648274</ele>
        <time>2022-04-05T08:45:42.230Z</time>
      </trkpt>
      <trkpt lat="42.48693" lon="23.04978">
        <ele>709.73457</ele>
        <time>2022-04-05T08:45:44.223Z</time>
      </trkpt>
      <trkpt lat="42.48686" lon="23.04988">
        <ele>709.82189</ele>
        <time>2022-04-05T08:45:46.235Z</time>
      </trkpt>
      <trkpt lat="42.48679" lon="23.04999">
        <ele>709.907946</ele>
        <time>2022-04-05T08:45:48.228Z</time>
      </trkpt>
      <trkpt lat="42.48672" lon="23.05009">
        <ele>709.996197</ele>
        <time>2022-04-05T08:45:50.221Z</time>
      </trkpt>
      <trkpt lat="42.48665" lon="23.0502">
        <ele>710.085105</ele>
        <time>2022-04-05T08:45:52.228Z</time>
      </trkpt>
      <trkpt lat="42.48658" lon="23.0503">
        <ele>710.172527</ele>
        <time>2022-04-05T08:45:54.222Z</time>
      </trkpt>
      <trkpt lat="42.48651" lon="23.0504">
        <ele>710.253902</ele>
        <time>2022-04-05T08:45:56.223Z</time>
      </trkpt>
      <trkpt lat="42.48645" lon="23.05049">
        <ele>710.333227</ele>
        <time>2022-04-05T08:45:58.220Z</time>
      </trkpt>
      <trkpt lat="42.48639" lon="23.05059">
        <ele>710.412091</ele>
        <time>2022-04-05T08:46:00.220Z</time>
      </trkpt>
      <trkpt lat="42.48632" lon="23.05068">
        <ele>710.489136</ele>
        <time>2022-04-05T08:46:02.218Z</time>
      </trkpt>
      <trkpt lat="42.48624" lon="23.0508">
        <ele>710.593109</ele>
        <time>2022-04-05T08:46:05.227Z</time>
      </trkpt>
      <trkpt lat="42.48616" lon="23.05092">
        <ele>710.693656</ele>
        <time>2022-04-05T08:46:08.228Z</time>
      </trkpt>
      <trkpt lat="42.48608" lon="23.05104">
        <ele>710.791867</ele>
        <time>2022-04-05T08:46:11.223Z</time>
      </trkpt>
      <trkpt lat="42.486" lon="23.05117">
        <ele>710.896763</ele>
        <time>2022-04-05T08:46:14.236Z</time>
      </trkpt>
      <trkpt lat="42.48592" lon="23.0513">
        <ele>711.004398</ele>
        <time>2022-04-05T08:46:17.226Z</time>
      </trkpt>
      <trkpt lat="42.48584" lon="23.05142">
        <ele>711.137824</ele>
        <time>2022-04-05T08:46:20.217Z</time>
      </trkpt>
      <trkpt lat="42.48577" lon="23.05153">
        <ele>711.281464</ele>
        <time>2022-04-05T08:46:23.237Z</time>
      </trkpt>
      <trkpt lat="42.48569" lon="23.05165">
        <ele>711.433795</ele>
        <time>2022-04-05T08:46:26.226Z</time>
      </trkpt>
      <trkpt lat="42.4856" lon="23.05179">
        <ele>711.605364</ele>
        <time>2022-04-05T08:46:29.223Z</time>
      </trkpt>
      <trkpt lat="42.48551" lon="23.05191">
        <ele>711.769777</ele>
        <time>2022-04-05T08:46:32.208Z</time>
      </trkpt>
      <trkpt lat="42.48543" lon="23.05204">
        <ele>711.930512</ele>
        <time>2022-04-05T08:46:35.261Z</time>
      </trkpt>
      <trkpt lat="42.48535" lon="23.05214">
        <ele>712.072977</ele>
        <time>2022-04-05T08:46:38.245Z</time>
      </trkpt>
      <trkpt lat="42.48529" lon="23.05224">
        <ele>712.200654</ele>
        <time>2022-04-05T08:46:41.238Z</time>
      </trkpt>
      <trkpt lat="42.48522" lon="23.05234">
        <ele>712.330251</ele>
        <time>2022-04-05T08:46:44.221Z</time>
      </trkpt>
      <trkpt lat="42.48515" lon="23.05244">
        <ele>712.458271</ele>
        <time>2022-04-05T08:46:47.236Z</time>
      </trkpt>
      <trkpt lat="42.48508" lon="23.05254">
        <ele>712.585806</ele>
        <time>2022-04-05T08:46:50.226Z</time>
      </trkpt>
      <trkpt lat="42.48501" lon="23.05265">
        <ele>712.722913</ele>
        <time>2022-04-05T08:46:53.205Z</time>
      </trkpt>
      <trkpt lat="42.48494" lon="23.05275">
        <ele>712.855667</ele>
        <time>2022-04-05T08:46:56.243Z</time>
      </trkpt>
      <trkpt lat="42.48487" lon="23.05285">
        <ele>712.985264</ele>
        <time>2022-04-05T08:46:59.237Z</time>
      </trkpt>
      <trkpt lat="42.48481" lon="23.05295">
        <ele>713.115802</ele>
        <time>2022-04-05T08:47:02.230Z</time>
      </trkpt>
      <trkpt lat="42.48474" lon="23.05305">
        <ele>713.249062</ele>
        <time>2022-04-05T08:47:05.225Z</time>
      </trkpt>
      <trkpt lat="42.48467" lon="23.05316">
        <ele>713.377526</ele>
        <time>2022-04-05T08:47:08.227Z</time>
      </trkpt>
      <trkpt lat="42.4846" lon="23.05327">
        <ele>713.487365</ele>
        <time>2022-04-05T08:47:11.226Z</time>
      </trkpt>
      <trkpt lat="42.48454" lon="23.05337">
        <ele>713.589684</ele>
        <time>2022-04-05T08:47:14.275Z</time>
      </trkpt>
      <trkpt lat="42.48447" lon="23.05348">
        <ele>713.699422</ele>
        <time>2022-04-05T08:47:17.241Z</time>
      </trkpt>
      <trkpt lat="42.48439" lon="23.05359">
        <ele>713.816783</ele>
        <time>2022-04-05T08:47:20.226Z</time>
      </trkpt>
      <trkpt lat="42.48432" lon="23.0537">
        <ele>713.934839</ele>
        <time>2022-04-05T08:47:23.236Z</time>
      </trkpt>
      <trkpt lat="42.48426" lon="23.05381">
        <ele>714.040703</ele>
        <time>2022-04-05T08:47:26.218Z</time>
      </trkpt>
      <trkpt lat="42.48418" lon="23.05392">
        <ele>714.154939</ele>
        <time>2022-04-05T08:47:29.261Z</time>
      </trkpt>
      <trkpt lat="42.48411" lon="23.05403">
        <ele>714.26432</ele>
        <time>2022-04-05T08:47:32.239Z</time>
      </trkpt>
      <trkpt lat="42.48404" lon="23.05413">
        <ele>714.375997</ele>
        <time>2022-04-05T08:47:35.239Z</time>
      </trkpt>
      <trkpt lat="42.48397" lon="23.05424">
        <ele>714.48864</ele>
        <time>2022-04-05T08:47:38.223Z</time>
      </trkpt>
      <trkpt lat="42.48389" lon="23.05434">
        <ele>714.599034</ele>
        <time>2022-04-05T08:47:41.236Z</time>
      </trkpt>
      <trkpt lat="42.48383" lon="23.05445">
        <ele>714.707602</ele>
        <time>2022-04-05T08:47:44.227Z</time>
      </trkpt>
      <trkpt lat="42.48376" lon="23.05455">
        <ele>714.815708</ele>
        <time>2022-04-05T08:47:47.237Z</time>
      </trkpt>
      <trkpt lat="42.48369" lon="23.05465">
        <ele>714.920255</ele>
        <time>2022-04-05T08:47:50.243Z</time>
      </trkpt>
      <trkpt lat="42.48362" lon="23.05476">
        <ele>715.030788</ele>
        <time>2022-04-05T08:47:53.225Z</time>
      </trkpt>
      <trkpt lat="42.48355" lon="23.05486">
        <ele>715.139469</ele>
        <time>2022-04-05T08:47:56.232Z</time>
      </trkpt>
      <trkpt lat="42.48348" lon="23.05497">
        <ele>715.238736</ele>
        <time>2022-04-05T08:47:59.224Z</time>
      </trkpt>
      <trkpt lat="42.48341" lon="23.05507">
        <ele>715.219741</ele>
        <time>2022-04-05T08:48:02.282Z</time>
      </trkpt>
      <trkpt lat="42.48335" lon="23.05517">
        <ele>715.201339</ele>
        <time>2022-04-05T08:48:05.237Z</time>
      </trkpt>
      <trkpt lat="42.48328" lon="23.05527">
        <ele>715.182548</ele>
        <time>2022-04-05T08:48:08.235Z</time>
      </trkpt>
      <trkpt lat="42.48321" lon="23.05538">
        <ele>715.16345</ele>
        <time>2022-04-05T08:48:11.229Z</time>
      </trkpt>
      <trkpt lat="42.48314" lon="23.05549">
        <ele>715.143117</ele>
        <time>2022-04-05T08:48:14.224Z</time>
      </trkpt>
      <trkpt lat="42.48306" lon="23.05559">
        <ele>715.122987</ele>
        <time>2022-04-05T08:48:17.255Z</time>
      </trkpt>
      <trkpt lat="42.483" lon="23.0557">
        <ele>715.103579</ele>
        <time>2022-04-05T08:48:20.225Z</time>
      </trkpt>
      <trkpt lat="42.48293" lon="23.05581">
        <ele>715.083527</ele>
        <time>2022-04-05T08:48:23.222Z</time>
      </trkpt>
      <trkpt lat="42.48286" lon="23.05591">
        <ele>715.064482</ele>
        <time>2022-04-05T08:48:26.227Z</time>
      </trkpt>
      <trkpt lat="42.48278" lon="23.05602">
        <ele>715.044199</ele>
        <time>2022-04-05T08:48:29.234Z</time>
      </trkpt>
      <trkpt lat="42.48271" lon="23.05613">
        <ele>715.024113</ele>
        <time>2022-04-05T08:48:32.233Z</time>
      </trkpt>
      <trkpt lat="42.48264" lon="23.05625">
        <ele>715.003142</ele>
        <time>2022-04-05T08:48:35.228Z</time>
      </trkpt>
      <trkpt lat="42.48256" lon="23.05637">
        <ele>714.981648</ele>
        <time>2022-04-05T08:48:38.228Z</time>
      </trkpt>
      <trkpt lat="42.48249" lon="23.05648">
        <ele>714.96043</ele>
        <time>2022-04-05T08:48:41.227Z</time>
      </trkpt>
      <trkpt lat="42.48241" lon="23.0566">
        <ele>714.938382</ele>
        <time>2022-04-05T08:48:44.218Z</time>
      </trkpt>
      <trkpt lat="42.48233" lon="23.05673">
        <ele>714.915117</ele>
        <time>2022-04-05T08:48:47.264Z</time>
      </trkpt>
      <trkpt lat="42.48225" lon="23.05687">
        <ele>714.794566</ele>
        <time>2022-04-05T08:48:50.241Z</time>
      </trkpt>
      <trkpt lat="42.48219" lon="23.05696">
        <ele>714.667161</ele>
        <time>2022-04-05T08:48:52.227Z</time>
      </trkpt>
      <trkpt lat="42.48213" lon="23.05705">
        <ele>714.539755</ele>
        <time>2022-04-05T08:48:54.240Z</time>
      </trkpt>
      <trkpt lat="42.48204" lon="23.05718">
        <ele>714.360298</ele>
        <time>2022-04-05T08:48:57.236Z</time>
      </trkpt>
      <trkpt lat="42.48196" lon="23.05732">
        <ele>714.17445</ele>
        <time>2022-04-05T08:49:00.225Z</time>
      </trkpt>
      <trkpt lat="42.48189" lon="23.05742">
        <ele>714.041139</ele>
        <time>2022-04-05T08:49:02.221Z</time>
      </trkpt>
      <trkpt lat="42.48183" lon="23.05751">
        <ele>713.906119</ele>
        <time>2022-04-05T08:49:04.220Z</time>
      </trkpt>
      <trkpt lat="42.48176" lon="23.05761">
        <ele>713.767489</ele>
        <time>2022-04-05T08:49:06.224Z</time>
      </trkpt>
      <trkpt lat="42.4817" lon="23.05771">
        <ele>713.627498</ele>
        <time>2022-04-05T08:49:08.251Z</time>
      </trkpt>
      <trkpt lat="42.48163" lon="23.05781">
        <ele>713.490585</ele>
        <time>2022-04-05T08:49:10.237Z</time>
      </trkpt>
      <trkpt lat="42.48156" lon="23.05791">
        <ele>713.351192</ele>
        <time>2022-04-05T08:49:12.234Z</time>
      </trkpt>
      <trkpt lat="42.4815" lon="23.05801">
        <ele>713.208069</ele>
        <time>2022-04-05T08:49:14.237Z</time>
      </trkpt>
      <trkpt lat="42.48143" lon="23.05812">
        <ele>713.057977</ele>
        <time>2022-04-05T08:49:16.267Z</time>
      </trkpt>
      <trkpt lat="42.48135" lon="23.05823">
        <ele>712.899323</ele>
        <time>2022-04-05T08:49:18.237Z</time>
      </trkpt>
      <trkpt lat="42.48127" lon="23.05835">
        <ele>712.737418</ele>
        <time>2022-04-05T08:49:20.229Z</time>
      </trkpt>
      <trkpt lat="42.48119" lon="23.05847">
        <ele>712.56728</ele>
        <time>2022-04-05T08:49:22.220Z</time>
      </trkpt>
      <trkpt lat="42.48111" lon="23.05859">
        <ele>712.397754</ele>
        <time>2022-04-05T08:49:24.234Z</time>
      </trkpt>
      <trkpt lat="42.48103" lon="23.05871">
        <ele>712.131172</ele>
        <time>2022-04-05T08:49:26.225Z</time>
      </trkpt>
      <trkpt lat="42.48095" lon="23.05884">
        <ele>711.85277</ele>
        <time>2022-04-05T08:49:28.235Z</time>
      </trkpt>
      <trkpt lat="42.48087" lon="23.05895">
        <ele>711.586088</ele>
        <time>2022-04-05T08:49:30.243Z</time>
      </trkpt>
      <trkpt lat="42.48079" lon="23.05907">
        <ele>711.315614</ele>
        <time>2022-04-05T08:49:32.250Z</time>
      </trkpt>
      <trkpt lat="42.48071" lon="23.05919">
        <ele>711.024144</ele>
        <time>2022-04-05T08:49:34.238Z</time>
      </trkpt>
      <trkpt lat="42.48062" lon="23.05932">
        <ele>710.720678</ele>
        <time>2022-04-05T08:49:36.237Z</time>
      </trkpt>
      <trkpt lat="42.48053" lon="23.05945">
        <ele>710.430464</ele>
        <time>2022-04-05T08:49:38.226Z</time>
      </trkpt>
      <trkpt lat="42.48045" lon="23.05957">
        <ele>710.145895</ele>
        <time>2022-04-05T08:49:40.238Z</time>
      </trkpt>
      <trkpt lat="42.48037" lon="23.05969">
        <ele>709.861615</ele>
        <time>2022-04-05T08:49:42.235Z</time>
      </trkpt>
      <trkpt lat="42.48029" lon="23.05982">
        <ele>709.575021</ele>
        <time>2022-04-05T08:49:44.268Z</time>
      </trkpt>
      <trkpt lat="42.4802" lon="23.05994">
        <ele>709.296093</ele>
        <time>2022-04-05T08:49:46.231Z</time>
      </trkpt>
      <trkpt lat="42.48012" lon="23.06007">
        <ele>709.010539</ele>
        <time>2022-04-05T08:49:48.231Z</time>
      </trkpt>
      <trkpt lat="42.48004" lon="23.06019">
        <ele>708.727527</ele>
        <time>2022-04-05T08:49:50.282Z</time>
      </trkpt>
      <trkpt lat="42.47996" lon="23.06031">
        <ele>708.445466</ele>
        <time>2022-04-05T08:49:52.228Z</time>
      </trkpt>
      <trkpt lat="42.47988" lon="23.06043">
        <ele>708.197899</ele>
        <time>2022-04-05T08:49:54.242Z</time>
      </trkpt>
      <trkpt lat="42.4798" lon="23.06055">
        <ele>708.09773</ele>
        <time>2022-04-05T08:49:56.223Z</time>
      </trkpt>
      <trkpt lat="42.47972" lon="23.06066">
        <ele>708.000118</ele>
        <time>2022-04-05T08:49:58.232Z</time>
      </trkpt>
      <trkpt lat="42.47965" lon="23.06078">
        <ele>707.903641</ele>
        <time>2022-04-05T08:50:00.231Z</time>
      </trkpt>
      <trkpt lat="42.47958" lon="23.06089">
        <ele>707.809242</ele>
        <time>2022-04-05T08:50:02.234Z</time>
      </trkpt>
      <trkpt lat="42.4795" lon="23.061">
        <ele>707.712672</ele>
        <time>2022-04-05T08:50:04.220Z</time>
      </trkpt>
      <trkpt lat="42.47943" lon="23.06112">
        <ele>707.618273</ele>
        <time>2022-04-05T08:50:06.238Z</time>
      </trkpt>
      <trkpt lat="42.47936" lon="23.06123">
        <ele>707.52084</ele>
        <time>2022-04-05T08:50:08.216Z</time>
      </trkpt>
      <trkpt lat="42.47928" lon="23.06135">
        <ele>707.424363</ele>
        <time>2022-04-05T08:50:10.254Z</time>
      </trkpt>
      <trkpt lat="42.47921" lon="23.06146">
        <ele>707.330348</ele>
        <time>2022-04-05T08:50:12.221Z</time>
      </trkpt>
      <trkpt lat="42.47914" lon="23.06157">
        <ele>707.235862</ele>
        <time>2022-04-05T08:50:14.229Z</time>
      </trkpt>
      <trkpt lat="42.47907" lon="23.06168">
        <ele>707.144875</ele>
        <time>2022-04-05T08:50:16.237Z</time>
      </trkpt>
      <trkpt lat="42.479" lon="23.06178">
        <ele>707.056444</ele>
        <time>2022-04-05T08:50:18.263Z</time>
      </trkpt>
      <trkpt lat="42.47893" lon="23.06188">
        <ele>706.9744</ele>
        <time>2022-04-05T08:50:20.226Z</time>
      </trkpt>
      <trkpt lat="42.47887" lon="23.06197">
        <ele>706.893063</ele>
        <time>2022-04-05T08:50:22.223Z</time>
      </trkpt>
      <trkpt lat="42.4788" lon="23.06207">
        <ele>706.808801</ele>
        <time>2022-04-05T08:50:24.224Z</time>
      </trkpt>
      <trkpt lat="42.47873" lon="23.06218">
        <ele>706.715829</ele>
        <time>2022-04-05T08:50:26.242Z</time>
      </trkpt>
      <trkpt lat="42.47866" lon="23.06229">
        <ele>706.646837</ele>
        <time>2022-04-05T08:50:28.224Z</time>
      </trkpt>
      <trkpt lat="42.47859" lon="23.0624">
        <ele>706.598637</ele>
        <time>2022-04-05T08:50:30.236Z</time>
      </trkpt>
      <trkpt lat="42.47851" lon="23.06251">
        <ele>706.550436</ele>
        <time>2022-04-05T08:50:32.215Z</time>
      </trkpt>
      <trkpt lat="42.47844" lon="23.06263">
        <ele>706.500432</ele>
        <time>2022-04-05T08:50:34.225Z</time>
      </trkpt>
      <trkpt lat="42.47836" lon="23.06275">
        <ele>706.44828</ele>
        <time>2022-04-05T08:50:36.229Z</time>
      </trkpt>
      <trkpt lat="42.47829" lon="23.06286">
        <ele>706.397539</ele>
        <time>2022-04-05T08:50:38.227Z</time>
      </trkpt>
      <trkpt lat="42.47821" lon="23.06298">
        <ele>706.346264</ele>
        <time>2022-04-05T08:50:40.221Z</time>
      </trkpt>
      <trkpt lat="42.47813" lon="23.0631">
        <ele>706.29567</ele>
        <time>2022-04-05T08:50:42.241Z</time>
      </trkpt>
      <trkpt lat="42.47805" lon="23.06321">
        <ele>706.244176</ele>
        <time>2022-04-05T08:50:44.230Z</time>
      </trkpt>
      <trkpt lat="42.47798" lon="23.06332">
        <ele>706.19538</ele>
        <time>2022-04-05T08:50:46.228Z</time>
      </trkpt>
      <trkpt lat="42.4779" lon="23.06344">
        <ele>706.146203</ele>
        <time>2022-04-05T08:50:48.217Z</time>
      </trkpt>
      <trkpt lat="42.47783" lon="23.06355">
        <ele>706.095662</ele>
        <time>2022-04-05T08:50:50.219Z</time>
      </trkpt>
      <trkpt lat="42.47775" lon="23.06367">
        <ele>706.044674</ele>
        <time>2022-04-05T08:50:52.248Z</time>
      </trkpt>
      <trkpt lat="42.47767" lon="23.06379">
        <ele>705.993004</ele>
        <time>2022-04-05T08:50:54.235Z</time>
      </trkpt>
      <trkpt lat="42.47759" lon="23.0639">
        <ele>705.941206</ele>
        <time>2022-04-05T08:50:56.228Z</time>
      </trkpt>
      <trkpt lat="42.47751" lon="23.06402">
        <ele>705.888273</ele>
        <time>2022-04-05T08:50:58.236Z</time>
      </trkpt>
      <trkpt lat="42.47743" lon="23.06415">
        <ele>705.76915</ele>
        <time>2022-04-05T08:51:00.235Z</time>
      </trkpt>
      <trkpt lat="42.47735" lon="23.06426">
        <ele>705.633437</ele>
        <time>2022-04-05T08:51:02.224Z</time>
      </trkpt>
      <trkpt lat="42.47727" lon="23.06439">
        <ele>705.493675</ele>
        <time>2022-04-05T08:51:04.227Z</time>
      </trkpt>
      <trkpt lat="42.47718" lon="23.06451">
        <ele>705.347689</ele>
        <time>2022-04-05T08:51:06.232Z</time>
      </trkpt>
      <trkpt lat="42.4771" lon="23.06464">
        <ele>705.201703</ele>
        <time>2022-04-05T08:51:08.247Z</time>
      </trkpt>
      <trkpt lat="42.47702" lon="23.06477">
        <ele>705.058024</ele>
        <time>2022-04-05T08:51:10.224Z</time>
      </trkpt>
      <trkpt lat="42.47694" lon="23.06488">
        <ele>704.926012</ele>
        <time>2022-04-05T08:51:12.236Z</time>
      </trkpt>
      <trkpt lat="42.47686" lon="23.065">
        <ele>704.787149</ele>
        <time>2022-04-05T08:51:14.230Z</time>
      </trkpt>
      <trkpt lat="42.47678" lon="23.06513">
        <ele>704.645249</ele>
        <time>2022-04-05T08:51:16.234Z</time>
      </trkpt>
      <trkpt lat="42.47672" lon="23.06526">
        <ele>704.514557</ele>
        <time>2022-04-05T08:51:18.239Z</time>
      </trkpt>
      <trkpt lat="42.47665" lon="23.06537">
        <ele>704.394395</ele>
        <time>2022-04-05T08:51:20.224Z</time>
      </trkpt>
      <trkpt lat="42.47658" lon="23.06547">
        <ele>704.279061</ele>
        <time>2022-04-05T08:51:22.269Z</time>
      </trkpt>
      <trkpt lat="42.4765" lon="23.06556">
        <ele>704.15971</ele>
        <time>2022-04-05T08:51:24.229Z</time>
      </trkpt>
      <trkpt lat="42.47643" lon="23.06566">
        <ele>704.04499</ele>
        <time>2022-04-05T08:51:26.224Z</time>
      </trkpt>
      <trkpt lat="42.47636" lon="23.06577">
        <ele>703.92157</ele>
        <time>2022-04-05T08:51:28.216Z</time>
      </trkpt>
      <trkpt lat="42.47629" lon="23.06588">
        <ele>703.813012</ele>
        <time>2022-04-05T08:51:30.241Z</time>
      </trkpt>
      <trkpt lat="42.47621" lon="23.06598">
        <ele>703.82455</ele>
        <time>2022-04-05T08:51:32.232Z</time>
      </trkpt>
      <trkpt lat="42.47614" lon="23.06608">
        <ele>703.836272</ele>
        <time>2022-04-05T08:51:34.236Z</time>
      </trkpt>
      <trkpt lat="42.47606" lon="23.06618">
        <ele>703.847994</ele>
        <time>2022-04-05T08:51:36.226Z</time>
      </trkpt>
      <trkpt lat="42.47598" lon="23.06627">
        <ele>703.859389</ele>
        <time>2022-04-05T08:51:38.238Z</time>
      </trkpt>
      <trkpt lat="42.47591" lon="23.06637">
        <ele>703.870599</ele>
        <time>2022-04-05T08:51:40.233Z</time>
      </trkpt>
      <trkpt lat="42.47584" lon="23.06646">
        <ele>703.881097</ele>
        <time>2022-04-05T08:51:42.234Z</time>
      </trkpt>
      <trkpt lat="42.47574" lon="23.06657">
        <ele>703.89511</ele>
        <time>2022-04-05T08:51:45.243Z</time>
      </trkpt>
      <trkpt lat="42.47563" lon="23.06668">
        <ele>703.910422</ele>
        <time>2022-04-05T08:51:48.221Z</time>
      </trkpt>
      <trkpt lat="42.47556" lon="23.06677">
        <ele>703.920916</ele>
        <time>2022-04-05T08:51:50.218Z</time>
      </trkpt>
      <trkpt lat="42.47549" lon="23.06685">
        <ele>703.931144</ele>
        <time>2022-04-05T08:51:52.264Z</time>
      </trkpt>
      <trkpt lat="42.47542" lon="23.06694">
        <ele>703.941475</ele>
        <time>2022-04-05T08:51:54.235Z</time>
      </trkpt>
      <trkpt lat="42.47532" lon="23.06706">
        <ele>703.956308</ele>
        <time>2022-04-05T08:51:57.226Z</time>
      </trkpt>
      <trkpt lat="42.47525" lon="23.06714">
        <ele>703.966779</ele>
        <time>2022-04-05T08:51:59.224Z</time>
      </trkpt>
      <trkpt lat="42.47518" lon="23.06722">
        <ele>703.977059</ele>
        <time>2022-04-05T08:52:01.222Z</time>
      </trkpt>
      <trkpt lat="42.47511" lon="23.06731">
        <ele>703.987455</ele>
        <time>2022-04-05T08:52:03.219Z</time>
      </trkpt>
      <trkpt lat="42.47503" lon="23.06739">
        <ele>703.998076</ele>
        <time>2022-04-05T08:52:05.244Z</time>
      </trkpt>
      <trkpt lat="42.47495" lon="23.06747">
        <ele>704.009436</ele>
        <time>2022-04-05T08:52:07.237Z</time>
      </trkpt>
      <trkpt lat="42.47487" lon="23.06755">
        <ele>703.959598</ele>
        <time>2022-04-05T08:52:09.232Z</time>
      </trkpt>
      <trkpt lat="42.4748" lon="23.06763">
        <ele>703.907067</ele>
        <time>2022-04-05T08:52:11.262Z</time>
      </trkpt>
      <trkpt lat="42.47472" lon="23.06772">
        <ele>703.854279</ele>
        <time>2022-04-05T08:52:13.225Z</time>
      </trkpt>
      <trkpt lat="42.47465" lon="23.0678">
        <ele>703.802664</ele>
        <time>2022-04-05T08:52:15.229Z</time>
      </trkpt>
      <trkpt lat="42.47457" lon="23.06789">
        <ele>703.749762</ele>
        <time>2022-04-05T08:52:17.210Z</time>
      </trkpt>
      <trkpt lat="42.4745" lon="23.06799">
        <ele>703.69355</ele>
        <time>2022-04-05T08:52:19.219Z</time>
      </trkpt>
      <trkpt lat="42.47441" lon="23.06808">
        <ele>703.636464</ele>
        <time>2022-04-05T08:52:21.227Z</time>
      </trkpt>
      <trkpt lat="42.47433" lon="23.06818">
        <ele>703.578117</ele>
        <time>2022-04-05T08:52:23.244Z</time>
      </trkpt>
      <trkpt lat="42.47424" lon="23.06827">
        <ele>703.518953</ele>
        <time>2022-04-05T08:52:25.227Z</time>
      </trkpt>
      <trkpt lat="42.47416" lon="23.06838">
        <ele>703.455722</ele>
        <time>2022-04-05T08:52:27.226Z</time>
      </trkpt>
      <trkpt lat="42.47407" lon="23.06849">
        <ele>703.39158</ele>
        <time>2022-04-05T08:52:29.226Z</time>
      </trkpt>
      <trkpt lat="42.47397" lon="23.06861">
        <ele>703.320789</ele>
        <time>2022-04-05T08:52:31.228Z</time>
      </trkpt>
      <trkpt lat="42.47386" lon="23.06873">
        <ele>703.246461</ele>
        <time>2022-04-05T08:52:33.218Z</time>
      </trkpt>
      <trkpt lat="42.47375" lon="23.06887">
        <ele>703.165913</ele>
        <time>2022-04-05T08:52:35.228Z</time>
      </trkpt>
      <trkpt lat="42.47364" lon="23.069">
        <ele>703.084301</ele>
        <time>2022-04-05T08:52:37.236Z</time>
      </trkpt>
      <trkpt lat="42.47352" lon="23.06914">
        <ele>702.87898</ele>
        <time>2022-04-05T08:52:39.261Z</time>
      </trkpt>
      <trkpt lat="42.47341" lon="23.06926">
        <ele>702.596842</ele>
        <time>2022-04-05T08:52:41.220Z</time>
      </trkpt>
      <trkpt lat="42.4733" lon="23.06938">
        <ele>702.303492</ele>
        <time>2022-04-05T08:52:43.233Z</time>
      </trkpt>
      <trkpt lat="42.4732" lon="23.06951">
        <ele>702.020381</ele>
        <time>2022-04-05T08:52:45.269Z</time>
      </trkpt>
      <trkpt lat="42.47309" lon="23.06963">
        <ele>701.742281</ele>
        <time>2022-04-05T08:52:47.229Z</time>
      </trkpt>
      <trkpt lat="42.47299" lon="23.06975">
        <ele>701.470192</ele>
        <time>2022-04-05T08:52:49.242Z</time>
      </trkpt>
      <trkpt lat="42.4729" lon="23.06987">
        <ele>701.209652</ele>
        <time>2022-04-05T08:52:51.233Z</time>
      </trkpt>
      <trkpt lat="42.4728" lon="23.06998">
        <ele>700.957305</ele>
        <time>2022-04-05T08:52:53.227Z</time>
      </trkpt>
      <trkpt lat="42.47271" lon="23.07008">
        <ele>700.710064</ele>
        <time>2022-04-05T08:52:55.219Z</time>
      </trkpt>
      <trkpt lat="42.47262" lon="23.07018">
        <ele>700.476911</ele>
        <time>2022-04-05T08:52:57.233Z</time>
      </trkpt>
      <trkpt lat="42.47254" lon="23.07027">
        <ele>700.267285</ele>
        <time>2022-04-05T08:52:59.223Z</time>
      </trkpt>
      <trkpt lat="42.47246" lon="23.07037">
        <ele>700.052052</ele>
        <time>2022-04-05T08:53:01.272Z</time>
      </trkpt>
      <trkpt lat="42.47238" lon="23.07045">
        <ele>699.853004</ele>
        <time>2022-04-05T08:53:03.223Z</time>
      </trkpt>
      <trkpt lat="42.47231" lon="23.07053">
        <ele>699.669777</ele>
        <time>2022-04-05T08:53:05.231Z</time>
      </trkpt>
      <trkpt lat="42.47224" lon="23.07061">
        <ele>699.472895</ele>
        <time>2022-04-05T08:53:08.214Z</time>
      </trkpt>
      <trkpt lat="42.47216" lon="23.0707">
        <ele>699.653633</ele>
        <time>2022-04-05T08:53:11.233Z</time>
      </trkpt>
      <trkpt lat="42.47207" lon="23.07079">
        <ele>700.028749</ele>
        <time>2022-04-05T08:53:14.227Z</time>
      </trkpt>
      <trkpt lat="42.47198" lon="23.07089">
        <ele>700.427647</ele>
        <time>2022-04-05T08:53:17.226Z</time>
      </trkpt>
      <trkpt lat="42.4719" lon="23.07097">
        <ele>700.776904</ele>
        <time>2022-04-05T08:53:20.228Z</time>
      </trkpt>
      <trkpt lat="42.47183" lon="23.07105">
        <ele>701.108069</ele>
        <time>2022-04-05T08:53:23.254Z</time>
      </trkpt>
      <trkpt lat="42.47175" lon="23.07113">
        <ele>701.426868</ele>
        <time>2022-04-05T08:53:26.231Z</time>
      </trkpt>
      <trkpt lat="42.47166" lon="23.07123">
        <ele>701.838112</ele>
        <time>2022-04-05T08:53:30.213Z</time>
      </trkpt>
      <trkpt lat="42.47157" lon="23.07133">
        <ele>702.237583</ele>
        <time>2022-04-05T08:53:34.228Z</time>
      </trkpt>
      <trkpt lat="42.47148" lon="23.07143">
        <ele>702.633816</ele>
        <time>2022-04-05T08:53:38.234Z</time>
      </trkpt>
      <trkpt lat="42.47139" lon="23.07153">
        <ele>703.030655</ele>
        <time>2022-04-05T08:53:42.231Z</time>
      </trkpt>
      <trkpt lat="42.47131" lon="23.07163">
        <ele>703.413553</ele>
        <time>2022-04-05T08:53:46.238Z</time>
      </trkpt>
      <trkpt lat="42.47123" lon="23.07171">
        <ele>703.741467</ele>
        <time>2022-04-05T08:53:50.216Z</time>
      </trkpt>
      <trkpt lat="42.47116" lon="23.0718">
        <ele>704.076013</ele>
        <time>2022-04-05T08:53:54.242Z</time>
      </trkpt>
      <trkpt lat="42.47108" lon="23.0719">
        <ele>704.457325</ele>
        <time>2022-04-05T08:53:59.226Z</time>
      </trkpt>
      <trkpt lat="42.47101" lon="23.07198">
        <ele>704.769186</ele>
        <time>2022-04-05T08:54:03.216Z</time>
      </trkpt>
      <trkpt lat="42.47094" lon="23.07206">
        <ele>705.104016</ele>
        <time>2022-04-05T08:54:07.265Z</time>
      </trkpt>
      <trkpt lat="42.47086" lon="23.07215">
        <ele>705.426035</ele>
        <time>2022-04-05T08:54:11.235Z</time>
      </trkpt>
      <trkpt lat="42.47079" lon="23.07223">
        <ele>705.710513</ele>
        <time>2022-04-05T08:54:15.262Z</time>
      </trkpt>
      <trkpt lat="42.47071" lon="23.07233">
        <ele>705.976044</ele>
        <time>2022-04-05T08:54:20.238Z</time>
      </trkpt>
      <trkpt lat="42.47064" lon="23.07242">
        <ele>706.210791</ele>
        <time>2022-04-05T08:54:24.237Z</time>
      </trkpt>
      <trkpt lat="42.47056" lon="23.07252">
        <ele>706.481138</ele>
        <time>2022-04-05T08:54:29.217Z</time>
      </trkpt>
      <trkpt lat="42.47049" lon="23.0726">
        <ele>706.715501</ele>
        <time>2022-04-05T08:54:33.229Z</time>
      </trkpt>
      <trkpt lat="42.47041" lon="23.07269">
        <ele>706.965763</ele>
        <time>2022-04-05T08:54:37.239Z</time>
      </trkpt>
      <trkpt lat="42.47033" lon="23.07277">
        <ele>707.203907</ele>
        <time>2022-04-05T08:54:41.229Z</time>
      </trkpt>
      <trkpt lat="42.47026" lon="23.07286">
        <ele>707.440156</ele>
        <time>2022-04-05T08:54:45.263Z</time>
      </trkpt>
      <trkpt lat="42.47018" lon="23.07295">
        <ele>707.682196</ele>
        <time>2022-04-05T08:54:49.268Z</time>
      </trkpt>
      <trkpt lat="42.4701" lon="23.07304">
        <ele>707.946576</ele>
        <time>2022-04-05T08:54:54.221Z</time>
      </trkpt>
      <trkpt lat="42.47002" lon="23.07313">
        <ele>708.202567</ele>
        <time>2022-04-05T08:54:58.220Z</time>
      </trkpt>
      <trkpt lat="42.46994" lon="23.07323">
        <ele>708.470507</ele>
        <time>2022-04-05T08:55:02.224Z</time>
      </trkpt>
      <trkpt lat="42.46985" lon="23.07332">
        <ele>708.729095</ele>
        <time>2022-04-05T08:55:06.229Z</time>
      </trkpt>
      <trkpt lat="42.46977" lon="23.07342">
        <ele>708.994017</ele>
        <time>2022-04-05T08:55:10.227Z</time>
      </trkpt>
      <trkpt lat="42.4697" lon="23.07351">
        <ele>709.243958</ele>
        <time>2022-04-05T08:55:14.220Z</time>
      </trkpt>
      <trkpt lat="42.46961" lon="23.0736">
        <ele>709.511282</ele>
        <time>2022-04-05T08:55:18.265Z</time>
      </trkpt>
      <trkpt lat="42.46954" lon="23.07369">
        <ele>709.741803</ele>
        <time>2022-04-05T08:55:21.226Z</time>
      </trkpt>
      <trkpt lat="42.46945" lon="23.07379">
        <ele>709.966256</ele>
        <time>2022-04-05T08:55:25.225Z</time>
      </trkpt>
      <trkpt lat="42.46937" lon="23.07387">
        <ele>709.837246</ele>
        <time>2022-04-05T08:55:28.230Z</time>
      </trkpt>
      <trkpt lat="42.4693" lon="23.07396">
        <ele>709.700855</ele>
        <time>2022-04-05T08:55:31.241Z</time>
      </trkpt>
      <trkpt lat="42.46922" lon="23.07405">
        <ele>709.564388</ele>
        <time>2022-04-05T08:55:34.249Z</time>
      </trkpt>
      <trkpt lat="42.46914" lon="23.07413">
        <ele>709.424595</ele>
        <time>2022-04-05T08:55:37.226Z</time>
      </trkpt>
      <trkpt lat="42.46907" lon="23.07423">
        <ele>709.287733</ele>
        <time>2022-04-05T08:55:40.275Z</time>
      </trkpt>
      <trkpt lat="42.469" lon="23.0743">
        <ele>709.158048</ele>
        <time>2022-04-05T08:55:43.217Z</time>
      </trkpt>
      <trkpt lat="42.46893" lon="23.07439">
        <ele>709.02877</ele>
        <time>2022-04-05T08:55:46.276Z</time>
      </trkpt>
      <trkpt lat="42.46886" lon="23.07448">
        <ele>708.897681</ele>
        <time>2022-04-05T08:55:49.237Z</time>
      </trkpt>
      <trkpt lat="42.46879" lon="23.07457">
        <ele>708.76129</ele>
        <time>2022-04-05T08:55:52.255Z</time>
      </trkpt>
      <trkpt lat="42.46872" lon="23.07466">
        <ele>708.629488</ele>
        <time>2022-04-05T08:55:55.227Z</time>
      </trkpt>
      <trkpt lat="42.46865" lon="23.07476">
        <ele>708.496682</ele>
        <time>2022-04-05T08:55:58.266Z</time>
      </trkpt>
      <trkpt lat="42.46859" lon="23.07486">
        <ele>708.360492</ele>
        <time>2022-04-05T08:56:01.231Z</time>
      </trkpt>
      <trkpt lat="42.46853" lon="23.07497">
        <ele>708.225954</ele>
        <time>2022-04-05T08:56:04.268Z</time>
      </trkpt>
      <trkpt lat="42.46846" lon="23.07508">
        <ele>708.085856</ele>
        <time>2022-04-05T08:56:07.223Z</time>
      </trkpt>
      <trkpt lat="42.46841" lon="23.07518">
        <ele>707.959592</ele>
        <time>2022-04-05T08:56:10.230Z</time>
      </trkpt>
      <trkpt lat="42.46836" lon="23.07528">
        <ele>707.8325</ele>
        <time>2022-04-05T08:56:13.228Z</time>
      </trkpt>
      <trkpt lat="42.4683" lon="23.07539">
        <ele>707.696407</ele>
        <time>2022-04-05T08:56:16.242Z</time>
      </trkpt>
      <trkpt lat="42.46825" lon="23.07551">
        <ele>707.556954</ele>
        <time>2022-04-05T08:56:19.230Z</time>
      </trkpt>
      <trkpt lat="42.46819" lon="23.07563">
        <ele>707.621509</ele>
        <time>2022-04-05T08:56:22.229Z</time>
      </trkpt>
      <trkpt lat="42.46814" lon="23.07574">
        <ele>707.745606</ele>
        <time>2022-04-05T08:56:25.212Z</time>
      </trkpt>
      <trkpt lat="42.46809" lon="23.07585">
        <ele>707.87529</ele>
        <time>2022-04-05T08:56:28.234Z</time>
      </trkpt>
      <trkpt lat="42.46804" lon="23.07597">
        <ele>708.001374</ele>
        <time>2022-04-05T08:56:31.236Z</time>
      </trkpt>
      <trkpt lat="42.46797" lon="23.07611">
        <ele>708.155229</ele>
        <time>2022-04-05T08:56:35.233Z</time>
      </trkpt>
      <trkpt lat="42.46792" lon="23.07621">
        <ele>708.273515</ele>
        <time>2022-04-05T08:56:38.251Z</time>
      </trkpt>
      <trkpt lat="42.46786" lon="23.07635">
        <ele>708.426281</ele>
        <time>2022-04-05T08:56:42.230Z</time>
      </trkpt>
      <trkpt lat="42.46781" lon="23.07646">
        <ele>708.548464</ele>
        <time>2022-04-05T08:56:45.218Z</time>
      </trkpt>
      <trkpt lat="42.46776" lon="23.07658">
        <ele>708.676674</ele>
        <time>2022-04-05T08:56:48.264Z</time>
      </trkpt>
      <trkpt lat="42.46772" lon="23.07669">
        <ele>708.797754</ele>
        <time>2022-04-05T08:56:51.237Z</time>
      </trkpt>
      <trkpt lat="42.46767" lon="23.0768">
        <ele>708.912843</ele>
        <time>2022-04-05T08:56:54.228Z</time>
      </trkpt>
      <trkpt lat="42.46761" lon="23.07694">
        <ele>709.064959</ele>
        <time>2022-04-05T08:56:58.214Z</time>
      </trkpt>
      <trkpt lat="42.46755" lon="23.07708">
        <ele>709.217892</ele>
        <time>2022-04-05T08:57:02.248Z</time>
      </trkpt>
      <trkpt lat="42.4675" lon="23.07718">
        <ele>709.332967</ele>
        <time>2022-04-05T08:57:05.273Z</time>
      </trkpt>
      <trkpt lat="42.46744" lon="23.07732">
        <ele>709.485585</ele>
        <time>2022-04-05T08:57:09.214Z</time>
      </trkpt>
      <trkpt lat="42.46738" lon="23.07745">
        <ele>709.632838</ele>
        <time>2022-04-05T08:57:13.239Z</time>
      </trkpt>
      <trkpt lat="42.46732" lon="23.07758">
        <ele>709.781567</ele>
        <time>2022-04-05T08:57:17.234Z</time>
      </trkpt>
      <trkpt lat="42.46728" lon="23.07769">
        <ele>709.916495</ele>
        <time>2022-04-05T08:57:20.226Z</time>
      </trkpt>
      <trkpt lat="42.46723" lon="23.0778">
        <ele>710.062701</ele>
        <time>2022-04-05T08:57:23.246Z</time>
      </trkpt>
      <trkpt lat="42.46718" lon="23.07793">
        <ele>710.246256</ele>
        <time>2022-04-05T08:57:27.233Z</time>
      </trkpt>
      <trkpt lat="42.46711" lon="23.07806">
        <ele>710.437962</ele>
        <time>2022-04-05T08:57:31.239Z</time>
      </trkpt>
      <trkpt lat="42.46707" lon="23.07817">
        <ele>710.591555</ele>
        <time>2022-04-05T08:57:34.226Z</time>
      </trkpt>
      <trkpt lat="42.46702" lon="23.07828">
        <ele>710.74307</ele>
        <time>2022-04-05T08:57:37.263Z</time>
      </trkpt>
      <trkpt lat="42.46696" lon="23.07839">
        <ele>710.901638</ele>
        <time>2022-04-05T08:57:40.229Z</time>
      </trkpt>
      <trkpt lat="42.46691" lon="23.07851">
        <ele>711.067837</ele>
        <time>2022-04-05T08:57:43.235Z</time>
      </trkpt>
      <trkpt lat="42.46687" lon="23.07862">
        <ele>711.215229</ele>
        <time>2022-04-05T08:57:46.223Z</time>
      </trkpt>
      <trkpt lat="42.46681" lon="23.07876">
        <ele>711.405033</ele>
        <time>2022-04-05T08:57:50.223Z</time>
      </trkpt>
      <trkpt lat="42.46675" lon="23.07889">
        <ele>711.593707</ele>
        <time>2022-04-05T08:57:54.236Z</time>
      </trkpt>
      <trkpt lat="42.4667" lon="23.079">
        <ele>711.743874</ele>
        <time>2022-04-05T08:57:57.228Z</time>
      </trkpt>
      <trkpt lat="42.46666" lon="23.07911">
        <ele>711.890886</ele>
        <time>2022-04-05T08:58:00.220Z</time>
      </trkpt>
      <trkpt lat="42.46661" lon="23.07921">
        <ele>712.043905</ele>
        <time>2022-04-05T08:58:03.238Z</time>
      </trkpt>
      <trkpt lat="42.46656" lon="23.07932">
        <ele>712.196066</ele>
        <time>2022-04-05T08:58:06.216Z</time>
      </trkpt>
      <trkpt lat="42.46651" lon="23.07943">
        <ele>712.353866</ele>
        <time>2022-04-05T08:58:09.223Z</time>
      </trkpt>
      <trkpt lat="42.46646" lon="23.07955">
        <ele>712.513482</ele>
        <time>2022-04-05T08:58:12.220Z</time>
      </trkpt>
      <trkpt lat="42.46641" lon="23.07966">
        <ele>712.671436</ele>
        <time>2022-04-05T08:58:15.246Z</time>
      </trkpt>
      <trkpt lat="42.46636" lon="23.07977">
        <ele>712.721855</ele>
        <time>2022-04-05T08:58:18.218Z</time>
      </trkpt>
      <trkpt lat="42.46631" lon="23.07988">
        <ele>712.661891</ele>
        <time>2022-04-05T08:58:21.267Z</time>
      </trkpt>
      <trkpt lat="42.46625" lon="23.07999">
        <ele>712.598743</ele>
        <time>2022-04-05T08:58:24.233Z</time>
      </trkpt>
      <trkpt lat="42.4662" lon="23.08012">
        <ele>712.532535</ele>
        <time>2022-04-05T08:58:27.207Z</time>
      </trkpt>
      <trkpt lat="42.46615" lon="23.08024">
        <ele>712.46768</ele>
        <time>2022-04-05T08:58:30.233Z</time>
      </trkpt>
      <trkpt lat="42.4661" lon="23.08035">
        <ele>712.403476</ele>
        <time>2022-04-05T08:58:33.269Z</time>
      </trkpt>
      <trkpt lat="42.46605" lon="23.08047">
        <ele>712.341857</ele>
        <time>2022-04-05T08:58:36.251Z</time>
      </trkpt>
      <trkpt lat="42.466" lon="23.08057">
        <ele>712.282748</ele>
        <time>2022-04-05T08:58:39.277Z</time>
      </trkpt>
      <trkpt lat="42.46595" lon="23.08068">
        <ele>712.224983</ele>
        <time>2022-04-05T08:58:42.227Z</time>
      </trkpt>
      <trkpt lat="42.4659" lon="23.08079">
        <ele>712.16288</ele>
        <time>2022-04-05T08:58:45.224Z</time>
      </trkpt>
      <trkpt lat="42.46585" lon="23.0809">
        <ele>712.1006</ele>
        <time>2022-04-05T08:58:48.221Z</time>
      </trkpt>
      <trkpt lat="42.4658" lon="23.08101">
        <ele>712.041707</ele>
        <time>2022-04-05T08:58:51.230Z</time>
      </trkpt>
      <trkpt lat="42.46575" lon="23.08113">
        <ele>711.978477</ele>
        <time>2022-04-05T08:58:54.228Z</time>
      </trkpt>
      <trkpt lat="42.4657" lon="23.08124">
        <ele>711.915799</ele>
        <time>2022-04-05T08:58:57.223Z</time>
      </trkpt>
      <trkpt lat="42.46565" lon="23.08135">
        <ele>711.855227</ele>
        <time>2022-04-05T08:59:00.224Z</time>
      </trkpt>
      <trkpt lat="42.4656" lon="23.08146">
        <ele>711.795537</ele>
        <time>2022-04-05T08:59:03.221Z</time>
      </trkpt>
      <trkpt lat="42.46555" lon="23.08157">
        <ele>711.73537</ele>
        <time>2022-04-05T08:59:06.238Z</time>
      </trkpt>
      <trkpt lat="42.4655" lon="23.08169">
        <ele>711.673089</ele>
        <time>2022-04-05T08:59:09.236Z</time>
      </trkpt>
      <trkpt lat="42.46545" lon="23.08181">
        <ele>711.617566</ele>
        <time>2022-04-05T08:59:12.268Z</time>
      </trkpt>
      <trkpt lat="42.4654" lon="23.08193">
        <ele>711.753476</ele>
        <time>2022-04-05T08:59:15.232Z</time>
      </trkpt>
      <trkpt lat="42.46535" lon="23.08204">
        <ele>711.88699</ele>
        <time>2022-04-05T08:59:18.218Z</time>
      </trkpt>
      <trkpt lat="42.4653" lon="23.08216">
        <ele>712.023087</ele>
        <time>2022-04-05T08:59:21.236Z</time>
      </trkpt>
      <trkpt lat="42.46524" lon="23.08228">
        <ele>712.160379</ele>
        <time>2022-04-05T08:59:24.225Z</time>
      </trkpt>
      <trkpt lat="42.46519" lon="23.0824">
        <ele>712.298206</ele>
        <time>2022-04-05T08:59:27.244Z</time>
      </trkpt>
      <trkpt lat="42.46514" lon="23.08252">
        <ele>712.442693</ele>
        <time>2022-04-05T08:59:30.239Z</time>
      </trkpt>
      <trkpt lat="42.46508" lon="23.08265">
        <ele>712.591825</ele>
        <time>2022-04-05T08:59:33.239Z</time>
      </trkpt>
      <trkpt lat="42.46503" lon="23.08279">
        <ele>712.74708</ele>
        <time>2022-04-05T08:59:36.236Z</time>
      </trkpt>
      <trkpt lat="42.46497" lon="23.08291">
        <ele>712.889324</ele>
        <time>2022-04-05T08:59:39.215Z</time>
      </trkpt>
      <trkpt lat="42.46492" lon="23.08304">
        <ele>713.037393</ele>
        <time>2022-04-05T08:59:42.227Z</time>
      </trkpt>
      <trkpt lat="42.46486" lon="23.08317">
        <ele>713.18958</ele>
        <time>2022-04-05T08:59:45.214Z</time>
      </trkpt>
      <trkpt lat="42.4648" lon="23.08331">
        <ele>713.341582</ele>
        <time>2022-04-05T08:59:48.242Z</time>
      </trkpt>
      <trkpt lat="42.46475" lon="23.08344">
        <ele>713.492726</ele>
        <time>2022-04-05T08:59:51.241Z</time>
      </trkpt>
      <trkpt lat="42.46469" lon="23.08357">
        <ele>713.643565</ele>
        <time>2022-04-05T08:59:54.235Z</time>
      </trkpt>
      <trkpt lat="42.46463" lon="23.08369">
        <ele>713.791457</ele>
        <time>2022-04-05T08:59:57.213Z</time>
      </trkpt>
      <trkpt lat="42.46457" lon="23.08382">
        <ele>713.939053</ele>
        <time>2022-04-05T09:00:00.229Z</time>
      </trkpt>
      <trkpt lat="42.46452" lon="23.08394">
        <ele>714.065538</ele>
        <time>2022-04-05T09:00:03.236Z</time>
      </trkpt>
      <trkpt lat="42.46447" lon="23.08405">
        <ele>714.156442</ele>
        <time>2022-04-05T09:00:06.223Z</time>
      </trkpt>
      <trkpt lat="42.46442" lon="23.08417">
        <ele>714.246862</ele>
        <time>2022-04-05T09:00:09.223Z</time>
      </trkpt>
      <trkpt lat="42.46436" lon="23.0843">
        <ele>714.356899</ele>
        <time>2022-04-05T09:00:12.240Z</time>
      </trkpt>
      <trkpt lat="42.46431" lon="23.08442">
        <ele>714.452941</ele>
        <time>2022-04-05T09:00:15.227Z</time>
      </trkpt>
      <trkpt lat="42.46426" lon="23.08454">
        <ele>714.549246</ele>
        <time>2022-04-05T09:00:18.237Z</time>
      </trkpt>
      <trkpt lat="42.46421" lon="23.08465">
        <ele>714.637653</ele>
        <time>2022-04-05T09:00:21.226Z</time>
      </trkpt>
      <trkpt lat="42.46417" lon="23.08477">
        <ele>714.728198</ele>
        <time>2022-04-05T09:00:24.240Z</time>
      </trkpt>
      <trkpt lat="42.46411" lon="23.08489">
        <ele>714.828187</ele>
        <time>2022-04-05T09:00:27.237Z</time>
      </trkpt>
      <trkpt lat="42.46406" lon="23.08501">
        <ele>714.925426</ele>
        <time>2022-04-05T09:00:30.224Z</time>
      </trkpt>
      <trkpt lat="42.46401" lon="23.08514">
        <ele>715.026614</ele>
        <time>2022-04-05T09:00:33.222Z</time>
      </trkpt>
      <trkpt lat="42.46395" lon="23.08527">
        <ele>715.136902</ele>
        <time>2022-04-05T09:00:36.240Z</time>
      </trkpt>
      <trkpt lat="42.46389" lon="23.08541">
        <ele>715.246587</ele>
        <time>2022-04-05T09:00:39.267Z</time>
      </trkpt>
      <trkpt lat="42.46383" lon="23.08554">
        <ele>715.349925</ele>
        <time>2022-04-05T09:00:42.237Z</time>
      </trkpt>
      <trkpt lat="42.46378" lon="23.08566">
        <ele>715.445021</ele>
        <time>2022-04-05T09:00:45.232Z</time>
      </trkpt>
      <trkpt lat="42.46373" lon="23.08578">
        <ele>715.545609</ele>
        <time>2022-04-05T09:00:48.235Z</time>
      </trkpt>
      <trkpt lat="42.46366" lon="23.08592">
        <ele>715.657492</ele>
        <time>2022-04-05T09:00:51.222Z</time>
      </trkpt>
      <trkpt lat="42.4636" lon="23.08605">
        <ele>715.719293</ele>
        <time>2022-04-05T09:00:54.236Z</time>
      </trkpt>
      <trkpt lat="42.46354" lon="23.08618">
        <ele>715.696487</ele>
        <time>2022-04-05T09:00:57.231Z</time>
      </trkpt>
      <trkpt lat="42.46349" lon="23.08631">
        <ele>715.673382</ele>
        <time>2022-04-05T09:01:00.241Z</time>
      </trkpt>
      <trkpt lat="42.46343" lon="23.08643">
        <ele>715.651209</ele>
        <time>2022-04-05T09:01:03.233Z</time>
      </trkpt>
      <trkpt lat="42.46337" lon="23.08655">
        <ele>715.630187</ele>
        <time>2022-04-05T09:01:06.224Z</time>
      </trkpt>
      <trkpt lat="42.46332" lon="23.08666">
        <ele>715.610001</ele>
        <time>2022-04-05T09:01:09.218Z</time>
      </trkpt>
      <trkpt lat="42.46327" lon="23.08679">
        <ele>715.588271</ele>
        <time>2022-04-05T09:01:12.222Z</time>
      </trkpt>
      <trkpt lat="42.46321" lon="23.08691">
        <ele>715.566991</ele>
        <time>2022-04-05T09:01:15.222Z</time>
      </trkpt>
      <trkpt lat="42.46316" lon="23.08702">
        <ele>715.546334</ele>
        <time>2022-04-05T09:01:18.243Z</time>
      </trkpt>
      <trkpt lat="42.46311" lon="23.08714">
        <ele>715.526537</ele>
        <time>2022-04-05T09:01:21.239Z</time>
      </trkpt>
      <trkpt lat="42.46306" lon="23.08725">
        <ele>715.505986</ele>
        <time>2022-04-05T09:01:24.223Z</time>
      </trkpt>
      <trkpt lat="42.46301" lon="23.08737">
        <ele>715.48464</ele>
        <time>2022-04-05T09:01:27.235Z</time>
      </trkpt>
      <trkpt lat="42.46295" lon="23.08749">
        <ele>715.46331</ele>
        <time>2022-04-05T09:01:30.247Z</time>
      </trkpt>
      <trkpt lat="42.46289" lon="23.08761">
        <ele>715.441817</ele>
        <time>2022-04-05T09:01:33.234Z</time>
      </trkpt>
      <trkpt lat="42.46284" lon="23.08773">
        <ele>715.42051</ele>
        <time>2022-04-05T09:01:36.232Z</time>
      </trkpt>
      <trkpt lat="42.46278" lon="23.08785">
        <ele>715.398814</ele>
        <time>2022-04-05T09:01:39.241Z</time>
      </trkpt>
      <trkpt lat="42.46273" lon="23.08797">
        <ele>715.378158</ele>
        <time>2022-04-05T09:01:42.222Z</time>
      </trkpt>
      <trkpt lat="42.46268" lon="23.08808">
        <ele>715.36463</ele>
        <time>2022-04-05T09:01:45.240Z</time>
      </trkpt>
      <trkpt lat="42.46263" lon="23.08819">
        <ele>715.625714</ele>
        <time>2022-04-05T09:01:48.223Z</time>
      </trkpt>
      <trkpt lat="42.46258" lon="23.0883">
        <ele>715.896057</ele>
        <time>2022-04-05T09:01:51.222Z</time>
      </trkpt>
      <trkpt lat="42.46253" lon="23.08843">
        <ele>716.196563</ele>
        <time>2022-04-05T09:01:54.231Z</time>
      </trkpt>
      <trkpt lat="42.46247" lon="23.08856">
        <ele>716.496017</ele>
        <time>2022-04-05T09:01:57.298Z</time>
      </trkpt>
      <trkpt lat="42.46242" lon="23.08868">
        <ele>716.784622</ele>
        <time>2022-04-05T09:02:00.226Z</time>
      </trkpt>
      <trkpt lat="42.46236" lon="23.0888">
        <ele>717.068295</ele>
        <time>2022-04-05T09:02:03.234Z</time>
      </trkpt>
      <trkpt lat="42.46231" lon="23.08891">
        <ele>717.344161</ele>
        <time>2022-04-05T09:02:06.224Z</time>
      </trkpt>
      <trkpt lat="42.46225" lon="23.08905">
        <ele>717.66331</ele>
        <time>2022-04-05T09:02:10.232Z</time>
      </trkpt>
      <trkpt lat="42.4622" lon="23.08918">
        <ele>717.962299</ele>
        <time>2022-04-05T09:02:14.228Z</time>
      </trkpt>
      <trkpt lat="42.46215" lon="23.0893">
        <ele>718.244281</ele>
        <time>2022-04-05T09:02:17.259Z</time>
      </trkpt>
      <trkpt lat="42.4621" lon="23.08942">
        <ele>718.533182</ele>
        <time>2022-04-05T09:02:20.220Z</time>
      </trkpt>
      <trkpt lat="42.46205" lon="23.08954">
        <ele>718.810251</ele>
        <time>2022-04-05T09:02:23.246Z</time>
      </trkpt>
      <trkpt lat="42.462" lon="23.08968">
        <ele>719.136085</ele>
        <time>2022-04-05T09:02:27.227Z</time>
      </trkpt>
      <trkpt lat="42.46194" lon="23.08981">
        <ele>719.453129</ele>
        <time>2022-04-05T09:02:31.268Z</time>
      </trkpt>
      <trkpt lat="42.46189" lon="23.08993">
        <ele>719.742741</ele>
        <time>2022-04-05T09:02:35.238Z</time>
      </trkpt>
      <trkpt lat="42.46184" lon="23.09006">
        <ele>720.027007</ele>
        <time>2022-04-05T09:02:39.228Z</time>
      </trkpt>
      <trkpt lat="42.46178" lon="23.09019">
        <ele>720.334195</ele>
        <time>2022-04-05T09:02:43.212Z</time>
      </trkpt>
      <trkpt lat="42.46172" lon="23.09032">
        <ele>720.440222</ele>
        <time>2022-04-05T09:02:47.235Z</time>
      </trkpt>
      <trkpt lat="42.46167" lon="23.09042">
        <ele>720.518911</ele>
        <time>2022-04-05T09:02:50.228Z</time>
      </trkpt>
      <trkpt lat="42.46161" lon="23.09055">
        <ele>720.620107</ele>
        <time>2022-04-05T09:02:54.228Z</time>
      </trkpt>
      <trkpt lat="42.46154" lon="23.09068">
        <ele>720.722948</ele>
        <time>2022-04-05T09:02:58.234Z</time>
      </trkpt>
      <trkpt lat="42.46149" lon="23.09081">
        <ele>720.815939</ele>
        <time>2022-04-05T09:03:02.239Z</time>
      </trkpt>
      <trkpt lat="42.46143" lon="23.09094">
        <ele>720.915857</ele>
        <time>2022-04-05T09:03:07.219Z</time>
      </trkpt>
      <trkpt lat="42.46138" lon="23.09106">
        <ele>721.006041</ele>
        <time>2022-04-05T09:03:11.244Z</time>
      </trkpt>
      <trkpt lat="42.46133" lon="23.09117">
        <ele>721.088839</ele>
        <time>2022-04-05T09:03:15.239Z</time>
      </trkpt>
      <trkpt lat="42.46128" lon="23.09128">
        <ele>721.17392</ele>
        <time>2022-04-05T09:03:19.229Z</time>
      </trkpt>
      <trkpt lat="42.46122" lon="23.09139">
        <ele>721.260622</ele>
        <time>2022-04-05T09:03:23.251Z</time>
      </trkpt>
      <trkpt lat="42.46117" lon="23.09152">
        <ele>721.354836</ele>
        <time>2022-04-05T09:03:28.240Z</time>
      </trkpt>
      <trkpt lat="42.46111" lon="23.09164">
        <ele>721.450157</ele>
        <time>2022-04-05T09:03:33.274Z</time>
      </trkpt>
      <trkpt lat="42.46106" lon="23.09174">
        <ele>721.529438</ele>
        <time>2022-04-05T09:03:37.233Z</time>
      </trkpt>
      <trkpt lat="42.46101" lon="23.09185">
        <ele>721.609483</ele>
        <time>2022-04-05T09:03:41.229Z</time>
      </trkpt>
      <trkpt lat="42.46095" lon="23.09197">
        <ele>721.705644</ele>
        <time>2022-04-05T09:03:46.228Z</time>
      </trkpt>
      <trkpt lat="42.46091" lon="23.09208">
        <ele>721.784778</ele>
        <time>2022-04-05T09:03:50.240Z</time>
      </trkpt>
      <trkpt lat="42.46085" lon="23.09219">
        <ele>721.869373</ele>
        <time>2022-04-05T09:03:54.240Z</time>
      </trkpt>
      <trkpt lat="42.4608" lon="23.09232">
        <ele>722.023291</ele>
        <time>2022-04-05T09:03:59.234Z</time>
      </trkpt>
      <trkpt lat="42.46074" lon="23.09244">
        <ele>722.232585</ele>
        <time>2022-04-05T09:04:04.227Z</time>
      </trkpt>
      <trkpt lat="42.46069" lon="23.09255">
        <ele>722.412887</ele>
        <time>2022-04-05T09:04:08.234Z</time>
      </trkpt>
      <trkpt lat="42.46064" lon="23.09266">
        <ele>722.597403</ele>
        <time>2022-04-05T09:04:12.255Z</time>
      </trkpt>
      <trkpt lat="42.46059" lon="23.09277">
        <ele>722.781919</ele>
        <time>2022-04-05T09:04:16.236Z</time>
      </trkpt>
      <trkpt lat="42.46054" lon="23.09289">
        <ele>722.990999</ele>
        <time>2022-04-05T09:04:21.234Z</time>
      </trkpt>
      <trkpt lat="42.46048" lon="23.09303">
        <ele>723.206876</ele>
        <time>2022-04-05T09:04:26.232Z</time>
      </trkpt>
      <trkpt lat="42.46043" lon="23.09313">
        <ele>723.392018</ele>
        <time>2022-04-05T09:04:30.227Z</time>
      </trkpt>
      <trkpt lat="42.46038" lon="23.09325">
        <ele>723.585117</ele>
        <time>2022-04-05T09:04:34.245Z</time>
      </trkpt>
      <trkpt lat="42.46033" lon="23.09336">
        <ele>723.778592</ele>
        <time>2022-04-05T09:04:38.224Z</time>
      </trkpt>
      <trkpt lat="42.46028" lon="23.09348">
        <ele>723.972668</ele>
        <time>2022-04-05T09:04:42.233Z</time>
      </trkpt>
      <trkpt lat="42.46022" lon="23.0936">
        <ele>724.170188</ele>
        <time>2022-04-05T09:04:46.247Z</time>
      </trkpt>
      <trkpt lat="42.46017" lon="23.09373">
        <ele>724.385933</ele>
        <time>2022-04-05T09:04:50.272Z</time>
      </trkpt>
      <trkpt lat="42.46011" lon="23.09386">
        <ele>724.604631</ele>
        <time>2022-04-05T09:04:54.218Z</time>
      </trkpt>
      <trkpt lat="42.46006" lon="23.09398">
        <ele>724.804888</ele>
        <time>2022-04-05T09:04:58.236Z</time>
      </trkpt>
      <trkpt lat="42.46" lon="23.09412">
        <ele>725.031192</ele>
        <time>2022-04-05T09:05:02.232Z</time>
      </trkpt>
      <trkpt lat="42.45994" lon="23.09426">
        <ele>725.258627</ele>
        <time>2022-04-05T09:05:06.237Z</time>
      </trkpt>
      <trkpt lat="42.45989" lon="23.09439">
        <ele>725.425451</ele>
        <time>2022-04-05T09:05:10.244Z</time>
      </trkpt>
      <trkpt lat="42.45983" lon="23.09452">
        <ele>725.502925</ele>
        <time>2022-04-05T09:05:14.228Z</time>
      </trkpt>
      <trkpt lat="42.45978" lon="23.09465">
        <ele>725.577441</ele>
        <time>2022-04-05T09:05:18.229Z</time>
      </trkpt>
      <trkpt lat="42.45972" lon="23.09477">
        <ele>725.649796</ele>
        <time>2022-04-05T09:05:22.236Z</time>
      </trkpt>
      <trkpt lat="42.45966" lon="23.09491">
        <ele>725.727725</ele>
        <time>2022-04-05T09:05:26.230Z</time>
      </trkpt>
      <trkpt lat="42.45961" lon="23.09503">
        <ele>725.80135</ele>
        <time>2022-04-05T09:05:30.241Z</time>
      </trkpt>
      <trkpt lat="42.45956" lon="23.09516">
        <ele>725.875433</ele>
        <time>2022-04-05T09:05:34.229Z</time>
      </trkpt>
      <trkpt lat="42.4595" lon="23.09529">
        <ele>725.949273</ele>
        <time>2022-04-05T09:05:38.256Z</time>
      </trkpt>
      <trkpt lat="42.45944" lon="23.09542">
        <ele>726.028911</ele>
        <time>2022-04-05T09:05:42.225Z</time>
      </trkpt>
      <trkpt lat="42.45938" lon="23.09556">
        <ele>726.10941</ele>
        <time>2022-04-05T09:05:46.236Z</time>
      </trkpt>
      <trkpt lat="42.45932" lon="23.0957">
        <ele>726.188694</ele>
        <time>2022-04-05T09:05:50.241Z</time>
      </trkpt>
      <trkpt lat="42.45926" lon="23.09582">
        <ele>726.264137</ele>
        <time>2022-04-05T09:05:54.263Z</time>
      </trkpt>
      <trkpt lat="42.45921" lon="23.09595">
        <ele>726.339627</ele>
        <time>2022-04-05T09:05:58.240Z</time>
      </trkpt>
      <trkpt lat="42.45915" lon="23.09608">
        <ele>726.413125</ele>
        <time>2022-04-05T09:06:02.229Z</time>
      </trkpt>
      <trkpt lat="42.4591" lon="23.0962">
        <ele>726.485835</ele>
        <time>2022-04-05T09:06:06.238Z</time>
      </trkpt>
      <trkpt lat="42.45904" lon="23.09633">
        <ele>726.563557</ele>
        <time>2022-04-05T09:06:10.220Z</time>
      </trkpt>
      <trkpt lat="42.45899" lon="23.09644">
        <ele>726.624645</ele>
        <time>2022-04-05T09:06:13.245Z</time>
      </trkpt>
      <trkpt lat="42.45893" lon="23.09658">
        <ele>726.830308</ele>
        <time>2022-04-05T09:06:17.255Z</time>
      </trkpt>
      <trkpt lat="42.45887" lon="23.09671">
        <ele>727.035781</ele>
        <time>2022-04-05T09:06:21.264Z</time>
      </trkpt>
      <trkpt lat="42.45881" lon="23.09684">
        <ele>727.235372</ele>
        <time>2022-04-05T09:06:25.228Z</time>
      </trkpt>
      <trkpt lat="42.45875" lon="23.09697">
        <ele>727.42936</ele>
        <time>2022-04-05T09:06:29.227Z</time>
      </trkpt>
      <trkpt lat="42.4587" lon="23.09709">
        <ele>727.61705</ele>
        <time>2022-04-05T09:06:33.276Z</time>
      </trkpt>
      <trkpt lat="42.45865" lon="23.09721">
        <ele>727.789222</ele>
        <time>2022-04-05T09:06:37.242Z</time>
      </trkpt>
      <trkpt lat="42.4586" lon="23.09733">
        <ele>727.979907</ele>
        <time>2022-04-05T09:06:41.241Z</time>
      </trkpt>
      <trkpt lat="42.45854" lon="23.09747">
        <ele>728.178013</ele>
        <time>2022-04-05T09:06:45.225Z</time>
      </trkpt>
      <trkpt lat="42.45849" lon="23.09759">
        <ele>728.371819</ele>
        <time>2022-04-05T09:06:49.222Z</time>
      </trkpt>
      <trkpt lat="42.45843" lon="23.09772">
        <ele>728.564518</ele>
        <time>2022-04-05T09:06:53.235Z</time>
      </trkpt>
      <trkpt lat="42.45838" lon="23.09784">
        <ele>728.742095</ele>
        <time>2022-04-05T09:06:57.234Z</time>
      </trkpt>
      <trkpt lat="42.45833" lon="23.09796">
        <ele>728.926502</ele>
        <time>2022-04-05T09:07:01.235Z</time>
      </trkpt>
      <trkpt lat="42.45828" lon="23.09809">
        <ele>729.115775</ele>
        <time>2022-04-05T09:07:05.226Z</time>
      </trkpt>
      <trkpt lat="42.45822" lon="23.09821">
        <ele>729.30328</ele>
        <time>2022-04-05T09:07:09.239Z</time>
      </trkpt>
      <trkpt lat="42.45817" lon="23.09833">
        <ele>729.490061</ele>
        <time>2022-04-05T09:07:13.235Z</time>
      </trkpt>
      <trkpt lat="42.45811" lon="23.09846">
        <ele>729.682478</ele>
        <time>2022-04-05T09:07:17.239Z</time>
      </trkpt>
      <trkpt lat="42.45806" lon="23.09858">
        <ele>729.841928</ele>
        <time>2022-04-05T09:07:21.256Z</time>
      </trkpt>
      <trkpt lat="42.458" lon="23.0987">
        <ele>729.936052</ele>
        <time>2022-04-05T09:07:25.242Z</time>
      </trkpt>
      <trkpt lat="42.45795" lon="23.09883">
        <ele>730.034471</ele>
        <time>2022-04-05T09:07:29.236Z</time>
      </trkpt>
      <trkpt lat="42.45789" lon="23.09896">
        <ele>730.134159</ele>
        <time>2022-04-05T09:07:33.264Z</time>
      </trkpt>
      <trkpt lat="42.45784" lon="23.09908">
        <ele>730.234107</ele>
        <time>2022-04-05T09:07:37.230Z</time>
      </trkpt>
      <trkpt lat="42.45778" lon="23.09921">
        <ele>730.329389</ele>
        <time>2022-04-05T09:07:41.230Z</time>
      </trkpt>
      <trkpt lat="42.45773" lon="23.09933">
        <ele>730.425833</ele>
        <time>2022-04-05T09:07:45.237Z</time>
      </trkpt>
      <trkpt lat="42.45768" lon="23.09945">
        <ele>730.521376</ele>
        <time>2022-04-05T09:07:49.236Z</time>
      </trkpt>
      <trkpt lat="42.45763" lon="23.09957">
        <ele>730.608822</ele>
        <time>2022-04-05T09:07:53.224Z</time>
      </trkpt>
      <trkpt lat="42.45759" lon="23.09969">
        <ele>730.703242</ele>
        <time>2022-04-05T09:07:57.243Z</time>
      </trkpt>
      <trkpt lat="42.45753" lon="23.09983">
        <ele>730.80896</ele>
        <time>2022-04-05T09:08:01.230Z</time>
      </trkpt>
      <trkpt lat="42.45747" lon="23.09996">
        <ele>730.911571</ele>
        <time>2022-04-05T09:08:05.244Z</time>
      </trkpt>
      <trkpt lat="42.45742" lon="23.10009">
        <ele>731.007264</ele>
        <time>2022-04-05T09:08:09.216Z</time>
      </trkpt>
      <trkpt lat="42.45737" lon="23.10021">
        <ele>731.100013</ele>
        <time>2022-04-05T09:08:13.250Z</time>
      </trkpt>
      <trkpt lat="42.45732" lon="23.10034">
        <ele>731.19766</ele>
        <time>2022-04-05T09:08:17.227Z</time>
      </trkpt>
      <trkpt lat="42.45726" lon="23.10046">
        <ele>731.296897</ele>
        <time>2022-04-05T09:08:21.239Z</time>
      </trkpt>
      <trkpt lat="42.45721" lon="23.10058">
        <ele>731.392303</ele>
        <time>2022-04-05T09:08:25.235Z</time>
      </trkpt>
      <trkpt lat="42.45716" lon="23.1007">
        <ele>731.481612</ele>
        <time>2022-04-05T09:08:29.242Z</time>
      </trkpt>
      <trkpt lat="42.4571" lon="23.10082">
        <ele>731.563012</ele>
        <time>2022-04-05T09:08:33.238Z</time>
      </trkpt>
      <trkpt lat="42.45705" lon="23.10094">
        <ele>731.63936</ele>
        <time>2022-04-05T09:08:37.243Z</time>
      </trkpt>
      <trkpt lat="42.45699" lon="23.10108">
        <ele>731.728603</ele>
        <time>2022-04-05T09:08:41.249Z</time>
      </trkpt>
      <trkpt lat="42.45693" lon="23.10122">
        <ele>731.820784</ele>
        <time>2022-04-05T09:08:45.227Z</time>
      </trkpt>
      <trkpt lat="42.45688" lon="23.10133">
        <ele>731.896689</ele>
        <time>2022-04-05T09:08:48.238Z</time>
      </trkpt>
      <trkpt lat="42.45683" lon="23.10145">
        <ele>731.975616</ele>
        <time>2022-04-05T09:08:51.241Z</time>
      </trkpt>
      <trkpt lat="42.45678" lon="23.10156">
        <ele>732.051225</ele>
        <time>2022-04-05T09:08:54.261Z</time>
      </trkpt>
      <trkpt lat="42.45673" lon="23.10167">
        <ele>732.126981</ele>
        <time>2022-04-05T09:08:57.233Z</time>
      </trkpt>
      <trkpt lat="42.45668" lon="23.10178">
        <ele>732.198371</ele>
        <time>2022-04-05T09:09:00.225Z</time>
      </trkpt>
      <trkpt lat="42.45663" lon="23.10189">
        <ele>732.270359</ele>
        <time>2022-04-05T09:09:03.236Z</time>
      </trkpt>
      <trkpt lat="42.45658" lon="23.102">
        <ele>732.341578</ele>
        <time>2022-04-05T09:09:06.227Z</time>
      </trkpt>
      <trkpt lat="42.45654" lon="23.1021">
        <ele>732.411594</ele>
        <time>2022-04-05T09:09:09.216Z</time>
      </trkpt>
      <trkpt lat="42.45649" lon="23.10222">
        <ele>732.487014</ele>
        <time>2022-04-05T09:09:12.237Z</time>
      </trkpt>
      <trkpt lat="42.45644" lon="23.10232">
        <ele>732.5592</ele>
        <time>2022-04-05T09:09:15.257Z</time>
      </trkpt>
      <trkpt lat="42.45638" lon="23.10244">
        <ele>732.635853</ele>
        <time>2022-04-05T09:09:18.235Z</time>
      </trkpt>
      <trkpt lat="42.45633" lon="23.10255">
        <ele>732.711678</ele>
        <time>2022-04-05T09:09:21.225Z</time>
      </trkpt>
      <trkpt lat="42.45628" lon="23.10267">
        <ele>732.789362</ele>
        <time>2022-04-05T09:09:24.226Z</time>
      </trkpt>
      <trkpt lat="42.45623" lon="23.10278">
        <ele>732.897714</ele>
        <time>2022-04-05T09:09:27.268Z</time>
      </trkpt>
      <trkpt lat="42.45617" lon="23.10289">
        <ele>733.063644</ele>
        <time>2022-04-05T09:09:30.237Z</time>
      </trkpt>
      <trkpt lat="42.45612" lon="23.103">
        <ele>733.227688</ele>
        <time>2022-04-05T09:09:33.253Z</time>
      </trkpt>
      <trkpt lat="42.45607" lon="23.10311">
        <ele>733.391877</ele>
        <time>2022-04-05T09:09:36.232Z</time>
      </trkpt>
      <trkpt lat="42.45602" lon="23.10322">
        <ele>733.56086</ele>
        <time>2022-04-05T09:09:39.235Z</time>
      </trkpt>
      <trkpt lat="42.45596" lon="23.10333">
        <ele>733.72902</ele>
        <time>2022-04-05T09:09:42.229Z</time>
      </trkpt>
      <trkpt lat="42.45591" lon="23.10344">
        <ele>733.887106</ele>
        <time>2022-04-05T09:09:45.234Z</time>
      </trkpt>
      <trkpt lat="42.45587" lon="23.10354">
        <ele>734.045193</ele>
        <time>2022-04-05T09:09:48.232Z</time>
      </trkpt>
      <trkpt lat="42.45582" lon="23.10365">
        <ele>734.204749</ele>
        <time>2022-04-05T09:09:51.277Z</time>
      </trkpt>
      <trkpt lat="42.45576" lon="23.10379">
        <ele>734.408947</ele>
        <time>2022-04-05T09:09:55.241Z</time>
      </trkpt>
      <trkpt lat="42.45571" lon="23.1039">
        <ele>734.570691</ele>
        <time>2022-04-05T09:09:58.239Z</time>
      </trkpt>
      <trkpt lat="42.45566" lon="23.10401">
        <ele>734.734905</ele>
        <time>2022-04-05T09:10:01.238Z</time>
      </trkpt>
      <trkpt lat="42.45562" lon="23.10414">
        <ele>734.908059</ele>
        <time>2022-04-05T09:10:04.229Z</time>
      </trkpt>
      <trkpt lat="42.45557" lon="23.10425">
        <ele>735.078353</ele>
        <time>2022-04-05T09:10:07.234Z</time>
      </trkpt>
      <trkpt lat="42.45552" lon="23.10437">
        <ele>735.24926</ele>
        <time>2022-04-05T09:10:10.239Z</time>
      </trkpt>
      <trkpt lat="42.45548" lon="23.10449">
        <ele>735.408825</ele>
        <time>2022-04-05T09:10:13.254Z</time>
      </trkpt>
      <trkpt lat="42.45543" lon="23.1046">
        <ele>735.580801</ele>
        <time>2022-04-05T09:10:16.225Z</time>
      </trkpt>
      <trkpt lat="42.45538" lon="23.10472">
        <ele>735.750589</ele>
        <time>2022-04-05T09:10:19.234Z</time>
      </trkpt>
      <trkpt lat="42.45533" lon="23.10484">
        <ele>735.918675</ele>
        <time>2022-04-05T09:10:22.282Z</time>
      </trkpt>
      <trkpt lat="42.45528" lon="23.10496">
        <ele>735.851063</ele>
        <time>2022-04-05T09:10:25.226Z</time>
      </trkpt>
      <trkpt lat="42.45522" lon="23.10507">
        <ele>735.78291</ele>
        <time>2022-04-05T09:10:28.234Z</time>
      </trkpt>
      <trkpt lat="42.45517" lon="23.10518">
        <ele>735.7218</ele>
        <time>2022-04-05T09:10:31.248Z</time>
      </trkpt>
      <trkpt lat="42.45512" lon="23.10529">
        <ele>735.657964</ele>
        <time>2022-04-05T09:10:34.234Z</time>
      </trkpt>
      <trkpt lat="42.45507" lon="23.10539">
        <ele>735.596382</ele>
        <time>2022-04-05T09:10:37.239Z</time>
      </trkpt>
      <trkpt lat="42.45502" lon="23.1055">
        <ele>735.533129</ele>
        <time>2022-04-05T09:10:40.226Z</time>
      </trkpt>
      <trkpt lat="42.45497" lon="23.10562">
        <ele>735.46877</ele>
        <time>2022-04-05T09:10:43.233Z</time>
      </trkpt>
      <trkpt lat="42.45492" lon="23.10573">
        <ele>735.40566</ele>
        <time>2022-04-05T09:10:46.230Z</time>
      </trkpt>
      <trkpt lat="42.45488" lon="23.10584">
        <ele>735.34383</ele>
        <time>2022-04-05T09:10:49.220Z</time>
      </trkpt>
      <trkpt lat="42.45483" lon="23.10595">
        <ele>735.280176</ele>
        <time>2022-04-05T09:10:52.229Z</time>
      </trkpt>
      <trkpt lat="42.45478" lon="23.10607">
        <ele>735.213978</ele>
        <time>2022-04-05T09:10:55.233Z</time>
      </trkpt>
      <trkpt lat="42.45472" lon="23.10619">
        <ele>735.141826</ele>
        <time>2022-04-05T09:10:58.239Z</time>
      </trkpt>
      <trkpt lat="42.45466" lon="23.10633">
        <ele>735.062817</ele>
        <time>2022-04-05T09:11:01.238Z</time>
      </trkpt>
      <trkpt lat="42.45459" lon="23.10647">
        <ele>734.98311</ele>
        <time>2022-04-05T09:11:04.256Z</time>
      </trkpt>
      <trkpt lat="42.45453" lon="23.10661">
        <ele>734.902084</ele>
        <time>2022-04-05T09:11:07.223Z</time>
      </trkpt>
      <trkpt lat="42.45447" lon="23.10675">
        <ele>734.822064</ele>
        <time>2022-04-05T09:11:10.237Z</time>
      </trkpt>
      <trkpt lat="42.45441" lon="23.1069">
        <ele>734.738598</ele>
        <time>2022-04-05T09:11:13.278Z</time>
      </trkpt>
      <trkpt lat="42.45436" lon="23.107">
        <ele>734.66815</ele>
        <time>2022-04-05T09:11:15.224Z</time>
      </trkpt>
      <trkpt lat="42.4543" lon="23.10715">
        <ele>734.568056</ele>
        <time>2022-04-05T09:11:18.242Z</time>
      </trkpt>
      <trkpt lat="42.45424" lon="23.10729">
        <ele>734.477193</ele>
        <time>2022-04-05T09:11:21.232Z</time>
      </trkpt>
      <trkpt lat="42.45418" lon="23.10743">
        <ele>734.376809</ele>
        <time>2022-04-05T09:11:24.248Z</time>
      </trkpt>
      <trkpt lat="42.45413" lon="23.10755">
        <ele>734.29859</ele>
        <time>2022-04-05T09:11:26.245Z</time>
      </trkpt>
      <trkpt lat="42.45408" lon="23.10767">
        <ele>734.218827</ele>
        <time>2022-04-05T09:11:28.239Z</time>
      </trkpt>
      <trkpt lat="42.45403" lon="23.10778">
        <ele>734.143558</ele>
        <time>2022-04-05T09:11:30.231Z</time>
      </trkpt>
      <trkpt lat="42.45396" lon="23.10793">
        <ele>734.037819</ele>
        <time>2022-04-05T09:11:33.238Z</time>
      </trkpt>
      <trkpt lat="42.4539" lon="23.10807">
        <ele>733.939454</ele>
        <time>2022-04-05T09:11:36.235Z</time>
      </trkpt>
      <trkpt lat="42.45384" lon="23.10821">
        <ele>733.845848</ele>
        <time>2022-04-05T09:11:39.240Z</time>
      </trkpt>
      <trkpt lat="42.45378" lon="23.10834">
        <ele>733.755996</ele>
        <time>2022-04-05T09:11:42.236Z</time>
      </trkpt>
      <trkpt lat="42.45372" lon="23.10848">
        <ele>733.658849</ele>
        <time>2022-04-05T09:11:45.225Z</time>
      </trkpt>
      <trkpt lat="42.45365" lon="23.10863">
        <ele>733.560388</ele>
        <time>2022-04-05T09:11:48.234Z</time>
      </trkpt>
      <trkpt lat="42.45359" lon="23.10878">
        <ele>733.458585</ele>
        <time>2022-04-05T09:11:51.227Z</time>
      </trkpt>
      <trkpt lat="42.45352" lon="23.10892">
        <ele>733.356464</ele>
        <time>2022-04-05T09:11:54.240Z</time>
      </trkpt>
      <trkpt lat="42.45346" lon="23.10906">
        <ele>733.406837</ele>
        <time>2022-04-05T09:11:57.234Z</time>
      </trkpt>
      <trkpt lat="42.4534" lon="23.10919">
        <ele>733.745604</ele>
        <time>2022-04-05T09:12:00.217Z</time>
      </trkpt>
      <trkpt lat="42.45335" lon="23.10931">
        <ele>734.058854</ele>
        <time>2022-04-05T09:12:03.240Z</time>
      </trkpt>
      <trkpt lat="42.4533" lon="23.10942">
        <ele>734.356046</ele>
        <time>2022-04-05T09:12:06.228Z</time>
      </trkpt>
      <trkpt lat="42.45324" lon="23.10956">
        <ele>734.705512</ele>
        <time>2022-04-05T09:12:10.230Z</time>
      </trkpt>
      <trkpt lat="42.45318" lon="23.10968">
        <ele>735.023612</ele>
        <time>2022-04-05T09:12:14.235Z</time>
      </trkpt>
      <trkpt lat="42.45312" lon="23.1098">
        <ele>735.347569</ele>
        <time>2022-04-05T09:12:18.226Z</time>
      </trkpt>
      <trkpt lat="42.45306" lon="23.10993">
        <ele>735.67848</ele>
        <time>2022-04-05T09:12:22.219Z</time>
      </trkpt>
      <trkpt lat="42.453" lon="23.11005">
        <ele>735.998438</ele>
        <time>2022-04-05T09:12:26.257Z</time>
      </trkpt>
      <trkpt lat="42.45295" lon="23.11016">
        <ele>736.285786</ele>
        <time>2022-04-05T09:12:30.231Z</time>
      </trkpt>
      <trkpt lat="42.45289" lon="23.11028">
        <ele>736.621459</ele>
        <time>2022-04-05T09:12:35.240Z</time>
      </trkpt>
      <trkpt lat="42.45283" lon="23.11039">
        <ele>736.909074</ele>
        <time>2022-04-05T09:12:39.262Z</time>
      </trkpt>
      <trkpt lat="42.45278" lon="23.1105">
        <ele>737.201717</ele>
        <time>2022-04-05T09:12:43.232Z</time>
      </trkpt>
      <trkpt lat="42.45273" lon="23.1106">
        <ele>737.480968</ele>
        <time>2022-04-05T09:12:47.231Z</time>
      </trkpt>
      <trkpt lat="42.45268" lon="23.11071">
        <ele>737.760218</ele>
        <time>2022-04-05T09:12:51.226Z</time>
      </trkpt>
      <trkpt lat="42.45262" lon="23.11084">
        <ele>738.093639</ele>
        <time>2022-04-05T09:12:56.229Z</time>
      </trkpt>
      <trkpt lat="42.45257" lon="23.11095">
        <ele>738.373214</ele>
        <time>2022-04-05T09:13:00.235Z</time>
      </trkpt>
      <trkpt lat="42.45252" lon="23.11106">
        <ele>738.676087</ele>
        <time>2022-04-05T09:13:04.245Z</time>
      </trkpt>
      <trkpt lat="42.45247" lon="23.11117">
        <ele>738.711212</ele>
        <time>2022-04-05T09:13:08.228Z</time>
      </trkpt>
      <trkpt lat="42.45242" lon="23.1113">
        <ele>738.728207</ele>
        <time>2022-04-05T09:13:13.222Z</time>
      </trkpt>
      <trkpt lat="42.45236" lon="23.11141">
        <ele>738.743283</ele>
        <time>2022-04-05T09:13:17.240Z</time>
      </trkpt>
      <trkpt lat="42.45231" lon="23.11153">
        <ele>738.759008</ele>
        <time>2022-04-05T09:13:21.242Z</time>
      </trkpt>
      <trkpt lat="42.45225" lon="23.11165">
        <ele>738.774874</ele>
        <time>2022-04-05T09:13:25.217Z</time>
      </trkpt>
      <trkpt lat="42.45219" lon="23.11178">
        <ele>738.792777</ele>
        <time>2022-04-05T09:13:29.279Z</time>
      </trkpt>
      <trkpt lat="42.45214" lon="23.11189">
        <ele>738.807265</ele>
        <time>2022-04-05T09:13:32.258Z</time>
      </trkpt>
      <trkpt lat="42.45209" lon="23.11201">
        <ele>738.82257</ele>
        <time>2022-04-05T09:13:35.263Z</time>
      </trkpt>
      <trkpt lat="42.45203" lon="23.11215">
        <ele>738.841216</ele>
        <time>2022-04-05T09:13:38.236Z</time>
      </trkpt>
      <trkpt lat="42.45198" lon="23.11226">
        <ele>738.855549</ele>
        <time>2022-04-05T09:13:40.234Z</time>
      </trkpt>
      <trkpt lat="42.45193" lon="23.11238">
        <ele>738.870816</ele>
        <time>2022-04-05T09:13:42.217Z</time>
      </trkpt>
      <trkpt lat="42.45188" lon="23.11251">
        <ele>738.887517</ele>
        <time>2022-04-05T09:13:44.235Z</time>
      </trkpt>
      <trkpt lat="42.45182" lon="23.11265">
        <ele>738.905818</ele>
        <time>2022-04-05T09:13:46.264Z</time>
      </trkpt>
      <trkpt lat="42.45176" lon="23.1128">
        <ele>738.925432</ele>
        <time>2022-04-05T09:13:48.247Z</time>
      </trkpt>
      <trkpt lat="42.45169" lon="23.11297">
        <ele>738.946594</ele>
        <time>2022-04-05T09:13:50.239Z</time>
      </trkpt>
      <trkpt lat="42.45162" lon="23.11314">
        <ele>738.969066</ele>
        <time>2022-04-05T09:13:52.285Z</time>
      </trkpt>
      <trkpt lat="42.45154" lon="23.11332">
        <ele>738.936036</ele>
        <time>2022-04-05T09:13:54.234Z</time>
      </trkpt>
      <trkpt lat="42.45147" lon="23.1135">
        <ele>738.889273</ele>
        <time>2022-04-05T09:13:56.237Z</time>
      </trkpt>
      <trkpt lat="42.45138" lon="23.11369">
        <ele>738.840356</ele>
        <time>2022-04-05T09:13:58.234Z</time>
      </trkpt>
      <trkpt lat="42.4513" lon="23.11388">
        <ele>738.791744</ele>
        <time>2022-04-05T09:14:00.254Z</time>
      </trkpt>
      <trkpt lat="42.45122" lon="23.11408">
        <ele>738.742448</ele>
        <time>2022-04-05T09:14:02.220Z</time>
      </trkpt>
      <trkpt lat="42.45113" lon="23.11427">
        <ele>738.693684</ele>
        <time>2022-04-05T09:14:04.240Z</time>
      </trkpt>
      <trkpt lat="42.45105" lon="23.11445">
        <ele>738.64724</ele>
        <time>2022-04-05T09:14:06.248Z</time>
      </trkpt>
      <trkpt lat="42.45098" lon="23.11461">
        <ele>738.604865</ele>
        <time>2022-04-05T09:14:08.236Z</time>
      </trkpt>
      <trkpt lat="42.45092" lon="23.11476">
        <ele>738.566827</ele>
        <time>2022-04-05T09:14:10.242Z</time>
      </trkpt>
      <trkpt lat="42.45086" lon="23.11489">
        <ele>738.533121</ele>
        <time>2022-04-05T09:14:12.225Z</time>
      </trkpt>
      <trkpt lat="42.45081" lon="23.11501">
        <ele>738.502386</ele>
        <time>2022-04-05T09:14:14.277Z</time>
      </trkpt>
      <trkpt lat="42.45074" lon="23.11516">
        <ele>738.462596</ele>
        <time>2022-04-05T09:14:17.238Z</time>
      </trkpt>
      <trkpt lat="42.45068" lon="23.1153">
        <ele>738.419345</ele>
        <time>2022-04-05T09:14:20.229Z</time>
      </trkpt>
      <trkpt lat="42.45062" lon="23.11543">
        <ele>738.336836</ele>
        <time>2022-04-05T09:14:23.230Z</time>
      </trkpt>
      <trkpt lat="42.45056" lon="23.11556">
        <ele>738.253955</ele>
        <time>2022-04-05T09:14:26.240Z</time>
      </trkpt>
      <trkpt lat="42.45051" lon="23.11568">
        <ele>738.17784</ele>
        <time>2022-04-05T09:14:29.229Z</time>
      </trkpt>
      <trkpt lat="42.45045" lon="23.11583">
        <ele>738.088074</ele>
        <time>2022-04-05T09:14:32.273Z</time>
      </trkpt>
      <trkpt lat="42.45038" lon="23.11597">
        <ele>737.99669</ele>
        <time>2022-04-05T09:14:35.238Z</time>
      </trkpt>
      <trkpt lat="42.45032" lon="23.11612">
        <ele>737.904145</ele>
        <time>2022-04-05T09:14:38.266Z</time>
      </trkpt>
      <trkpt lat="42.45025" lon="23.11627">
        <ele>737.808068</ele>
        <time>2022-04-05T09:14:41.247Z</time>
      </trkpt>
      <trkpt lat="42.45018" lon="23.11643">
        <ele>737.709569</ele>
        <time>2022-04-05T09:14:44.222Z</time>
      </trkpt>
      <trkpt lat="42.45014" lon="23.11653">
        <ele>737.643595</ele>
        <time>2022-04-05T09:14:46.229Z</time>
      </trkpt>
      <trkpt lat="42.45009" lon="23.11664">
        <ele>737.577621</ele>
        <time>2022-04-05T09:14:48.241Z</time>
      </trkpt>
      <trkpt lat="42.45002" lon="23.11679">
        <ele>737.480042</ele>
        <time>2022-04-05T09:14:51.243Z</time>
      </trkpt>
      <trkpt lat="42.44996" lon="23.11694">
        <ele>737.384985</ele>
        <time>2022-04-05T09:14:54.241Z</time>
      </trkpt>
      <trkpt lat="42.44991" lon="23.11704">
        <ele>737.31937</ele>
        <time>2022-04-05T09:14:56.237Z</time>
      </trkpt>
      <trkpt lat="42.44986" lon="23.11715">
        <ele>737.253709</ele>
        <time>2022-04-05T09:14:58.225Z</time>
      </trkpt>
      <trkpt lat="42.44981" lon="23.11725">
        <ele>737.187073</ele>
        <time>2022-04-05T09:15:00.255Z</time>
      </trkpt>
      <trkpt lat="42.44974" lon="23.1174">
        <ele>737.111834</ele>
        <time>2022-04-05T09:15:03.241Z</time>
      </trkpt>
      <trkpt lat="42.44971" lon="23.11756">
        <ele>737.083564</ele>
        <time>2022-04-05T09:15:06.295Z</time>
      </trkpt>
      <trkpt lat="42.44967" lon="23.11771">
        <ele>737.056857</ele>
        <time>2022-04-05T09:15:09.262Z</time>
      </trkpt>
      <trkpt lat="42.44961" lon="23.11785">
        <ele>737.029688</ele>
        <time>2022-04-05T09:15:12.240Z</time>
      </trkpt>
      <trkpt lat="42.44954" lon="23.11798">
        <ele>737.003745</ele>
        <time>2022-04-05T09:15:15.225Z</time>
      </trkpt>
      <trkpt lat="42.44948" lon="23.11809">
        <ele>736.979703</ele>
        <time>2022-04-05T09:15:18.231Z</time>
      </trkpt>
      <trkpt lat="42.44941" lon="23.1182">
        <ele>736.956569</ele>
        <time>2022-04-05T09:15:21.233Z</time>
      </trkpt>
      <trkpt lat="42.44935" lon="23.1183">
        <ele>736.93441</ele>
        <time>2022-04-05T09:15:24.227Z</time>
      </trkpt>
      <trkpt lat="42.44929" lon="23.11842">
        <ele>736.909279</ele>
        <time>2022-04-05T09:15:28.245Z</time>
      </trkpt>
      <trkpt lat="42.44922" lon="23.11852">
        <ele>736.885985</ele>
        <time>2022-04-05T09:15:33.237Z</time>
      </trkpt>
      <trkpt lat="42.44919" lon="23.11865">
        <ele>736.862931</ele>
        <time>2022-04-05T09:30:59.235Z</time>
      </trkpt>
      <trkpt lat="42.44902" lon="23.1187">
        <ele>736.824388</ele>
        <time>2022-04-05T09:31:23.241Z</time>
      </trkpt>
      <trkpt lat="42.44895" lon="23.11878">
        <ele>736.803315</ele>
        <time>2022-04-05T09:31:26.265Z</time>
      </trkpt>
      <trkpt lat="42.44886" lon="23.11887">
        <ele>736.776902</ele>
        <time>2022-04-05T09:31:30.224Z</time>
      </trkpt>
      <trkpt lat="42.44876" lon="23.11896">
        <ele>736.750252</ele>
        <time>2022-04-05T09:31:34.269Z</time>
      </trkpt>
      <trkpt lat="42.44868" lon="23.11902">
        <ele>736.729485</ele>
        <time>2022-04-05T09:31:37.238Z</time>
      </trkpt>
      <trkpt lat="42.44858" lon="23.1191">
        <ele>736.635931</ele>
        <time>2022-04-05T09:31:41.282Z</time>
      </trkpt>
      <trkpt lat="42.44849" lon="23.11917">
        <ele>736.442008</ele>
        <time>2022-04-05T09:31:44.249Z</time>
      </trkpt>
      <trkpt lat="42.4484" lon="23.11922">
        <ele>736.232217</ele>
        <time>2022-04-05T09:31:47.233Z</time>
      </trkpt>
      <trkpt lat="42.44829" lon="23.11928">
        <ele>736.009054</ele>
        <time>2022-04-05T09:31:50.231Z</time>
      </trkpt>
      <trkpt lat="42.44818" lon="23.11934">
        <ele>735.765316</ele>
        <time>2022-04-05T09:31:53.234Z</time>
      </trkpt>
      <trkpt lat="42.44805" lon="23.1194">
        <ele>735.492717</ele>
        <time>2022-04-05T09:31:56.286Z</time>
      </trkpt>
      <trkpt lat="42.44796" lon="23.11943">
        <ele>735.304535</ele>
        <time>2022-04-05T09:31:58.321Z</time>
      </trkpt>
      <trkpt lat="42.44786" lon="23.11946">
        <ele>735.105707</ele>
        <time>2022-04-05T09:32:00.243Z</time>
      </trkpt>
      <trkpt lat="42.44776" lon="23.11948">
        <ele>734.904133</ele>
        <time>2022-04-05T09:32:02.232Z</time>
      </trkpt>
      <trkpt lat="42.44766" lon="23.11951">
        <ele>734.701394</ele>
        <time>2022-04-05T09:32:04.217Z</time>
      </trkpt>
      <trkpt lat="42.44755" lon="23.11954">
        <ele>734.468023</ele>
        <time>2022-04-05T09:32:06.229Z</time>
      </trkpt>
      <trkpt lat="42.44742" lon="23.11957">
        <ele>734.21223</ele>
        <time>2022-04-05T09:32:08.289Z</time>
      </trkpt>
      <trkpt lat="42.44731" lon="23.11961">
        <ele>733.978895</ele>
        <time>2022-04-05T09:32:10.228Z</time>
      </trkpt>
      <trkpt lat="42.44721" lon="23.11963">
        <ele>733.764972</ele>
        <time>2022-04-05T09:32:12.278Z</time>
      </trkpt>
      <trkpt lat="42.4471" lon="23.11966">
        <ele>733.555777</ele>
        <time>2022-04-05T09:32:14.223Z</time>
      </trkpt>
      <trkpt lat="42.447" lon="23.11968">
        <ele>733.350777</ele>
        <time>2022-04-05T09:32:16.229Z</time>
      </trkpt>
      <trkpt lat="42.44691" lon="23.1197">
        <ele>733.164716</ele>
        <time>2022-04-05T09:32:18.227Z</time>
      </trkpt>
      <trkpt lat="42.44678" lon="23.11973">
        <ele>733.032906</ele>
        <time>2022-04-05T09:32:21.241Z</time>
      </trkpt>
      <trkpt lat="42.44667" lon="23.11976">
        <ele>732.943412</ele>
        <time>2022-04-05T09:32:24.233Z</time>
      </trkpt>
      <trkpt lat="42.44657" lon="23.11982">
        <ele>732.856553</ele>
        <time>2022-04-05T09:32:27.230Z</time>
      </trkpt>
      <trkpt lat="42.4465" lon="23.1199">
        <ele>732.782167</ele>
        <time>2022-04-05T09:32:30.231Z</time>
      </trkpt>
      <trkpt lat="42.44645" lon="23.12002">
        <ele>732.708097</ele>
        <time>2022-04-05T09:32:36.238Z</time>
      </trkpt>
      <trkpt lat="42.44632" lon="23.12007">
        <ele>732.596779</ele>
        <time>2022-04-05T09:45:44.236Z</time>
      </trkpt>
      <trkpt lat="42.44621" lon="23.12004">
        <ele>732.515213</ele>
        <time>2022-04-05T09:45:48.239Z</time>
      </trkpt>
      <trkpt lat="42.44611" lon="23.12">
        <ele>732.43295</ele>
        <time>2022-04-05T09:45:53.300Z</time>
      </trkpt>
      <trkpt lat="42.446" lon="23.11996">
        <ele>732.346476</ele>
        <time>2022-04-05T09:45:58.248Z</time>
      </trkpt>
      <trkpt lat="42.4459" lon="23.11992">
        <ele>732.265082</ele>
        <time>2022-04-05T09:46:01.234Z</time>
      </trkpt>
      <trkpt lat="42.44579" lon="23.11994">
        <ele>732.171972</ele>
        <time>2022-04-05T09:46:04.254Z</time>
      </trkpt>
      <trkpt lat="42.4457" lon="23.11996">
        <ele>732.100919</ele>
        <time>2022-04-05T09:46:06.241Z</time>
      </trkpt>
      <trkpt lat="42.44556" lon="23.11998">
        <ele>731.996787</ele>
        <time>2022-04-05T09:46:09.242Z</time>
      </trkpt>
      <trkpt lat="42.44546" lon="23.12">
        <ele>731.919043</ele>
        <time>2022-04-05T09:46:11.252Z</time>
      </trkpt>
      <trkpt lat="42.44536" lon="23.12002">
        <ele>731.839602</ele>
        <time>2022-04-05T09:46:13.273Z</time>
      </trkpt>
      <trkpt lat="42.44526" lon="23.12004">
        <ele>731.756143</ele>
        <time>2022-04-05T09:46:15.238Z</time>
      </trkpt>
      <trkpt lat="42.44515" lon="23.12006">
        <ele>731.519554</ele>
        <time>2022-04-05T09:46:17.236Z</time>
      </trkpt>
      <trkpt lat="42.44504" lon="23.12008">
        <ele>731.090154</ele>
        <time>2022-04-05T09:46:19.271Z</time>
      </trkpt>
      <trkpt lat="42.44492" lon="23.1201">
        <ele>730.656625</ele>
        <time>2022-04-05T09:46:21.238Z</time>
      </trkpt>
      <trkpt lat="42.44481" lon="23.12012">
        <ele>730.208345</ele>
        <time>2022-04-05T09:46:23.253Z</time>
      </trkpt>
      <trkpt lat="42.44469" lon="23.12014">
        <ele>729.752173</ele>
        <time>2022-04-05T09:46:25.221Z</time>
      </trkpt>
      <trkpt lat="42.44457" lon="23.12016">
        <ele>729.291506</ele>
        <time>2022-04-05T09:46:27.265Z</time>
      </trkpt>
      <trkpt lat="42.44445" lon="23.12017">
        <ele>728.83251</ele>
        <time>2022-04-05T09:46:29.234Z</time>
      </trkpt>
      <trkpt lat="42.44432" lon="23.12019">
        <ele>728.353999</ele>
        <time>2022-04-05T09:46:31.231Z</time>
      </trkpt>
      <trkpt lat="42.4442" lon="23.12021">
        <ele>727.872295</ele>
        <time>2022-04-05T09:46:33.236Z</time>
      </trkpt>
      <trkpt lat="42.44408" lon="23.12022">
        <ele>727.410308</ele>
        <time>2022-04-05T09:46:35.232Z</time>
      </trkpt>
      <trkpt lat="42.44395" lon="23.12024">
        <ele>726.932918</ele>
        <time>2022-04-05T09:46:37.234Z</time>
      </trkpt>
      <trkpt lat="42.44382" lon="23.12026">
        <ele>726.451484</ele>
        <time>2022-04-05T09:46:39.251Z</time>
      </trkpt>
      <trkpt lat="42.4437" lon="23.12027">
        <ele>725.982143</ele>
        <time>2022-04-05T09:46:41.232Z</time>
      </trkpt>
      <trkpt lat="42.44357" lon="23.12028">
        <ele>725.489593</ele>
        <time>2022-04-05T09:46:43.239Z</time>
      </trkpt>
      <trkpt lat="42.44344" lon="23.1203">
        <ele>724.989218</ele>
        <time>2022-04-05T09:46:45.239Z</time>
      </trkpt>
      <trkpt lat="42.44331" lon="23.12032">
        <ele>724.420761</ele>
        <time>2022-04-05T09:46:47.242Z</time>
      </trkpt>
      <trkpt lat="42.44317" lon="23.12033">
        <ele>723.830542</ele>
        <time>2022-04-05T09:46:49.236Z</time>
      </trkpt>
      <trkpt lat="42.44304" lon="23.12035">
        <ele>723.234735</ele>
        <time>2022-04-05T09:46:51.252Z</time>
      </trkpt>
      <trkpt lat="42.44289" lon="23.12037">
        <ele>722.609798</ele>
        <time>2022-04-05T09:46:53.232Z</time>
      </trkpt>
      <trkpt lat="42.44275" lon="23.12038">
        <ele>721.980775</ele>
        <time>2022-04-05T09:46:55.240Z</time>
      </trkpt>
      <trkpt lat="42.44261" lon="23.12039">
        <ele>721.353075</ele>
        <time>2022-04-05T09:46:57.227Z</time>
      </trkpt>
      <trkpt lat="42.44247" lon="23.12041">
        <ele>720.746009</ele>
        <time>2022-04-05T09:46:59.243Z</time>
      </trkpt>
      <trkpt lat="42.44233" lon="23.12042">
        <ele>720.155501</ele>
        <time>2022-04-05T09:47:01.267Z</time>
      </trkpt>
      <trkpt lat="42.44219" lon="23.12044">
        <ele>719.525666</ele>
        <time>2022-04-05T09:47:03.242Z</time>
      </trkpt>
      <trkpt lat="42.44204" lon="23.12046">
        <ele>718.891192</ele>
        <time>2022-04-05T09:47:05.241Z</time>
      </trkpt>
      <trkpt lat="42.4419" lon="23.12047">
        <ele>718.254651</ele>
        <time>2022-04-05T09:47:07.225Z</time>
      </trkpt>
      <trkpt lat="42.44175" lon="23.12049">
        <ele>717.616141</ele>
        <time>2022-04-05T09:47:09.236Z</time>
      </trkpt>
      <trkpt lat="42.4416" lon="23.1205">
        <ele>717.021502</ele>
        <time>2022-04-05T09:47:11.249Z</time>
      </trkpt>
      <trkpt lat="42.44146" lon="23.12052">
        <ele>716.894022</ele>
        <time>2022-04-05T09:47:13.242Z</time>
      </trkpt>
      <trkpt lat="42.44131" lon="23.12054">
        <ele>716.765687</ele>
        <time>2022-04-05T09:47:15.234Z</time>
      </trkpt>
      <trkpt lat="42.44116" lon="23.12056">
        <ele>716.639972</ele>
        <time>2022-04-05T09:47:17.238Z</time>
      </trkpt>
      <trkpt lat="42.44101" lon="23.12057">
        <ele>716.512492</ele>
        <time>2022-04-05T09:47:19.273Z</time>
      </trkpt>
      <trkpt lat="42.44087" lon="23.12059">
        <ele>716.390195</ele>
        <time>2022-04-05T09:47:21.241Z</time>
      </trkpt>
      <trkpt lat="42.44073" lon="23.12061">
        <ele>716.270569</ele>
        <time>2022-04-05T09:47:23.237Z</time>
      </trkpt>
      <trkpt lat="42.4406" lon="23.12062">
        <ele>716.156073</ele>
        <time>2022-04-05T09:47:25.242Z</time>
      </trkpt>
      <trkpt lat="42.44048" lon="23.12063">
        <ele>716.050179</ele>
        <time>2022-04-05T09:47:27.218Z</time>
      </trkpt>
      <trkpt lat="42.44036" lon="23.12065">
        <ele>715.948376</ele>
        <time>2022-04-05T09:47:29.238Z</time>
      </trkpt>
      <trkpt lat="42.44025" lon="23.12067">
        <ele>715.854247</ele>
        <time>2022-04-05T09:47:31.241Z</time>
      </trkpt>
      <trkpt lat="42.44015" lon="23.12068">
        <ele>715.768121</ele>
        <time>2022-04-05T09:47:33.239Z</time>
      </trkpt>
      <trkpt lat="42.44005" lon="23.1207">
        <ele>715.685142</ele>
        <time>2022-04-05T09:47:35.244Z</time>
      </trkpt>
      <trkpt lat="42.43996" lon="23.12071">
        <ele>715.606571</ele>
        <time>2022-04-05T09:47:37.236Z</time>
      </trkpt>
      <trkpt lat="42.43984" lon="23.12072">
        <ele>715.501752</ele>
        <time>2022-04-05T09:47:40.246Z</time>
      </trkpt>
      <trkpt lat="42.43974" lon="23.12072">
        <ele>715.645907</ele>
        <time>2022-04-05T09:47:43.247Z</time>
      </trkpt>
      <trkpt lat="42.43956" lon="23.12076">
        <ele>716.002076</ele>
        <time>2022-04-05T09:49:19.247Z</time>
      </trkpt>
      <trkpt lat="42.43945" lon="23.12078">
        <ele>716.210353</ele>
        <time>2022-04-05T09:49:23.252Z</time>
      </trkpt>
      <trkpt lat="42.43936" lon="23.12079">
        <ele>716.387404</ele>
        <time>2022-04-05T09:49:26.232Z</time>
      </trkpt>
      <trkpt lat="42.43924" lon="23.12081">
        <ele>716.618149</ele>
        <time>2022-04-05T09:49:30.244Z</time>
      </trkpt>
      <trkpt lat="42.43914" lon="23.12082">
        <ele>716.814363</ele>
        <time>2022-04-05T09:49:33.236Z</time>
      </trkpt>
      <trkpt lat="42.43903" lon="23.12084">
        <ele>717.014381</ele>
        <time>2022-04-05T09:49:36.229Z</time>
      </trkpt>
      <trkpt lat="42.43893" lon="23.12085">
        <ele>717.219712</ele>
        <time>2022-04-05T09:49:39.241Z</time>
      </trkpt>
      <trkpt lat="42.43882" lon="23.12086">
        <ele>717.42326</ele>
        <time>2022-04-05T09:49:42.241Z</time>
      </trkpt>
      <trkpt lat="42.43871" lon="23.12088">
        <ele>717.631361</ele>
        <time>2022-04-05T09:49:45.237Z</time>
      </trkpt>
      <trkpt lat="42.43859" lon="23.1209">
        <ele>717.860203</ele>
        <time>2022-04-05T09:49:48.251Z</time>
      </trkpt>
      <trkpt lat="42.43847" lon="23.12091">
        <ele>718.094356</ele>
        <time>2022-04-05T09:49:51.253Z</time>
      </trkpt>
      <trkpt lat="42.43836" lon="23.12093">
        <ele>718.303016</ele>
        <time>2022-04-05T09:49:54.235Z</time>
      </trkpt>
      <trkpt lat="42.43827" lon="23.12095">
        <ele>718.486466</ele>
        <time>2022-04-05T09:49:57.259Z</time>
      </trkpt>
      <trkpt lat="42.43815" lon="23.12095">
        <ele>718.70656</ele>
        <time>2022-04-05T09:50:01.238Z</time>
      </trkpt>
      <trkpt lat="42.43805" lon="23.12095">
        <ele>718.90163</ele>
        <time>2022-04-05T09:50:05.242Z</time>
      </trkpt>
      <trkpt lat="42.43795" lon="23.12094">
        <ele>719.010387</ele>
        <time>2022-04-05T09:50:10.234Z</time>
      </trkpt>
      <trkpt lat="42.4378" lon="23.12096">
        <ele>719.153278</ele>
        <time>2022-04-05T09:50:49.245Z</time>
      </trkpt>
      <trkpt lat="42.4377" lon="23.12097">
        <ele>719.250964</ele>
        <time>2022-04-05T09:50:53.239Z</time>
      </trkpt>
      <trkpt lat="42.43761" lon="23.12097">
        <ele>719.340756</ele>
        <time>2022-04-05T09:50:56.253Z</time>
      </trkpt>
      <trkpt lat="42.43751" lon="23.12097">
        <ele>719.433422</ele>
        <time>2022-04-05T09:50:59.263Z</time>
      </trkpt>
      <trkpt lat="42.43741" lon="23.12097">
        <ele>719.527043</ele>
        <time>2022-04-05T09:51:02.229Z</time>
      </trkpt>
      <trkpt lat="42.43731" lon="23.12097">
        <ele>719.623519</ele>
        <time>2022-04-05T09:51:05.244Z</time>
      </trkpt>
      <trkpt lat="42.43721" lon="23.12097">
        <ele>719.723818</ele>
        <time>2022-04-05T09:51:08.260Z</time>
      </trkpt>
      <trkpt lat="42.4371" lon="23.12097">
        <ele>719.829849</ele>
        <time>2022-04-05T09:51:11.249Z</time>
      </trkpt>
      <trkpt lat="42.43698" lon="23.12097">
        <ele>719.9379</ele>
        <time>2022-04-05T09:51:14.233Z</time>
      </trkpt>
      <trkpt lat="42.43686" lon="23.12096">
        <ele>720.051788</ele>
        <time>2022-04-05T09:51:17.255Z</time>
      </trkpt>
      <trkpt lat="42.43674" lon="23.12095">
        <ele>720.175254</ele>
        <time>2022-04-05T09:51:20.245Z</time>
      </trkpt>
      <trkpt lat="42.4366" lon="23.12094">
        <ele>720.300585</ele>
        <time>2022-04-05T09:51:23.237Z</time>
      </trkpt>
      <trkpt lat="42.43648" lon="23.12092">
        <ele>720.421468</ele>
        <time>2022-04-05T09:51:26.233Z</time>
      </trkpt>
      <trkpt lat="42.43638" lon="23.12091">
        <ele>720.512347</ele>
        <time>2022-04-05T09:51:28.238Z</time>
      </trkpt>
      <trkpt lat="42.43628" lon="23.1209">
        <ele>720.612802</ele>
        <time>2022-04-05T09:51:30.233Z</time>
      </trkpt>
      <trkpt lat="42.43617" lon="23.1209">
        <ele>720.459475</ele>
        <time>2022-04-05T09:51:32.292Z</time>
      </trkpt>
      <trkpt lat="42.43606" lon="23.12088">
        <ele>720.181944</ele>
        <time>2022-04-05T09:51:34.234Z</time>
      </trkpt>
      <trkpt lat="42.43595" lon="23.12088">
        <ele>719.904812</ele>
        <time>2022-04-05T09:51:36.267Z</time>
      </trkpt>
      <trkpt lat="42.43584" lon="23.12086">
        <ele>719.617302</ele>
        <time>2022-04-05T09:51:38.241Z</time>
      </trkpt>
      <trkpt lat="42.43573" lon="23.12085">
        <ele>719.334712</ele>
        <time>2022-04-05T09:51:40.246Z</time>
      </trkpt>
      <trkpt lat="42.43561" lon="23.12084">
        <ele>719.042002</ele>
        <time>2022-04-05T09:51:42.220Z</time>
      </trkpt>
      <trkpt lat="42.43548" lon="23.12083">
        <ele>718.721971</ele>
        <time>2022-04-05T09:51:44.234Z</time>
      </trkpt>
      <trkpt lat="42.43535" lon="23.12082">
        <ele>718.388488</ele>
        <time>2022-04-05T09:51:46.246Z</time>
      </trkpt>
      <trkpt lat="42.43522" lon="23.12081">
        <ele>718.047682</ele>
        <time>2022-04-05T09:51:48.230Z</time>
      </trkpt>
      <trkpt lat="42.43509" lon="23.1208">
        <ele>717.709636</ele>
        <time>2022-04-05T09:51:50.232Z</time>
      </trkpt>
      <trkpt lat="42.43495" lon="23.12079">
        <ele>717.374313</ele>
        <time>2022-04-05T09:51:52.236Z</time>
      </trkpt>
      <trkpt lat="42.43483" lon="23.12078">
        <ele>717.051355</ele>
        <time>2022-04-05T09:51:54.272Z</time>
      </trkpt>
      <trkpt lat="42.4347" lon="23.12077">
        <ele>716.731046</ele>
        <time>2022-04-05T09:51:56.235Z</time>
      </trkpt>
      <trkpt lat="42.43457" lon="23.12076">
        <ele>716.408202</ele>
        <time>2022-04-05T09:51:58.228Z</time>
      </trkpt>
      <trkpt lat="42.43445" lon="23.12075">
        <ele>716.098229</ele>
        <time>2022-04-05T09:52:00.304Z</time>
      </trkpt>
      <trkpt lat="42.43434" lon="23.12074">
        <ele>715.983938</ele>
        <time>2022-04-05T09:52:02.235Z</time>
      </trkpt>
      <trkpt lat="42.43423" lon="23.12073">
        <ele>715.881513</ele>
        <time>2022-04-05T09:52:04.231Z</time>
      </trkpt>
      <trkpt lat="42.43412" lon="23.12072">
        <ele>715.779259</ele>
        <time>2022-04-05T09:52:06.235Z</time>
      </trkpt>
      <trkpt lat="42.43401" lon="23.12071">
        <ele>715.681627</ele>
        <time>2022-04-05T09:52:08.222Z</time>
      </trkpt>
      <trkpt lat="42.4339" lon="23.1207">
        <ele>715.579374</ele>
        <time>2022-04-05T09:52:10.242Z</time>
      </trkpt>
      <trkpt lat="42.4338" lon="23.12068">
        <ele>715.479893</ele>
        <time>2022-04-05T09:52:12.239Z</time>
      </trkpt>
      <trkpt lat="42.4337" lon="23.12068">
        <ele>715.385244</ele>
        <time>2022-04-05T09:52:14.245Z</time>
      </trkpt>
      <trkpt lat="42.4336" lon="23.12067">
        <ele>715.296205</ele>
        <time>2022-04-05T09:52:16.239Z</time>
      </trkpt>
      <trkpt lat="42.4335" lon="23.12067">
        <ele>715.207919</ele>
        <time>2022-04-05T09:52:18.233Z</time>
      </trkpt>
      <trkpt lat="42.43341" lon="23.12065">
        <ele>715.119401</ele>
        <time>2022-04-05T09:52:20.286Z</time>
      </trkpt>
      <trkpt lat="42.43331" lon="23.12064">
        <ele>715.029813</ele>
        <time>2022-04-05T09:52:22.293Z</time>
      </trkpt>
      <trkpt lat="42.43322" lon="23.12063">
        <ele>714.941573</ele>
        <time>2022-04-05T09:52:24.220Z</time>
      </trkpt>
      <trkpt lat="42.43313" lon="23.12061">
        <ele>714.856589</ele>
        <time>2022-04-05T09:52:26.246Z</time>
      </trkpt>
      <trkpt lat="42.43304" lon="23.1206">
        <ele>714.773167</ele>
        <time>2022-04-05T09:52:28.231Z</time>
      </trkpt>
      <trkpt lat="42.43295" lon="23.12058">
        <ele>714.686169</ele>
        <time>2022-04-05T09:52:30.237Z</time>
      </trkpt>
      <trkpt lat="42.43285" lon="23.12056">
        <ele>714.595495</ele>
        <time>2022-04-05T09:52:32.222Z</time>
      </trkpt>
      <trkpt lat="42.43275" lon="23.12055">
        <ele>714.50335</ele>
        <time>2022-04-05T09:52:34.245Z</time>
      </trkpt>
      <trkpt lat="42.43265" lon="23.12053">
        <ele>714.419624</ele>
        <time>2022-04-05T09:52:36.252Z</time>
      </trkpt>
      <trkpt lat="42.43255" lon="23.12052">
        <ele>714.565049</ele>
        <time>2022-04-05T09:52:38.246Z</time>
      </trkpt>
      <trkpt lat="42.43246" lon="23.12051">
        <ele>714.701745</ele>
        <time>2022-04-05T09:52:40.243Z</time>
      </trkpt>
      <trkpt lat="42.43237" lon="23.12049">
        <ele>714.841713</ele>
        <time>2022-04-05T09:52:42.251Z</time>
      </trkpt>
      <trkpt lat="42.43227" lon="23.12048">
        <ele>714.985792</ele>
        <time>2022-04-05T09:52:44.237Z</time>
      </trkpt>
      <trkpt lat="42.43218" lon="23.12046">
        <ele>715.121858</ele>
        <time>2022-04-05T09:52:46.230Z</time>
      </trkpt>
      <trkpt lat="42.43208" lon="23.12044">
        <ele>715.267902</ele>
        <time>2022-04-05T09:52:48.249Z</time>
      </trkpt>
      <trkpt lat="42.43198" lon="23.12043">
        <ele>715.415127</ele>
        <time>2022-04-05T09:52:50.268Z</time>
      </trkpt>
      <trkpt lat="42.43188" lon="23.12041">
        <ele>715.558132</ele>
        <time>2022-04-05T09:52:52.236Z</time>
      </trkpt>
      <trkpt lat="42.43179" lon="23.12039">
        <ele>715.696934</ele>
        <time>2022-04-05T09:52:54.239Z</time>
      </trkpt>
      <trkpt lat="42.43169" lon="23.12038">
        <ele>715.842583</ele>
        <time>2022-04-05T09:52:56.285Z</time>
      </trkpt>
      <trkpt lat="42.43159" lon="23.12036">
        <ele>715.991025</ele>
        <time>2022-04-05T09:52:58.249Z</time>
      </trkpt>
      <trkpt lat="42.43149" lon="23.12034">
        <ele>716.141338</ele>
        <time>2022-04-05T09:53:00.231Z</time>
      </trkpt>
      <trkpt lat="42.43138" lon="23.12032">
        <ele>716.293181</ele>
        <time>2022-04-05T09:53:02.240Z</time>
      </trkpt>
      <trkpt lat="42.43128" lon="23.1203">
        <ele>716.441987</ele>
        <time>2022-04-05T09:53:04.243Z</time>
      </trkpt>
      <trkpt lat="42.43118" lon="23.12028">
        <ele>716.586441</ele>
        <time>2022-04-05T09:53:06.249Z</time>
      </trkpt>
      <trkpt lat="42.43109" lon="23.12027">
        <ele>716.727732</ele>
        <time>2022-04-05T09:53:08.234Z</time>
      </trkpt>
      <trkpt lat="42.43099" lon="23.12025">
        <ele>716.868298</ele>
        <time>2022-04-05T09:53:10.239Z</time>
      </trkpt>
      <trkpt lat="42.43089" lon="23.12023">
        <ele>717.015523</ele>
        <time>2022-04-05T09:53:12.229Z</time>
      </trkpt>
      <trkpt lat="42.43079" lon="23.12022">
        <ele>716.92209</ele>
        <time>2022-04-05T09:53:14.236Z</time>
      </trkpt>
      <trkpt lat="42.43069" lon="23.1202">
        <ele>716.764986</ele>
        <time>2022-04-05T09:53:16.233Z</time>
      </trkpt>
      <trkpt lat="42.43059" lon="23.12018">
        <ele>716.617315</ele>
        <time>2022-04-05T09:53:18.244Z</time>
      </trkpt>
      <trkpt lat="42.43048" lon="23.12016">
        <ele>716.456319</ele>
        <time>2022-04-05T09:53:20.243Z</time>
      </trkpt>
      <trkpt lat="42.43038" lon="23.12014">
        <ele>716.298037</ele>
        <time>2022-04-05T09:53:22.225Z</time>
      </trkpt>
      <trkpt lat="42.43028" lon="23.12013">
        <ele>716.141787</ele>
        <time>2022-04-05T09:53:24.266Z</time>
      </trkpt>
      <trkpt lat="42.43017" lon="23.1201">
        <ele>715.983024</ele>
        <time>2022-04-05T09:53:26.248Z</time>
      </trkpt>
      <trkpt lat="42.43007" lon="23.12009">
        <ele>715.822274</ele>
        <time>2022-04-05T09:53:28.247Z</time>
      </trkpt>
      <trkpt lat="42.42997" lon="23.12007">
        <ele>715.667524</ele>
        <time>2022-04-05T09:53:30.242Z</time>
      </trkpt>
      <trkpt lat="42.42987" lon="23.12007">
        <ele>715.520877</ele>
        <time>2022-04-05T09:53:32.235Z</time>
      </trkpt>
      <trkpt lat="42.42977" lon="23.12005">
        <ele>715.376967</ele>
        <time>2022-04-05T09:53:34.229Z</time>
      </trkpt>
      <trkpt lat="42.42967" lon="23.12004">
        <ele>715.22731</ele>
        <time>2022-04-05T09:53:36.266Z</time>
      </trkpt>
      <trkpt lat="42.42958" lon="23.12003">
        <ele>715.081997</ele>
        <time>2022-04-05T09:53:38.244Z</time>
      </trkpt>
      <trkpt lat="42.42948" lon="23.12002">
        <ele>714.933844</ele>
        <time>2022-04-05T09:53:40.228Z</time>
      </trkpt>
      <trkpt lat="42.42938" lon="23.12002">
        <ele>714.785826</ele>
        <time>2022-04-05T09:53:42.238Z</time>
      </trkpt>
      <trkpt lat="42.42928" lon="23.12001">
        <ele>714.633228</ele>
        <time>2022-04-05T09:53:44.216Z</time>
      </trkpt>
      <trkpt lat="42.42918" lon="23.12">
        <ele>714.485075</ele>
        <time>2022-04-05T09:53:46.275Z</time>
      </trkpt>
      <trkpt lat="42.42908" lon="23.11999">
        <ele>714.332098</ele>
        <time>2022-04-05T09:53:48.242Z</time>
      </trkpt>
      <trkpt lat="42.42898" lon="23.11998">
        <ele>714.080579</ele>
        <time>2022-04-05T09:53:50.236Z</time>
      </trkpt>
      <trkpt lat="42.42888" lon="23.11997">
        <ele>713.831811</ele>
        <time>2022-04-05T09:53:52.257Z</time>
      </trkpt>
      <trkpt lat="42.42879" lon="23.11997">
        <ele>713.588387</ele>
        <time>2022-04-05T09:53:54.233Z</time>
      </trkpt>
      <trkpt lat="42.42869" lon="23.11996">
        <ele>713.339811</ele>
        <time>2022-04-05T09:53:56.238Z</time>
      </trkpt>
      <trkpt lat="42.42859" lon="23.11996">
        <ele>713.086224</ele>
        <time>2022-04-05T09:53:58.233Z</time>
      </trkpt>
      <trkpt lat="42.42849" lon="23.11995">
        <ele>712.837559</ele>
        <time>2022-04-05T09:54:00.261Z</time>
      </trkpt>
      <trkpt lat="42.42839" lon="23.11994">
        <ele>712.588673</ele>
        <time>2022-04-05T09:54:02.259Z</time>
      </trkpt>
      <trkpt lat="42.4283" lon="23.11994">
        <ele>712.355388</ele>
        <time>2022-04-05T09:54:04.244Z</time>
      </trkpt>
      <trkpt lat="42.4282" lon="23.11994">
        <ele>712.119573</ele>
        <time>2022-04-05T09:54:06.230Z</time>
      </trkpt>
      <trkpt lat="42.42811" lon="23.11993">
        <ele>711.885936</ele>
        <time>2022-04-05T09:54:08.218Z</time>
      </trkpt>
      <trkpt lat="42.42801" lon="23.11993">
        <ele>711.647463</ele>
        <time>2022-04-05T09:54:10.247Z</time>
      </trkpt>
      <trkpt lat="42.42792" lon="23.11993">
        <ele>711.411648</ele>
        <time>2022-04-05T09:54:12.253Z</time>
      </trkpt>
      <trkpt lat="42.42783" lon="23.11992">
        <ele>711.18332</ele>
        <time>2022-04-05T09:54:14.284Z</time>
      </trkpt>
      <trkpt lat="42.42769" lon="23.11992">
        <ele>710.84695</ele>
        <time>2022-04-05T09:54:17.227Z</time>
      </trkpt>
      <trkpt lat="42.42757" lon="23.11991">
        <ele>710.525859</ele>
        <time>2022-04-05T09:54:20.269Z</time>
      </trkpt>
      <trkpt lat="42.42744" lon="23.11992">
        <ele>710.199583</ele>
        <time>2022-04-05T09:54:23.228Z</time>
      </trkpt>
      <trkpt lat="42.4273" lon="23.11992">
        <ele>709.863417</ele>
        <time>2022-04-05T09:54:26.274Z</time>
      </trkpt>
      <trkpt lat="42.42717" lon="23.11993">
        <ele>709.569166</ele>
        <time>2022-04-05T09:54:29.239Z</time>
      </trkpt>
      <trkpt lat="42.42704" lon="23.11994">
        <ele>709.282367</ele>
        <time>2022-04-05T09:54:32.281Z</time>
      </trkpt>
      <trkpt lat="42.42691" lon="23.11995">
        <ele>708.994915</ele>
        <time>2022-04-05T09:54:35.229Z</time>
      </trkpt>
      <trkpt lat="42.42678" lon="23.11997">
        <ele>708.717715</ele>
        <time>2022-04-05T09:54:38.274Z</time>
      </trkpt>
      <trkpt lat="42.42665" lon="23.11999">
        <ele>708.425126</ele>
        <time>2022-04-05T09:54:41.210Z</time>
      </trkpt>
      <trkpt lat="42.42656" lon="23.12001">
        <ele>708.222105</ele>
        <time>2022-04-05T09:54:43.236Z</time>
      </trkpt>
      <trkpt lat="42.42646" lon="23.12003">
        <ele>708.016215</ele>
        <time>2022-04-05T09:54:45.244Z</time>
      </trkpt>
      <trkpt lat="42.42637" lon="23.12005">
        <ele>707.810325</ele>
        <time>2022-04-05T09:54:47.249Z</time>
      </trkpt>
      <trkpt lat="42.42628" lon="23.12007">
        <ele>707.599027</ele>
        <time>2022-04-05T09:54:49.272Z</time>
      </trkpt>
      <trkpt lat="42.42618" lon="23.1201">
        <ele>707.389574</ele>
        <time>2022-04-05T09:54:51.234Z</time>
      </trkpt>
      <trkpt lat="42.42609" lon="23.12013">
        <ele>707.174515</ele>
        <time>2022-04-05T09:54:53.237Z</time>
      </trkpt>
      <trkpt lat="42.42599" lon="23.12016">
        <ele>706.961363</ele>
        <time>2022-04-05T09:54:55.217Z</time>
      </trkpt>
      <trkpt lat="42.4259" lon="23.12019">
        <ele>706.760436</ele>
        <time>2022-04-05T09:54:57.227Z</time>
      </trkpt>
      <trkpt lat="42.42581" lon="23.12023">
        <ele>706.551497</ele>
        <time>2022-04-05T09:54:59.225Z</time>
      </trkpt>
      <trkpt lat="42.42572" lon="23.12027">
        <ele>706.339566</ele>
        <time>2022-04-05T09:55:01.246Z</time>
      </trkpt>
      <trkpt lat="42.42563" lon="23.12031">
        <ele>706.126219</ele>
        <time>2022-04-05T09:55:03.235Z</time>
      </trkpt>
      <trkpt lat="42.42553" lon="23.12035">
        <ele>705.913427</ele>
        <time>2022-04-05T09:55:05.240Z</time>
      </trkpt>
      <trkpt lat="42.42544" lon="23.12039">
        <ele>705.64229</ele>
        <time>2022-04-05T09:55:07.233Z</time>
      </trkpt>
      <trkpt lat="42.42535" lon="23.12044">
        <ele>705.361191</ele>
        <time>2022-04-05T09:55:09.244Z</time>
      </trkpt>
      <trkpt lat="42.42525" lon="23.12049">
        <ele>705.081782</ele>
        <time>2022-04-05T09:55:11.238Z</time>
      </trkpt>
      <trkpt lat="42.42516" lon="23.12053">
        <ele>704.806516</ele>
        <time>2022-04-05T09:55:13.236Z</time>
      </trkpt>
      <trkpt lat="42.42507" lon="23.12059">
        <ele>704.527364</ele>
        <time>2022-04-05T09:55:15.238Z</time>
      </trkpt>
      <trkpt lat="42.42498" lon="23.12064">
        <ele>704.243136</ele>
        <time>2022-04-05T09:55:17.217Z</time>
      </trkpt>
      <trkpt lat="42.42489" lon="23.12069">
        <ele>703.962174</ele>
        <time>2022-04-05T09:55:19.240Z</time>
      </trkpt>
      <trkpt lat="42.4248" lon="23.12075">
        <ele>703.683108</ele>
        <time>2022-04-05T09:55:21.250Z</time>
      </trkpt>
      <trkpt lat="42.42471" lon="23.1208">
        <ele>703.404859</ele>
        <time>2022-04-05T09:55:23.232Z</time>
      </trkpt>
      <trkpt lat="42.42462" lon="23.12086">
        <ele>703.128256</ele>
        <time>2022-04-05T09:55:25.271Z</time>
      </trkpt>
      <trkpt lat="42.42453" lon="23.12092">
        <ele>702.854333</ele>
        <time>2022-04-05T09:55:27.238Z</time>
      </trkpt>
      <trkpt lat="42.42444" lon="23.12098">
        <ele>702.571733</ele>
        <time>2022-04-05T09:55:29.233Z</time>
      </trkpt>
      <trkpt lat="42.42436" lon="23.12104">
        <ele>702.29041</ele>
        <time>2022-04-05T09:55:31.250Z</time>
      </trkpt>
      <trkpt lat="42.42427" lon="23.1211">
        <ele>702.010351</ele>
        <time>2022-04-05T09:55:33.230Z</time>
      </trkpt>
      <trkpt lat="42.42418" lon="23.12116">
        <ele>701.729027</ele>
        <time>2022-04-05T09:55:35.233Z</time>
      </trkpt>
      <trkpt lat="42.42409" lon="23.12122">
        <ele>701.445201</ele>
        <time>2022-04-05T09:55:37.219Z</time>
      </trkpt>
      <trkpt lat="42.424" lon="23.12129">
        <ele>701.165383</ele>
        <time>2022-04-05T09:55:39.261Z</time>
      </trkpt>
      <trkpt lat="42.42391" lon="23.12135">
        <ele>700.882086</ele>
        <time>2022-04-05T09:55:41.244Z</time>
      </trkpt>
      <trkpt lat="42.42382" lon="23.12142">
        <ele>700.809054</ele>
        <time>2022-04-05T09:55:43.238Z</time>
      </trkpt>
      <trkpt lat="42.42373" lon="23.12148">
        <ele>700.814879</ele>
        <time>2022-04-05T09:55:45.268Z</time>
      </trkpt>
      <trkpt lat="42.42365" lon="23.12155">
        <ele>700.820674</ele>
        <time>2022-04-05T09:55:47.232Z</time>
      </trkpt>
      <trkpt lat="42.42356" lon="23.12162">
        <ele>700.826611</ele>
        <time>2022-04-05T09:55:49.241Z</time>
      </trkpt>
      <trkpt lat="42.42347" lon="23.12168">
        <ele>700.832497</ele>
        <time>2022-04-05T09:55:51.264Z</time>
      </trkpt>
      <trkpt lat="42.42338" lon="23.12175">
        <ele>700.838384</ele>
        <time>2022-04-05T09:55:53.240Z</time>
      </trkpt>
      <trkpt lat="42.42329" lon="23.12182">
        <ele>700.844361</ele>
        <time>2022-04-05T09:55:55.232Z</time>
      </trkpt>
      <trkpt lat="42.4232" lon="23.12189">
        <ele>700.85024</ele>
        <time>2022-04-05T09:55:57.235Z</time>
      </trkpt>
      <trkpt lat="42.42311" lon="23.12195">
        <ele>700.856227</ele>
        <time>2022-04-05T09:55:59.229Z</time>
      </trkpt>
      <trkpt lat="42.42302" lon="23.12203">
        <ele>700.862249</ele>
        <time>2022-04-05T09:56:01.244Z</time>
      </trkpt>
      <trkpt lat="42.42293" lon="23.12209">
        <ele>700.868195</ele>
        <time>2022-04-05T09:56:03.235Z</time>
      </trkpt>
      <trkpt lat="42.42284" lon="23.12216">
        <ele>700.874132</ele>
        <time>2022-04-05T09:56:05.229Z</time>
      </trkpt>
      <trkpt lat="42.42275" lon="23.12223">
        <ele>700.879897</ele>
        <time>2022-04-05T09:56:07.233Z</time>
      </trkpt>
      <trkpt lat="42.42266" lon="23.12229">
        <ele>700.885692</ele>
        <time>2022-04-05T09:56:09.249Z</time>
      </trkpt>
      <trkpt lat="42.42257" lon="23.12236">
        <ele>700.891396</ele>
        <time>2022-04-05T09:56:11.247Z</time>
      </trkpt>
      <trkpt lat="42.42249" lon="23.12242">
        <ele>700.897119</ele>
        <time>2022-04-05T09:56:13.242Z</time>
      </trkpt>
      <trkpt lat="42.4224" lon="23.12249">
        <ele>700.902823</ele>
        <time>2022-04-05T09:56:15.235Z</time>
      </trkpt>
      <trkpt lat="42.42231" lon="23.12255">
        <ele>700.911701</ele>
        <time>2022-04-05T09:56:17.231Z</time>
      </trkpt>
      <trkpt lat="42.42222" lon="23.12262">
        <ele>700.990768</ele>
        <time>2022-04-05T09:56:19.230Z</time>
      </trkpt>
      <trkpt lat="42.42214" lon="23.12268">
        <ele>701.069956</ele>
        <time>2022-04-05T09:56:21.244Z</time>
      </trkpt>
      <trkpt lat="42.42205" lon="23.12275">
        <ele>701.152064</ele>
        <time>2022-04-05T09:56:23.230Z</time>
      </trkpt>
      <trkpt lat="42.42195" lon="23.12282">
        <ele>701.234864</ele>
        <time>2022-04-05T09:56:25.241Z</time>
      </trkpt>
      <trkpt lat="42.42186" lon="23.12289">
        <ele>701.317541</ele>
        <time>2022-04-05T09:56:27.232Z</time>
      </trkpt>
      <trkpt lat="42.42177" lon="23.12295">
        <ele>701.40076</ele>
        <time>2022-04-05T09:56:29.220Z</time>
      </trkpt>
      <trkpt lat="42.42168" lon="23.12302">
        <ele>701.485227</ele>
        <time>2022-04-05T09:56:31.240Z</time>
      </trkpt>
      <trkpt lat="42.42158" lon="23.12309">
        <ele>701.568309</ele>
        <time>2022-04-05T09:56:33.228Z</time>
      </trkpt>
      <trkpt lat="42.42149" lon="23.12316">
        <ele>701.653055</ele>
        <time>2022-04-05T09:56:35.237Z</time>
      </trkpt>
      <trkpt lat="42.4214" lon="23.12323">
        <ele>701.73642</ele>
        <time>2022-04-05T09:56:37.244Z</time>
      </trkpt>
      <trkpt lat="42.4213" lon="23.1233">
        <ele>701.82186</ele>
        <time>2022-04-05T09:56:39.202Z</time>
      </trkpt>
      <trkpt lat="42.42121" lon="23.12337">
        <ele>701.909246</ele>
        <time>2022-04-05T09:56:41.240Z</time>
      </trkpt>
      <trkpt lat="42.42111" lon="23.12345">
        <ele>701.995535</ele>
        <time>2022-04-05T09:56:43.295Z</time>
      </trkpt>
      <trkpt lat="42.42102" lon="23.12351">
        <ele>702.079726</ele>
        <time>2022-04-05T09:56:45.232Z</time>
      </trkpt>
      <trkpt lat="42.42092" lon="23.12359">
        <ele>702.165446</ele>
        <time>2022-04-05T09:56:47.232Z</time>
      </trkpt>
      <trkpt lat="42.42083" lon="23.12366">
        <ele>702.25145</ele>
        <time>2022-04-05T09:56:49.244Z</time>
      </trkpt>
      <trkpt lat="42.42073" lon="23.12373">
        <ele>702.319894</ele>
        <time>2022-04-05T09:56:51.236Z</time>
      </trkpt>
      <trkpt lat="42.42064" lon="23.1238">
        <ele>702.19857</ele>
        <time>2022-04-05T09:56:53.238Z</time>
      </trkpt>
      <trkpt lat="42.42054" lon="23.12387">
        <ele>702.076841</ele>
        <time>2022-04-05T09:56:55.250Z</time>
      </trkpt>
      <trkpt lat="42.42045" lon="23.12394">
        <ele>701.954734</ele>
        <time>2022-04-05T09:56:57.222Z</time>
      </trkpt>
      <trkpt lat="42.42035" lon="23.12401">
        <ele>701.832626</ele>
        <time>2022-04-05T09:56:59.225Z</time>
      </trkpt>
      <trkpt lat="42.42025" lon="23.12408">
        <ele>701.711116</ele>
        <time>2022-04-05T09:57:01.228Z</time>
      </trkpt>
      <trkpt lat="42.42016" lon="23.12415">
        <ele>701.592733</ele>
        <time>2022-04-05T09:57:03.239Z</time>
      </trkpt>
      <trkpt lat="42.42007" lon="23.12421">
        <ele>701.476209</ele>
        <time>2022-04-05T09:57:05.284Z</time>
      </trkpt>
      <trkpt lat="42.41997" lon="23.12428">
        <ele>701.361552</ele>
        <time>2022-04-05T09:57:07.233Z</time>
      </trkpt>
      <trkpt lat="42.41988" lon="23.12434">
        <ele>701.247879</ele>
        <time>2022-04-05T09:57:09.239Z</time>
      </trkpt>
      <trkpt lat="42.41979" lon="23.12441">
        <ele>701.133603</ele>
        <time>2022-04-05T09:57:11.261Z</time>
      </trkpt>
      <trkpt lat="42.4197" lon="23.12447">
        <ele>701.022436</ele>
        <time>2022-04-05T09:57:13.223Z</time>
      </trkpt>
      <trkpt lat="42.41962" lon="23.12453">
        <ele>700.912873</ele>
        <time>2022-04-05T09:57:15.257Z</time>
      </trkpt>
      <trkpt lat="42.41953" lon="23.12459">
        <ele>700.804067</ele>
        <time>2022-04-05T09:57:17.224Z</time>
      </trkpt>
      <trkpt lat="42.41944" lon="23.12464">
        <ele>700.696713</ele>
        <time>2022-04-05T09:57:19.231Z</time>
      </trkpt>
      <trkpt lat="42.41936" lon="23.1247">
        <ele>700.589004</ele>
        <time>2022-04-05T09:57:21.236Z</time>
      </trkpt>
      <trkpt lat="42.41927" lon="23.12476">
        <ele>700.486382</ele>
        <time>2022-04-05T09:57:23.248Z</time>
      </trkpt>
      <trkpt lat="42.41919" lon="23.12481">
        <ele>700.380034</ele>
        <time>2022-04-05T09:57:25.232Z</time>
      </trkpt>
      <trkpt lat="42.4191" lon="23.12487">
        <ele>700.364138</ele>
        <time>2022-04-05T09:57:27.240Z</time>
      </trkpt>
      <trkpt lat="42.41898" lon="23.12494">
        <ele>700.482832</ele>
        <time>2022-04-05T09:57:30.241Z</time>
      </trkpt>
      <trkpt lat="42.41886" lon="23.12502">
        <ele>700.601791</ele>
        <time>2022-04-05T09:57:33.232Z</time>
      </trkpt>
      <trkpt lat="42.41878" lon="23.12507">
        <ele>700.682629</ele>
        <time>2022-04-05T09:57:35.232Z</time>
      </trkpt>
      <trkpt lat="42.41869" lon="23.12512">
        <ele>700.763485</ele>
        <time>2022-04-05T09:57:37.238Z</time>
      </trkpt>
      <trkpt lat="42.41858" lon="23.12519">
        <ele>700.87893</ele>
        <time>2022-04-05T09:57:40.233Z</time>
      </trkpt>
      <trkpt lat="42.41846" lon="23.12526">
        <ele>700.992755</ele>
        <time>2022-04-05T09:57:43.231Z</time>
      </trkpt>
      <trkpt lat="42.41834" lon="23.12534">
        <ele>701.110366</ele>
        <time>2022-04-05T09:57:46.235Z</time>
      </trkpt>
      <trkpt lat="42.41822" lon="23.1254">
        <ele>701.224801</ele>
        <time>2022-04-05T09:57:49.249Z</time>
      </trkpt>
      <trkpt lat="42.41811" lon="23.12547">
        <ele>701.329431</ele>
        <time>2022-04-05T09:57:52.229Z</time>
      </trkpt>
      <trkpt lat="42.41801" lon="23.12553">
        <ele>701.428952</ele>
        <time>2022-04-05T09:57:55.232Z</time>
      </trkpt>
      <trkpt lat="42.41791" lon="23.12559">
        <ele>701.530887</ele>
        <time>2022-04-05T09:57:58.230Z</time>
      </trkpt>
      <trkpt lat="42.41779" lon="23.12566">
        <ele>701.639846</ele>
        <time>2022-04-05T09:58:01.222Z</time>
      </trkpt>
      <trkpt lat="42.41768" lon="23.12572">
        <ele>701.749666</ele>
        <time>2022-04-05T09:58:04.235Z</time>
      </trkpt>
      <trkpt lat="42.41757" lon="23.12579">
        <ele>701.853214</ele>
        <time>2022-04-05T09:58:07.265Z</time>
      </trkpt>
      <trkpt lat="42.41747" lon="23.12585">
        <ele>701.879594</ele>
        <time>2022-04-05T09:58:10.219Z</time>
      </trkpt>
      <trkpt lat="42.41737" lon="23.12591">
        <ele>701.71585</ele>
        <time>2022-04-05T09:58:13.266Z</time>
      </trkpt>
      <trkpt lat="42.41728" lon="23.12597">
        <ele>701.559352</ele>
        <time>2022-04-05T09:58:16.233Z</time>
      </trkpt>
      <trkpt lat="42.41718" lon="23.12602">
        <ele>701.408762</ele>
        <time>2022-04-05T09:58:19.218Z</time>
      </trkpt>
      <trkpt lat="42.4171" lon="23.12608">
        <ele>701.261779</ele>
        <time>2022-04-05T09:58:22.241Z</time>
      </trkpt>
      <trkpt lat="42.41701" lon="23.12614">
        <ele>701.115263</ele>
        <time>2022-04-05T09:58:25.241Z</time>
      </trkpt>
      <trkpt lat="42.41691" lon="23.1262">
        <ele>700.963756</ele>
        <time>2022-04-05T09:58:28.246Z</time>
      </trkpt>
      <trkpt lat="42.41682" lon="23.12625">
        <ele>700.811803</ele>
        <time>2022-04-05T09:58:31.226Z</time>
      </trkpt>
      <trkpt lat="42.41673" lon="23.12631">
        <ele>700.658871</ele>
        <time>2022-04-05T09:58:34.236Z</time>
      </trkpt>
      <trkpt lat="42.41663" lon="23.12638">
        <ele>700.497294</ele>
        <time>2022-04-05T09:58:37.237Z</time>
      </trkpt>
      <trkpt lat="42.41653" lon="23.12644">
        <ele>700.327173</ele>
        <time>2022-04-05T09:58:40.239Z</time>
      </trkpt>
      <trkpt lat="42.41642" lon="23.12651">
        <ele>700.153882</ele>
        <time>2022-04-05T09:58:43.231Z</time>
      </trkpt>
      <trkpt lat="42.41632" lon="23.12658">
        <ele>699.972822</ele>
        <time>2022-04-05T09:58:46.234Z</time>
      </trkpt>
      <trkpt lat="42.4162" lon="23.12665">
        <ele>699.789547</ele>
        <time>2022-04-05T09:58:49.241Z</time>
      </trkpt>
      <trkpt lat="42.41609" lon="23.12673">
        <ele>699.603009</ele>
        <time>2022-04-05T09:58:52.214Z</time>
      </trkpt>
      <trkpt lat="42.41598" lon="23.12681">
        <ele>699.411823</ele>
        <time>2022-04-05T09:58:55.223Z</time>
      </trkpt>
      <trkpt lat="42.41586" lon="23.12689">
        <ele>699.237124</ele>
        <time>2022-04-05T09:58:58.219Z</time>
      </trkpt>
      <trkpt lat="42.41578" lon="23.12695">
        <ele>699.223903</ele>
        <time>2022-04-05T09:59:00.234Z</time>
      </trkpt>
      <trkpt lat="42.41569" lon="23.12701">
        <ele>699.210584</ele>
        <time>2022-04-05T09:59:02.237Z</time>
      </trkpt>
      <trkpt lat="42.41561" lon="23.12708">
        <ele>699.197215</ele>
        <time>2022-04-05T09:59:04.261Z</time>
      </trkpt>
      <trkpt lat="42.41553" lon="23.12714">
        <ele>699.18369</ele>
        <time>2022-04-05T09:59:06.226Z</time>
      </trkpt>
      <trkpt lat="42.41544" lon="23.12721">
        <ele>699.169851</ele>
        <time>2022-04-05T09:59:08.241Z</time>
      </trkpt>
      <trkpt lat="42.41535" lon="23.12728">
        <ele>699.155753</ele>
        <time>2022-04-05T09:59:10.227Z</time>
      </trkpt>
      <trkpt lat="42.41527" lon="23.12735">
        <ele>699.141774</ele>
        <time>2022-04-05T09:59:12.229Z</time>
      </trkpt>
      <trkpt lat="42.41518" lon="23.12743">
        <ele>699.127405</ele>
        <time>2022-04-05T09:59:14.235Z</time>
      </trkpt>
      <trkpt lat="42.4151" lon="23.1275">
        <ele>699.112861</ele>
        <time>2022-04-05T09:59:16.222Z</time>
      </trkpt>
      <trkpt lat="42.41501" lon="23.12758">
        <ele>699.098012</ele>
        <time>2022-04-05T09:59:18.246Z</time>
      </trkpt>
      <trkpt lat="42.41492" lon="23.12765">
        <ele>699.083465</ele>
        <time>2022-04-05T09:59:20.229Z</time>
      </trkpt>
      <trkpt lat="42.41483" lon="23.12773">
        <ele>699.068513</ele>
        <time>2022-04-05T09:59:22.217Z</time>
      </trkpt>
      <trkpt lat="42.41474" lon="23.12781">
        <ele>699.054012</ele>
        <time>2022-04-05T09:59:24.237Z</time>
      </trkpt>
      <trkpt lat="42.41466" lon="23.12788">
        <ele>699.039793</ele>
        <time>2022-04-05T09:59:26.243Z</time>
      </trkpt>
      <trkpt lat="42.41457" lon="23.12795">
        <ele>699.025942</ele>
        <time>2022-04-05T09:59:28.220Z</time>
      </trkpt>
      <trkpt lat="42.41449" lon="23.12802">
        <ele>699.011974</ele>
        <time>2022-04-05T09:59:30.239Z</time>
      </trkpt>
      <trkpt lat="42.41441" lon="23.12809">
        <ele>698.99818</ele>
        <time>2022-04-05T09:59:32.232Z</time>
      </trkpt>
      <trkpt lat="42.41433" lon="23.12816">
        <ele>699.034145</ele>
        <time>2022-04-05T09:59:34.217Z</time>
      </trkpt>
      <trkpt lat="42.41425" lon="23.12823">
        <ele>699.300757</ele>
        <time>2022-04-05T09:59:36.256Z</time>
      </trkpt>
      <trkpt lat="42.41417" lon="23.1283">
        <ele>699.569498</ele>
        <time>2022-04-05T09:59:38.236Z</time>
      </trkpt>
      <trkpt lat="42.41409" lon="23.12837">
        <ele>699.83357</ele>
        <time>2022-04-05T09:59:40.234Z</time>
      </trkpt>
      <trkpt lat="42.41401" lon="23.12843">
        <ele>700.092988</ele>
        <time>2022-04-05T09:59:42.265Z</time>
      </trkpt>
      <trkpt lat="42.41394" lon="23.1285">
        <ele>700.350168</ele>
        <time>2022-04-05T09:59:44.245Z</time>
      </trkpt>
      <trkpt lat="42.41386" lon="23.12856">
        <ele>700.606247</ele>
        <time>2022-04-05T09:59:46.214Z</time>
      </trkpt>
      <trkpt lat="42.41375" lon="23.12866">
        <ele>700.984116</ele>
        <time>2022-04-05T09:59:49.219Z</time>
      </trkpt>
      <trkpt lat="42.41364" lon="23.12876">
        <ele>701.36797</ele>
        <time>2022-04-05T09:59:52.217Z</time>
      </trkpt>
      <trkpt lat="42.41356" lon="23.12883">
        <ele>701.625008</ele>
        <time>2022-04-05T09:59:54.231Z</time>
      </trkpt>
      <trkpt lat="42.41346" lon="23.12892">
        <ele>701.972599</ele>
        <time>2022-04-05T09:59:57.231Z</time>
      </trkpt>
      <trkpt lat="42.41334" lon="23.12902">
        <ele>702.364751</ele>
        <time>2022-04-05T10:00:00.238Z</time>
      </trkpt>
      <trkpt lat="42.41325" lon="23.1291">
        <ele>702.659339</ele>
        <time>2022-04-05T10:00:02.236Z</time>
      </trkpt>
      <trkpt lat="42.41317" lon="23.12916">
        <ele>702.928367</ele>
        <time>2022-04-05T10:00:04.257Z</time>
      </trkpt>
      <trkpt lat="42.41306" lon="23.12927">
        <ele>703.308617</ele>
        <time>2022-04-05T10:00:07.255Z</time>
      </trkpt>
      <trkpt lat="42.41296" lon="23.12936">
        <ele>703.666541</ele>
        <time>2022-04-05T10:00:10.226Z</time>
      </trkpt>
      <trkpt lat="42.41285" lon="23.12945">
        <ele>704.017499</ele>
        <time>2022-04-05T10:00:13.225Z</time>
      </trkpt>
      <trkpt lat="42.41275" lon="23.12955">
        <ele>704.222122</ele>
        <time>2022-04-05T10:00:16.223Z</time>
      </trkpt>
      <trkpt lat="42.41267" lon="23.12967">
        <ele>704.382857</ele>
        <time>2022-04-05T10:00:19.240Z</time>
      </trkpt>
      <trkpt lat="42.41259" lon="23.12978">
        <ele>704.545176</ele>
        <time>2022-04-05T10:00:22.219Z</time>
      </trkpt>
      <trkpt lat="42.41248" lon="23.12986">
        <ele>704.711541</ele>
        <time>2022-04-05T10:00:25.211Z</time>
      </trkpt>
      <trkpt lat="42.41236" lon="23.12992">
        <ele>704.880969</ele>
        <time>2022-04-05T10:00:28.221Z</time>
      </trkpt>
      <trkpt lat="42.41225" lon="23.13">
        <ele>705.05041</ele>
        <time>2022-04-05T10:00:31.229Z</time>
      </trkpt>
      <trkpt lat="42.41215" lon="23.13009">
        <ele>705.221988</ele>
        <time>2022-04-05T10:00:34.221Z</time>
      </trkpt>
      <trkpt lat="42.41204" lon="23.13017">
        <ele>705.388186</ele>
        <time>2022-04-05T10:00:37.221Z</time>
      </trkpt>
      <trkpt lat="42.41197" lon="23.13024">
        <ele>705.511225</ele>
        <time>2022-04-05T10:00:39.237Z</time>
      </trkpt>
      <trkpt lat="42.41189" lon="23.1303">
        <ele>705.636036</ele>
        <time>2022-04-05T10:00:41.240Z</time>
      </trkpt>
      <trkpt lat="42.41181" lon="23.13037">
        <ele>705.762011</ele>
        <time>2022-04-05T10:00:43.215Z</time>
      </trkpt>
      <trkpt lat="42.41173" lon="23.13043">
        <ele>705.884262</ele>
        <time>2022-04-05T10:00:45.240Z</time>
      </trkpt>
      <trkpt lat="42.41161" lon="23.13051">
        <ele>706.065206</ele>
        <time>2022-04-05T10:00:48.247Z</time>
      </trkpt>
      <trkpt lat="42.4115" lon="23.13059">
        <ele>706.242157</ele>
        <time>2022-04-05T10:00:51.239Z</time>
      </trkpt>
      <trkpt lat="42.41142" lon="23.13064">
        <ele>706.365131</ele>
        <time>2022-04-05T10:00:53.238Z</time>
      </trkpt>
      <trkpt lat="42.41133" lon="23.13069">
        <ele>706.493684</ele>
        <time>2022-04-05T10:00:55.221Z</time>
      </trkpt>
      <trkpt lat="42.41124" lon="23.13073">
        <ele>706.606639</ele>
        <time>2022-04-05T10:00:57.267Z</time>
      </trkpt>
      <trkpt lat="42.41111" lon="23.13078">
        <ele>706.764998</ele>
        <time>2022-04-05T10:01:00.288Z</time>
      </trkpt>
      <trkpt lat="42.41098" lon="23.13083">
        <ele>706.921234</ele>
        <time>2022-04-05T10:01:03.228Z</time>
      </trkpt>
      <trkpt lat="42.41086" lon="23.13087">
        <ele>707.07477</ele>
        <time>2022-04-05T10:01:06.243Z</time>
      </trkpt>
      <trkpt lat="42.41073" lon="23.13092">
        <ele>707.229444</ele>
        <time>2022-04-05T10:01:09.251Z</time>
      </trkpt>
      <trkpt lat="42.4106" lon="23.13094">
        <ele>707.378186</ele>
        <time>2022-04-05T10:01:12.229Z</time>
      </trkpt>
      <trkpt lat="42.41049" lon="23.13098">
        <ele>707.519162</ele>
        <time>2022-04-05T10:01:15.239Z</time>
      </trkpt>
      <trkpt lat="42.41037" lon="23.13099">
        <ele>707.660353</ele>
        <time>2022-04-05T10:01:18.234Z</time>
      </trkpt>
      <trkpt lat="42.41025" lon="23.131">
        <ele>707.801617</ele>
        <time>2022-04-05T10:01:21.244Z</time>
      </trkpt>
      <trkpt lat="42.41011" lon="23.13101">
        <ele>707.960037</ele>
        <time>2022-04-05T10:01:24.231Z</time>
      </trkpt>
      <trkpt lat="42.40998" lon="23.13101">
        <ele>708.114854</ele>
        <time>2022-04-05T10:01:27.231Z</time>
      </trkpt>
      <trkpt lat="42.40989" lon="23.131">
        <ele>708.22164</ele>
        <time>2022-04-05T10:01:29.250Z</time>
      </trkpt>
      <trkpt lat="42.4098" lon="23.131">
        <ele>708.328425</ele>
        <time>2022-04-05T10:01:31.223Z</time>
      </trkpt>
      <trkpt lat="42.40966" lon="23.131">
        <ele>708.484475</ele>
        <time>2022-04-05T10:01:34.218Z</time>
      </trkpt>
      <trkpt lat="42.40954" lon="23.13098">
        <ele>708.634959</ele>
        <time>2022-04-05T10:01:37.232Z</time>
      </trkpt>
      <trkpt lat="42.40941" lon="23.13096">
        <ele>708.501597</ele>
        <time>2022-04-05T10:01:40.270Z</time>
      </trkpt>
      <trkpt lat="42.40928" lon="23.13094">
        <ele>708.349357</ele>
        <time>2022-04-05T10:01:43.220Z</time>
      </trkpt>
      <trkpt lat="42.40916" lon="23.13091">
        <ele>708.20453</ele>
        <time>2022-04-05T10:01:46.275Z</time>
      </trkpt>
      <trkpt lat="42.40904" lon="23.13086">
        <ele>708.053243</ele>
        <time>2022-04-05T10:01:49.229Z</time>
      </trkpt>
      <trkpt lat="42.40891" lon="23.13081">
        <ele>707.897297</ele>
        <time>2022-04-05T10:01:52.242Z</time>
      </trkpt>
      <trkpt lat="42.40879" lon="23.13077">
        <ele>707.748317</ele>
        <time>2022-04-05T10:01:55.256Z</time>
      </trkpt>
      <trkpt lat="42.40868" lon="23.13072">
        <ele>707.607762</ele>
        <time>2022-04-05T10:01:58.253Z</time>
      </trkpt>
      <trkpt lat="42.40857" lon="23.13066">
        <ele>707.463176</ele>
        <time>2022-04-05T10:02:01.233Z</time>
      </trkpt>
      <trkpt lat="42.40845" lon="23.13061">
        <ele>707.315229</ele>
        <time>2022-04-05T10:02:04.227Z</time>
      </trkpt>
      <trkpt lat="42.40834" lon="23.13054">
        <ele>707.169683</ele>
        <time>2022-04-05T10:02:07.237Z</time>
      </trkpt>
      <trkpt lat="42.40822" lon="23.13049">
        <ele>707.019488</ele>
        <time>2022-04-05T10:02:10.223Z</time>
      </trkpt>
      <trkpt lat="42.4081" lon="23.13043">
        <ele>706.865919</ele>
        <time>2022-04-05T10:02:13.232Z</time>
      </trkpt>
      <trkpt lat="42.40798" lon="23.13037">
        <ele>706.712345</ele>
        <time>2022-04-05T10:02:16.224Z</time>
      </trkpt>
      <trkpt lat="42.40786" lon="23.13032">
        <ele>706.559635</ele>
        <time>2022-04-05T10:02:19.282Z</time>
      </trkpt>
      <trkpt lat="42.40774" lon="23.13026">
        <ele>706.440083</ele>
        <time>2022-04-05T10:02:22.230Z</time>
      </trkpt>
      <trkpt lat="42.40761" lon="23.13021">
        <ele>706.345687</ele>
        <time>2022-04-05T10:02:25.229Z</time>
      </trkpt>
      <trkpt lat="42.40749" lon="23.13016">
        <ele>706.253886</ele>
        <time>2022-04-05T10:02:28.235Z</time>
      </trkpt>
      <trkpt lat="42.40737" lon="23.1301">
        <ele>706.164307</ele>
        <time>2022-04-05T10:02:31.234Z</time>
      </trkpt>
      <trkpt lat="42.40726" lon="23.13005">
        <ele>706.076268</ele>
        <time>2022-04-05T10:02:34.241Z</time>
      </trkpt>
      <trkpt lat="42.40714" lon="23.13">
        <ele>705.988063</ele>
        <time>2022-04-05T10:02:37.237Z</time>
      </trkpt>
      <trkpt lat="42.40702" lon="23.12995">
        <ele>705.900186</ele>
        <time>2022-04-05T10:02:40.238Z</time>
      </trkpt>
      <trkpt lat="42.40691" lon="23.1299">
        <ele>705.815909</ele>
        <time>2022-04-05T10:02:43.237Z</time>
      </trkpt>
      <trkpt lat="42.4068" lon="23.12985">
        <ele>705.728556</ele>
        <time>2022-04-05T10:02:46.236Z</time>
      </trkpt>
      <trkpt lat="42.40668" lon="23.1298">
        <ele>705.639616</ele>
        <time>2022-04-05T10:02:49.233Z</time>
      </trkpt>
      <trkpt lat="42.40656" lon="23.12975">
        <ele>705.548164</ele>
        <time>2022-04-05T10:02:52.242Z</time>
      </trkpt>
      <trkpt lat="42.40645" lon="23.12969">
        <ele>705.460301</ele>
        <time>2022-04-05T10:02:55.245Z</time>
      </trkpt>
      <trkpt lat="42.40632" lon="23.12964">
        <ele>705.365587</ele>
        <time>2022-04-05T10:02:58.244Z</time>
      </trkpt>
      <trkpt lat="42.4062" lon="23.12958">
        <ele>705.27362</ele>
        <time>2022-04-05T10:03:01.268Z</time>
      </trkpt>
      <trkpt lat="42.40608" lon="23.12953">
        <ele>705.171879</ele>
        <time>2022-04-05T10:03:04.259Z</time>
      </trkpt>
      <trkpt lat="42.40595" lon="23.12948">
        <ele>705.028467</ele>
        <time>2022-04-05T10:03:07.219Z</time>
      </trkpt>
      <trkpt lat="42.40584" lon="23.12942">
        <ele>704.888782</ele>
        <time>2022-04-05T10:03:10.248Z</time>
      </trkpt>
      <trkpt lat="42.40572" lon="23.12937">
        <ele>704.751204</ele>
        <time>2022-04-05T10:03:13.238Z</time>
      </trkpt>
      <trkpt lat="42.4056" lon="23.12932">
        <ele>704.613359</ele>
        <time>2022-04-05T10:03:16.231Z</time>
      </trkpt>
      <trkpt lat="42.40549" lon="23.12927">
        <ele>704.480294</ele>
        <time>2022-04-05T10:03:19.237Z</time>
      </trkpt>
      <trkpt lat="42.40538" lon="23.12921">
        <ele>704.350661</ele>
        <time>2022-04-05T10:03:22.238Z</time>
      </trkpt>
      <trkpt lat="42.40527" lon="23.12916">
        <ele>704.220249</ele>
        <time>2022-04-05T10:03:25.249Z</time>
      </trkpt>
      <trkpt lat="42.40516" lon="23.12911">
        <ele>704.086926</ele>
        <time>2022-04-05T10:03:28.245Z</time>
      </trkpt>
      <trkpt lat="42.40504" lon="23.12907">
        <ele>703.953386</ele>
        <time>2022-04-05T10:03:31.238Z</time>
      </trkpt>
      <trkpt lat="42.40493" lon="23.12902">
        <ele>703.820859</ele>
        <time>2022-04-05T10:03:34.237Z</time>
      </trkpt>
      <trkpt lat="42.40481" lon="23.12895">
        <ele>703.674933</ele>
        <time>2022-04-05T10:03:37.243Z</time>
      </trkpt>
      <trkpt lat="42.40469" lon="23.12889">
        <ele>703.530454</ele>
        <time>2022-04-05T10:03:40.240Z</time>
      </trkpt>
      <trkpt lat="42.40457" lon="23.12884">
        <ele>703.38971</ele>
        <time>2022-04-05T10:03:43.231Z</time>
      </trkpt>
      <trkpt lat="42.40446" lon="23.12879">
        <ele>703.261954</ele>
        <time>2022-04-05T10:03:46.239Z</time>
      </trkpt>
      <trkpt lat="42.40435" lon="23.12874">
        <ele>703.226005</ele>
        <time>2022-04-05T10:03:49.244Z</time>
      </trkpt>
      <trkpt lat="42.40423" lon="23.12868">
        <ele>703.33331</ele>
        <time>2022-04-05T10:03:52.244Z</time>
      </trkpt>
      <trkpt lat="42.40411" lon="23.12863">
        <ele>703.438809</ele>
        <time>2022-04-05T10:03:55.239Z</time>
      </trkpt>
      <trkpt lat="42.40399" lon="23.12857">
        <ele>703.541114</ele>
        <time>2022-04-05T10:03:58.230Z</time>
      </trkpt>
      <trkpt lat="42.40387" lon="23.12851">
        <ele>703.64863</ele>
        <time>2022-04-05T10:04:01.257Z</time>
      </trkpt>
      <trkpt lat="42.40375" lon="23.12846">
        <ele>703.754325</ele>
        <time>2022-04-05T10:04:04.242Z</time>
      </trkpt>
      <trkpt lat="42.40365" lon="23.1284">
        <ele>703.850711</ele>
        <time>2022-04-05T10:04:07.231Z</time>
      </trkpt>
      <trkpt lat="42.40353" lon="23.12835">
        <ele>703.951044</ele>
        <time>2022-04-05T10:04:10.233Z</time>
      </trkpt>
      <trkpt lat="42.40342" lon="23.1283">
        <ele>704.054147</ele>
        <time>2022-04-05T10:04:13.251Z</time>
      </trkpt>
      <trkpt lat="42.4033" lon="23.12824">
        <ele>704.156654</ele>
        <time>2022-04-05T10:04:16.218Z</time>
      </trkpt>
      <trkpt lat="42.40319" lon="23.12819">
        <ele>704.260956</ele>
        <time>2022-04-05T10:04:19.242Z</time>
      </trkpt>
      <trkpt lat="42.40307" lon="23.12813">
        <ele>704.365464</ele>
        <time>2022-04-05T10:04:22.253Z</time>
      </trkpt>
      <trkpt lat="42.40296" lon="23.12808">
        <ele>704.465018</ele>
        <time>2022-04-05T10:04:25.294Z</time>
      </trkpt>
      <trkpt lat="42.40284" lon="23.12803">
        <ele>704.568919</ele>
        <time>2022-04-05T10:04:28.261Z</time>
      </trkpt>
      <trkpt lat="42.40272" lon="23.12798">
        <ele>704.671824</ele>
        <time>2022-04-05T10:04:31.233Z</time>
      </trkpt>
      <trkpt lat="42.40261" lon="23.12793">
        <ele>704.867271</ele>
        <time>2022-04-05T10:04:34.275Z</time>
      </trkpt>
      <trkpt lat="42.40249" lon="23.12788">
        <ele>705.084605</ele>
        <time>2022-04-05T10:04:37.237Z</time>
      </trkpt>
      <trkpt lat="42.40238" lon="23.12783">
        <ele>705.296787</ele>
        <time>2022-04-05T10:04:40.271Z</time>
      </trkpt>
      <trkpt lat="42.40228" lon="23.12779">
        <ele>705.503273</ele>
        <time>2022-04-05T10:04:43.255Z</time>
      </trkpt>
      <trkpt lat="42.40216" lon="23.12774">
        <ele>705.725082</ele>
        <time>2022-04-05T10:04:46.272Z</time>
      </trkpt>
      <trkpt lat="42.40205" lon="23.1277">
        <ele>705.947521</ele>
        <time>2022-04-05T10:04:49.240Z</time>
      </trkpt>
      <trkpt lat="42.40193" lon="23.12766">
        <ele>706.16907</ele>
        <time>2022-04-05T10:04:52.231Z</time>
      </trkpt>
      <trkpt lat="42.40182" lon="23.12761">
        <ele>706.38775</ele>
        <time>2022-04-05T10:04:55.233Z</time>
      </trkpt>
      <trkpt lat="42.4017" lon="23.12756">
        <ele>706.613808</ele>
        <time>2022-04-05T10:04:58.223Z</time>
      </trkpt>
      <trkpt lat="42.40159" lon="23.12752">
        <ele>706.83447</ele>
        <time>2022-04-05T10:05:01.228Z</time>
      </trkpt>
      <trkpt lat="42.40147" lon="23.12747">
        <ele>707.051581</ele>
        <time>2022-04-05T10:05:04.241Z</time>
      </trkpt>
      <trkpt lat="42.40136" lon="23.12743">
        <ele>707.271517</ele>
        <time>2022-04-05T10:05:07.240Z</time>
      </trkpt>
      <trkpt lat="42.40124" lon="23.12738">
        <ele>707.499326</ele>
        <time>2022-04-05T10:05:10.239Z</time>
      </trkpt>
      <trkpt lat="42.40111" lon="23.12733">
        <ele>707.743861</ele>
        <time>2022-04-05T10:05:13.249Z</time>
      </trkpt>
      <trkpt lat="42.40102" lon="23.1273">
        <ele>707.91247</ele>
        <time>2022-04-05T10:05:15.238Z</time>
      </trkpt>
      <trkpt lat="42.4009" lon="23.12725">
        <ele>707.982264</ele>
        <time>2022-04-05T10:05:18.237Z</time>
      </trkpt>
      <trkpt lat="42.40081" lon="23.12722">
        <ele>707.937011</ele>
        <time>2022-04-05T10:05:20.225Z</time>
      </trkpt>
      <trkpt lat="42.40069" lon="23.12717">
        <ele>707.87425</ele>
        <time>2022-04-05T10:05:23.240Z</time>
      </trkpt>
      <trkpt lat="42.40057" lon="23.12712">
        <ele>707.813293</ele>
        <time>2022-04-05T10:05:26.237Z</time>
      </trkpt>
      <trkpt lat="42.40046" lon="23.12708">
        <ele>707.756653</ele>
        <time>2022-04-05T10:05:29.229Z</time>
      </trkpt>
      <trkpt lat="42.40036" lon="23.12704">
        <ele>707.70443</ele>
        <time>2022-04-05T10:05:32.235Z</time>
      </trkpt>
      <trkpt lat="42.40025" lon="23.127">
        <ele>707.650358</ele>
        <time>2022-04-05T10:05:35.232Z</time>
      </trkpt>
      <trkpt lat="42.40015" lon="23.12696">
        <ele>707.597832</ele>
        <time>2022-04-05T10:05:38.217Z</time>
      </trkpt>
      <trkpt lat="42.40005" lon="23.12692">
        <ele>707.542821</ele>
        <time>2022-04-05T10:05:41.244Z</time>
      </trkpt>
      <trkpt lat="42.39992" lon="23.12687">
        <ele>707.478329</ele>
        <time>2022-04-05T10:05:44.235Z</time>
      </trkpt>
      <trkpt lat="42.3998" lon="23.12683">
        <ele>707.416239</ele>
        <time>2022-04-05T10:05:47.241Z</time>
      </trkpt>
      <trkpt lat="42.3997" lon="23.12679">
        <ele>707.366489</ele>
        <time>2022-04-05T10:05:50.230Z</time>
      </trkpt>
      <trkpt lat="42.3996" lon="23.12676">
        <ele>707.313199</ele>
        <time>2022-04-05T10:05:53.283Z</time>
      </trkpt>
      <trkpt lat="42.3995" lon="23.12672">
        <ele>707.262876</ele>
        <time>2022-04-05T10:05:56.234Z</time>
      </trkpt>
      <trkpt lat="42.39939" lon="23.12668">
        <ele>707.207482</ele>
        <time>2022-04-05T10:05:59.218Z</time>
      </trkpt>
      <trkpt lat="42.39928" lon="23.12664">
        <ele>707.149887</ele>
        <time>2022-04-05T10:06:02.237Z</time>
      </trkpt>
      <trkpt lat="42.39917" lon="23.1266">
        <ele>707.09403</ele>
        <time>2022-04-05T10:06:05.246Z</time>
      </trkpt>
      <trkpt lat="42.39906" lon="23.12656">
        <ele>707.03608</ele>
        <time>2022-04-05T10:06:08.255Z</time>
      </trkpt>
      <trkpt lat="42.39895" lon="23.12652">
        <ele>706.979466</ele>
        <time>2022-04-05T10:06:11.223Z</time>
      </trkpt>
      <trkpt lat="42.39884" lon="23.12648">
        <ele>706.922852</ele>
        <time>2022-04-05T10:06:14.232Z</time>
      </trkpt>
      <trkpt lat="42.39873" lon="23.12644">
        <ele>706.866138</ele>
        <time>2022-04-05T10:06:17.271Z</time>
      </trkpt>
      <trkpt lat="42.39862" lon="23.1264">
        <ele>706.811053</ele>
        <time>2022-04-05T10:06:20.246Z</time>
      </trkpt>
      <trkpt lat="42.39852" lon="23.12636">
        <ele>706.757397</ele>
        <time>2022-04-05T10:06:23.230Z</time>
      </trkpt>
      <trkpt lat="42.39842" lon="23.12632">
        <ele>706.706015</ele>
        <time>2022-04-05T10:06:26.271Z</time>
      </trkpt>
      <trkpt lat="42.39831" lon="23.12628">
        <ele>706.652514</ele>
        <time>2022-04-05T10:06:29.243Z</time>
      </trkpt>
      <trkpt lat="42.39821" lon="23.12624">
        <ele>706.597805</ele>
        <time>2022-04-05T10:06:32.284Z</time>
      </trkpt>
      <trkpt lat="42.39811" lon="23.12621">
        <ele>706.547301</ele>
        <time>2022-04-05T10:06:35.254Z</time>
      </trkpt>
      <trkpt lat="42.39801" lon="23.12617">
        <ele>706.498626</ele>
        <time>2022-04-05T10:06:38.220Z</time>
      </trkpt>
      <trkpt lat="42.39791" lon="23.12613">
        <ele>706.443125</ele>
        <time>2022-04-05T10:06:41.237Z</time>
      </trkpt>
      <trkpt lat="42.3978" lon="23.12608">
        <ele>706.386411</ele>
        <time>2022-04-05T10:06:44.260Z</time>
      </trkpt>
      <trkpt lat="42.39769" lon="23.12605">
        <ele>706.334484</ele>
        <time>2022-04-05T10:06:47.240Z</time>
      </trkpt>
      <trkpt lat="42.3976" lon="23.12601">
        <ele>706.286094</ele>
        <time>2022-04-05T10:06:50.239Z</time>
      </trkpt>
      <trkpt lat="42.39751" lon="23.12597">
        <ele>706.23818</ele>
        <time>2022-04-05T10:06:53.239Z</time>
      </trkpt>
      <trkpt lat="42.39741" lon="23.12594">
        <ele>706.274994</ele>
        <time>2022-04-05T10:06:56.234Z</time>
      </trkpt>
      <trkpt lat="42.39732" lon="23.1259">
        <ele>706.315592</ele>
        <time>2022-04-05T10:06:59.251Z</time>
      </trkpt>
      <trkpt lat="42.39722" lon="23.12586">
        <ele>706.356802</ele>
        <time>2022-04-05T10:07:02.236Z</time>
      </trkpt>
      <trkpt lat="42.39712" lon="23.12582">
        <ele>706.398438</ele>
        <time>2022-04-05T10:07:05.269Z</time>
      </trkpt>
      <trkpt lat="42.39702" lon="23.12576">
        <ele>706.443829</ele>
        <time>2022-04-05T10:07:08.234Z</time>
      </trkpt>
      <trkpt lat="42.39692" lon="23.12571">
        <ele>706.487112</ele>
        <time>2022-04-05T10:07:11.224Z</time>
      </trkpt>
      <trkpt lat="42.39682" lon="23.12567">
        <ele>706.527782</ele>
        <time>2022-04-05T10:07:14.243Z</time>
      </trkpt>
      <trkpt lat="42.39673" lon="23.12561">
        <ele>706.567661</ele>
        <time>2022-04-05T10:07:17.241Z</time>
      </trkpt>
      <trkpt lat="42.39665" lon="23.12557">
        <ele>706.604851</ele>
        <time>2022-04-05T10:07:20.238Z</time>
      </trkpt>
      <trkpt lat="42.39656" lon="23.12551">
        <ele>706.64215</ele>
        <time>2022-04-05T10:07:23.248Z</time>
      </trkpt>
      <trkpt lat="42.39648" lon="23.12546">
        <ele>706.680076</ele>
        <time>2022-04-05T10:07:26.254Z</time>
      </trkpt>
      <trkpt lat="42.3964" lon="23.1254">
        <ele>706.717119</ele>
        <time>2022-04-05T10:07:29.234Z</time>
      </trkpt>
      <trkpt lat="42.39631" lon="23.12532">
        <ele>706.759962</ele>
        <time>2022-04-05T10:07:32.236Z</time>
      </trkpt>
      <trkpt lat="42.39622" lon="23.12525">
        <ele>706.803208</ele>
        <time>2022-04-05T10:07:35.245Z</time>
      </trkpt>
      <trkpt lat="42.39612" lon="23.12518">
        <ele>706.845664</ele>
        <time>2022-04-05T10:07:38.231Z</time>
      </trkpt>
      <trkpt lat="42.39604" lon="23.12511">
        <ele>706.886249</ele>
        <time>2022-04-05T10:07:41.240Z</time>
      </trkpt>
      <trkpt lat="42.39596" lon="23.12504">
        <ele>706.926016</ele>
        <time>2022-04-05T10:07:44.234Z</time>
      </trkpt>
      <trkpt lat="42.39587" lon="23.12497">
        <ele>706.959203</ele>
        <time>2022-04-05T10:07:47.229Z</time>
      </trkpt>
      <trkpt lat="42.39578" lon="23.12489">
        <ele>706.862818</ele>
        <time>2022-04-05T10:07:50.243Z</time>
      </trkpt>
      <trkpt lat="42.3957" lon="23.12482">
        <ele>706.766254</ele>
        <time>2022-04-05T10:07:53.234Z</time>
      </trkpt>
      <trkpt lat="42.3956" lon="23.12475">
        <ele>706.666522</ele>
        <time>2022-04-05T10:07:56.243Z</time>
      </trkpt>
      <trkpt lat="42.39551" lon="23.12468">
        <ele>706.563447</ele>
        <time>2022-04-05T10:07:59.219Z</time>
      </trkpt>
      <trkpt lat="42.39542" lon="23.1246">
        <ele>706.461919</ele>
        <time>2022-04-05T10:08:02.236Z</time>
      </trkpt>
      <trkpt lat="42.39533" lon="23.12453">
        <ele>706.361835</ele>
        <time>2022-04-05T10:08:05.232Z</time>
      </trkpt>
      <trkpt lat="42.39524" lon="23.12445">
        <ele>706.259861</ele>
        <time>2022-04-05T10:08:08.256Z</time>
      </trkpt>
      <trkpt lat="42.39515" lon="23.12438">
        <ele>706.157072</ele>
        <time>2022-04-05T10:08:11.249Z</time>
      </trkpt>
      <trkpt lat="42.39506" lon="23.1243">
        <ele>706.05672</ele>
        <time>2022-04-05T10:08:14.271Z</time>
      </trkpt>
      <trkpt lat="42.39497" lon="23.12423">
        <ele>705.961436</ele>
        <time>2022-04-05T10:08:17.243Z</time>
      </trkpt>
      <trkpt lat="42.39488" lon="23.12415">
        <ele>705.859965</ele>
        <time>2022-04-05T10:08:20.240Z</time>
      </trkpt>
      <trkpt lat="42.39479" lon="23.12408">
        <ele>705.758351</ele>
        <time>2022-04-05T10:08:23.225Z</time>
      </trkpt>
      <trkpt lat="42.39469" lon="23.12401">
        <ele>705.655647</ele>
        <time>2022-04-05T10:08:26.258Z</time>
      </trkpt>
      <trkpt lat="42.39461" lon="23.12394">
        <ele>705.560363</ele>
        <time>2022-04-05T10:08:29.215Z</time>
      </trkpt>
      <trkpt lat="42.39452" lon="23.12387">
        <ele>705.461913</ele>
        <time>2022-04-05T10:08:32.267Z</time>
      </trkpt>
      <trkpt lat="42.39443" lon="23.1238">
        <ele>705.366265</ele>
        <time>2022-04-05T10:08:35.252Z</time>
      </trkpt>
      <trkpt lat="42.39434" lon="23.12372">
        <ele>705.263927</ele>
        <time>2022-04-05T10:08:38.235Z</time>
      </trkpt>
      <trkpt lat="42.39425" lon="23.12365">
        <ele>705.445526</ele>
        <time>2022-04-05T10:08:41.262Z</time>
      </trkpt>
      <trkpt lat="42.39417" lon="23.12359">
        <ele>705.644601</ele>
        <time>2022-04-05T10:08:44.231Z</time>
      </trkpt>
      <trkpt lat="42.39408" lon="23.12352">
        <ele>705.852208</ele>
        <time>2022-04-05T10:08:47.237Z</time>
      </trkpt>
      <trkpt lat="42.39399" lon="23.12345">
        <ele>706.057095</ele>
        <time>2022-04-05T10:08:50.238Z</time>
      </trkpt>
      <trkpt lat="42.39391" lon="23.12338">
        <ele>706.250035</ele>
        <time>2022-04-05T10:08:53.257Z</time>
      </trkpt>
      <trkpt lat="42.39383" lon="23.12331">
        <ele>706.457906</ele>
        <time>2022-04-05T10:08:56.240Z</time>
      </trkpt>
      <trkpt lat="42.39373" lon="23.12324">
        <ele>706.675819</ele>
        <time>2022-04-05T10:08:59.233Z</time>
      </trkpt>
      <trkpt lat="42.39365" lon="23.12317">
        <ele>706.879159</ele>
        <time>2022-04-05T10:09:02.241Z</time>
      </trkpt>
      <trkpt lat="42.39356" lon="23.1231">
        <ele>707.079793</ele>
        <time>2022-04-05T10:09:05.235Z</time>
      </trkpt>
      <trkpt lat="42.39347" lon="23.12302">
        <ele>707.296493</ele>
        <time>2022-04-05T10:09:08.251Z</time>
      </trkpt>
      <trkpt lat="42.39338" lon="23.12295">
        <ele>707.501586</ele>
        <time>2022-04-05T10:09:11.234Z</time>
      </trkpt>
      <trkpt lat="42.39329" lon="23.12288">
        <ele>707.715517</ele>
        <time>2022-04-05T10:09:14.236Z</time>
      </trkpt>
      <trkpt lat="42.3932" lon="23.12281">
        <ele>707.935199</ele>
        <time>2022-04-05T10:09:17.237Z</time>
      </trkpt>
      <trkpt lat="42.39311" lon="23.12274">
        <ele>708.147076</ele>
        <time>2022-04-05T10:09:20.280Z</time>
      </trkpt>
      <trkpt lat="42.39303" lon="23.12268">
        <ele>708.342871</ele>
        <time>2022-04-05T10:09:23.240Z</time>
      </trkpt>
      <trkpt lat="42.39294" lon="23.12261">
        <ele>708.543696</ele>
        <time>2022-04-05T10:09:26.233Z</time>
      </trkpt>
      <trkpt lat="42.39285" lon="23.12254">
        <ele>708.760134</ele>
        <time>2022-04-05T10:09:29.226Z</time>
      </trkpt>
      <trkpt lat="42.39275" lon="23.12246">
        <ele>708.915301</ele>
        <time>2022-04-05T10:09:32.237Z</time>
      </trkpt>
      <trkpt lat="42.39265" lon="23.12238">
        <ele>708.914325</ele>
        <time>2022-04-05T10:09:35.238Z</time>
      </trkpt>
      <trkpt lat="42.39256" lon="23.12231">
        <ele>708.913357</ele>
        <time>2022-04-05T10:09:38.244Z</time>
      </trkpt>
      <trkpt lat="42.39247" lon="23.12224">
        <ele>708.912452</ele>
        <time>2022-04-05T10:09:41.237Z</time>
      </trkpt>
      <trkpt lat="42.39238" lon="23.12217">
        <ele>708.911575</ele>
        <time>2022-04-05T10:09:44.249Z</time>
      </trkpt>
      <trkpt lat="42.3923" lon="23.1221">
        <ele>708.910714</ele>
        <time>2022-04-05T10:09:47.236Z</time>
      </trkpt>
      <trkpt lat="42.39222" lon="23.12202">
        <ele>708.909863</ele>
        <time>2022-04-05T10:09:50.239Z</time>
      </trkpt>
      <trkpt lat="42.39214" lon="23.12195">
        <ele>708.909034</ele>
        <time>2022-04-05T10:09:53.272Z</time>
      </trkpt>
      <trkpt lat="42.39204" lon="23.12185">
        <ele>708.907973</ele>
        <time>2022-04-05T10:09:57.235Z</time>
      </trkpt>
      <trkpt lat="42.39196" lon="23.12177">
        <ele>708.907107</ele>
        <time>2022-04-05T10:10:00.241Z</time>
      </trkpt>
      <trkpt lat="42.39189" lon="23.12168">
        <ele>708.906246</ele>
        <time>2022-04-05T10:10:03.236Z</time>
      </trkpt>
      <trkpt lat="42.39182" lon="23.1216">
        <ele>708.905418</ele>
        <time>2022-04-05T10:10:06.240Z</time>
      </trkpt>
      <trkpt lat="42.39173" lon="23.12149">
        <ele>708.90438</ele>
        <time>2022-04-05T10:10:10.237Z</time>
      </trkpt>
      <trkpt lat="42.39166" lon="23.1214">
        <ele>708.903551</ele>
        <time>2022-04-05T10:10:13.230Z</time>
      </trkpt>
      <trkpt lat="42.39159" lon="23.12131">
        <ele>708.902751</ele>
        <time>2022-04-05T10:10:16.242Z</time>
      </trkpt>
      <trkpt lat="42.39151" lon="23.1212">
        <ele>708.90173</ele>
        <time>2022-04-05T10:10:20.269Z</time>
      </trkpt>
      <trkpt lat="42.39144" lon="23.12111">
        <ele>708.900915</ele>
        <time>2022-04-05T10:10:23.256Z</time>
      </trkpt>
      <trkpt lat="42.39138" lon="23.12103">
        <ele>708.90013</ele>
        <time>2022-04-05T10:10:26.277Z</time>
      </trkpt>
      <trkpt lat="42.39129" lon="23.12091">
        <ele>709.154304</ele>
        <time>2022-04-05T10:10:30.250Z</time>
      </trkpt>
      <trkpt lat="42.39121" lon="23.1208">
        <ele>709.45752</ele>
        <time>2022-04-05T10:10:34.235Z</time>
      </trkpt>
      <trkpt lat="42.39113" lon="23.12069">
        <ele>709.756881</ele>
        <time>2022-04-05T10:10:38.237Z</time>
      </trkpt>
      <trkpt lat="42.39104" lon="23.12058">
        <ele>710.059003</ele>
        <time>2022-04-05T10:10:42.230Z</time>
      </trkpt>
      <trkpt lat="42.39096" lon="23.12048">
        <ele>710.343949</ele>
        <time>2022-04-05T10:10:46.221Z</time>
      </trkpt>
      <trkpt lat="42.39088" lon="23.12037">
        <ele>710.629758</ele>
        <time>2022-04-05T10:10:50.253Z</time>
      </trkpt>
      <trkpt lat="42.39081" lon="23.12027">
        <ele>710.906544</ele>
        <time>2022-04-05T10:10:54.234Z</time>
      </trkpt>
      <trkpt lat="42.39074" lon="23.12017">
        <ele>711.162171</ele>
        <time>2022-04-05T10:10:58.244Z</time>
      </trkpt>
      <trkpt lat="42.39067" lon="23.12007">
        <ele>711.427666</ele>
        <time>2022-04-05T10:11:02.243Z</time>
      </trkpt>
      <trkpt lat="42.3906" lon="23.11996">
        <ele>711.699049</ele>
        <time>2022-04-05T10:11:06.232Z</time>
      </trkpt>
      <trkpt lat="42.39052" lon="23.11987">
        <ele>711.961386</ele>
        <time>2022-04-05T10:11:10.255Z</time>
      </trkpt>
      <trkpt lat="42.39046" lon="23.11977">
        <ele>712.207485</ele>
        <time>2022-04-05T10:11:14.234Z</time>
      </trkpt>
      <trkpt lat="42.39038" lon="23.11968">
        <ele>712.469261</ele>
        <time>2022-04-05T10:11:18.241Z</time>
      </trkpt>
      <trkpt lat="42.39031" lon="23.11958">
        <ele>712.725286</ele>
        <time>2022-04-05T10:11:22.253Z</time>
      </trkpt>
      <trkpt lat="42.39024" lon="23.11949">
        <ele>712.978247</ele>
        <time>2022-04-05T10:11:26.283Z</time>
      </trkpt>
      <trkpt lat="42.39017" lon="23.11941">
        <ele>713.228571</ele>
        <time>2022-04-05T10:11:30.241Z</time>
      </trkpt>
      <trkpt lat="42.39009" lon="23.11931">
        <ele>713.492252</ele>
        <time>2022-04-05T10:11:34.235Z</time>
      </trkpt>
      <trkpt lat="42.39001" lon="23.11922">
        <ele>713.588937</ele>
        <time>2022-04-05T10:11:38.246Z</time>
      </trkpt>
      <trkpt lat="42.38993" lon="23.11913">
        <ele>713.653927</ele>
        <time>2022-04-05T10:11:42.242Z</time>
      </trkpt>
      <trkpt lat="42.38984" lon="23.11905">
        <ele>713.719829</ele>
        <time>2022-04-05T10:11:46.232Z</time>
      </trkpt>
      <trkpt lat="42.38975" lon="23.11896">
        <ele>713.79361</ele>
        <time>2022-04-05T10:11:50.246Z</time>
      </trkpt>
      <trkpt lat="42.38965" lon="23.11888">
        <ele>713.863279</ele>
        <time>2022-04-05T10:11:54.243Z</time>
      </trkpt>
      <trkpt lat="42.38955" lon="23.11881">
        <ele>713.935133</ele>
        <time>2022-04-05T10:11:58.241Z</time>
      </trkpt>
      <trkpt lat="42.38946" lon="23.11874">
        <ele>714.004874</ele>
        <time>2022-04-05T10:12:02.238Z</time>
      </trkpt>
      <trkpt lat="42.38935" lon="23.11866">
        <ele>714.078159</ele>
        <time>2022-04-05T10:12:06.226Z</time>
      </trkpt>
      <trkpt lat="42.38926" lon="23.11859">
        <ele>714.146671</ele>
        <time>2022-04-05T10:12:10.267Z</time>
      </trkpt>
      <trkpt lat="42.38916" lon="23.11852">
        <ele>714.214737</ele>
        <time>2022-04-05T10:12:14.236Z</time>
      </trkpt>
      <trkpt lat="42.38906" lon="23.11845">
        <ele>714.287925</ele>
        <time>2022-04-05T10:12:18.231Z</time>
      </trkpt>
      <trkpt lat="42.38898" lon="23.1184">
        <ele>714.347406</ele>
        <time>2022-04-05T10:12:21.280Z</time>
      </trkpt>
      <trkpt lat="42.38889" lon="23.11834">
        <ele>714.405818</ele>
        <time>2022-04-05T10:12:24.257Z</time>
      </trkpt>
      <trkpt lat="42.38879" lon="23.11827">
        <ele>714.480341</ele>
        <time>2022-04-05T10:12:28.232Z</time>
      </trkpt>
      <trkpt lat="42.3887" lon="23.11821">
        <ele>714.54023</ele>
        <time>2022-04-05T10:12:31.232Z</time>
      </trkpt>
      <trkpt lat="42.3886" lon="23.11814">
        <ele>714.614489</ele>
        <time>2022-04-05T10:12:35.239Z</time>
      </trkpt>
      <trkpt lat="42.3885" lon="23.11807">
        <ele>714.799415</ele>
        <time>2022-04-05T10:12:39.268Z</time>
      </trkpt>
      <trkpt lat="42.38841" lon="23.11801">
        <ele>715.251176</ele>
        <time>2022-04-05T10:12:43.229Z</time>
      </trkpt>
      <trkpt lat="42.38832" lon="23.11795">
        <ele>715.658358</ele>
        <time>2022-04-05T10:12:47.239Z</time>
      </trkpt>
      <trkpt lat="42.38824" lon="23.11789">
        <ele>716.073028</ele>
        <time>2022-04-05T10:12:51.238Z</time>
      </trkpt>
      <trkpt lat="42.38815" lon="23.11783">
        <ele>716.514953</ele>
        <time>2022-04-05T10:12:55.221Z</time>
      </trkpt>
      <trkpt lat="42.38806" lon="23.11776">
        <ele>716.975996</ele>
        <time>2022-04-05T10:12:59.221Z</time>
      </trkpt>
      <trkpt lat="42.38796" lon="23.1177">
        <ele>717.44191</ele>
        <time>2022-04-05T10:13:03.244Z</time>
      </trkpt>
      <trkpt lat="42.38787" lon="23.11763">
        <ele>717.899069</ele>
        <time>2022-04-05T10:13:07.242Z</time>
      </trkpt>
      <trkpt lat="42.38778" lon="23.11758">
        <ele>718.335343</ele>
        <time>2022-04-05T10:13:11.237Z</time>
      </trkpt>
      <trkpt lat="42.3877" lon="23.11752">
        <ele>718.744607</ele>
        <time>2022-04-05T10:13:15.238Z</time>
      </trkpt>
      <trkpt lat="42.3876" lon="23.11745">
        <ele>719.234512</ele>
        <time>2022-04-05T10:13:20.288Z</time>
      </trkpt>
      <trkpt lat="42.38751" lon="23.11739">
        <ele>719.666813</ele>
        <time>2022-04-05T10:13:24.247Z</time>
      </trkpt>
      <trkpt lat="42.38742" lon="23.11733">
        <ele>720.103362</ele>
        <time>2022-04-05T10:13:28.223Z</time>
      </trkpt>
      <trkpt lat="42.38734" lon="23.11727">
        <ele>720.522772</ele>
        <time>2022-04-05T10:13:32.239Z</time>
      </trkpt>
      <trkpt lat="42.38725" lon="23.11722">
        <ele>720.920351</ele>
        <time>2022-04-05T10:13:36.262Z</time>
      </trkpt>
      <trkpt lat="42.38717" lon="23.11717">
        <ele>721.337971</ele>
        <time>2022-04-05T10:13:40.245Z</time>
      </trkpt>
      <trkpt lat="42.38708" lon="23.1171">
        <ele>721.773135</ele>
        <time>2022-04-05T10:13:44.246Z</time>
      </trkpt>
      <trkpt lat="42.38699" lon="23.11703">
        <ele>722.227269</ele>
        <time>2022-04-05T10:13:48.224Z</time>
      </trkpt>
      <trkpt lat="42.38689" lon="23.11697">
        <ele>722.576795</ele>
        <time>2022-04-05T10:13:52.239Z</time>
      </trkpt>
      <trkpt lat="42.3868" lon="23.1169">
        <ele>722.622529</ele>
        <time>2022-04-05T10:13:56.242Z</time>
      </trkpt>
      <trkpt lat="42.3867" lon="23.11685">
        <ele>722.665819</ele>
        <time>2022-04-05T10:14:00.243Z</time>
      </trkpt>
      <trkpt lat="42.38661" lon="23.11677">
        <ele>722.710959</ele>
        <time>2022-04-05T10:14:04.258Z</time>
      </trkpt>
      <trkpt lat="42.38651" lon="23.11671">
        <ele>722.757994</ele>
        <time>2022-04-05T10:14:08.224Z</time>
      </trkpt>
      <trkpt lat="42.38641" lon="23.11664">
        <ele>722.806442</ele>
        <time>2022-04-05T10:14:12.243Z</time>
      </trkpt>
      <trkpt lat="42.38632" lon="23.11659">
        <ele>722.845625</ele>
        <time>2022-04-05T10:14:15.273Z</time>
      </trkpt>
      <trkpt lat="42.38624" lon="23.11654">
        <ele>722.883908</ele>
        <time>2022-04-05T10:14:18.283Z</time>
      </trkpt>
      <trkpt lat="42.38614" lon="23.11647">
        <ele>722.932256</ele>
        <time>2022-04-05T10:14:22.236Z</time>
      </trkpt>
      <trkpt lat="42.38603" lon="23.1164">
        <ele>722.983153</ele>
        <time>2022-04-05T10:14:26.234Z</time>
      </trkpt>
      <trkpt lat="42.38592" lon="23.11633">
        <ele>723.033153</ele>
        <time>2022-04-05T10:14:30.236Z</time>
      </trkpt>
      <trkpt lat="42.38584" lon="23.11627">
        <ele>723.072086</ele>
        <time>2022-04-05T10:14:33.244Z</time>
      </trkpt>
      <trkpt lat="42.38576" lon="23.11621">
        <ele>723.111811</ele>
        <time>2022-04-05T10:14:36.237Z</time>
      </trkpt>
      <trkpt lat="42.38567" lon="23.11616">
        <ele>723.152789</ele>
        <time>2022-04-05T10:14:39.234Z</time>
      </trkpt>
      <trkpt lat="42.38559" lon="23.1161">
        <ele>723.192718</ele>
        <time>2022-04-05T10:14:42.232Z</time>
      </trkpt>
      <trkpt lat="42.3855" lon="23.11604">
        <ele>723.232352</ele>
        <time>2022-04-05T10:14:45.249Z</time>
      </trkpt>
      <trkpt lat="42.38542" lon="23.11599">
        <ele>723.271917</ele>
        <time>2022-04-05T10:14:48.233Z</time>
      </trkpt>
      <trkpt lat="42.38533" lon="23.11593">
        <ele>723.312129</ele>
        <time>2022-04-05T10:14:51.280Z</time>
      </trkpt>
      <trkpt lat="42.38525" lon="23.11588">
        <ele>723.383168</ele>
        <time>2022-04-05T10:14:54.255Z</time>
      </trkpt>
      <trkpt lat="42.38515" lon="23.11581">
        <ele>723.488618</ele>
        <time>2022-04-05T10:14:58.230Z</time>
      </trkpt>
      <trkpt lat="42.38505" lon="23.11573">
        <ele>723.592878</ele>
        <time>2022-04-05T10:15:02.224Z</time>
      </trkpt>
      <trkpt lat="42.38495" lon="23.11567">
        <ele>723.69993</ele>
        <time>2022-04-05T10:15:06.248Z</time>
      </trkpt>
      <trkpt lat="42.38485" lon="23.1156">
        <ele>723.806212</ele>
        <time>2022-04-05T10:15:10.275Z</time>
      </trkpt>
      <trkpt lat="42.38474" lon="23.11553">
        <ele>723.912189</ele>
        <time>2022-04-05T10:15:14.241Z</time>
      </trkpt>
      <trkpt lat="42.38464" lon="23.11547">
        <ele>724.019841</ele>
        <time>2022-04-05T10:15:18.225Z</time>
      </trkpt>
      <trkpt lat="42.38456" lon="23.11541">
        <ele>724.104836</ele>
        <time>2022-04-05T10:15:21.225Z</time>
      </trkpt>
      <trkpt lat="42.38448" lon="23.11536">
        <ele>724.188994</ele>
        <time>2022-04-05T10:15:24.240Z</time>
      </trkpt>
      <trkpt lat="42.38437" lon="23.11529">
        <ele>724.301205</ele>
        <time>2022-04-05T10:15:28.256Z</time>
      </trkpt>
      <trkpt lat="42.38429" lon="23.11524">
        <ele>724.385032</ele>
        <time>2022-04-05T10:15:31.226Z</time>
      </trkpt>
      <trkpt lat="42.38418" lon="23.11517">
        <ele>724.492685</ele>
        <time>2022-04-05T10:15:35.233Z</time>
      </trkpt>
      <trkpt lat="42.38408" lon="23.1151">
        <ele>724.601052</ele>
        <time>2022-04-05T10:15:39.236Z</time>
      </trkpt>
      <trkpt lat="42.38398" lon="23.11503">
        <ele>724.708476</ele>
        <time>2022-04-05T10:15:43.233Z</time>
      </trkpt>
      <trkpt lat="42.3839" lon="23.11497">
        <ele>724.792635</ele>
        <time>2022-04-05T10:15:46.236Z</time>
      </trkpt>
      <trkpt lat="42.38381" lon="23.11491">
        <ele>724.882191</ele>
        <time>2022-04-05T10:15:49.234Z</time>
      </trkpt>
      <trkpt lat="42.38371" lon="23.11485">
        <ele>724.985667</ele>
        <time>2022-04-05T10:15:53.242Z</time>
      </trkpt>
      <trkpt lat="42.38363" lon="23.11479">
        <ele>725.062063</ele>
        <time>2022-04-05T10:15:56.227Z</time>
      </trkpt>
      <trkpt lat="42.38352" lon="23.11472">
        <ele>725.158998</ele>
        <time>2022-04-05T10:16:00.242Z</time>
      </trkpt>
      <trkpt lat="42.38344" lon="23.11467">
        <ele>725.235539</ele>
        <time>2022-04-05T10:16:03.241Z</time>
      </trkpt>
      <trkpt lat="42.38334" lon="23.1146">
        <ele>725.327962</ele>
        <time>2022-04-05T10:16:07.236Z</time>
      </trkpt>
      <trkpt lat="42.38324" lon="23.11453">
        <ele>725.420385</ele>
        <time>2022-04-05T10:16:11.244Z</time>
      </trkpt>
      <trkpt lat="42.38313" lon="23.11447">
        <ele>725.518249</ele>
        <time>2022-04-05T10:16:15.233Z</time>
      </trkpt>
      <trkpt lat="42.38305" lon="23.11441">
        <ele>725.594379</ele>
        <time>2022-04-05T10:16:18.231Z</time>
      </trkpt>
      <trkpt lat="42.38296" lon="23.11435">
        <ele>725.674565</ele>
        <time>2022-04-05T10:16:21.234Z</time>
      </trkpt>
      <trkpt lat="42.38286" lon="23.11427">
        <ele>725.774813</ele>
        <time>2022-04-05T10:16:25.232Z</time>
      </trkpt>
      <trkpt lat="42.38275" lon="23.1142">
        <ele>725.872219</ele>
        <time>2022-04-05T10:16:29.214Z</time>
      </trkpt>
      <trkpt lat="42.38265" lon="23.11413">
        <ele>725.967509</ele>
        <time>2022-04-05T10:16:33.221Z</time>
      </trkpt>
      <trkpt lat="42.38254" lon="23.11406">
        <ele>726.065456</ele>
        <time>2022-04-05T10:16:37.239Z</time>
      </trkpt>
      <trkpt lat="42.38244" lon="23.114">
        <ele>726.156064</ele>
        <time>2022-04-05T10:16:41.234Z</time>
      </trkpt>
      <trkpt lat="42.38236" lon="23.11394">
        <ele>726.234221</ele>
        <time>2022-04-05T10:16:45.237Z</time>
      </trkpt>
      <trkpt lat="42.38227" lon="23.11388">
        <ele>726.314791</ele>
        <time>2022-04-05T10:16:49.229Z</time>
      </trkpt>
      <trkpt lat="42.38219" lon="23.11383">
        <ele>726.389838</ele>
        <time>2022-04-05T10:16:53.242Z</time>
      </trkpt>
      <trkpt lat="42.38209" lon="23.11376">
        <ele>726.478151</ele>
        <time>2022-04-05T10:16:58.231Z</time>
      </trkpt>
      <trkpt lat="42.382" lon="23.1137">
        <ele>727.103232</ele>
        <time>2022-04-05T10:17:04.241Z</time>
      </trkpt>
      <trkpt lat="42.38191" lon="23.11364">
        <ele>727.703454</ele>
        <time>2022-04-05T10:17:10.221Z</time>
      </trkpt>
      <trkpt lat="42.38181" lon="23.11358">
        <ele>728.358179</ele>
        <time>2022-04-05T10:17:16.237Z</time>
      </trkpt>
      <trkpt lat="42.38173" lon="23.11353">
        <ele>728.94124</ele>
        <time>2022-04-05T10:17:21.240Z</time>
      </trkpt>
      <trkpt lat="42.38163" lon="23.11348">
        <ele>729.562655</ele>
        <time>2022-04-05T10:17:27.242Z</time>
      </trkpt>
      <trkpt lat="42.38154" lon="23.11344">
        <ele>730.152643</ele>
        <time>2022-04-05T10:17:32.233Z</time>
      </trkpt>
      <trkpt lat="42.38145" lon="23.1134">
        <ele>730.761714</ele>
        <time>2022-04-05T10:17:37.272Z</time>
      </trkpt>
      <trkpt lat="42.38135" lon="23.11336">
        <ele>731.388241</ele>
        <time>2022-04-05T10:17:44.248Z</time>
      </trkpt>
      <trkpt lat="42.38125" lon="23.11333">
        <ele>732.028535</ele>
        <time>2022-04-05T10:17:51.251Z</time>
      </trkpt>
      <trkpt lat="42.38116" lon="23.1133">
        <ele>732.592092</ele>
        <time>2022-04-05T10:17:57.238Z</time>
      </trkpt>
      <trkpt lat="42.38107" lon="23.11328">
        <ele>733.209758</ele>
        <time>2022-04-05T10:18:04.275Z</time>
      </trkpt>
      <trkpt lat="42.38096" lon="23.11326">
        <ele>733.871826</ele>
        <time>2022-04-05T10:18:10.242Z</time>
      </trkpt>
      <trkpt lat="42.38086" lon="23.11323">
        <ele>734.504184</ele>
        <time>2022-04-05T10:18:16.234Z</time>
      </trkpt>
      <trkpt lat="42.38077" lon="23.11322">
        <ele>735.097149</ele>
        <time>2022-04-05T10:18:22.237Z</time>
      </trkpt>
      <trkpt lat="42.38067" lon="23.1132">
        <ele>735.727647</ele>
        <time>2022-04-05T10:18:29.222Z</time>
      </trkpt>
      <trkpt lat="42.38057" lon="23.1132">
        <ele>736.336858</ele>
        <time>2022-04-05T10:18:36.255Z</time>
      </trkpt>
      <trkpt lat="42.38047" lon="23.11319">
        <ele>736.939865</ele>
        <time>2022-04-05T10:18:43.291Z</time>
      </trkpt>
      <trkpt lat="42.38037" lon="23.11319">
        <ele>737.585861</ele>
        <time>2022-04-05T10:18:50.232Z</time>
      </trkpt>
      <trkpt lat="42.38026" lon="23.1132">
        <ele>738.293588</ele>
        <time>2022-04-05T10:18:57.243Z</time>
      </trkpt>
      <trkpt lat="42.38016" lon="23.11319">
        <ele>738.978691</ele>
        <time>2022-04-05T10:19:04.243Z</time>
      </trkpt>
      <trkpt lat="42.38006" lon="23.1132">
        <ele>739.652504</ele>
        <time>2022-04-05T10:19:11.268Z</time>
      </trkpt>
      <trkpt lat="42.37996" lon="23.11322">
        <ele>740.264074</ele>
        <time>2022-04-05T10:19:17.228Z</time>
      </trkpt>
      <trkpt lat="42.37987" lon="23.11324">
        <ele>740.919921</ele>
        <time>2022-04-05T10:19:24.244Z</time>
      </trkpt>
      <trkpt lat="42.37977" lon="23.11326">
        <ele>741.571947</ele>
        <time>2022-04-05T10:19:30.229Z</time>
      </trkpt>
      <trkpt lat="42.37968" lon="23.11328">
        <ele>742.177675</ele>
        <time>2022-04-05T10:19:36.233Z</time>
      </trkpt>
      <trkpt lat="42.37959" lon="23.11331">
        <ele>742.794196</ele>
        <time>2022-04-05T10:19:43.238Z</time>
      </trkpt>
      <trkpt lat="42.37949" lon="23.11333">
        <ele>743.45925</ele>
        <time>2022-04-05T10:19:49.287Z</time>
      </trkpt>
      <trkpt lat="42.37939" lon="23.11336">
        <ele>744.141162</ele>
        <time>2022-04-05T10:19:56.248Z</time>
      </trkpt>
      <trkpt lat="42.3793" lon="23.11338">
        <ele>744.758642</ele>
        <time>2022-04-05T10:20:02.236Z</time>
      </trkpt>
      <trkpt lat="42.37921" lon="23.11341">
        <ele>745.373857</ele>
        <time>2022-04-05T10:20:08.266Z</time>
      </trkpt>
      <trkpt lat="42.37912" lon="23.11344">
        <ele>745.97733</ele>
        <time>2022-04-05T10:20:14.234Z</time>
      </trkpt>
      <trkpt lat="42.37903" lon="23.11347">
        <ele>746.621886</ele>
        <time>2022-04-05T10:20:21.234Z</time>
      </trkpt>
      <trkpt lat="42.37893" lon="23.11349">
        <ele>747.260896</ele>
        <time>2022-04-05T10:20:28.239Z</time>
      </trkpt>
      <trkpt lat="42.37884" lon="23.11352">
        <ele>747.89019</ele>
        <time>2022-04-05T10:20:33.238Z</time>
      </trkpt>
      <trkpt lat="42.37874" lon="23.11355">
        <ele>748.540289</ele>
        <time>2022-04-05T10:20:39.252Z</time>
      </trkpt>
      <trkpt lat="42.37865" lon="23.11358">
        <ele>749.186833</ele>
        <time>2022-04-05T10:20:45.236Z</time>
      </trkpt>
      <trkpt lat="42.37855" lon="23.1136">
        <ele>749.603254</ele>
        <time>2022-04-05T10:20:52.229Z</time>
      </trkpt>
      <trkpt lat="42.37845" lon="23.11363">
        <ele>749.568555</ele>
        <time>2022-04-05T10:20:58.252Z</time>
      </trkpt>
      <trkpt lat="42.37835" lon="23.11365">
        <ele>749.535503</ele>
        <time>2022-04-05T10:21:04.243Z</time>
      </trkpt>
      <trkpt lat="42.37826" lon="23.11367">
        <ele>749.504877</ele>
        <time>2022-04-05T10:21:10.257Z</time>
      </trkpt>
      <trkpt lat="42.37817" lon="23.11369">
        <ele>749.474503</ele>
        <time>2022-04-05T10:21:16.231Z</time>
      </trkpt>
      <trkpt lat="42.37807" lon="23.11371">
        <ele>749.442405</ele>
        <time>2022-04-05T10:21:22.261Z</time>
      </trkpt>
      <trkpt lat="42.37797" lon="23.11374">
        <ele>749.406394</ele>
        <time>2022-04-05T10:21:28.237Z</time>
      </trkpt>
      <trkpt lat="42.37787" lon="23.11376">
        <ele>749.372858</ele>
        <time>2022-04-05T10:21:34.252Z</time>
      </trkpt>
      <trkpt lat="42.37777" lon="23.11377">
        <ele>749.338715</ele>
        <time>2022-04-05T10:21:40.245Z</time>
      </trkpt>
      <trkpt lat="42.37767" lon="23.11378">
        <ele>749.304886</ele>
        <time>2022-04-05T10:21:46.237Z</time>
      </trkpt>
      <trkpt lat="42.37757" lon="23.11379">
        <ele>749.271627</ele>
        <time>2022-04-05T10:21:51.244Z</time>
      </trkpt>
      <trkpt lat="42.37747" lon="23.11381">
        <ele>749.240412</ele>
        <time>2022-04-05T10:21:56.238Z</time>
      </trkpt>
      <trkpt lat="42.37738" lon="23.11382">
        <ele>749.207869</ele>
        <time>2022-04-05T10:22:02.242Z</time>
      </trkpt>
      <trkpt lat="42.37728" lon="23.11382">
        <ele>749.175146</ele>
        <time>2022-04-05T10:22:08.228Z</time>
      </trkpt>
      <trkpt lat="42.37718" lon="23.11383">
        <ele>749.140744</ele>
        <time>2022-04-05T10:22:14.233Z</time>
      </trkpt>
      <trkpt lat="42.37708" lon="23.11383">
        <ele>749.108299</ele>
        <time>2022-04-05T10:22:19.241Z</time>
      </trkpt>
      <trkpt lat="42.37699" lon="23.11384">
        <ele>749.077249</ele>
        <time>2022-04-05T10:22:24.243Z</time>
      </trkpt>
      <trkpt lat="42.37689" lon="23.11383">
        <ele>749.044529</ele>
        <time>2022-04-05T10:22:29.230Z</time>
      </trkpt>
      <trkpt lat="42.37679" lon="23.11383">
        <ele>749.015744</ele>
        <time>2022-04-05T10:22:34.248Z</time>
      </trkpt>
      <trkpt lat="42.37669" lon="23.11382">
        <ele>749.018936</ele>
        <time>2022-04-05T10:22:39.229Z</time>
      </trkpt>
      <trkpt lat="42.37659" lon="23.11381">
        <ele>749.021974</ele>
        <time>2022-04-05T10:22:44.264Z</time>
      </trkpt>
      <trkpt lat="42.37648" lon="23.1138">
        <ele>749.025451</ele>
        <time>2022-04-05T10:22:49.241Z</time>
      </trkpt>
      <trkpt lat="42.37638" lon="23.11378">
        <ele>749.028694</ele>
        <time>2022-04-05T10:22:53.234Z</time>
      </trkpt>
      <trkpt lat="42.37627" lon="23.11376">
        <ele>749.032058</ele>
        <time>2022-04-05T10:22:57.251Z</time>
      </trkpt>
      <trkpt lat="42.37616" lon="23.11374">
        <ele>749.03561</ele>
        <time>2022-04-05T10:23:01.272Z</time>
      </trkpt>
      <trkpt lat="42.37605" lon="23.11371">
        <ele>749.039105</ele>
        <time>2022-04-05T10:23:05.237Z</time>
      </trkpt>
      <trkpt lat="42.37594" lon="23.11369">
        <ele>749.042513</ele>
        <time>2022-04-05T10:23:09.225Z</time>
      </trkpt>
      <trkpt lat="42.37583" lon="23.11365">
        <ele>749.045904</ele>
        <time>2022-04-05T10:23:13.242Z</time>
      </trkpt>
      <trkpt lat="42.37573" lon="23.11362">
        <ele>749.049326</ele>
        <time>2022-04-05T10:23:17.265Z</time>
      </trkpt>
      <trkpt lat="42.37561" lon="23.11359">
        <ele>749.053079</ele>
        <time>2022-04-05T10:23:21.230Z</time>
      </trkpt>
      <trkpt lat="42.37551" lon="23.11356">
        <ele>749.056329</ele>
        <time>2022-04-05T10:23:24.278Z</time>
      </trkpt>
      <trkpt lat="42.3754" lon="23.11351">
        <ele>749.059897</ele>
        <time>2022-04-05T10:23:27.237Z</time>
      </trkpt>
      <trkpt lat="42.37529" lon="23.11346">
        <ele>749.063521</ele>
        <time>2022-04-05T10:23:30.271Z</time>
      </trkpt>
      <trkpt lat="42.37518" lon="23.11342">
        <ele>749.067129</ele>
        <time>2022-04-05T10:23:33.237Z</time>
      </trkpt>
      <trkpt lat="42.37507" lon="23.11337">
        <ele>749.070765</ele>
        <time>2022-04-05T10:23:36.272Z</time>
      </trkpt>
      <trkpt lat="42.37496" lon="23.11331">
        <ele>749.119271</ele>
        <time>2022-04-05T10:23:39.239Z</time>
      </trkpt>
      <trkpt lat="42.37485" lon="23.11326">
        <ele>749.179966</ele>
        <time>2022-04-05T10:23:42.233Z</time>
      </trkpt>
      <trkpt lat="42.37474" lon="23.1132">
        <ele>749.240522</ele>
        <time>2022-04-05T10:23:45.230Z</time>
      </trkpt>
      <trkpt lat="42.37464" lon="23.11314">
        <ele>749.301996</ele>
        <time>2022-04-05T10:23:48.249Z</time>
      </trkpt>
      <trkpt lat="42.37453" lon="23.11308">
        <ele>749.362605</ele>
        <time>2022-04-05T10:23:51.215Z</time>
      </trkpt>
      <trkpt lat="42.37442" lon="23.11302">
        <ele>749.429179</ele>
        <time>2022-04-05T10:23:54.238Z</time>
      </trkpt>
      <trkpt lat="42.3743" lon="23.11295">
        <ele>749.496393</ele>
        <time>2022-04-05T10:23:57.240Z</time>
      </trkpt>
      <trkpt lat="42.37419" lon="23.11288">
        <ele>749.561827</ele>
        <time>2022-04-05T10:24:00.217Z</time>
      </trkpt>
      <trkpt lat="42.37408" lon="23.11281">
        <ele>749.626949</ele>
        <time>2022-04-05T10:24:03.243Z</time>
      </trkpt>
      <trkpt lat="42.37397" lon="23.11274">
        <ele>749.690614</ele>
        <time>2022-04-05T10:24:06.241Z</time>
      </trkpt>
      <trkpt lat="42.37385" lon="23.11266">
        <ele>749.756382</ele>
        <time>2022-04-05T10:24:09.234Z</time>
      </trkpt>
      <trkpt lat="42.37374" lon="23.11259">
        <ele>749.821505</ele>
        <time>2022-04-05T10:24:12.237Z</time>
      </trkpt>
      <trkpt lat="42.37364" lon="23.11252">
        <ele>749.883567</ele>
        <time>2022-04-05T10:24:15.243Z</time>
      </trkpt>
      <trkpt lat="42.37353" lon="23.11245">
        <ele>749.946615</ele>
        <time>2022-04-05T10:24:18.241Z</time>
      </trkpt>
      <trkpt lat="42.37343" lon="23.11239">
        <ele>750.007387</ele>
        <time>2022-04-05T10:24:21.229Z</time>
      </trkpt>
      <trkpt lat="42.37332" lon="23.11232">
        <ele>750.051973</ele>
        <time>2022-04-05T10:24:24.243Z</time>
      </trkpt>
      <trkpt lat="42.37322" lon="23.11225">
        <ele>750.09167</ele>
        <time>2022-04-05T10:24:27.238Z</time>
      </trkpt>
      <trkpt lat="42.37312" lon="23.11218">
        <ele>750.132604</ele>
        <time>2022-04-05T10:24:30.237Z</time>
      </trkpt>
      <trkpt lat="42.37301" lon="23.11211">
        <ele>750.174695</ele>
        <time>2022-04-05T10:24:33.230Z</time>
      </trkpt>
      <trkpt lat="42.3729" lon="23.11204">
        <ele>750.216251</ele>
        <time>2022-04-05T10:24:36.233Z</time>
      </trkpt>
      <trkpt lat="42.37279" lon="23.11197">
        <ele>750.258007</ele>
        <time>2022-04-05T10:24:39.235Z</time>
      </trkpt>
      <trkpt lat="42.37268" lon="23.1119">
        <ele>750.30072</ele>
        <time>2022-04-05T10:24:42.235Z</time>
      </trkpt>
      <trkpt lat="42.37257" lon="23.11182">
        <ele>750.343465</ele>
        <time>2022-04-05T10:24:45.318Z</time>
      </trkpt>
      <trkpt lat="42.37246" lon="23.11175">
        <ele>750.384286</ele>
        <time>2022-04-05T10:24:48.246Z</time>
      </trkpt>
      <trkpt lat="42.37236" lon="23.11168">
        <ele>750.424684</ele>
        <time>2022-04-05T10:24:51.250Z</time>
      </trkpt>
      <trkpt lat="42.37225" lon="23.11161">
        <ele>750.465817</ele>
        <time>2022-04-05T10:24:54.234Z</time>
      </trkpt>
      <trkpt lat="42.37214" lon="23.11154">
        <ele>750.506638</ele>
        <time>2022-04-05T10:24:57.276Z</time>
      </trkpt>
      <trkpt lat="42.37204" lon="23.11147">
        <ele>750.54761</ele>
        <time>2022-04-05T10:25:00.239Z</time>
      </trkpt>
      <trkpt lat="42.37194" lon="23.1114">
        <ele>750.586768</ele>
        <time>2022-04-05T10:25:03.237Z</time>
      </trkpt>
      <trkpt lat="42.37184" lon="23.11133">
        <ele>750.624229</ele>
        <time>2022-04-05T10:25:06.238Z</time>
      </trkpt>
      <trkpt lat="42.37176" lon="23.11128">
        <ele>750.812541</ele>
        <time>2022-04-05T10:25:09.229Z</time>
      </trkpt>
      <trkpt lat="42.37165" lon="23.11121">
        <ele>751.444263</ele>
        <time>2022-04-05T10:25:13.244Z</time>
      </trkpt>
      <trkpt lat="42.37155" lon="23.11114">
        <ele>752.012718</ele>
        <time>2022-04-05T10:25:17.256Z</time>
      </trkpt>
      <trkpt lat="42.37146" lon="23.11108">
        <ele>752.558099</ele>
        <time>2022-04-05T10:25:21.243Z</time>
      </trkpt>
      <trkpt lat="42.37137" lon="23.11101">
        <ele>753.113551</ele>
        <time>2022-04-05T10:25:25.269Z</time>
      </trkpt>
      <trkpt lat="42.37128" lon="23.11095">
        <ele>753.634761</ele>
        <time>2022-04-05T10:25:29.232Z</time>
      </trkpt>
      <trkpt lat="42.37118" lon="23.11089">
        <ele>754.221556</ele>
        <time>2022-04-05T10:25:34.239Z</time>
      </trkpt>
      <trkpt lat="42.3711" lon="23.11083">
        <ele>754.70055</ele>
        <time>2022-04-05T10:25:38.242Z</time>
      </trkpt>
      <trkpt lat="42.37101" lon="23.11078">
        <ele>755.204072</ele>
        <time>2022-04-05T10:25:43.252Z</time>
      </trkpt>
      <trkpt lat="42.37093" lon="23.11072">
        <ele>755.720564</ele>
        <time>2022-04-05T10:25:48.271Z</time>
      </trkpt>
      <trkpt lat="42.37084" lon="23.11066">
        <ele>756.209394</ele>
        <time>2022-04-05T10:25:53.231Z</time>
      </trkpt>
      <trkpt lat="42.37076" lon="23.1106">
        <ele>756.714208</ele>
        <time>2022-04-05T10:25:58.236Z</time>
      </trkpt>
      <trkpt lat="42.37067" lon="23.11055">
        <ele>757.252714</ele>
        <time>2022-04-05T10:26:04.217Z</time>
      </trkpt>
      <trkpt lat="42.37057" lon="23.11049">
        <ele>757.815236</ele>
        <time>2022-04-05T10:26:10.242Z</time>
      </trkpt>
      <trkpt lat="42.37049" lon="23.11043">
        <ele>758.294232</ele>
        <time>2022-04-05T10:26:15.233Z</time>
      </trkpt>
      <trkpt lat="42.3704" lon="23.11037">
        <ele>758.793817</ele>
        <time>2022-04-05T10:26:20.241Z</time>
      </trkpt>
      <trkpt lat="42.37032" lon="23.11032">
        <ele>759.295293</ele>
        <time>2022-04-05T10:26:25.231Z</time>
      </trkpt>
      <trkpt lat="42.37023" lon="23.11027">
        <ele>759.796768</ele>
        <time>2022-04-05T10:26:30.237Z</time>
      </trkpt>
      <trkpt lat="42.37013" lon="23.1102">
        <ele>760.14359</ele>
        <time>2022-04-05T10:26:36.237Z</time>
      </trkpt>
      <trkpt lat="42.37005" lon="23.11014">
        <ele>760.104491</ele>
        <time>2022-04-05T10:26:41.240Z</time>
      </trkpt>
      <trkpt lat="42.36996" lon="23.11008">
        <ele>760.065575</ele>
        <time>2022-04-05T10:26:46.246Z</time>
      </trkpt>
      <trkpt lat="42.36988" lon="23.11003">
        <ele>760.027253</ele>
        <time>2022-04-05T10:26:51.242Z</time>
      </trkpt>
      <trkpt lat="42.36979" lon="23.10997">
        <ele>759.987238</ele>
        <time>2022-04-05T10:26:56.249Z</time>
      </trkpt>
      <trkpt lat="42.36969" lon="23.10991">
        <ele>759.944514</ele>
        <time>2022-04-05T10:27:01.274Z</time>
      </trkpt>
      <trkpt lat="42.3696" lon="23.10985">
        <ele>759.902149</ele>
        <time>2022-04-05T10:27:06.239Z</time>
      </trkpt>
      <trkpt lat="42.36951" lon="23.10979">
        <ele>759.860903</ele>
        <time>2022-04-05T10:27:11.240Z</time>
      </trkpt>
      <trkpt lat="42.36942" lon="23.10972">
        <ele>759.820224</ele>
        <time>2022-04-05T10:27:16.238Z</time>
      </trkpt>
      <trkpt lat="42.36933" lon="23.10967">
        <ele>759.778364</ele>
        <time>2022-04-05T10:27:21.253Z</time>
      </trkpt>
      <trkpt lat="42.36924" lon="23.10961">
        <ele>759.737095</ele>
        <time>2022-04-05T10:27:26.219Z</time>
      </trkpt>
      <trkpt lat="42.36915" lon="23.10955">
        <ele>759.700035</ele>
        <time>2022-04-05T10:27:30.253Z</time>
      </trkpt>
      <trkpt lat="42.36907" lon="23.10949">
        <ele>759.659892</ele>
        <time>2022-04-05T10:27:34.250Z</time>
      </trkpt>
      <trkpt lat="42.36897" lon="23.10943">
        <ele>759.616424</ele>
        <time>2022-04-05T10:27:38.230Z</time>
      </trkpt>
      <trkpt lat="42.36887" lon="23.10937">
        <ele>759.572341</ele>
        <time>2022-04-05T10:27:42.228Z</time>
      </trkpt>
      <trkpt lat="42.36877" lon="23.10932">
        <ele>759.529616</ele>
        <time>2022-04-05T10:27:46.222Z</time>
      </trkpt>
      <trkpt lat="42.36867" lon="23.10924">
        <ele>759.481187</ele>
        <time>2022-04-05T10:27:50.235Z</time>
      </trkpt>
      <trkpt lat="42.36858" lon="23.10919">
        <ele>759.443133</ele>
        <time>2022-04-05T10:27:53.251Z</time>
      </trkpt>
      <trkpt lat="42.36849" lon="23.10913">
        <ele>759.259649</ele>
        <time>2022-04-05T10:27:56.227Z</time>
      </trkpt>
      <trkpt lat="42.36839" lon="23.10906">
        <ele>758.970686</ele>
        <time>2022-04-05T10:27:59.244Z</time>
      </trkpt>
      <trkpt lat="42.36829" lon="23.10899">
        <ele>758.662649</ele>
        <time>2022-04-05T10:28:02.270Z</time>
      </trkpt>
      <trkpt lat="42.36818" lon="23.10891">
        <ele>758.350561</ele>
        <time>2022-04-05T10:28:05.239Z</time>
      </trkpt>
      <trkpt lat="42.36806" lon="23.10883">
        <ele>758.008354</ele>
        <time>2022-04-05T10:28:08.285Z</time>
      </trkpt>
      <trkpt lat="42.36794" lon="23.10875">
        <ele>757.648778</ele>
        <time>2022-04-05T10:28:11.237Z</time>
      </trkpt>
      <trkpt lat="42.36786" lon="23.10869">
        <ele>757.407041</ele>
        <time>2022-04-05T10:28:13.241Z</time>
      </trkpt>
      <trkpt lat="42.36777" lon="23.10863">
        <ele>757.15805</ele>
        <time>2022-04-05T10:28:15.236Z</time>
      </trkpt>
      <trkpt lat="42.36768" lon="23.10856">
        <ele>756.895385</ele>
        <time>2022-04-05T10:28:17.238Z</time>
      </trkpt>
      <trkpt lat="42.36759" lon="23.1085">
        <ele>756.62447</ele>
        <time>2022-04-05T10:28:19.271Z</time>
      </trkpt>
      <trkpt lat="42.3675" lon="23.10842">
        <ele>756.342609</ele>
        <time>2022-04-05T10:28:21.269Z</time>
      </trkpt>
      <trkpt lat="42.3674" lon="23.10835">
        <ele>756.055987</ele>
        <time>2022-04-05T10:28:23.236Z</time>
      </trkpt>
      <trkpt lat="42.3673" lon="23.10827">
        <ele>755.754907</ele>
        <time>2022-04-05T10:28:25.243Z</time>
      </trkpt>
      <trkpt lat="42.3672" lon="23.1082">
        <ele>755.458892</ele>
        <time>2022-04-05T10:28:27.231Z</time>
      </trkpt>
      <trkpt lat="42.3671" lon="23.10812">
        <ele>755.157432</ele>
        <time>2022-04-05T10:28:29.239Z</time>
      </trkpt>
      <trkpt lat="42.367" lon="23.10803">
        <ele>754.849299</ele>
        <time>2022-04-05T10:28:31.241Z</time>
      </trkpt>
      <trkpt lat="42.3669" lon="23.10795">
        <ele>754.703279</ele>
        <time>2022-04-05T10:28:33.239Z</time>
      </trkpt>
      <trkpt lat="42.3668" lon="23.10787">
        <ele>754.626361</ele>
        <time>2022-04-05T10:28:35.219Z</time>
      </trkpt>
      <trkpt lat="42.36669" lon="23.10779">
        <ele>754.547507</ele>
        <time>2022-04-05T10:28:37.230Z</time>
      </trkpt>
      <trkpt lat="42.36659" lon="23.1077">
        <ele>754.46829</ele>
        <time>2022-04-05T10:28:39.244Z</time>
      </trkpt>
      <trkpt lat="42.36648" lon="23.10762">
        <ele>754.387656</ele>
        <time>2022-04-05T10:28:41.229Z</time>
      </trkpt>
      <trkpt lat="42.36638" lon="23.10753">
        <ele>754.306772</ele>
        <time>2022-04-05T10:28:43.233Z</time>
      </trkpt>
      <trkpt lat="42.36628" lon="23.10745">
        <ele>754.230174</ele>
        <time>2022-04-05T10:28:45.233Z</time>
      </trkpt>
      <trkpt lat="42.36618" lon="23.10737">
        <ele>754.154745</ele>
        <time>2022-04-05T10:28:47.289Z</time>
      </trkpt>
      <trkpt lat="42.36608" lon="23.10728">
        <ele>754.080969</ele>
        <time>2022-04-05T10:28:49.230Z</time>
      </trkpt>
      <trkpt lat="42.36599" lon="23.10721">
        <ele>754.009837</ele>
        <time>2022-04-05T10:28:51.240Z</time>
      </trkpt>
      <trkpt lat="42.3659" lon="23.10713">
        <ele>753.941129</ele>
        <time>2022-04-05T10:28:53.223Z</time>
      </trkpt>
      <trkpt lat="42.36581" lon="23.10706">
        <ele>753.874594</ele>
        <time>2022-04-05T10:28:55.237Z</time>
      </trkpt>
      <trkpt lat="42.36573" lon="23.10699">
        <ele>753.809978</ele>
        <time>2022-04-05T10:28:57.237Z</time>
      </trkpt>
      <trkpt lat="42.36565" lon="23.10692">
        <ele>753.747026</ele>
        <time>2022-04-05T10:28:59.226Z</time>
      </trkpt>
      <trkpt lat="42.36557" lon="23.10685">
        <ele>753.685644</ele>
        <time>2022-04-05T10:29:01.246Z</time>
      </trkpt>
      <trkpt lat="42.36546" lon="23.10675">
        <ele>753.59891</ele>
        <time>2022-04-05T10:29:04.226Z</time>
      </trkpt>
      <trkpt lat="42.36534" lon="23.10666">
        <ele>753.649464</ele>
        <time>2022-04-05T10:29:07.256Z</time>
      </trkpt>
      <trkpt lat="42.36523" lon="23.10656">
        <ele>753.729465</ele>
        <time>2022-04-05T10:29:10.257Z</time>
      </trkpt>
      <trkpt lat="42.36512" lon="23.10647">
        <ele>753.80652</ele>
        <time>2022-04-05T10:29:13.235Z</time>
      </trkpt>
      <trkpt lat="42.36501" lon="23.10637">
        <ele>753.887025</ele>
        <time>2022-04-05T10:29:16.255Z</time>
      </trkpt>
      <trkpt lat="42.3649" lon="23.10628">
        <ele>753.963065</ele>
        <time>2022-04-05T10:29:19.248Z</time>
      </trkpt>
      <trkpt lat="42.3648" lon="23.10619">
        <ele>754.03823</ele>
        <time>2022-04-05T10:29:22.254Z</time>
      </trkpt>
      <trkpt lat="42.36469" lon="23.1061">
        <ele>754.111772</ele>
        <time>2022-04-05T10:29:25.236Z</time>
      </trkpt>
      <trkpt lat="42.36459" lon="23.10602">
        <ele>754.181395</ele>
        <time>2022-04-05T10:29:28.274Z</time>
      </trkpt>
      <trkpt lat="42.36449" lon="23.10593">
        <ele>754.253448</ele>
        <time>2022-04-05T10:29:31.228Z</time>
      </trkpt>
      <trkpt lat="42.36439" lon="23.10585">
        <ele>754.327068</ele>
        <time>2022-04-05T10:29:34.269Z</time>
      </trkpt>
      <trkpt lat="42.36428" lon="23.10575">
        <ele>754.40234</ele>
        <time>2022-04-05T10:29:37.237Z</time>
      </trkpt>
      <trkpt lat="42.36418" lon="23.10566">
        <ele>754.478601</ele>
        <time>2022-04-05T10:29:40.273Z</time>
      </trkpt>
      <trkpt lat="42.36408" lon="23.10556">
        <ele>754.553448</ele>
        <time>2022-04-05T10:29:43.252Z</time>
      </trkpt>
      <trkpt lat="42.36397" lon="23.10546">
        <ele>754.628465</ele>
        <time>2022-04-05T10:29:46.231Z</time>
      </trkpt>
      <trkpt lat="42.36387" lon="23.10535">
        <ele>754.64364</ele>
        <time>2022-04-05T10:29:49.237Z</time>
      </trkpt>
      <trkpt lat="42.36378" lon="23.10524">
        <ele>754.609413</ele>
        <time>2022-04-05T10:29:52.236Z</time>
      </trkpt>
      <trkpt lat="42.36368" lon="23.10513">
        <ele>754.574119</ele>
        <time>2022-04-05T10:29:55.270Z</time>
      </trkpt>
      <trkpt lat="42.36359" lon="23.10501">
        <ele>754.539212</ele>
        <time>2022-04-05T10:29:58.243Z</time>
      </trkpt>
      <trkpt lat="42.36352" lon="23.10492">
        <ele>754.514337</ele>
        <time>2022-04-05T10:30:00.254Z</time>
      </trkpt>
      <trkpt lat="42.36346" lon="23.10483">
        <ele>754.489078</ele>
        <time>2022-04-05T10:30:02.228Z</time>
      </trkpt>
      <trkpt lat="42.36339" lon="23.10473">
        <ele>754.461755</ele>
        <time>2022-04-05T10:30:04.233Z</time>
      </trkpt>
      <trkpt lat="42.36332" lon="23.10463">
        <ele>754.434725</ele>
        <time>2022-04-05T10:30:06.229Z</time>
      </trkpt>
      <trkpt lat="42.36326" lon="23.10453">
        <ele>754.408362</ele>
        <time>2022-04-05T10:30:08.284Z</time>
      </trkpt>
      <trkpt lat="42.36319" lon="23.10444">
        <ele>754.382365</ele>
        <time>2022-04-05T10:30:10.236Z</time>
      </trkpt>
      <trkpt lat="42.36313" lon="23.10434">
        <ele>754.357391</ele>
        <time>2022-04-05T10:30:12.249Z</time>
      </trkpt>
      <trkpt lat="42.36307" lon="23.10425">
        <ele>754.332539</ele>
        <time>2022-04-05T10:30:14.300Z</time>
      </trkpt>
      <trkpt lat="42.36301" lon="23.10416">
        <ele>754.306874</ele>
        <time>2022-04-05T10:30:16.247Z</time>
      </trkpt>
      <trkpt lat="42.36294" lon="23.10406">
        <ele>754.280569</ele>
        <time>2022-04-05T10:30:18.252Z</time>
      </trkpt>
      <trkpt lat="42.36288" lon="23.10397">
        <ele>754.254831</ele>
        <time>2022-04-05T10:30:20.226Z</time>
      </trkpt>
      <trkpt lat="42.36281" lon="23.10388">
        <ele>754.228716</ele>
        <time>2022-04-05T10:30:22.232Z</time>
      </trkpt>
      <trkpt lat="42.36274" lon="23.10379">
        <ele>754.202836</ele>
        <time>2022-04-05T10:30:24.236Z</time>
      </trkpt>
      <trkpt lat="42.36267" lon="23.10369">
        <ele>754.175809</ele>
        <time>2022-04-05T10:30:26.271Z</time>
      </trkpt>
      <trkpt lat="42.3626" lon="23.1036">
        <ele>754.170825</ele>
        <time>2022-04-05T10:30:28.242Z</time>
      </trkpt>
      <trkpt lat="42.36252" lon="23.10352">
        <ele>754.168038</ele>
        <time>2022-04-05T10:30:30.229Z</time>
      </trkpt>
      <trkpt lat="42.36244" lon="23.10342">
        <ele>754.165106</ele>
        <time>2022-04-05T10:30:32.289Z</time>
      </trkpt>
      <trkpt lat="42.36235" lon="23.10333">
        <ele>754.162145</ele>
        <time>2022-04-05T10:30:34.251Z</time>
      </trkpt>
      <trkpt lat="42.36226" lon="23.10324">
        <ele>754.159199</ele>
        <time>2022-04-05T10:30:36.257Z</time>
      </trkpt>
      <trkpt lat="42.36218" lon="23.10316">
        <ele>754.156268</ele>
        <time>2022-04-05T10:30:38.248Z</time>
      </trkpt>
      <trkpt lat="42.36209" lon="23.10309">
        <ele>754.153356</ele>
        <time>2022-04-05T10:30:40.230Z</time>
      </trkpt>
      <trkpt lat="42.36199" lon="23.10301">
        <ele>754.150391</ele>
        <time>2022-04-05T10:30:42.234Z</time>
      </trkpt>
      <trkpt lat="42.3619" lon="23.10294">
        <ele>754.147497</ele>
        <time>2022-04-05T10:30:44.243Z</time>
      </trkpt>
      <trkpt lat="42.36181" lon="23.10287">
        <ele>754.144527</ele>
        <time>2022-04-05T10:30:46.234Z</time>
      </trkpt>
      <trkpt lat="42.36172" lon="23.1028">
        <ele>754.141792</ele>
        <time>2022-04-05T10:30:48.261Z</time>
      </trkpt>
      <trkpt lat="42.36163" lon="23.10275">
        <ele>754.139102</ele>
        <time>2022-04-05T10:30:50.246Z</time>
      </trkpt>
      <trkpt lat="42.36153" lon="23.10269">
        <ele>754.136294</ele>
        <time>2022-04-05T10:30:52.252Z</time>
      </trkpt>
      <trkpt lat="42.36144" lon="23.10264">
        <ele>754.133537</ele>
        <time>2022-04-05T10:30:54.261Z</time>
      </trkpt>
      <trkpt lat="42.36135" lon="23.1026">
        <ele>754.130941</ele>
        <time>2022-04-05T10:30:56.251Z</time>
      </trkpt>
      <trkpt lat="42.36126" lon="23.10255">
        <ele>754.128348</ele>
        <time>2022-04-05T10:30:58.231Z</time>
      </trkpt>
      <trkpt lat="42.36118" lon="23.10251">
        <ele>754.125811</ele>
        <time>2022-04-05T10:31:00.233Z</time>
      </trkpt>
      <trkpt lat="42.36108" lon="23.10247">
        <ele>754.094024</ele>
        <time>2022-04-05T10:31:02.223Z</time>
      </trkpt>
      <trkpt lat="42.36099" lon="23.10242">
        <ele>754.000735</ele>
        <time>2022-04-05T10:31:04.225Z</time>
      </trkpt>
      <trkpt lat="42.36089" lon="23.10237">
        <ele>753.908444</ele>
        <time>2022-04-05T10:31:06.229Z</time>
      </trkpt>
      <trkpt lat="42.3608" lon="23.10232">
        <ele>753.819782</ele>
        <time>2022-04-05T10:31:08.237Z</time>
      </trkpt>
      <trkpt lat="42.36071" lon="23.10228">
        <ele>753.734655</ele>
        <time>2022-04-05T10:31:10.237Z</time>
      </trkpt>
      <trkpt lat="42.36061" lon="23.10224">
        <ele>753.646375</ele>
        <time>2022-04-05T10:31:12.252Z</time>
      </trkpt>
      <trkpt lat="42.36052" lon="23.1022">
        <ele>753.558295</ele>
        <time>2022-04-05T10:31:14.253Z</time>
      </trkpt>
      <trkpt lat="42.36043" lon="23.10215">
        <ele>753.472956</ele>
        <time>2022-04-05T10:31:16.263Z</time>
      </trkpt>
      <trkpt lat="42.3603" lon="23.10209">
        <ele>753.352701</ele>
        <time>2022-04-05T10:31:19.279Z</time>
      </trkpt>
      <trkpt lat="42.36018" lon="23.10203">
        <ele>753.233797</ele>
        <time>2022-04-05T10:31:22.230Z</time>
      </trkpt>
      <trkpt lat="42.36006" lon="23.10197">
        <ele>753.119119</ele>
        <time>2022-04-05T10:31:25.261Z</time>
      </trkpt>
      <trkpt lat="42.35994" lon="23.10192">
        <ele>753.006933</ele>
        <time>2022-04-05T10:31:28.239Z</time>
      </trkpt>
      <trkpt lat="42.35982" lon="23.10187">
        <ele>752.897513</ele>
        <time>2022-04-05T10:31:31.234Z</time>
      </trkpt>
      <trkpt lat="42.35971" lon="23.10181">
        <ele>752.791481</ele>
        <time>2022-04-05T10:31:34.236Z</time>
      </trkpt>
      <trkpt lat="42.3596" lon="23.10176">
        <ele>752.687997</ele>
        <time>2022-04-05T10:31:37.244Z</time>
      </trkpt>
      <trkpt lat="42.35948" lon="23.10171">
        <ele>752.579441</ele>
        <time>2022-04-05T10:31:40.237Z</time>
      </trkpt>
      <trkpt lat="42.35937" lon="23.10166">
        <ele>752.462082</ele>
        <time>2022-04-05T10:31:43.270Z</time>
      </trkpt>
      <trkpt lat="42.35925" lon="23.10161">
        <ele>752.334651</ele>
        <time>2022-04-05T10:31:46.240Z</time>
      </trkpt>
      <trkpt lat="42.35913" lon="23.10155">
        <ele>752.204754</ele>
        <time>2022-04-05T10:31:49.239Z</time>
      </trkpt>
      <trkpt lat="42.35901" lon="23.1015">
        <ele>752.068405</ele>
        <time>2022-04-05T10:31:52.270Z</time>
      </trkpt>
      <trkpt lat="42.35892" lon="23.10146">
        <ele>751.974179</ele>
        <time>2022-04-05T10:31:54.237Z</time>
      </trkpt>
      <trkpt lat="42.3588" lon="23.10141">
        <ele>751.835836</ele>
        <time>2022-04-05T10:31:57.248Z</time>
      </trkpt>
      <trkpt lat="42.35867" lon="23.10136">
        <ele>751.698253</ele>
        <time>2022-04-05T10:32:00.242Z</time>
      </trkpt>
      <trkpt lat="42.35859" lon="23.10131">
        <ele>751.601824</ele>
        <time>2022-04-05T10:32:02.240Z</time>
      </trkpt>
      <trkpt lat="42.3585" lon="23.10128">
        <ele>751.506886</ele>
        <time>2022-04-05T10:32:04.232Z</time>
      </trkpt>
      <trkpt lat="42.35841" lon="23.10123">
        <ele>751.409669</ele>
        <time>2022-04-05T10:32:06.248Z</time>
      </trkpt>
      <trkpt lat="42.35829" lon="23.10117">
        <ele>751.269615</ele>
        <time>2022-04-05T10:32:09.228Z</time>
      </trkpt>
      <trkpt lat="42.35816" lon="23.10112">
        <ele>751.133266</ele>
        <time>2022-04-05T10:32:12.218Z</time>
      </trkpt>
      <trkpt lat="42.35804" lon="23.10106">
        <ele>750.994948</ele>
        <time>2022-04-05T10:32:15.232Z</time>
      </trkpt>
      <trkpt lat="42.35795" lon="23.10102">
        <ele>750.900253</ele>
        <time>2022-04-05T10:32:17.237Z</time>
      </trkpt>
      <trkpt lat="42.35786" lon="23.10099">
        <ele>750.805314</ele>
        <time>2022-04-05T10:32:19.235Z</time>
      </trkpt>
      <trkpt lat="42.35774" lon="23.10093">
        <ele>750.669963</ele>
        <time>2022-04-05T10:32:22.248Z</time>
      </trkpt>
      <trkpt lat="42.35762" lon="23.10087">
        <ele>750.358275</ele>
        <time>2022-04-05T10:32:25.269Z</time>
      </trkpt>
      <trkpt lat="42.3575" lon="23.10082">
        <ele>749.994712</ele>
        <time>2022-04-05T10:32:28.241Z</time>
      </trkpt>
      <trkpt lat="42.35738" lon="23.10077">
        <ele>749.636575</ele>
        <time>2022-04-05T10:32:31.240Z</time>
      </trkpt>
      <trkpt lat="42.35727" lon="23.10072">
        <ele>749.292851</ele>
        <time>2022-04-05T10:32:34.248Z</time>
      </trkpt>
      <trkpt lat="42.35715" lon="23.10066">
        <ele>748.934049</ele>
        <time>2022-04-05T10:32:37.243Z</time>
      </trkpt>
      <trkpt lat="42.35703" lon="23.1006">
        <ele>748.558754</ele>
        <time>2022-04-05T10:32:40.231Z</time>
      </trkpt>
      <trkpt lat="42.35691" lon="23.10054">
        <ele>748.172569</ele>
        <time>2022-04-05T10:32:43.241Z</time>
      </trkpt>
      <trkpt lat="42.35678" lon="23.10048">
        <ele>747.786385</ele>
        <time>2022-04-05T10:32:46.241Z</time>
      </trkpt>
      <trkpt lat="42.3567" lon="23.10044">
        <ele>747.526893</ele>
        <time>2022-04-05T10:32:48.273Z</time>
      </trkpt>
      <trkpt lat="42.35661" lon="23.1004">
        <ele>747.257613</ele>
        <time>2022-04-05T10:32:50.238Z</time>
      </trkpt>
      <trkpt lat="42.35652" lon="23.10035">
        <ele>746.9775</ele>
        <time>2022-04-05T10:32:52.259Z</time>
      </trkpt>
      <trkpt lat="42.35643" lon="23.10031">
        <ele>746.698113</ele>
        <time>2022-04-05T10:32:54.259Z</time>
      </trkpt>
      <trkpt lat="42.35633" lon="23.10026">
        <ele>746.407637</ele>
        <time>2022-04-05T10:32:56.236Z</time>
      </trkpt>
      <trkpt lat="42.35623" lon="23.10021">
        <ele>746.100149</ele>
        <time>2022-04-05T10:32:58.217Z</time>
      </trkpt>
      <trkpt lat="42.35613" lon="23.10016">
        <ele>745.773434</ele>
        <time>2022-04-05T10:33:00.236Z</time>
      </trkpt>
      <trkpt lat="42.35601" lon="23.1001">
        <ele>745.421357</ele>
        <time>2022-04-05T10:33:02.243Z</time>
      </trkpt>
      <trkpt lat="42.35589" lon="23.10004">
        <ele>744.977052</ele>
        <time>2022-04-05T10:33:04.235Z</time>
      </trkpt>
      <trkpt lat="42.35577" lon="23.09998">
        <ele>744.507629</ele>
        <time>2022-04-05T10:33:06.241Z</time>
      </trkpt>
      <trkpt lat="42.35564" lon="23.09991">
        <ele>744.045017</ele>
        <time>2022-04-05T10:33:08.243Z</time>
      </trkpt>
      <trkpt lat="42.35551" lon="23.09984">
        <ele>743.55013</ele>
        <time>2022-04-05T10:33:10.238Z</time>
      </trkpt>
      <trkpt lat="42.35537" lon="23.09976">
        <ele>743.012511</ele>
        <time>2022-04-05T10:33:12.253Z</time>
      </trkpt>
      <trkpt lat="42.35521" lon="23.09967">
        <ele>742.427638</ele>
        <time>2022-04-05T10:33:14.236Z</time>
      </trkpt>
      <trkpt lat="42.35505" lon="23.09957">
        <ele>741.819541</ele>
        <time>2022-04-05T10:33:16.278Z</time>
      </trkpt>
      <trkpt lat="42.3549" lon="23.09946">
        <ele>741.205967</ele>
        <time>2022-04-05T10:33:18.227Z</time>
      </trkpt>
      <trkpt lat="42.35481" lon="23.09941">
        <ele>740.894479</ele>
        <time>2022-04-05T10:33:19.240Z</time>
      </trkpt>
      <trkpt lat="42.35465" lon="23.0993">
        <ele>740.260792</ele>
        <time>2022-04-05T10:33:21.266Z</time>
      </trkpt>
      <trkpt lat="42.35457" lon="23.09925">
        <ele>739.933147</ele>
        <time>2022-04-05T10:33:22.275Z</time>
      </trkpt>
      <trkpt lat="42.35448" lon="23.09919">
        <ele>739.612858</ele>
        <time>2022-04-05T10:33:23.242Z</time>
      </trkpt>
      <trkpt lat="42.3544" lon="23.09913">
        <ele>739.295656</ele>
        <time>2022-04-05T10:33:24.242Z</time>
      </trkpt>
      <trkpt lat="42.35432" lon="23.09907">
        <ele>738.944264</ele>
        <time>2022-04-05T10:33:25.232Z</time>
      </trkpt>
      <trkpt lat="42.35424" lon="23.09902">
        <ele>738.581326</ele>
        <time>2022-04-05T10:33:26.251Z</time>
      </trkpt>
      <trkpt lat="42.35416" lon="23.09896">
        <ele>738.217558</ele>
        <time>2022-04-05T10:33:27.243Z</time>
      </trkpt>
      <trkpt lat="42.354" lon="23.09885">
        <ele>737.507642</ele>
        <time>2022-04-05T10:33:29.260Z</time>
      </trkpt>
      <trkpt lat="42.35384" lon="23.09874">
        <ele>736.814982</ele>
        <time>2022-04-05T10:33:31.234Z</time>
      </trkpt>
      <trkpt lat="42.35369" lon="23.09864">
        <ele>736.141736</ele>
        <time>2022-04-05T10:33:33.236Z</time>
      </trkpt>
      <trkpt lat="42.35354" lon="23.09854">
        <ele>735.48395</ele>
        <time>2022-04-05T10:33:35.244Z</time>
      </trkpt>
      <trkpt lat="42.3534" lon="23.09843">
        <ele>734.838877</ele>
        <time>2022-04-05T10:33:37.237Z</time>
      </trkpt>
      <trkpt lat="42.35326" lon="23.09834">
        <ele>734.208903</ele>
        <time>2022-04-05T10:33:39.238Z</time>
      </trkpt>
      <trkpt lat="42.35312" lon="23.09824">
        <ele>733.578928</ele>
        <time>2022-04-05T10:33:41.246Z</time>
      </trkpt>
      <trkpt lat="42.35298" lon="23.09814">
        <ele>732.954763</ele>
        <time>2022-04-05T10:33:43.263Z</time>
      </trkpt>
      <trkpt lat="42.35285" lon="23.09804">
        <ele>732.355635</ele>
        <time>2022-04-05T10:33:45.225Z</time>
      </trkpt>
      <trkpt lat="42.35272" lon="23.09794">
        <ele>731.888609</ele>
        <time>2022-04-05T10:33:47.239Z</time>
      </trkpt>
      <trkpt lat="42.3526" lon="23.09784">
        <ele>731.53395</ele>
        <time>2022-04-05T10:33:49.238Z</time>
      </trkpt>
      <trkpt lat="42.35248" lon="23.09772">
        <ele>731.177109</ele>
        <time>2022-04-05T10:33:51.224Z</time>
      </trkpt>
      <trkpt lat="42.35237" lon="23.09761">
        <ele>730.824457</ele>
        <time>2022-04-05T10:33:53.276Z</time>
      </trkpt>
      <trkpt lat="42.35226" lon="23.0975">
        <ele>730.48198</ele>
        <time>2022-04-05T10:33:55.247Z</time>
      </trkpt>
      <trkpt lat="42.35215" lon="23.09738">
        <ele>730.140501</ele>
        <time>2022-04-05T10:33:57.243Z</time>
      </trkpt>
      <trkpt lat="42.35206" lon="23.09726">
        <ele>729.81477</ele>
        <time>2022-04-05T10:33:59.247Z</time>
      </trkpt>
      <trkpt lat="42.35196" lon="23.09715">
        <ele>729.500096</ele>
        <time>2022-04-05T10:34:01.253Z</time>
      </trkpt>
      <trkpt lat="42.35187" lon="23.09704">
        <ele>729.194066</ele>
        <time>2022-04-05T10:34:03.252Z</time>
      </trkpt>
      <trkpt lat="42.35178" lon="23.09692">
        <ele>728.880643</ele>
        <time>2022-04-05T10:34:05.219Z</time>
      </trkpt>
      <trkpt lat="42.35168" lon="23.09681">
        <ele>728.573346</ele>
        <time>2022-04-05T10:34:07.277Z</time>
      </trkpt>
      <trkpt lat="42.3516" lon="23.09671">
        <ele>728.292445</ele>
        <time>2022-04-05T10:34:09.261Z</time>
      </trkpt>
      <trkpt lat="42.35152" lon="23.09662">
        <ele>728.026684</ele>
        <time>2022-04-05T10:34:11.240Z</time>
      </trkpt>
      <trkpt lat="42.35144" lon="23.09653">
        <ele>727.778296</ele>
        <time>2022-04-05T10:34:13.247Z</time>
      </trkpt>
      <trkpt lat="42.35137" lon="23.09645">
        <ele>727.574632</ele>
        <time>2022-04-05T10:34:15.245Z</time>
      </trkpt>
      <trkpt lat="42.3513" lon="23.09637">
        <ele>727.504344</ele>
        <time>2022-04-05T10:34:17.239Z</time>
      </trkpt>
      <trkpt lat="42.35119" lon="23.09627">
        <ele>727.406605</ele>
        <time>2022-04-05T10:34:20.236Z</time>
      </trkpt>
      <trkpt lat="42.35109" lon="23.09617">
        <ele>727.310812</ele>
        <time>2022-04-05T10:34:23.224Z</time>
      </trkpt>
      <trkpt lat="42.35099" lon="23.09607">
        <ele>727.215019</ele>
        <time>2022-04-05T10:34:26.232Z</time>
      </trkpt>
      <trkpt lat="42.35088" lon="23.09598">
        <ele>727.121413</ele>
        <time>2022-04-05T10:34:29.329Z</time>
      </trkpt>
      <trkpt lat="42.35078" lon="23.09589">
        <ele>727.027204</ele>
        <time>2022-04-05T10:34:32.238Z</time>
      </trkpt>
      <trkpt lat="42.35066" lon="23.0958">
        <ele>726.924879</ele>
        <time>2022-04-05T10:34:35.234Z</time>
      </trkpt>
      <trkpt lat="42.35058" lon="23.09574">
        <ele>726.853739</ele>
        <time>2022-04-05T10:34:37.264Z</time>
      </trkpt>
      <trkpt lat="42.3505" lon="23.09568">
        <ele>726.781838</ele>
        <time>2022-04-05T10:34:39.244Z</time>
      </trkpt>
      <trkpt lat="42.35041" lon="23.09563">
        <ele>726.708558</ele>
        <time>2022-04-05T10:34:41.238Z</time>
      </trkpt>
      <trkpt lat="42.35032" lon="23.09559">
        <ele>726.633512</ele>
        <time>2022-04-05T10:34:43.227Z</time>
      </trkpt>
      <trkpt lat="42.35022" lon="23.09553">
        <ele>726.554658</ele>
        <time>2022-04-05T10:34:45.239Z</time>
      </trkpt>
      <trkpt lat="42.35013" lon="23.09548">
        <ele>726.475953</ele>
        <time>2022-04-05T10:34:47.278Z</time>
      </trkpt>
      <trkpt lat="42.35003" lon="23.09544">
        <ele>726.397504</ele>
        <time>2022-04-05T10:34:49.240Z</time>
      </trkpt>
      <trkpt lat="42.34993" lon="23.0954">
        <ele>726.3176</ele>
        <time>2022-04-05T10:34:51.281Z</time>
      </trkpt>
      <trkpt lat="42.34983" lon="23.09536">
        <ele>726.238632</ele>
        <time>2022-04-05T10:34:53.255Z</time>
      </trkpt>
      <trkpt lat="42.34973" lon="23.09532">
        <ele>726.171621</ele>
        <time>2022-04-05T10:34:55.247Z</time>
      </trkpt>
      <trkpt lat="42.34964" lon="23.09528">
        <ele>726.114556</ele>
        <time>2022-04-05T10:34:57.231Z</time>
      </trkpt>
      <trkpt lat="42.34955" lon="23.09526">
        <ele>726.057124</ele>
        <time>2022-04-05T10:34:59.255Z</time>
      </trkpt>
      <trkpt lat="42.34946" lon="23.09524">
        <ele>725.996695</ele>
        <time>2022-04-05T10:35:01.237Z</time>
      </trkpt>
      <trkpt lat="42.34935" lon="23.09523">
        <ele>725.932699</ele>
        <time>2022-04-05T10:35:03.220Z</time>
      </trkpt>
      <trkpt lat="42.34925" lon="23.09521">
        <ele>725.866961</ele>
        <time>2022-04-05T10:35:05.242Z</time>
      </trkpt>
      <trkpt lat="42.34914" lon="23.09519">
        <ele>725.798644</ele>
        <time>2022-04-05T10:35:07.250Z</time>
      </trkpt>
      <trkpt lat="42.34903" lon="23.09518">
        <ele>725.731145</ele>
        <time>2022-04-05T10:35:09.238Z</time>
      </trkpt>
      <trkpt lat="42.34893" lon="23.09517">
        <ele>725.665068</ele>
        <time>2022-04-05T10:35:11.241Z</time>
      </trkpt>
      <trkpt lat="42.34882" lon="23.09516">
        <ele>725.599081</ele>
        <time>2022-04-05T10:35:13.229Z</time>
      </trkpt>
      <trkpt lat="42.34871" lon="23.09515">
        <ele>725.530385</ele>
        <time>2022-04-05T10:35:15.241Z</time>
      </trkpt>
      <trkpt lat="42.3486" lon="23.09514">
        <ele>725.461028</ele>
        <time>2022-04-05T10:35:17.220Z</time>
      </trkpt>
      <trkpt lat="42.34848" lon="23.09512">
        <ele>725.388486</ele>
        <time>2022-04-05T10:35:19.268Z</time>
      </trkpt>
      <trkpt lat="42.34837" lon="23.09511">
        <ele>725.316761</ele>
        <time>2022-04-05T10:35:21.273Z</time>
      </trkpt>
      <trkpt lat="42.34826" lon="23.0951">
        <ele>725.249513</ele>
        <time>2022-04-05T10:35:23.239Z</time>
      </trkpt>
      <trkpt lat="42.34817" lon="23.09509">
        <ele>725.190885</ele>
        <time>2022-04-05T10:35:25.249Z</time>
      </trkpt>
      <trkpt lat="42.34805" lon="23.09508">
        <ele>725.117769</ele>
        <time>2022-04-05T10:35:28.238Z</time>
      </trkpt>
      <trkpt lat="42.34794" lon="23.09507">
        <ele>725.017727</ele>
        <time>2022-04-05T10:35:31.222Z</time>
      </trkpt>
      <trkpt lat="42.34785" lon="23.09506">
        <ele>724.909645</ele>
        <time>2022-04-05T10:35:34.244Z</time>
      </trkpt>
      <trkpt lat="42.34775" lon="23.09506">
        <ele>724.805013</ele>
        <time>2022-04-05T10:35:37.240Z</time>
      </trkpt>
      <trkpt lat="42.34765" lon="23.09505">
        <ele>724.692623</ele>
        <time>2022-04-05T10:35:40.272Z</time>
      </trkpt>
      <trkpt lat="42.34754" lon="23.09504">
        <ele>724.57465</ele>
        <time>2022-04-05T10:35:43.231Z</time>
      </trkpt>
      <trkpt lat="42.34742" lon="23.09504">
        <ele>724.445851</ele>
        <time>2022-04-05T10:35:46.261Z</time>
      </trkpt>
      <trkpt lat="42.34729" lon="23.09502">
        <ele>724.304437</ele>
        <time>2022-04-05T10:35:49.236Z</time>
      </trkpt>
      <trkpt lat="42.3472" lon="23.09501">
        <ele>724.20406</ele>
        <time>2022-04-05T10:35:51.243Z</time>
      </trkpt>
      <trkpt lat="42.34707" lon="23.095">
        <ele>724.057948</ele>
        <time>2022-04-05T10:35:54.234Z</time>
      </trkpt>
      <trkpt lat="42.34694" lon="23.09499">
        <ele>723.915451</ele>
        <time>2022-04-05T10:35:57.244Z</time>
      </trkpt>
      <trkpt lat="42.34684" lon="23.09498">
        <ele>723.816251</ele>
        <time>2022-04-05T10:35:59.275Z</time>
      </trkpt>
      <trkpt lat="42.34675" lon="23.09498">
        <ele>723.711631</ele>
        <time>2022-04-05T10:36:01.236Z</time>
      </trkpt>
      <trkpt lat="42.34665" lon="23.09498">
        <ele>723.609077</ele>
        <time>2022-04-05T10:36:03.235Z</time>
      </trkpt>
      <trkpt lat="42.34656" lon="23.09496">
        <ele>723.503565</ele>
        <time>2022-04-05T10:36:05.242Z</time>
      </trkpt>
      <trkpt lat="42.34646" lon="23.09495">
        <ele>723.395312</ele>
        <time>2022-04-05T10:36:07.241Z</time>
      </trkpt>
      <trkpt lat="42.34636" lon="23.09494">
        <ele>723.290318</ele>
        <time>2022-04-05T10:36:09.237Z</time>
      </trkpt>
      <trkpt lat="42.34627" lon="23.09493">
        <ele>723.184302</ele>
        <time>2022-04-05T10:36:11.241Z</time>
      </trkpt>
      <trkpt lat="42.34617" lon="23.09492">
        <ele>723.05577</ele>
        <time>2022-04-05T10:36:13.244Z</time>
      </trkpt>
      <trkpt lat="42.34608" lon="23.09491">
        <ele>722.904083</ele>
        <time>2022-04-05T10:36:15.269Z</time>
      </trkpt>
      <trkpt lat="42.34599" lon="23.09489">
        <ele>722.752396</ele>
        <time>2022-04-05T10:36:17.223Z</time>
      </trkpt>
      <trkpt lat="42.3459" lon="23.09488">
        <ele>722.602631</ele>
        <time>2022-04-05T10:36:19.229Z</time>
      </trkpt>
      <trkpt lat="42.34577" lon="23.09487">
        <ele>722.378772</ele>
        <time>2022-04-05T10:36:22.265Z</time>
      </trkpt>
      <trkpt lat="42.34567" lon="23.09485">
        <ele>722.218724</ele>
        <time>2022-04-05T10:36:24.238Z</time>
      </trkpt>
      <trkpt lat="42.34558" lon="23.09483">
        <ele>722.061804</ele>
        <time>2022-04-05T10:36:26.249Z</time>
      </trkpt>
      <trkpt lat="42.34549" lon="23.09482">
        <ele>721.908474</ele>
        <time>2022-04-05T10:36:28.244Z</time>
      </trkpt>
      <trkpt lat="42.34539" lon="23.09481">
        <ele>721.752246</ele>
        <time>2022-04-05T10:36:30.232Z</time>
      </trkpt>
      <trkpt lat="42.3453" lon="23.09479">
        <ele>721.600407</ele>
        <time>2022-04-05T10:36:32.250Z</time>
      </trkpt>
      <trkpt lat="42.34521" lon="23.09478">
        <ele>721.444178</ele>
        <time>2022-04-05T10:36:34.240Z</time>
      </trkpt>
      <trkpt lat="42.34511" lon="23.09476">
        <ele>721.277412</ele>
        <time>2022-04-05T10:36:36.254Z</time>
      </trkpt>
      <trkpt lat="42.345" lon="23.09475">
        <ele>721.101185</ele>
        <time>2022-04-05T10:36:38.277Z</time>
      </trkpt>
      <trkpt lat="42.34489" lon="23.09473">
        <ele>720.921132</ele>
        <time>2022-04-05T10:36:40.269Z</time>
      </trkpt>
      <trkpt lat="42.34478" lon="23.09471">
        <ele>720.731489</ele>
        <time>2022-04-05T10:36:42.239Z</time>
      </trkpt>
      <trkpt lat="42.34466" lon="23.09469">
        <ele>720.536356</ele>
        <time>2022-04-05T10:36:44.243Z</time>
      </trkpt>
      <trkpt lat="42.34454" lon="23.09467">
        <ele>720.341372</ele>
        <time>2022-04-05T10:36:46.253Z</time>
      </trkpt>
      <trkpt lat="42.34442" lon="23.09466">
        <ele>720.130379</ele>
        <time>2022-04-05T10:36:48.247Z</time>
      </trkpt>
      <trkpt lat="42.3443" lon="23.09464">
        <ele>719.842471</ele>
        <time>2022-04-05T10:36:50.233Z</time>
      </trkpt>
      <trkpt lat="42.34418" lon="23.09462">
        <ele>719.549132</ele>
        <time>2022-04-05T10:36:52.227Z</time>
      </trkpt>
      <trkpt lat="42.34405" lon="23.09461">
        <ele>719.237306</ele>
        <time>2022-04-05T10:36:54.282Z</time>
      </trkpt>
      <trkpt lat="42.34391" lon="23.09458">
        <ele>718.910409</ele>
        <time>2022-04-05T10:36:56.234Z</time>
      </trkpt>
      <trkpt lat="42.34377" lon="23.09456">
        <ele>718.583714</ele>
        <time>2022-04-05T10:36:58.235Z</time>
      </trkpt>
      <trkpt lat="42.34364" lon="23.09454">
        <ele>718.257211</ele>
        <time>2022-04-05T10:37:00.251Z</time>
      </trkpt>
      <trkpt lat="42.3435" lon="23.09452">
        <ele>717.930516</ele>
        <time>2022-04-05T10:37:02.236Z</time>
      </trkpt>
      <trkpt lat="42.34336" lon="23.0945">
        <ele>717.584588</ele>
        <time>2022-04-05T10:37:04.250Z</time>
      </trkpt>
      <trkpt lat="42.34321" lon="23.09448">
        <ele>717.23233</ele>
        <time>2022-04-05T10:37:06.253Z</time>
      </trkpt>
      <trkpt lat="42.34306" lon="23.09446">
        <ele>716.872079</ele>
        <time>2022-04-05T10:37:08.250Z</time>
      </trkpt>
      <trkpt lat="42.34291" lon="23.09443">
        <ele>716.528505</ele>
        <time>2022-04-05T10:37:10.243Z</time>
      </trkpt>
      <trkpt lat="42.34277" lon="23.09441">
        <ele>716.190035</ele>
        <time>2022-04-05T10:37:12.239Z</time>
      </trkpt>
      <trkpt lat="42.34263" lon="23.09439">
        <ele>715.81176</ele>
        <time>2022-04-05T10:37:14.240Z</time>
      </trkpt>
      <trkpt lat="42.34248" lon="23.09438">
        <ele>715.217018</ele>
        <time>2022-04-05T10:37:16.277Z</time>
      </trkpt>
      <trkpt lat="42.34233" lon="23.09437">
        <ele>714.631291</ele>
        <time>2022-04-05T10:37:18.221Z</time>
      </trkpt>
      <trkpt lat="42.34218" lon="23.09436">
        <ele>714.045827</ele>
        <time>2022-04-05T10:37:20.240Z</time>
      </trkpt>
      <trkpt lat="42.34203" lon="23.09435">
        <ele>713.464666</ele>
        <time>2022-04-05T10:37:22.274Z</time>
      </trkpt>
      <trkpt lat="42.34188" lon="23.09436">
        <ele>712.875455</ele>
        <time>2022-04-05T10:37:24.251Z</time>
      </trkpt>
      <trkpt lat="42.34174" lon="23.09437">
        <ele>712.308947</ele>
        <time>2022-04-05T10:37:26.257Z</time>
      </trkpt>
      <trkpt lat="42.3416" lon="23.09439">
        <ele>711.756726</ele>
        <time>2022-04-05T10:37:28.291Z</time>
      </trkpt>
      <trkpt lat="42.34146" lon="23.09442">
        <ele>711.183587</ele>
        <time>2022-04-05T10:37:30.244Z</time>
      </trkpt>
      <trkpt lat="42.34131" lon="23.09445">
        <ele>710.595069</ele>
        <time>2022-04-05T10:37:32.245Z</time>
      </trkpt>
      <trkpt lat="42.34117" lon="23.09448">
        <ele>710.019592</ele>
        <time>2022-04-05T10:37:34.236Z</time>
      </trkpt>
      <trkpt lat="42.34103" lon="23.09451">
        <ele>709.459318</ele>
        <time>2022-04-05T10:37:36.242Z</time>
      </trkpt>
      <trkpt lat="42.3409" lon="23.09455">
        <ele>708.927068</ele>
        <time>2022-04-05T10:37:38.225Z</time>
      </trkpt>
      <trkpt lat="42.34077" lon="23.09459">
        <ele>708.410823</ele>
        <time>2022-04-05T10:37:40.247Z</time>
      </trkpt>
      <trkpt lat="42.34064" lon="23.09464">
        <ele>707.901675</ele>
        <time>2022-04-05T10:37:42.247Z</time>
      </trkpt>
      <trkpt lat="42.34052" lon="23.0947">
        <ele>707.396787</ele>
        <time>2022-04-05T10:37:44.252Z</time>
      </trkpt>
      <trkpt lat="42.34039" lon="23.09475">
        <ele>706.890039</ele>
        <time>2022-04-05T10:37:46.267Z</time>
      </trkpt>
      <trkpt lat="42.34027" lon="23.09481">
        <ele>706.397017</ele>
        <time>2022-04-05T10:37:48.235Z</time>
      </trkpt>
      <trkpt lat="42.34015" lon="23.09487">
        <ele>705.886889</ele>
        <time>2022-04-05T10:37:50.300Z</time>
      </trkpt>
      <trkpt lat="42.34002" lon="23.09494">
        <ele>705.367015</ele>
        <time>2022-04-05T10:37:52.225Z</time>
      </trkpt>
      <trkpt lat="42.33989" lon="23.09502">
        <ele>704.824622</ele>
        <time>2022-04-05T10:37:54.249Z</time>
      </trkpt>
      <trkpt lat="42.33976" lon="23.0951">
        <ele>704.27052</ele>
        <time>2022-04-05T10:37:56.272Z</time>
      </trkpt>
      <trkpt lat="42.33963" lon="23.09518">
        <ele>703.701177</ele>
        <time>2022-04-05T10:37:58.272Z</time>
      </trkpt>
      <trkpt lat="42.33949" lon="23.09526">
        <ele>703.129499</ele>
        <time>2022-04-05T10:38:00.282Z</time>
      </trkpt>
      <trkpt lat="42.33936" lon="23.09535">
        <ele>702.544157</ele>
        <time>2022-04-05T10:38:02.283Z</time>
      </trkpt>
      <trkpt lat="42.33922" lon="23.09545">
        <ele>701.945362</ele>
        <time>2022-04-05T10:38:04.244Z</time>
      </trkpt>
      <trkpt lat="42.33908" lon="23.09554">
        <ele>701.428901</ele>
        <time>2022-04-05T10:38:06.249Z</time>
      </trkpt>
      <trkpt lat="42.33894" lon="23.09563">
        <ele>700.937729</ele>
        <time>2022-04-05T10:38:08.273Z</time>
      </trkpt>
      <trkpt lat="42.3388" lon="23.09572">
        <ele>700.442614</ele>
        <time>2022-04-05T10:38:10.247Z</time>
      </trkpt>
      <trkpt lat="42.33866" lon="23.09581">
        <ele>699.934846</ele>
        <time>2022-04-05T10:38:12.243Z</time>
      </trkpt>
      <trkpt lat="42.33852" lon="23.0959">
        <ele>699.433049</ele>
        <time>2022-04-05T10:38:14.265Z</time>
      </trkpt>
      <trkpt lat="42.33838" lon="23.09599">
        <ele>698.933989</ele>
        <time>2022-04-05T10:38:16.238Z</time>
      </trkpt>
      <trkpt lat="42.33824" lon="23.09608">
        <ele>698.427332</ele>
        <time>2022-04-05T10:38:18.249Z</time>
      </trkpt>
      <trkpt lat="42.3381" lon="23.09617">
        <ele>697.933394</ele>
        <time>2022-04-05T10:38:20.242Z</time>
      </trkpt>
      <trkpt lat="42.33795" lon="23.09625">
        <ele>697.425743</ele>
        <time>2022-04-05T10:38:22.237Z</time>
      </trkpt>
      <trkpt lat="42.33782" lon="23.09633">
        <ele>696.940598</ele>
        <time>2022-04-05T10:38:24.247Z</time>
      </trkpt>
      <trkpt lat="42.33768" lon="23.09641">
        <ele>696.464313</ele>
        <time>2022-04-05T10:38:26.229Z</time>
      </trkpt>
      <trkpt lat="42.33754" lon="23.09649">
        <ele>695.958312</ele>
        <time>2022-04-05T10:38:28.237Z</time>
      </trkpt>
      <trkpt lat="42.3374" lon="23.09656">
        <ele>695.331947</ele>
        <time>2022-04-05T10:38:30.249Z</time>
      </trkpt>
      <trkpt lat="42.33727" lon="23.09663">
        <ele>694.709573</ele>
        <time>2022-04-05T10:38:32.243Z</time>
      </trkpt>
      <trkpt lat="42.33713" lon="23.09669">
        <ele>694.076391</ele>
        <time>2022-04-05T10:38:34.244Z</time>
      </trkpt>
      <trkpt lat="42.33698" lon="23.09676">
        <ele>693.428967</ele>
        <time>2022-04-05T10:38:36.276Z</time>
      </trkpt>
      <trkpt lat="42.33683" lon="23.09682">
        <ele>692.771187</ele>
        <time>2022-04-05T10:38:38.253Z</time>
      </trkpt>
      <trkpt lat="42.33668" lon="23.09688">
        <ele>692.100268</ele>
        <time>2022-04-05T10:38:40.237Z</time>
      </trkpt>
      <trkpt lat="42.33653" lon="23.09694">
        <ele>691.418843</ele>
        <time>2022-04-05T10:38:42.249Z</time>
      </trkpt>
      <trkpt lat="42.33637" lon="23.09699">
        <ele>690.721848</ele>
        <time>2022-04-05T10:38:44.249Z</time>
      </trkpt>
      <trkpt lat="42.33621" lon="23.09705">
        <ele>690.007593</ele>
        <time>2022-04-05T10:38:46.229Z</time>
      </trkpt>
      <trkpt lat="42.33604" lon="23.09711">
        <ele>689.286703</ele>
        <time>2022-04-05T10:38:48.240Z</time>
      </trkpt>
      <trkpt lat="42.33588" lon="23.09717">
        <ele>688.56169</ele>
        <time>2022-04-05T10:38:50.242Z</time>
      </trkpt>
      <trkpt lat="42.33571" lon="23.09722">
        <ele>687.803155</ele>
        <time>2022-04-05T10:38:52.259Z</time>
      </trkpt>
      <trkpt lat="42.33562" lon="23.09725">
        <ele>687.414104</ele>
        <time>2022-04-05T10:38:53.241Z</time>
      </trkpt>
      <trkpt lat="42.33544" lon="23.09731">
        <ele>686.641616</ele>
        <time>2022-04-05T10:38:55.245Z</time>
      </trkpt>
      <trkpt lat="42.33535" lon="23.09734">
        <ele>686.244327</ele>
        <time>2022-04-05T10:38:56.242Z</time>
      </trkpt>
      <trkpt lat="42.33526" lon="23.09737">
        <ele>685.851158</ele>
        <time>2022-04-05T10:38:57.255Z</time>
      </trkpt>
      <trkpt lat="42.33517" lon="23.0974">
        <ele>685.45799</ele>
        <time>2022-04-05T10:38:58.279Z</time>
      </trkpt>
      <trkpt lat="42.33508" lon="23.09743">
        <ele>685.059947</ele>
        <time>2022-04-05T10:38:59.255Z</time>
      </trkpt>
      <trkpt lat="42.33499" lon="23.09746">
        <ele>684.662658</ele>
        <time>2022-04-05T10:39:00.245Z</time>
      </trkpt>
      <trkpt lat="42.3349" lon="23.09749">
        <ele>684.278475</ele>
        <time>2022-04-05T10:39:01.241Z</time>
      </trkpt>
      <trkpt lat="42.33481" lon="23.09752">
        <ele>683.894292</ele>
        <time>2022-04-05T10:39:02.253Z</time>
      </trkpt>
      <trkpt lat="42.33464" lon="23.09758">
        <ele>683.139267</ele>
        <time>2022-04-05T10:39:04.267Z</time>
      </trkpt>
      <trkpt lat="42.33446" lon="23.09764">
        <ele>682.375761</ele>
        <time>2022-04-05T10:39:06.237Z</time>
      </trkpt>
      <trkpt lat="42.33438" lon="23.09767">
        <ele>681.995697</ele>
        <time>2022-04-05T10:39:07.236Z</time>
      </trkpt>
      <trkpt lat="42.33429" lon="23.0977">
        <ele>681.603267</ele>
        <time>2022-04-05T10:39:08.241Z</time>
      </trkpt>
      <trkpt lat="42.3342" lon="23.09773">
        <ele>681.218329</ele>
        <time>2022-04-05T10:39:09.238Z</time>
      </trkpt>
      <trkpt lat="42.33411" lon="23.09775">
        <ele>680.830745</ele>
        <time>2022-04-05T10:39:10.225Z</time>
      </trkpt>
      <trkpt lat="42.33402" lon="23.09778">
        <ele>680.433054</ele>
        <time>2022-04-05T10:39:11.241Z</time>
      </trkpt>
      <trkpt lat="42.33392" lon="23.0978">
        <ele>680.037898</ele>
        <time>2022-04-05T10:39:12.255Z</time>
      </trkpt>
      <trkpt lat="42.33383" lon="23.09782">
        <ele>679.644205</ele>
        <time>2022-04-05T10:39:13.236Z</time>
      </trkpt>
      <trkpt lat="42.33373" lon="23.09785">
        <ele>679.2421</ele>
        <time>2022-04-05T10:39:14.253Z</time>
      </trkpt>
      <trkpt lat="42.33364" lon="23.09788">
        <ele>678.83582</ele>
        <time>2022-04-05T10:39:15.225Z</time>
      </trkpt>
      <trkpt lat="42.33354" lon="23.09791">
        <ele>678.422246</ele>
        <time>2022-04-05T10:39:16.273Z</time>
      </trkpt>
      <trkpt lat="42.33345" lon="23.09794">
        <ele>678.017446</ele>
        <time>2022-04-05T10:39:17.241Z</time>
      </trkpt>
      <trkpt lat="42.33335" lon="23.09797">
        <ele>677.612645</ele>
        <time>2022-04-05T10:39:18.244Z</time>
      </trkpt>
      <trkpt lat="42.33326" lon="23.09801">
        <ele>677.206364</ele>
        <time>2022-04-05T10:39:19.246Z</time>
      </trkpt>
      <trkpt lat="42.33316" lon="23.09804">
        <ele>676.797702</ele>
        <time>2022-04-05T10:39:20.251Z</time>
      </trkpt>
      <trkpt lat="42.33307" lon="23.09808">
        <ele>676.399247</ele>
        <time>2022-04-05T10:39:21.236Z</time>
      </trkpt>
      <trkpt lat="42.33298" lon="23.09812">
        <ele>675.995014</ele>
        <time>2022-04-05T10:39:22.293Z</time>
      </trkpt>
      <trkpt lat="42.33288" lon="23.09816">
        <ele>675.592811</ele>
        <time>2022-04-05T10:39:23.245Z</time>
      </trkpt>
      <trkpt lat="42.33279" lon="23.0982">
        <ele>675.202271</ele>
        <time>2022-04-05T10:39:24.238Z</time>
      </trkpt>
      <trkpt lat="42.3327" lon="23.09824">
        <ele>674.807908</ele>
        <time>2022-04-05T10:39:25.249Z</time>
      </trkpt>
      <trkpt lat="42.33261" lon="23.09829">
        <ele>674.414338</ele>
        <time>2022-04-05T10:39:26.241Z</time>
      </trkpt>
      <trkpt lat="42.33253" lon="23.09834">
        <ele>674.015323</ele>
        <time>2022-04-05T10:39:27.249Z</time>
      </trkpt>
      <trkpt lat="42.33244" lon="23.0984">
        <ele>673.624668</ele>
        <time>2022-04-05T10:39:28.250Z</time>
      </trkpt>
      <trkpt lat="42.33236" lon="23.09846">
        <ele>673.214901</ele>
        <time>2022-04-05T10:39:29.243Z</time>
      </trkpt>
      <trkpt lat="42.33227" lon="23.09851">
        <ele>672.727081</ele>
        <time>2022-04-05T10:39:30.242Z</time>
      </trkpt>
      <trkpt lat="42.33218" lon="23.09857">
        <ele>672.223447</ele>
        <time>2022-04-05T10:39:31.234Z</time>
      </trkpt>
      <trkpt lat="42.3321" lon="23.09862">
        <ele>671.724464</ele>
        <time>2022-04-05T10:39:32.246Z</time>
      </trkpt>
      <trkpt lat="42.33201" lon="23.09868">
        <ele>671.22083</ele>
        <time>2022-04-05T10:39:33.289Z</time>
      </trkpt>
      <trkpt lat="42.33192" lon="23.09874">
        <ele>670.712147</ele>
        <time>2022-04-05T10:39:34.244Z</time>
      </trkpt>
      <trkpt lat="42.33183" lon="23.0988">
        <ele>670.195899</ele>
        <time>2022-04-05T10:39:35.251Z</time>
      </trkpt>
      <trkpt lat="42.33174" lon="23.09886">
        <ele>669.677393</ele>
        <time>2022-04-05T10:39:36.245Z</time>
      </trkpt>
      <trkpt lat="42.33165" lon="23.09893">
        <ele>669.161659</ele>
        <time>2022-04-05T10:39:37.233Z</time>
      </trkpt>
      <trkpt lat="42.33157" lon="23.09899">
        <ele>668.650466</ele>
        <time>2022-04-05T10:39:38.231Z</time>
      </trkpt>
      <trkpt lat="42.33148" lon="23.09906">
        <ele>668.122022</ele>
        <time>2022-04-05T10:39:39.239Z</time>
      </trkpt>
      <trkpt lat="42.33139" lon="23.09912">
        <ele>667.617185</ele>
        <time>2022-04-05T10:39:40.249Z</time>
      </trkpt>
      <trkpt lat="42.33131" lon="23.09918">
        <ele>667.130404</ele>
        <time>2022-04-05T10:39:41.240Z</time>
      </trkpt>
      <trkpt lat="42.33122" lon="23.09925">
        <ele>666.626388</ele>
        <time>2022-04-05T10:39:42.243Z</time>
      </trkpt>
      <trkpt lat="42.33114" lon="23.09931">
        <ele>666.122372</ele>
        <time>2022-04-05T10:39:43.241Z</time>
      </trkpt>
      <trkpt lat="42.33105" lon="23.09938">
        <ele>665.607488</ele>
        <time>2022-04-05T10:39:44.263Z</time>
      </trkpt>
      <trkpt lat="42.33097" lon="23.09944">
        <ele>665.106053</ele>
        <time>2022-04-05T10:39:45.232Z</time>
      </trkpt>
      <trkpt lat="42.33088" lon="23.09951">
        <ele>664.595664</ele>
        <time>2022-04-05T10:39:46.245Z</time>
      </trkpt>
      <trkpt lat="42.3308" lon="23.09957">
        <ele>664.108077</ele>
        <time>2022-04-05T10:39:47.255Z</time>
      </trkpt>
      <trkpt lat="42.33072" lon="23.09963">
        <ele>663.6209</ele>
        <time>2022-04-05T10:39:48.258Z</time>
      </trkpt>
      <trkpt lat="42.33057" lon="23.09975">
        <ele>662.672898</ele>
        <time>2022-04-05T10:39:50.263Z</time>
      </trkpt>
      <trkpt lat="42.33048" lon="23.09981">
        <ele>662.182006</ele>
        <time>2022-04-05T10:39:51.240Z</time>
      </trkpt>
      <trkpt lat="42.3304" lon="23.09986">
        <ele>661.695842</ele>
        <time>2022-04-05T10:39:52.251Z</time>
      </trkpt>
      <trkpt lat="42.33032" lon="23.09993">
        <ele>661.203955</ele>
        <time>2022-04-05T10:39:53.231Z</time>
      </trkpt>
      <trkpt lat="42.33024" lon="23.09999">
        <ele>660.682897</ele>
        <time>2022-04-05T10:39:54.235Z</time>
      </trkpt>
      <trkpt lat="42.33016" lon="23.10005">
        <ele>660.175047</ele>
        <time>2022-04-05T10:39:55.236Z</time>
      </trkpt>
      <trkpt lat="42.33007" lon="23.10011">
        <ele>659.655903</ele>
        <time>2022-04-05T10:39:56.224Z</time>
      </trkpt>
      <trkpt lat="42.32998" lon="23.10018">
        <ele>659.114153</ele>
        <time>2022-04-05T10:39:57.241Z</time>
      </trkpt>
      <trkpt lat="42.32989" lon="23.10024">
        <ele>658.588084</ele>
        <time>2022-04-05T10:39:58.264Z</time>
      </trkpt>
      <trkpt lat="42.32981" lon="23.10029">
        <ele>658.063987</ele>
        <time>2022-04-05T10:39:59.258Z</time>
      </trkpt>
      <trkpt lat="42.32971" lon="23.10035">
        <ele>657.507334</ele>
        <time>2022-04-05T10:40:00.233Z</time>
      </trkpt>
      <trkpt lat="42.32961" lon="23.1004">
        <ele>656.9455</ele>
        <time>2022-04-05T10:40:01.247Z</time>
      </trkpt>
      <trkpt lat="42.32952" lon="23.10045">
        <ele>656.387238</ele>
        <time>2022-04-05T10:40:02.278Z</time>
      </trkpt>
      <trkpt lat="42.32942" lon="23.1005">
        <ele>655.827833</ele>
        <time>2022-04-05T10:40:03.238Z</time>
      </trkpt>
      <trkpt lat="42.32932" lon="23.10054">
        <ele>655.272098</ele>
        <time>2022-04-05T10:40:04.229Z</time>
      </trkpt>
      <trkpt lat="42.32922" lon="23.10058">
        <ele>654.719802</ele>
        <time>2022-04-05T10:40:05.247Z</time>
      </trkpt>
      <trkpt lat="42.32912" lon="23.10061">
        <ele>654.207009</ele>
        <time>2022-04-05T10:40:06.258Z</time>
      </trkpt>
      <trkpt lat="42.32903" lon="23.10064">
        <ele>653.706155</ele>
        <time>2022-04-05T10:40:07.242Z</time>
      </trkpt>
      <trkpt lat="42.32893" lon="23.10066">
        <ele>653.192971</ele>
        <time>2022-04-05T10:40:08.270Z</time>
      </trkpt>
      <trkpt lat="42.32884" lon="23.10068">
        <ele>652.692924</ele>
        <time>2022-04-05T10:40:09.256Z</time>
      </trkpt>
      <trkpt lat="42.32874" lon="23.1007">
        <ele>652.178502</ele>
        <time>2022-04-05T10:40:10.259Z</time>
      </trkpt>
      <trkpt lat="42.32864" lon="23.10071">
        <ele>651.671436</ele>
        <time>2022-04-05T10:40:11.221Z</time>
      </trkpt>
      <trkpt lat="42.32854" lon="23.10072">
        <ele>651.143788</ele>
        <time>2022-04-05T10:40:12.239Z</time>
      </trkpt>
      <trkpt lat="42.32844" lon="23.10072">
        <ele>650.642141</ele>
        <time>2022-04-05T10:40:13.228Z</time>
      </trkpt>
      <trkpt lat="42.32834" lon="23.10073">
        <ele>650.135592</ele>
        <time>2022-04-05T10:40:14.286Z</time>
      </trkpt>
      <trkpt lat="42.32816" lon="23.10074">
        <ele>649.206383</ele>
        <time>2022-04-05T10:40:16.232Z</time>
      </trkpt>
      <trkpt lat="42.32807" lon="23.10074">
        <ele>648.742013</ele>
        <time>2022-04-05T10:40:17.237Z</time>
      </trkpt>
      <trkpt lat="42.32798" lon="23.10074">
        <ele>648.267279</ele>
        <time>2022-04-05T10:40:18.243Z</time>
      </trkpt>
      <trkpt lat="42.32788" lon="23.10074">
        <ele>647.771968</ele>
        <time>2022-04-05T10:40:19.240Z</time>
      </trkpt>
      <trkpt lat="42.32779" lon="23.10074">
        <ele>647.271498</ele>
        <time>2022-04-05T10:40:20.229Z</time>
      </trkpt>
      <trkpt lat="42.32769" lon="23.10074">
        <ele>646.75039</ele>
        <time>2022-04-05T10:40:21.237Z</time>
      </trkpt>
      <trkpt lat="42.32759" lon="23.10074">
        <ele>646.255079</ele>
        <time>2022-04-05T10:40:22.240Z</time>
      </trkpt>
      <trkpt lat="42.32749" lon="23.10075">
        <ele>645.764869</ele>
        <time>2022-04-05T10:40:23.248Z</time>
      </trkpt>
      <trkpt lat="42.3274" lon="23.10075">
        <ele>645.284976</ele>
        <time>2022-04-05T10:40:24.227Z</time>
      </trkpt>
      <trkpt lat="42.32731" lon="23.10075">
        <ele>644.761705</ele>
        <time>2022-04-05T10:40:25.262Z</time>
      </trkpt>
      <trkpt lat="42.32713" lon="23.10075">
        <ele>643.71098</ele>
        <time>2022-04-05T10:40:27.240Z</time>
      </trkpt>
      <trkpt lat="42.32695" lon="23.10076">
        <ele>642.660192</ele>
        <time>2022-04-05T10:40:29.251Z</time>
      </trkpt>
      <trkpt lat="42.32686" lon="23.10076">
        <ele>642.131864</ele>
        <time>2022-04-05T10:40:30.241Z</time>
      </trkpt>
      <trkpt lat="42.32669" lon="23.10077">
        <ele>641.110115</ele>
        <time>2022-04-05T10:40:32.244Z</time>
      </trkpt>
      <trkpt lat="42.32653" lon="23.10077">
        <ele>640.194213</ele>
        <time>2022-04-05T10:40:34.257Z</time>
      </trkpt>
      <trkpt lat="42.32636" lon="23.10078">
        <ele>639.207895</ele>
        <time>2022-04-05T10:40:36.248Z</time>
      </trkpt>
      <trkpt lat="42.32627" lon="23.10078">
        <ele>638.667272</ele>
        <time>2022-04-05T10:40:37.229Z</time>
      </trkpt>
      <trkpt lat="42.32617" lon="23.10079">
        <ele>638.10353</ele>
        <time>2022-04-05T10:40:38.232Z</time>
      </trkpt>
      <trkpt lat="42.32608" lon="23.10079">
        <ele>637.557234</ele>
        <time>2022-04-05T10:40:39.234Z</time>
      </trkpt>
      <trkpt lat="42.32598" lon="23.10079">
        <ele>636.964158</ele>
        <time>2022-04-05T10:40:40.236Z</time>
      </trkpt>
      <trkpt lat="42.32587" lon="23.1008">
        <ele>636.31838</ele>
        <time>2022-04-05T10:40:41.229Z</time>
      </trkpt>
      <trkpt lat="42.32576" lon="23.1008">
        <ele>635.666805</ele>
        <time>2022-04-05T10:40:42.265Z</time>
      </trkpt>
      <trkpt lat="42.32564" lon="23.1008">
        <ele>634.985885</ele>
        <time>2022-04-05T10:40:43.242Z</time>
      </trkpt>
      <trkpt lat="42.32552" lon="23.1008">
        <ele>634.261218</ele>
        <time>2022-04-05T10:40:44.231Z</time>
      </trkpt>
      <trkpt lat="42.32541" lon="23.1008">
        <ele>633.53752</ele>
        <time>2022-04-05T10:40:45.251Z</time>
      </trkpt>
      <trkpt lat="42.3253" lon="23.1008">
        <ele>632.882992</ele>
        <time>2022-04-05T10:40:46.257Z</time>
      </trkpt>
      <trkpt lat="42.3252" lon="23.1008">
        <ele>632.209395</ele>
        <time>2022-04-05T10:40:47.238Z</time>
      </trkpt>
      <trkpt lat="42.32508" lon="23.10079">
        <ele>631.49775</ele>
        <time>2022-04-05T10:40:48.276Z</time>
      </trkpt>
      <trkpt lat="42.32497" lon="23.10078">
        <ele>630.78568</ele>
        <time>2022-04-05T10:40:49.255Z</time>
      </trkpt>
      <trkpt lat="42.32486" lon="23.10077">
        <ele>630.103758</ele>
        <time>2022-04-05T10:40:50.236Z</time>
      </trkpt>
      <trkpt lat="42.32475" lon="23.10076">
        <ele>629.402216</ele>
        <time>2022-04-05T10:40:51.243Z</time>
      </trkpt>
      <trkpt lat="42.32464" lon="23.10075">
        <ele>628.715013</ele>
        <time>2022-04-05T10:40:52.254Z</time>
      </trkpt>
      <trkpt lat="42.32454" lon="23.10073">
        <ele>628.044325</ele>
        <time>2022-04-05T10:40:53.238Z</time>
      </trkpt>
      <trkpt lat="42.32443" lon="23.10071">
        <ele>627.347814</ele>
        <time>2022-04-05T10:40:54.280Z</time>
      </trkpt>
      <trkpt lat="42.32433" lon="23.10067">
        <ele>626.700065</ele>
        <time>2022-04-05T10:40:55.236Z</time>
      </trkpt>
      <trkpt lat="42.32423" lon="23.10064">
        <ele>626.076742</ele>
        <time>2022-04-05T10:40:56.237Z</time>
      </trkpt>
      <trkpt lat="42.32414" lon="23.10061">
        <ele>625.46927</ele>
        <time>2022-04-05T10:40:57.255Z</time>
      </trkpt>
      <trkpt lat="42.32404" lon="23.10056">
        <ele>624.826909</ele>
        <time>2022-04-05T10:40:58.237Z</time>
      </trkpt>
      <trkpt lat="42.32394" lon="23.10051">
        <ele>624.169415</ele>
        <time>2022-04-05T10:40:59.251Z</time>
      </trkpt>
      <trkpt lat="42.32384" lon="23.10046">
        <ele>623.48832</ele>
        <time>2022-04-05T10:41:00.237Z</time>
      </trkpt>
      <trkpt lat="42.32375" lon="23.1004">
        <ele>622.870986</ele>
        <time>2022-04-05T10:41:01.223Z</time>
      </trkpt>
      <trkpt lat="42.32365" lon="23.10034">
        <ele>622.25457</ele>
        <time>2022-04-05T10:41:02.225Z</time>
      </trkpt>
      <trkpt lat="42.32356" lon="23.10028">
        <ele>621.620237</ele>
        <time>2022-04-05T10:41:03.241Z</time>
      </trkpt>
      <trkpt lat="42.32346" lon="23.10021">
        <ele>620.984</ele>
        <time>2022-04-05T10:41:04.244Z</time>
      </trkpt>
      <trkpt lat="42.32336" lon="23.10014">
        <ele>620.361346</ele>
        <time>2022-04-05T10:41:05.233Z</time>
      </trkpt>
      <trkpt lat="42.32326" lon="23.10007">
        <ele>619.702969</ele>
        <time>2022-04-05T10:41:06.263Z</time>
      </trkpt>
      <trkpt lat="42.32316" lon="23.1">
        <ele>619.041449</ele>
        <time>2022-04-05T10:41:07.234Z</time>
      </trkpt>
      <trkpt lat="42.32306" lon="23.09993">
        <ele>618.385079</ele>
        <time>2022-04-05T10:41:08.237Z</time>
      </trkpt>
      <trkpt lat="42.32296" lon="23.09986">
        <ele>617.71442</ele>
        <time>2022-04-05T10:41:09.236Z</time>
      </trkpt>
      <trkpt lat="42.32286" lon="23.09978">
        <ele>617.043761</ele>
        <time>2022-04-05T10:41:10.240Z</time>
      </trkpt>
      <trkpt lat="42.32276" lon="23.09971">
        <ele>616.363928</ele>
        <time>2022-04-05T10:41:11.230Z</time>
      </trkpt>
      <trkpt lat="42.32265" lon="23.09963">
        <ele>615.662258</ele>
        <time>2022-04-05T10:41:12.225Z</time>
      </trkpt>
      <trkpt lat="42.32254" lon="23.09956">
        <ele>614.972168</ele>
        <time>2022-04-05T10:41:13.249Z</time>
      </trkpt>
      <trkpt lat="42.32244" lon="23.09948">
        <ele>614.285179</ele>
        <time>2022-04-05T10:41:14.228Z</time>
      </trkpt>
      <trkpt lat="42.32233" lon="23.09941">
        <ele>613.602234</ele>
        <time>2022-04-05T10:41:15.244Z</time>
      </trkpt>
      <trkpt lat="42.32223" lon="23.09934">
        <ele>612.931573</ele>
        <time>2022-04-05T10:41:16.257Z</time>
      </trkpt>
      <trkpt lat="42.32213" lon="23.09926">
        <ele>612.644836</ele>
        <time>2022-04-05T10:41:17.228Z</time>
      </trkpt>
      <trkpt lat="42.32203" lon="23.09919">
        <ele>612.455634</ele>
        <time>2022-04-05T10:41:18.242Z</time>
      </trkpt>
      <trkpt lat="42.32193" lon="23.09912">
        <ele>612.26846</ele>
        <time>2022-04-05T10:41:19.236Z</time>
      </trkpt>
      <trkpt lat="42.32183" lon="23.09904">
        <ele>612.07578</ele>
        <time>2022-04-05T10:41:20.231Z</time>
      </trkpt>
      <trkpt lat="42.32172" lon="23.09896">
        <ele>611.876143</ele>
        <time>2022-04-05T10:41:21.224Z</time>
      </trkpt>
      <trkpt lat="42.32161" lon="23.09888">
        <ele>611.672138</ele>
        <time>2022-04-05T10:41:22.244Z</time>
      </trkpt>
      <trkpt lat="42.32151" lon="23.0988">
        <ele>611.465501</ele>
        <time>2022-04-05T10:41:23.228Z</time>
      </trkpt>
      <trkpt lat="42.32139" lon="23.09871">
        <ele>611.244136</ele>
        <time>2022-04-05T10:41:24.258Z</time>
      </trkpt>
      <trkpt lat="42.32128" lon="23.09863">
        <ele>611.037838</ele>
        <time>2022-04-05T10:41:25.250Z</time>
      </trkpt>
      <trkpt lat="42.32117" lon="23.09855">
        <ele>610.831237</ele>
        <time>2022-04-05T10:41:26.223Z</time>
      </trkpt>
      <trkpt lat="42.32106" lon="23.09847">
        <ele>610.626092</ele>
        <time>2022-04-05T10:41:27.270Z</time>
      </trkpt>
      <trkpt lat="42.32095" lon="23.09839">
        <ele>610.421516</ele>
        <time>2022-04-05T10:41:28.253Z</time>
      </trkpt>
      <trkpt lat="42.32084" lon="23.09832">
        <ele>610.223188</ele>
        <time>2022-04-05T10:41:29.232Z</time>
      </trkpt>
      <trkpt lat="42.32073" lon="23.09825">
        <ele>610.024958</ele>
        <time>2022-04-05T10:41:30.242Z</time>
      </trkpt>
      <trkpt lat="42.32062" lon="23.09819">
        <ele>609.829713</ele>
        <time>2022-04-05T10:41:31.235Z</time>
      </trkpt>
      <trkpt lat="42.32051" lon="23.09813">
        <ele>609.438976</ele>
        <time>2022-04-05T10:41:32.220Z</time>
      </trkpt>
      <trkpt lat="42.3204" lon="23.09807">
        <ele>609.047864</ele>
        <time>2022-04-05T10:41:33.251Z</time>
      </trkpt>
      <trkpt lat="42.32029" lon="23.09802">
        <ele>608.669407</ele>
        <time>2022-04-05T10:41:34.238Z</time>
      </trkpt>
      <trkpt lat="42.32019" lon="23.09797">
        <ele>608.3027</ele>
        <time>2022-04-05T10:41:35.236Z</time>
      </trkpt>
      <trkpt lat="42.32008" lon="23.09793">
        <ele>607.955334</ele>
        <time>2022-04-05T10:41:36.243Z</time>
      </trkpt>
      <trkpt lat="42.31998" lon="23.0979">
        <ele>607.615075</ele>
        <time>2022-04-05T10:41:37.232Z</time>
      </trkpt>
      <trkpt lat="42.31988" lon="23.09786">
        <ele>607.269598</ele>
        <time>2022-04-05T10:41:38.278Z</time>
      </trkpt>
      <trkpt lat="42.31978" lon="23.09784">
        <ele>606.93692</ele>
        <time>2022-04-05T10:41:39.237Z</time>
      </trkpt>
      <trkpt lat="42.31969" lon="23.09781">
        <ele>606.611179</ele>
        <time>2022-04-05T10:41:40.250Z</time>
      </trkpt>
      <trkpt lat="42.3196" lon="23.09779">
        <ele>606.307085</ele>
        <time>2022-04-05T10:41:41.237Z</time>
      </trkpt>
      <trkpt lat="42.3195" lon="23.09777">
        <ele>605.994003</ele>
        <time>2022-04-05T10:41:42.261Z</time>
      </trkpt>
      <trkpt lat="42.31941" lon="23.09776">
        <ele>605.692308</ele>
        <time>2022-04-05T10:41:43.234Z</time>
      </trkpt>
      <trkpt lat="42.31924" lon="23.09774">
        <ele>605.114179</ele>
        <time>2022-04-05T10:41:45.236Z</time>
      </trkpt>
      <trkpt lat="42.31907" lon="23.09773">
        <ele>604.570214</ele>
        <time>2022-04-05T10:41:47.233Z</time>
      </trkpt>
      <trkpt lat="42.31891" lon="23.09773">
        <ele>604.046433</ele>
        <time>2022-04-05T10:41:49.239Z</time>
      </trkpt>
      <trkpt lat="42.31877" lon="23.09774">
        <ele>603.749849</ele>
        <time>2022-04-05T10:41:51.258Z</time>
      </trkpt>
      <trkpt lat="42.31863" lon="23.09776">
        <ele>603.538978</ele>
        <time>2022-04-05T10:41:53.243Z</time>
      </trkpt>
      <trkpt lat="42.31849" lon="23.09779">
        <ele>603.32981</ele>
        <time>2022-04-05T10:41:55.241Z</time>
      </trkpt>
      <trkpt lat="42.31835" lon="23.09783">
        <ele>603.12092</ele>
        <time>2022-04-05T10:41:57.235Z</time>
      </trkpt>
      <trkpt lat="42.31822" lon="23.09787">
        <ele>602.926434</ele>
        <time>2022-04-05T10:41:59.229Z</time>
      </trkpt>
      <trkpt lat="42.31811" lon="23.09791">
        <ele>602.744555</ele>
        <time>2022-04-05T10:42:01.232Z</time>
      </trkpt>
      <trkpt lat="42.318" lon="23.09797">
        <ele>602.570684</ele>
        <time>2022-04-05T10:42:03.252Z</time>
      </trkpt>
      <trkpt lat="42.31789" lon="23.09801">
        <ele>602.397859</ele>
        <time>2022-04-05T10:42:05.224Z</time>
      </trkpt>
      <trkpt lat="42.31778" lon="23.09807">
        <ele>602.224666</ele>
        <time>2022-04-05T10:42:07.278Z</time>
      </trkpt>
      <trkpt lat="42.31768" lon="23.09812">
        <ele>602.069451</ele>
        <time>2022-04-05T10:42:09.248Z</time>
      </trkpt>
      <trkpt lat="42.31758" lon="23.09817">
        <ele>601.910651</ele>
        <time>2022-04-05T10:42:11.218Z</time>
      </trkpt>
      <trkpt lat="42.31748" lon="23.09822">
        <ele>601.743681</ele>
        <time>2022-04-05T10:42:13.256Z</time>
      </trkpt>
      <trkpt lat="42.31737" lon="23.09828">
        <ele>601.56952</ele>
        <time>2022-04-05T10:42:15.240Z</time>
      </trkpt>
      <trkpt lat="42.31726" lon="23.09834">
        <ele>601.399362</ele>
        <time>2022-04-05T10:42:17.221Z</time>
      </trkpt>
      <trkpt lat="42.31716" lon="23.0984">
        <ele>601.230187</ele>
        <time>2022-04-05T10:42:19.241Z</time>
      </trkpt>
      <trkpt lat="42.31706" lon="23.09845">
        <ele>601.425676</ele>
        <time>2022-04-05T10:42:21.237Z</time>
      </trkpt>
      <trkpt lat="42.31697" lon="23.09851">
        <ele>601.642125</ele>
        <time>2022-04-05T10:42:23.231Z</time>
      </trkpt>
      <trkpt lat="42.31688" lon="23.09856">
        <ele>601.856191</ele>
        <time>2022-04-05T10:42:25.251Z</time>
      </trkpt>
      <trkpt lat="42.31679" lon="23.0986">
        <ele>602.059015</ele>
        <time>2022-04-05T10:42:27.238Z</time>
      </trkpt>
      <trkpt lat="42.3167" lon="23.09865">
        <ele>602.256439</ele>
        <time>2022-04-05T10:42:29.218Z</time>
      </trkpt>
      <trkpt lat="42.31658" lon="23.09872">
        <ele>602.538742</ele>
        <time>2022-04-05T10:42:32.227Z</time>
      </trkpt>
      <trkpt lat="42.31646" lon="23.09879">
        <ele>602.827651</ele>
        <time>2022-04-05T10:42:35.257Z</time>
      </trkpt>
      <trkpt lat="42.31634" lon="23.09886">
        <ele>603.117337</ele>
        <time>2022-04-05T10:42:38.219Z</time>
      </trkpt>
      <trkpt lat="42.31622" lon="23.09892">
        <ele>603.396022</ele>
        <time>2022-04-05T10:42:41.217Z</time>
      </trkpt>
      <trkpt lat="42.31609" lon="23.09899">
        <ele>603.690167</ele>
        <time>2022-04-05T10:42:44.218Z</time>
      </trkpt>
      <trkpt lat="42.316" lon="23.09904">
        <ele>603.8962</ele>
        <time>2022-04-05T10:42:46.233Z</time>
      </trkpt>
      <trkpt lat="42.31592" lon="23.09909">
        <ele>604.100234</ele>
        <time>2022-04-05T10:42:48.245Z</time>
      </trkpt>
      <trkpt lat="42.31583" lon="23.09914">
        <ele>604.297041</ele>
        <time>2022-04-05T10:42:50.222Z</time>
      </trkpt>
      <trkpt lat="42.31571" lon="23.0992">
        <ele>604.58554</ele>
        <time>2022-04-05T10:42:53.231Z</time>
      </trkpt>
      <trkpt lat="42.31559" lon="23.09928">
        <ele>604.877694</ele>
        <time>2022-04-05T10:42:56.241Z</time>
      </trkpt>
      <trkpt lat="42.3155" lon="23.09932">
        <ele>605.077738</ele>
        <time>2022-04-05T10:42:58.238Z</time>
      </trkpt>
      <trkpt lat="42.31541" lon="23.09938">
        <ele>605.10041</ele>
        <time>2022-04-05T10:43:00.256Z</time>
      </trkpt>
      <trkpt lat="42.31533" lon="23.09942">
        <ele>605.091201</ele>
        <time>2022-04-05T10:43:02.239Z</time>
      </trkpt>
      <trkpt lat="42.31524" lon="23.09947">
        <ele>605.08202</ele>
        <time>2022-04-05T10:43:04.247Z</time>
      </trkpt>
      <trkpt lat="42.31515" lon="23.09952">
        <ele>605.072274</ele>
        <time>2022-04-05T10:43:06.220Z</time>
      </trkpt>
      <trkpt lat="42.31505" lon="23.09958">
        <ele>605.061807</ele>
        <time>2022-04-05T10:43:08.218Z</time>
      </trkpt>
      <trkpt lat="42.31496" lon="23.09965">
        <ele>605.051026</ele>
        <time>2022-04-05T10:43:10.239Z</time>
      </trkpt>
      <trkpt lat="42.31486" lon="23.09972">
        <ele>605.040012</ele>
        <time>2022-04-05T10:43:12.243Z</time>
      </trkpt>
      <trkpt lat="42.31475" lon="23.09978">
        <ele>605.028788</ele>
        <time>2022-04-05T10:43:14.221Z</time>
      </trkpt>
      <trkpt lat="42.31465" lon="23.09986">
        <ele>605.017366</ele>
        <time>2022-04-05T10:43:16.246Z</time>
      </trkpt>
      <trkpt lat="42.31455" lon="23.09994">
        <ele>605.005988</ele>
        <time>2022-04-05T10:43:18.255Z</time>
      </trkpt>
      <trkpt lat="42.31445" lon="23.10002">
        <ele>604.994135</ele>
        <time>2022-04-05T10:43:20.233Z</time>
      </trkpt>
      <trkpt lat="42.31435" lon="23.10012">
        <ele>604.981752</ele>
        <time>2022-04-05T10:43:22.251Z</time>
      </trkpt>
      <trkpt lat="42.31425" lon="23.10021">
        <ele>604.969409</ele>
        <time>2022-04-05T10:43:24.226Z</time>
      </trkpt>
      <trkpt lat="42.31414" lon="23.10031">
        <ele>604.956944</ele>
        <time>2022-04-05T10:43:26.244Z</time>
      </trkpt>
      <trkpt lat="42.31404" lon="23.10041">
        <ele>604.944228</ele>
        <time>2022-04-05T10:43:28.248Z</time>
      </trkpt>
      <trkpt lat="42.31394" lon="23.10052">
        <ele>604.93193</ele>
        <time>2022-04-05T10:43:30.230Z</time>
      </trkpt>
      <trkpt lat="42.31385" lon="23.10062">
        <ele>604.720965</ele>
        <time>2022-04-05T10:43:32.223Z</time>
      </trkpt>
      <trkpt lat="42.31375" lon="23.10072">
        <ele>604.491067</ele>
        <time>2022-04-05T10:43:34.240Z</time>
      </trkpt>
      <trkpt lat="42.31366" lon="23.10081">
        <ele>604.268916</ele>
        <time>2022-04-05T10:43:36.290Z</time>
      </trkpt>
      <trkpt lat="42.31357" lon="23.10091">
        <ele>604.044983</ele>
        <time>2022-04-05T10:43:38.229Z</time>
      </trkpt>
      <trkpt lat="42.31348" lon="23.10101">
        <ele>603.815314</ele>
        <time>2022-04-05T10:43:40.238Z</time>
      </trkpt>
      <trkpt lat="42.31339" lon="23.10111">
        <ele>603.581415</ele>
        <time>2022-04-05T10:43:42.274Z</time>
      </trkpt>
      <trkpt lat="42.3133" lon="23.10121">
        <ele>603.362016</ele>
        <time>2022-04-05T10:43:44.230Z</time>
      </trkpt>
      <trkpt lat="42.31322" lon="23.10129">
        <ele>603.157879</ele>
        <time>2022-04-05T10:43:46.241Z</time>
      </trkpt>
      <trkpt lat="42.31313" lon="23.10139">
        <ele>602.938146</ele>
        <time>2022-04-05T10:43:48.237Z</time>
      </trkpt>
      <trkpt lat="42.31304" lon="23.10148">
        <ele>602.716877</ele>
        <time>2022-04-05T10:43:50.229Z</time>
      </trkpt>
      <trkpt lat="42.31295" lon="23.10157">
        <ele>602.501093</ele>
        <time>2022-04-05T10:43:52.243Z</time>
      </trkpt>
      <trkpt lat="42.31286" lon="23.10166">
        <ele>602.292799</ele>
        <time>2022-04-05T10:43:54.240Z</time>
      </trkpt>
      <trkpt lat="42.31278" lon="23.10175">
        <ele>602.089724</ele>
        <time>2022-04-05T10:43:56.236Z</time>
      </trkpt>
      <trkpt lat="42.3127" lon="23.10184">
        <ele>601.889972</ele>
        <time>2022-04-05T10:43:58.245Z</time>
      </trkpt>
      <trkpt lat="42.31262" lon="23.10192">
        <ele>601.6887</ele>
        <time>2022-04-05T10:44:00.237Z</time>
      </trkpt>
      <trkpt lat="42.31254" lon="23.10201">
        <ele>601.486982</ele>
        <time>2022-04-05T10:44:02.234Z</time>
      </trkpt>
      <trkpt lat="42.31246" lon="23.1021">
        <ele>601.347892</ele>
        <time>2022-04-05T10:44:04.269Z</time>
      </trkpt>
      <trkpt lat="42.31238" lon="23.10219">
        <ele>601.238748</ele>
        <time>2022-04-05T10:44:06.249Z</time>
      </trkpt>
      <trkpt lat="42.3123" lon="23.10227">
        <ele>601.13833</ele>
        <time>2022-04-05T10:44:08.232Z</time>
      </trkpt>
      <trkpt lat="42.31223" lon="23.10235">
        <ele>601.030916</ele>
        <time>2022-04-05T10:44:10.237Z</time>
      </trkpt>
      <trkpt lat="42.31215" lon="23.10243">
        <ele>600.928805</ele>
        <time>2022-04-05T10:44:12.258Z</time>
      </trkpt>
      <trkpt lat="42.31207" lon="23.10253">
        <ele>600.814761</ele>
        <time>2022-04-05T10:44:14.244Z</time>
      </trkpt>
      <trkpt lat="42.31199" lon="23.10262">
        <ele>600.701544</ele>
        <time>2022-04-05T10:44:16.279Z</time>
      </trkpt>
      <trkpt lat="42.3119" lon="23.10271">
        <ele>600.586321</ele>
        <time>2022-04-05T10:44:18.234Z</time>
      </trkpt>
      <trkpt lat="42.31182" lon="23.1028">
        <ele>600.468938</ele>
        <time>2022-04-05T10:44:20.232Z</time>
      </trkpt>
      <trkpt lat="42.31173" lon="23.10289">
        <ele>600.354307</ele>
        <time>2022-04-05T10:44:22.229Z</time>
      </trkpt>
      <trkpt lat="42.31165" lon="23.10297">
        <ele>600.244986</ele>
        <time>2022-04-05T10:44:24.239Z</time>
      </trkpt>
      <trkpt lat="42.31157" lon="23.10305">
        <ele>600.136136</ele>
        <time>2022-04-05T10:44:26.222Z</time>
      </trkpt>
      <trkpt lat="42.31148" lon="23.10314">
        <ele>600.017643</ele>
        <time>2022-04-05T10:44:28.240Z</time>
      </trkpt>
      <trkpt lat="42.31139" lon="23.10323">
        <ele>599.900477</ele>
        <time>2022-04-05T10:44:30.245Z</time>
      </trkpt>
      <trkpt lat="42.3113" lon="23.10331">
        <ele>599.784632</ele>
        <time>2022-04-05T10:44:32.241Z</time>
      </trkpt>
      <trkpt lat="42.31121" lon="23.10338">
        <ele>599.672619</ele>
        <time>2022-04-05T10:44:34.237Z</time>
      </trkpt>
      <trkpt lat="42.31112" lon="23.10345">
        <ele>599.560091</ele>
        <time>2022-04-05T10:44:36.258Z</time>
      </trkpt>
      <trkpt lat="42.31102" lon="23.10352">
        <ele>599.385265</ele>
        <time>2022-04-05T10:44:38.280Z</time>
      </trkpt>
      <trkpt lat="42.31093" lon="23.10359">
        <ele>599.163008</ele>
        <time>2022-04-05T10:44:40.232Z</time>
      </trkpt>
      <trkpt lat="42.31085" lon="23.10366">
        <ele>598.945719</ele>
        <time>2022-04-05T10:44:42.232Z</time>
      </trkpt>
      <trkpt lat="42.31075" lon="23.10373">
        <ele>598.716315</ele>
        <time>2022-04-05T10:44:44.240Z</time>
      </trkpt>
      <trkpt lat="42.31066" lon="23.1038">
        <ele>598.482675</ele>
        <time>2022-04-05T10:44:46.240Z</time>
      </trkpt>
      <trkpt lat="42.31056" lon="23.10387">
        <ele>598.24656</ele>
        <time>2022-04-05T10:44:48.237Z</time>
      </trkpt>
      <trkpt lat="42.31047" lon="23.10395">
        <ele>598.011561</ele>
        <time>2022-04-05T10:44:50.243Z</time>
      </trkpt>
      <trkpt lat="42.31037" lon="23.10402">
        <ele>597.767864</ele>
        <time>2022-04-05T10:44:52.241Z</time>
      </trkpt>
      <trkpt lat="42.31026" lon="23.1041">
        <ele>597.517793</ele>
        <time>2022-04-05T10:44:54.260Z</time>
      </trkpt>
      <trkpt lat="42.31016" lon="23.10417">
        <ele>597.266221</ele>
        <time>2022-04-05T10:44:56.255Z</time>
      </trkpt>
      <trkpt lat="42.31007" lon="23.10424">
        <ele>597.052959</ele>
        <time>2022-04-05T10:44:58.248Z</time>
      </trkpt>
      <trkpt lat="42.30999" lon="23.10431">
        <ele>596.836771</ele>
        <time>2022-04-05T10:45:00.236Z</time>
      </trkpt>
      <trkpt lat="42.30989" lon="23.10438">
        <ele>596.609223</ele>
        <time>2022-04-05T10:45:02.255Z</time>
      </trkpt>
      <trkpt lat="42.30979" lon="23.10446">
        <ele>596.352</ele>
        <time>2022-04-05T10:45:04.249Z</time>
      </trkpt>
      <trkpt lat="42.30969" lon="23.10454">
        <ele>596.095867</ele>
        <time>2022-04-05T10:45:06.279Z</time>
      </trkpt>
      <trkpt lat="42.30958" lon="23.10462">
        <ele>595.84502</ele>
        <time>2022-04-05T10:45:08.218Z</time>
      </trkpt>
      <trkpt lat="42.30948" lon="23.1047">
        <ele>595.588437</ele>
        <time>2022-04-05T10:45:10.248Z</time>
      </trkpt>
      <trkpt lat="42.30937" lon="23.10478">
        <ele>595.324383</ele>
        <time>2022-04-05T10:45:12.238Z</time>
      </trkpt>
      <trkpt lat="42.30927" lon="23.10486">
        <ele>595.063271</ele>
        <time>2022-04-05T10:45:14.259Z</time>
      </trkpt>
      <trkpt lat="42.30917" lon="23.10494">
        <ele>594.804285</ele>
        <time>2022-04-05T10:45:16.238Z</time>
      </trkpt>
      <trkpt lat="42.30907" lon="23.10501">
        <ele>594.556037</ele>
        <time>2022-04-05T10:45:18.240Z</time>
      </trkpt>
      <trkpt lat="42.30897" lon="23.10509">
        <ele>594.30921</ele>
        <time>2022-04-05T10:45:20.230Z</time>
      </trkpt>
      <trkpt lat="42.30888" lon="23.10516">
        <ele>594.080107</ele>
        <time>2022-04-05T10:45:22.234Z</time>
      </trkpt>
      <trkpt lat="42.30879" lon="23.10523">
        <ele>593.855889</ele>
        <time>2022-04-05T10:45:24.244Z</time>
      </trkpt>
      <trkpt lat="42.3087" lon="23.1053">
        <ele>593.629204</ele>
        <time>2022-04-05T10:45:26.250Z</time>
      </trkpt>
      <trkpt lat="42.30861" lon="23.10537">
        <ele>593.400877</ele>
        <time>2022-04-05T10:45:28.283Z</time>
      </trkpt>
      <trkpt lat="42.30852" lon="23.10544">
        <ele>593.175234</ele>
        <time>2022-04-05T10:45:30.259Z</time>
      </trkpt>
      <trkpt lat="42.30843" lon="23.10551">
        <ele>592.958282</ele>
        <time>2022-04-05T10:45:32.270Z</time>
      </trkpt>
      <trkpt lat="42.30834" lon="23.10557">
        <ele>592.732977</ele>
        <time>2022-04-05T10:45:34.242Z</time>
      </trkpt>
      <trkpt lat="42.30825" lon="23.10564">
        <ele>592.499646</ele>
        <time>2022-04-05T10:45:36.233Z</time>
      </trkpt>
      <trkpt lat="42.30816" lon="23.10571">
        <ele>592.282405</ele>
        <time>2022-04-05T10:45:38.240Z</time>
      </trkpt>
      <trkpt lat="42.30807" lon="23.10577">
        <ele>592.070538</ele>
        <time>2022-04-05T10:45:40.229Z</time>
      </trkpt>
      <trkpt lat="42.30799" lon="23.10583">
        <ele>591.874361</ele>
        <time>2022-04-05T10:45:42.252Z</time>
      </trkpt>
      <trkpt lat="42.30791" lon="23.10589">
        <ele>591.828804</ele>
        <time>2022-04-05T10:45:44.277Z</time>
      </trkpt>
      <trkpt lat="42.3078" lon="23.10598">
        <ele>592.199019</ele>
        <time>2022-04-05T10:45:47.238Z</time>
      </trkpt>
      <trkpt lat="42.30769" lon="23.10607">
        <ele>592.570625</ele>
        <time>2022-04-05T10:45:50.233Z</time>
      </trkpt>
      <trkpt lat="42.30758" lon="23.10614">
        <ele>592.911536</ele>
        <time>2022-04-05T10:45:53.251Z</time>
      </trkpt>
      <trkpt lat="42.30747" lon="23.10622">
        <ele>593.253436</ele>
        <time>2022-04-05T10:45:56.255Z</time>
      </trkpt>
      <trkpt lat="42.30737" lon="23.1063">
        <ele>593.580049</ele>
        <time>2022-04-05T10:45:59.233Z</time>
      </trkpt>
      <trkpt lat="42.30727" lon="23.10638">
        <ele>593.901387</ele>
        <time>2022-04-05T10:46:02.250Z</time>
      </trkpt>
      <trkpt lat="42.30717" lon="23.10645">
        <ele>594.228001</ele>
        <time>2022-04-05T10:46:05.233Z</time>
      </trkpt>
      <trkpt lat="42.30707" lon="23.10653">
        <ele>594.559744</ele>
        <time>2022-04-05T10:46:08.239Z</time>
      </trkpt>
      <trkpt lat="42.30697" lon="23.1066">
        <ele>594.876168</ele>
        <time>2022-04-05T10:46:11.252Z</time>
      </trkpt>
      <trkpt lat="42.30687" lon="23.10667">
        <ele>595.170213</ele>
        <time>2022-04-05T10:46:14.254Z</time>
      </trkpt>
      <trkpt lat="42.30678" lon="23.10674">
        <ele>595.471171</ele>
        <time>2022-04-05T10:46:17.249Z</time>
      </trkpt>
      <trkpt lat="42.30668" lon="23.10681">
        <ele>595.779045</ele>
        <time>2022-04-05T10:46:20.243Z</time>
      </trkpt>
      <trkpt lat="42.30658" lon="23.10688">
        <ele>596.089525</ele>
        <time>2022-04-05T10:46:23.244Z</time>
      </trkpt>
      <trkpt lat="42.30648" lon="23.10695">
        <ele>596.410318</ele>
        <time>2022-04-05T10:46:26.239Z</time>
      </trkpt>
      <trkpt lat="42.30638" lon="23.10702">
        <ele>596.735937</ele>
        <time>2022-04-05T10:46:29.241Z</time>
      </trkpt>
      <trkpt lat="42.30627" lon="23.1071">
        <ele>596.537885</ele>
        <time>2022-04-05T10:46:32.252Z</time>
      </trkpt>
      <trkpt lat="42.30617" lon="23.10718">
        <ele>596.241184</ele>
        <time>2022-04-05T10:46:35.240Z</time>
      </trkpt>
      <trkpt lat="42.30606" lon="23.10726">
        <ele>595.931503</ele>
        <time>2022-04-05T10:46:38.245Z</time>
      </trkpt>
      <trkpt lat="42.30598" lon="23.10732">
        <ele>595.710269</ele>
        <time>2022-04-05T10:46:40.238Z</time>
      </trkpt>
      <trkpt lat="42.3059" lon="23.10739">
        <ele>595.479074</ele>
        <time>2022-04-05T10:46:42.252Z</time>
      </trkpt>
      <trkpt lat="42.30582" lon="23.10745">
        <ele>595.256352</ele>
        <time>2022-04-05T10:46:44.251Z</time>
      </trkpt>
      <trkpt lat="42.30574" lon="23.10751">
        <ele>595.027285</ele>
        <time>2022-04-05T10:46:46.243Z</time>
      </trkpt>
      <trkpt lat="42.30566" lon="23.10757">
        <ele>594.803701</ele>
        <time>2022-04-05T10:46:48.237Z</time>
      </trkpt>
      <trkpt lat="42.30558" lon="23.10763">
        <ele>594.572805</ele>
        <time>2022-04-05T10:46:50.261Z</time>
      </trkpt>
      <trkpt lat="42.30549" lon="23.10771">
        <ele>594.330124</ele>
        <time>2022-04-05T10:46:52.255Z</time>
      </trkpt>
      <trkpt lat="42.3054" lon="23.10778">
        <ele>594.069815</ele>
        <time>2022-04-05T10:46:54.230Z</time>
      </trkpt>
      <trkpt lat="42.30531" lon="23.10786">
        <ele>593.791461</ele>
        <time>2022-04-05T10:46:56.295Z</time>
      </trkpt>
      <trkpt lat="42.30521" lon="23.10794">
        <ele>593.517547</ele>
        <time>2022-04-05T10:46:58.250Z</time>
      </trkpt>
      <trkpt lat="42.3051" lon="23.10802">
        <ele>593.216364</ele>
        <time>2022-04-05T10:47:00.232Z</time>
      </trkpt>
      <trkpt lat="42.30499" lon="23.10811">
        <ele>592.903971</ele>
        <time>2022-04-05T10:47:02.244Z</time>
      </trkpt>
      <trkpt lat="42.30488" lon="23.1082">
        <ele>592.577336</ele>
        <time>2022-04-05T10:47:04.244Z</time>
      </trkpt>
      <trkpt lat="42.30476" lon="23.10829">
        <ele>592.191999</ele>
        <time>2022-04-05T10:47:06.242Z</time>
      </trkpt>
      <trkpt lat="42.30464" lon="23.10839">
        <ele>591.727981</ele>
        <time>2022-04-05T10:47:08.244Z</time>
      </trkpt>
      <trkpt lat="42.30451" lon="23.10848">
        <ele>591.268802</ele>
        <time>2022-04-05T10:47:10.259Z</time>
      </trkpt>
      <trkpt lat="42.3044" lon="23.10857">
        <ele>590.821002</ele>
        <time>2022-04-05T10:47:12.236Z</time>
      </trkpt>
      <trkpt lat="42.30428" lon="23.10867">
        <ele>590.375623</ele>
        <time>2022-04-05T10:47:14.231Z</time>
      </trkpt>
      <trkpt lat="42.30416" lon="23.10875">
        <ele>589.946437</ele>
        <time>2022-04-05T10:47:16.232Z</time>
      </trkpt>
      <trkpt lat="42.30405" lon="23.10884">
        <ele>589.518898</ele>
        <time>2022-04-05T10:47:18.255Z</time>
      </trkpt>
      <trkpt lat="42.30394" lon="23.10893">
        <ele>589.101083</ele>
        <time>2022-04-05T10:47:20.236Z</time>
      </trkpt>
      <trkpt lat="42.30383" lon="23.10902">
        <ele>588.66422</ele>
        <time>2022-04-05T10:47:22.241Z</time>
      </trkpt>
      <trkpt lat="42.30371" lon="23.10911">
        <ele>588.218357</ele>
        <time>2022-04-05T10:47:24.243Z</time>
      </trkpt>
      <trkpt lat="42.3036" lon="23.10919">
        <ele>587.797263</ele>
        <time>2022-04-05T10:47:26.292Z</time>
      </trkpt>
      <trkpt lat="42.30349" lon="23.10928">
        <ele>587.390385</ele>
        <time>2022-04-05T10:47:28.243Z</time>
      </trkpt>
      <trkpt lat="42.30338" lon="23.10935">
        <ele>586.984272</ele>
        <time>2022-04-05T10:47:30.243Z</time>
      </trkpt>
      <trkpt lat="42.30327" lon="23.10943">
        <ele>586.595523</ele>
        <time>2022-04-05T10:47:32.232Z</time>
      </trkpt>
      <trkpt lat="42.30317" lon="23.10951">
        <ele>586.459769</ele>
        <time>2022-04-05T10:47:34.230Z</time>
      </trkpt>
      <trkpt lat="42.30307" lon="23.10958">
        <ele>586.429158</ele>
        <time>2022-04-05T10:47:36.255Z</time>
      </trkpt>
      <trkpt lat="42.30297" lon="23.10966">
        <ele>586.398484</ele>
        <time>2022-04-05T10:47:38.236Z</time>
      </trkpt>
      <trkpt lat="42.30287" lon="23.10975">
        <ele>586.367296</ele>
        <time>2022-04-05T10:47:40.248Z</time>
      </trkpt>
      <trkpt lat="42.30277" lon="23.10982">
        <ele>586.336971</ele>
        <time>2022-04-05T10:47:42.252Z</time>
      </trkpt>
      <trkpt lat="42.30268" lon="23.1099">
        <ele>586.306957</ele>
        <time>2022-04-05T10:47:44.258Z</time>
      </trkpt>
      <trkpt lat="42.30258" lon="23.10997">
        <ele>586.277238</ele>
        <time>2022-04-05T10:47:46.244Z</time>
      </trkpt>
      <trkpt lat="42.30248" lon="23.11005">
        <ele>586.247223</ele>
        <time>2022-04-05T10:47:48.278Z</time>
      </trkpt>
      <trkpt lat="42.30239" lon="23.11013">
        <ele>586.217585</ele>
        <time>2022-04-05T10:47:50.226Z</time>
      </trkpt>
      <trkpt lat="42.30229" lon="23.1102">
        <ele>586.187962</ele>
        <time>2022-04-05T10:47:52.236Z</time>
      </trkpt>
      <trkpt lat="42.3022" lon="23.11028">
        <ele>586.158881</ele>
        <time>2022-04-05T10:47:54.277Z</time>
      </trkpt>
      <trkpt lat="42.30211" lon="23.11035">
        <ele>586.129955</ele>
        <time>2022-04-05T10:47:56.250Z</time>
      </trkpt>
      <trkpt lat="42.30201" lon="23.11043">
        <ele>586.10126</ele>
        <time>2022-04-05T10:47:58.242Z</time>
      </trkpt>
      <trkpt lat="42.30192" lon="23.1105">
        <ele>586.072858</ele>
        <time>2022-04-05T10:48:00.252Z</time>
      </trkpt>
      <trkpt lat="42.30183" lon="23.11056">
        <ele>586.046005</ele>
        <time>2022-04-05T10:48:02.233Z</time>
      </trkpt>
      <trkpt lat="42.30175" lon="23.11062">
        <ele>586.020234</ele>
        <time>2022-04-05T10:48:04.254Z</time>
      </trkpt>
      <trkpt lat="42.30167" lon="23.11068">
        <ele>585.993187</ele>
        <time>2022-04-05T10:48:06.239Z</time>
      </trkpt>
      <trkpt lat="42.30158" lon="23.11075">
        <ele>585.957926</ele>
        <time>2022-04-05T10:48:08.255Z</time>
      </trkpt>
      <trkpt lat="42.3015" lon="23.11081">
        <ele>585.922579</ele>
        <time>2022-04-05T10:48:10.233Z</time>
      </trkpt>
      <trkpt lat="42.30141" lon="23.11088">
        <ele>585.885506</ele>
        <time>2022-04-05T10:48:12.233Z</time>
      </trkpt>
      <trkpt lat="42.30132" lon="23.11094">
        <ele>585.84765</ele>
        <time>2022-04-05T10:48:14.253Z</time>
      </trkpt>
      <trkpt lat="42.30123" lon="23.11101">
        <ele>585.811745</ele>
        <time>2022-04-05T10:48:16.296Z</time>
      </trkpt>
      <trkpt lat="42.30115" lon="23.11107">
        <ele>585.775968</ele>
        <time>2022-04-05T10:48:18.233Z</time>
      </trkpt>
      <trkpt lat="42.30106" lon="23.11113">
        <ele>585.739667</ele>
        <time>2022-04-05T10:48:20.257Z</time>
      </trkpt>
      <trkpt lat="42.30098" lon="23.11119">
        <ele>585.70537</ele>
        <time>2022-04-05T10:48:22.278Z</time>
      </trkpt>
      <trkpt lat="42.30089" lon="23.11125">
        <ele>585.670821</ele>
        <time>2022-04-05T10:48:24.243Z</time>
      </trkpt>
      <trkpt lat="42.30078" lon="23.11133">
        <ele>585.623292</ele>
        <time>2022-04-05T10:48:27.240Z</time>
      </trkpt>
      <trkpt lat="42.30067" lon="23.11141">
        <ele>585.578539</ele>
        <time>2022-04-05T10:48:30.236Z</time>
      </trkpt>
      <trkpt lat="42.30056" lon="23.11149">
        <ele>585.532944</ele>
        <time>2022-04-05T10:48:33.255Z</time>
      </trkpt>
      <trkpt lat="42.30045" lon="23.11157">
        <ele>585.48677</ele>
        <time>2022-04-05T10:48:36.243Z</time>
      </trkpt>
      <trkpt lat="42.30034" lon="23.11165">
        <ele>585.439692</ele>
        <time>2022-04-05T10:48:39.299Z</time>
      </trkpt>
      <trkpt lat="42.30023" lon="23.11174">
        <ele>585.392458</ele>
        <time>2022-04-05T10:48:42.247Z</time>
      </trkpt>
      <trkpt lat="42.30012" lon="23.11182">
        <ele>585.345814</ele>
        <time>2022-04-05T10:48:45.237Z</time>
      </trkpt>
      <trkpt lat="42.30002" lon="23.11191">
        <ele>585.506668</ele>
        <time>2022-04-05T10:48:48.245Z</time>
      </trkpt>
      <trkpt lat="42.29991" lon="23.11198">
        <ele>585.686492</ele>
        <time>2022-04-05T10:48:51.241Z</time>
      </trkpt>
      <trkpt lat="42.29982" lon="23.11206">
        <ele>585.86156</ele>
        <time>2022-04-05T10:48:54.240Z</time>
      </trkpt>
      <trkpt lat="42.29972" lon="23.11214">
        <ele>586.041782</ele>
        <time>2022-04-05T10:48:57.245Z</time>
      </trkpt>
      <trkpt lat="42.29962" lon="23.11222">
        <ele>586.217787</ele>
        <time>2022-04-05T10:49:00.239Z</time>
      </trkpt>
      <trkpt lat="42.29952" lon="23.1123">
        <ele>586.393792</ele>
        <time>2022-04-05T10:49:03.240Z</time>
      </trkpt>
      <trkpt lat="42.29942" lon="23.11237">
        <ele>586.573052</ele>
        <time>2022-04-05T10:49:06.298Z</time>
      </trkpt>
      <trkpt lat="42.29932" lon="23.11245">
        <ele>586.745804</ele>
        <time>2022-04-05T10:49:09.244Z</time>
      </trkpt>
      <trkpt lat="42.29922" lon="23.11253">
        <ele>586.931358</ele>
        <time>2022-04-05T10:49:12.246Z</time>
      </trkpt>
      <trkpt lat="42.29911" lon="23.11261">
        <ele>587.115782</ele>
        <time>2022-04-05T10:49:15.289Z</time>
      </trkpt>
      <trkpt lat="42.29902" lon="23.11268">
        <ele>587.284406</ele>
        <time>2022-04-05T10:49:18.234Z</time>
      </trkpt>
      <trkpt lat="42.29892" lon="23.11275">
        <ele>587.451958</ele>
        <time>2022-04-05T10:49:21.238Z</time>
      </trkpt>
      <trkpt lat="42.29882" lon="23.11282">
        <ele>587.627113</ele>
        <time>2022-04-05T10:49:24.262Z</time>
      </trkpt>
      <trkpt lat="42.29873" lon="23.11289">
        <ele>587.790886</ele>
        <time>2022-04-05T10:49:27.244Z</time>
      </trkpt>
      <trkpt lat="42.29863" lon="23.11297">
        <ele>587.963915</ele>
        <time>2022-04-05T10:49:30.233Z</time>
      </trkpt>
      <trkpt lat="42.29854" lon="23.11304">
        <ele>588.114928</ele>
        <time>2022-04-05T10:49:33.250Z</time>
      </trkpt>
      <trkpt lat="42.29845" lon="23.11312">
        <ele>587.99142</ele>
        <time>2022-04-05T10:49:36.230Z</time>
      </trkpt>
      <trkpt lat="42.29835" lon="23.1132">
        <ele>587.858349</ele>
        <time>2022-04-05T10:49:39.243Z</time>
      </trkpt>
      <trkpt lat="42.29825" lon="23.11327">
        <ele>587.729653</ele>
        <time>2022-04-05T10:49:42.240Z</time>
      </trkpt>
      <trkpt lat="42.29815" lon="23.11335">
        <ele>587.599708</ele>
        <time>2022-04-05T10:49:45.249Z</time>
      </trkpt>
      <trkpt lat="42.29805" lon="23.11342">
        <ele>587.4762</ele>
        <time>2022-04-05T10:49:48.253Z</time>
      </trkpt>
      <trkpt lat="42.29796" lon="23.1135">
        <ele>587.351991</ele>
        <time>2022-04-05T10:49:51.230Z</time>
      </trkpt>
      <trkpt lat="42.29787" lon="23.11357">
        <ele>587.231016</ele>
        <time>2022-04-05T10:49:54.237Z</time>
      </trkpt>
      <trkpt lat="42.29777" lon="23.11365">
        <ele>587.109062</ele>
        <time>2022-04-05T10:49:57.230Z</time>
      </trkpt>
      <trkpt lat="42.29768" lon="23.11372">
        <ele>586.984724</ele>
        <time>2022-04-05T10:50:00.230Z</time>
      </trkpt>
      <trkpt lat="42.29759" lon="23.11379">
        <ele>586.86599</ele>
        <time>2022-04-05T10:50:03.242Z</time>
      </trkpt>
      <trkpt lat="42.2975" lon="23.11386">
        <ele>586.744588</ele>
        <time>2022-04-05T10:50:06.259Z</time>
      </trkpt>
      <trkpt lat="42.2974" lon="23.11394">
        <ele>586.62025</ele>
        <time>2022-04-05T10:50:09.234Z</time>
      </trkpt>
      <trkpt lat="42.29731" lon="23.11401">
        <ele>586.496894</ele>
        <time>2022-04-05T10:50:12.270Z</time>
      </trkpt>
      <trkpt lat="42.29721" lon="23.11408">
        <ele>586.376759</ele>
        <time>2022-04-05T10:50:15.257Z</time>
      </trkpt>
      <trkpt lat="42.29713" lon="23.11415">
        <ele>586.26011</ele>
        <time>2022-04-05T10:50:18.244Z</time>
      </trkpt>
      <trkpt lat="42.29704" lon="23.11422">
        <ele>586.144744</ele>
        <time>2022-04-05T10:50:21.241Z</time>
      </trkpt>
      <trkpt lat="42.29695" lon="23.11429">
        <ele>586.131733</ele>
        <time>2022-04-05T10:50:24.254Z</time>
      </trkpt>
      <trkpt lat="42.29686" lon="23.11436">
        <ele>586.241147</ele>
        <time>2022-04-05T10:50:27.252Z</time>
      </trkpt>
      <trkpt lat="42.29678" lon="23.11443">
        <ele>586.352149</ele>
        <time>2022-04-05T10:50:30.243Z</time>
      </trkpt>
      <trkpt lat="42.29669" lon="23.11449">
        <ele>586.459132</ele>
        <time>2022-04-05T10:50:33.259Z</time>
      </trkpt>
      <trkpt lat="42.2966" lon="23.11456">
        <ele>586.565565</ele>
        <time>2022-04-05T10:50:36.237Z</time>
      </trkpt>
      <trkpt lat="42.29652" lon="23.11462">
        <ele>586.672158</ele>
        <time>2022-04-05T10:50:39.240Z</time>
      </trkpt>
      <trkpt lat="42.29643" lon="23.11468">
        <ele>586.778365</ele>
        <time>2022-04-05T10:50:42.240Z</time>
      </trkpt>
      <trkpt lat="42.29634" lon="23.11475">
        <ele>586.887078</ele>
        <time>2022-04-05T10:50:45.247Z</time>
      </trkpt>
      <trkpt lat="42.29625" lon="23.11481">
        <ele>586.997688</ele>
        <time>2022-04-05T10:50:48.249Z</time>
      </trkpt>
      <trkpt lat="42.29616" lon="23.11488">
        <ele>587.109247</ele>
        <time>2022-04-05T10:50:51.237Z</time>
      </trkpt>
      <trkpt lat="42.29607" lon="23.11495">
        <ele>587.227503</ele>
        <time>2022-04-05T10:50:54.242Z</time>
      </trkpt>
      <trkpt lat="42.29598" lon="23.11502">
        <ele>587.343472</ele>
        <time>2022-04-05T10:50:57.243Z</time>
      </trkpt>
      <trkpt lat="42.29588" lon="23.1151">
        <ele>587.464408</ele>
        <time>2022-04-05T10:51:00.243Z</time>
      </trkpt>
      <trkpt lat="42.29579" lon="23.11517">
        <ele>587.579834</ele>
        <time>2022-04-05T10:51:03.253Z</time>
      </trkpt>
      <trkpt lat="42.29569" lon="23.11525">
        <ele>587.704397</ele>
        <time>2022-04-05T10:51:06.254Z</time>
      </trkpt>
      <trkpt lat="42.29559" lon="23.11532">
        <ele>587.826673</ele>
        <time>2022-04-05T10:51:09.265Z</time>
      </trkpt>
      <trkpt lat="42.29549" lon="23.1154">
        <ele>587.951908</ele>
        <time>2022-04-05T10:51:12.238Z</time>
      </trkpt>
      <trkpt lat="42.29539" lon="23.11548">
        <ele>588.000234</ele>
        <time>2022-04-05T10:51:15.247Z</time>
      </trkpt>
      <trkpt lat="42.29529" lon="23.11557">
        <ele>587.902267</ele>
        <time>2022-04-05T10:51:18.277Z</time>
      </trkpt>
      <trkpt lat="42.29518" lon="23.11565">
        <ele>587.798714</ele>
        <time>2022-04-05T10:51:21.238Z</time>
      </trkpt>
      <trkpt lat="42.29506" lon="23.11574">
        <ele>587.689542</ele>
        <time>2022-04-05T10:51:24.237Z</time>
      </trkpt>
      <trkpt lat="42.29498" lon="23.1158">
        <ele>587.614075</ele>
        <time>2022-04-05T10:51:26.232Z</time>
      </trkpt>
      <trkpt lat="42.29491" lon="23.11587">
        <ele>587.538694</ele>
        <time>2022-04-05T10:51:28.244Z</time>
      </trkpt>
      <trkpt lat="42.29482" lon="23.11593">
        <ele>587.461663</ele>
        <time>2022-04-05T10:51:30.243Z</time>
      </trkpt>
      <trkpt lat="42.29474" lon="23.11599">
        <ele>587.384338</ele>
        <time>2022-04-05T10:51:32.284Z</time>
      </trkpt>
      <trkpt lat="42.29466" lon="23.11605">
        <ele>587.309176</ele>
        <time>2022-04-05T10:51:34.257Z</time>
      </trkpt>
      <trkpt lat="42.29458" lon="23.11611">
        <ele>587.234179</ele>
        <time>2022-04-05T10:51:36.239Z</time>
      </trkpt>
      <trkpt lat="42.2945" lon="23.11617">
        <ele>587.157996</ele>
        <time>2022-04-05T10:51:38.259Z</time>
      </trkpt>
      <trkpt lat="42.29442" lon="23.11623">
        <ele>587.082116</ele>
        <time>2022-04-05T10:51:40.237Z</time>
      </trkpt>
      <trkpt lat="42.29434" lon="23.11629">
        <ele>587.004791</ele>
        <time>2022-04-05T10:51:42.243Z</time>
      </trkpt>
      <trkpt lat="42.29426" lon="23.11635">
        <ele>586.926567</ele>
        <time>2022-04-05T10:51:44.230Z</time>
      </trkpt>
      <trkpt lat="42.29418" lon="23.11642">
        <ele>586.847625</ele>
        <time>2022-04-05T10:51:46.240Z</time>
      </trkpt>
      <trkpt lat="42.2941" lon="23.11649">
        <ele>586.770252</ele>
        <time>2022-04-05T10:51:48.259Z</time>
      </trkpt>
      <trkpt lat="42.29401" lon="23.11655">
        <ele>586.692203</ele>
        <time>2022-04-05T10:51:50.251Z</time>
      </trkpt>
      <trkpt lat="42.29393" lon="23.11661">
        <ele>586.613427</ele>
        <time>2022-04-05T10:51:52.256Z</time>
      </trkpt>
      <trkpt lat="42.29384" lon="23.11667">
        <ele>586.577706</ele>
        <time>2022-04-05T10:51:54.274Z</time>
      </trkpt>
      <trkpt lat="42.29376" lon="23.11674">
        <ele>586.716595</ele>
        <time>2022-04-05T10:51:56.246Z</time>
      </trkpt>
      <trkpt lat="42.29367" lon="23.1168">
        <ele>586.855762</ele>
        <time>2022-04-05T10:51:58.252Z</time>
      </trkpt>
      <trkpt lat="42.29358" lon="23.11687">
        <ele>587.001009</ele>
        <time>2022-04-05T10:52:00.285Z</time>
      </trkpt>
      <trkpt lat="42.29349" lon="23.11694">
        <ele>587.143814</ele>
        <time>2022-04-05T10:52:02.239Z</time>
      </trkpt>
      <trkpt lat="42.2934" lon="23.11701">
        <ele>587.289339</ele>
        <time>2022-04-05T10:52:04.259Z</time>
      </trkpt>
      <trkpt lat="42.29331" lon="23.11708">
        <ele>587.430736</ele>
        <time>2022-04-05T10:52:06.264Z</time>
      </trkpt>
      <trkpt lat="42.29322" lon="23.11715">
        <ele>587.574371</ele>
        <time>2022-04-05T10:52:08.252Z</time>
      </trkpt>
      <trkpt lat="42.29313" lon="23.11722">
        <ele>587.723165</ele>
        <time>2022-04-05T10:52:10.243Z</time>
      </trkpt>
      <trkpt lat="42.29303" lon="23.11729">
        <ele>587.874042</ele>
        <time>2022-04-05T10:52:12.244Z</time>
      </trkpt>
      <trkpt lat="42.29294" lon="23.11736">
        <ele>588.019567</ele>
        <time>2022-04-05T10:52:14.245Z</time>
      </trkpt>
      <trkpt lat="42.29285" lon="23.11743">
        <ele>588.164587</ele>
        <time>2022-04-05T10:52:16.242Z</time>
      </trkpt>
      <trkpt lat="42.29276" lon="23.1175">
        <ele>588.308747</ele>
        <time>2022-04-05T10:52:18.270Z</time>
      </trkpt>
      <trkpt lat="42.29268" lon="23.11757">
        <ele>588.444308</ele>
        <time>2022-04-05T10:52:20.249Z</time>
      </trkpt>
      <trkpt lat="42.2926" lon="23.11763">
        <ele>588.574039</ele>
        <time>2022-04-05T10:52:22.273Z</time>
      </trkpt>
      <trkpt lat="42.29252" lon="23.11769">
        <ele>588.699985</ele>
        <time>2022-04-05T10:52:24.234Z</time>
      </trkpt>
      <trkpt lat="42.29241" lon="23.11778">
        <ele>588.881758</ele>
        <time>2022-04-05T10:52:27.256Z</time>
      </trkpt>
      <trkpt lat="42.2923" lon="23.11786">
        <ele>589.053736</ele>
        <time>2022-04-05T10:52:30.244Z</time>
      </trkpt>
      <trkpt lat="42.2922" lon="23.11794">
        <ele>589.526434</ele>
        <time>2022-04-05T10:52:33.242Z</time>
      </trkpt>
      <trkpt lat="42.29211" lon="23.118">
        <ele>589.947586</ele>
        <time>2022-04-05T10:52:36.259Z</time>
      </trkpt>
      <trkpt lat="42.29203" lon="23.11806">
        <ele>590.335859</ele>
        <time>2022-04-05T10:52:39.283Z</time>
      </trkpt>
      <trkpt lat="42.29193" lon="23.11814">
        <ele>590.8391</ele>
        <time>2022-04-05T10:52:43.233Z</time>
      </trkpt>
      <trkpt lat="42.29185" lon="23.1182">
        <ele>591.238555</ele>
        <time>2022-04-05T10:52:46.235Z</time>
      </trkpt>
      <trkpt lat="42.29177" lon="23.11826">
        <ele>591.620992</ele>
        <time>2022-04-05T10:52:49.229Z</time>
      </trkpt>
      <trkpt lat="42.29167" lon="23.11833">
        <ele>592.100485</ele>
        <time>2022-04-05T10:52:53.236Z</time>
      </trkpt>
      <trkpt lat="42.29158" lon="23.1184">
        <ele>592.552235</ele>
        <time>2022-04-05T10:52:57.240Z</time>
      </trkpt>
      <trkpt lat="42.29149" lon="23.11847">
        <ele>592.971412</ele>
        <time>2022-04-05T10:53:01.248Z</time>
      </trkpt>
      <trkpt lat="42.2914" lon="23.11854">
        <ele>593.423295</ele>
        <time>2022-04-05T10:53:05.226Z</time>
      </trkpt>
      <trkpt lat="42.29132" lon="23.1186">
        <ele>593.818342</ele>
        <time>2022-04-05T10:53:08.260Z</time>
      </trkpt>
      <trkpt lat="42.29122" lon="23.11867">
        <ele>594.282074</ele>
        <time>2022-04-05T10:53:12.242Z</time>
      </trkpt>
      <trkpt lat="42.29112" lon="23.11874">
        <ele>594.768982</ele>
        <time>2022-04-05T10:53:16.239Z</time>
      </trkpt>
      <trkpt lat="42.29104" lon="23.1188">
        <ele>595.157996</ele>
        <time>2022-04-05T10:53:19.248Z</time>
      </trkpt>
      <trkpt lat="42.29093" lon="23.11887">
        <ele>595.652466</ele>
        <time>2022-04-05T10:53:23.238Z</time>
      </trkpt>
      <trkpt lat="42.29084" lon="23.11893">
        <ele>596.102006</ele>
        <time>2022-04-05T10:53:27.285Z</time>
      </trkpt>
      <trkpt lat="42.29075" lon="23.11899">
        <ele>596.529288</ele>
        <time>2022-04-05T10:53:31.232Z</time>
      </trkpt>
      <trkpt lat="42.29065" lon="23.11907">
        <ele>596.478302</ele>
        <time>2022-04-05T10:53:35.243Z</time>
      </trkpt>
      <trkpt lat="42.29057" lon="23.11913">
        <ele>596.223368</ele>
        <time>2022-04-05T10:53:38.248Z</time>
      </trkpt>
      <trkpt lat="42.29047" lon="23.11921">
        <ele>595.904182</ele>
        <time>2022-04-05T10:53:42.288Z</time>
      </trkpt>
      <trkpt lat="42.29039" lon="23.11928">
        <ele>595.658513</ele>
        <time>2022-04-05T10:53:45.280Z</time>
      </trkpt>
      <trkpt lat="42.2903" lon="23.11935">
        <ele>595.38458</ele>
        <time>2022-04-05T10:53:48.239Z</time>
      </trkpt>
      <trkpt lat="42.29021" lon="23.11943">
        <ele>595.090886</ele>
        <time>2022-04-05T10:53:51.243Z</time>
      </trkpt>
      <trkpt lat="42.29011" lon="23.11951">
        <ele>594.78332</ele>
        <time>2022-04-05T10:53:54.250Z</time>
      </trkpt>
      <trkpt lat="42.29" lon="23.1196">
        <ele>594.435878</ele>
        <time>2022-04-05T10:53:57.239Z</time>
      </trkpt>
      <trkpt lat="42.28993" lon="23.11967">
        <ele>594.18907</ele>
        <time>2022-04-05T10:53:59.275Z</time>
      </trkpt>
      <trkpt lat="42.28984" lon="23.11974">
        <ele>593.91762</ele>
        <time>2022-04-05T10:54:01.253Z</time>
      </trkpt>
      <trkpt lat="42.28976" lon="23.11982">
        <ele>593.651842</ele>
        <time>2022-04-05T10:54:03.234Z</time>
      </trkpt>
      <trkpt lat="42.28968" lon="23.11989">
        <ele>593.383833</ele>
        <time>2022-04-05T10:54:05.247Z</time>
      </trkpt>
      <trkpt lat="42.2896" lon="23.11997">
        <ele>593.111309</ele>
        <time>2022-04-05T10:54:07.243Z</time>
      </trkpt>
      <trkpt lat="42.28951" lon="23.12004">
        <ele>592.832092</ele>
        <time>2022-04-05T10:54:09.244Z</time>
      </trkpt>
      <trkpt lat="42.28942" lon="23.12013">
        <ele>592.536184</ele>
        <time>2022-04-05T10:54:11.244Z</time>
      </trkpt>
      <trkpt lat="42.28932" lon="23.12021">
        <ele>592.235534</ele>
        <time>2022-04-05T10:54:13.273Z</time>
      </trkpt>
      <trkpt lat="42.28923" lon="23.12028">
        <ele>591.933617</ele>
        <time>2022-04-05T10:54:15.240Z</time>
      </trkpt>
      <trkpt lat="42.28913" lon="23.12037">
        <ele>591.40757</ele>
        <time>2022-04-05T10:54:17.225Z</time>
      </trkpt>
      <trkpt lat="42.28903" lon="23.12044">
        <ele>590.795769</ele>
        <time>2022-04-05T10:54:19.249Z</time>
      </trkpt>
      <trkpt lat="42.28893" lon="23.12052">
        <ele>590.163112</ele>
        <time>2022-04-05T10:54:21.277Z</time>
      </trkpt>
      <trkpt lat="42.28883" lon="23.1206">
        <ele>589.524075</ele>
        <time>2022-04-05T10:54:23.241Z</time>
      </trkpt>
      <trkpt lat="42.28872" lon="23.12067">
        <ele>588.8754</ele>
        <time>2022-04-05T10:54:25.220Z</time>
      </trkpt>
      <trkpt lat="42.28862" lon="23.12075">
        <ele>588.239226</ele>
        <time>2022-04-05T10:54:27.241Z</time>
      </trkpt>
      <trkpt lat="42.28853" lon="23.12082">
        <ele>587.626828</ele>
        <time>2022-04-05T10:54:29.242Z</time>
      </trkpt>
      <trkpt lat="42.28843" lon="23.1209">
        <ele>587.022374</ele>
        <time>2022-04-05T10:54:31.244Z</time>
      </trkpt>
      <trkpt lat="42.28834" lon="23.12097">
        <ele>586.436976</ele>
        <time>2022-04-05T10:54:33.269Z</time>
      </trkpt>
      <trkpt lat="42.28824" lon="23.12103">
        <ele>585.848683</ele>
        <time>2022-04-05T10:54:35.229Z</time>
      </trkpt>
      <trkpt lat="42.28815" lon="23.1211">
        <ele>585.275946</ele>
        <time>2022-04-05T10:54:37.245Z</time>
      </trkpt>
      <trkpt lat="42.28806" lon="23.12117">
        <ele>584.712769</ele>
        <time>2022-04-05T10:54:39.250Z</time>
      </trkpt>
      <trkpt lat="42.28797" lon="23.12124">
        <ele>584.158285</ele>
        <time>2022-04-05T10:54:41.345Z</time>
      </trkpt>
      <trkpt lat="42.28788" lon="23.1213">
        <ele>583.608584</ele>
        <time>2022-04-05T10:54:43.246Z</time>
      </trkpt>
      <trkpt lat="42.28779" lon="23.12137">
        <ele>583.047367</ele>
        <time>2022-04-05T10:54:45.248Z</time>
      </trkpt>
      <trkpt lat="42.2877" lon="23.12144">
        <ele>582.488088</ele>
        <time>2022-04-05T10:54:47.257Z</time>
      </trkpt>
      <trkpt lat="42.28761" lon="23.1215">
        <ele>581.976611</ele>
        <time>2022-04-05T10:54:49.256Z</time>
      </trkpt>
      <trkpt lat="42.28752" lon="23.12157">
        <ele>581.712928</ele>
        <time>2022-04-05T10:54:51.256Z</time>
      </trkpt>
      <trkpt lat="42.28743" lon="23.12164">
        <ele>581.454966</ele>
        <time>2022-04-05T10:54:53.244Z</time>
      </trkpt>
      <trkpt lat="42.28734" lon="23.1217">
        <ele>581.186859</ele>
        <time>2022-04-05T10:54:55.219Z</time>
      </trkpt>
      <trkpt lat="42.28724" lon="23.12177">
        <ele>580.915656</ele>
        <time>2022-04-05T10:54:57.270Z</time>
      </trkpt>
      <trkpt lat="42.28715" lon="23.12184">
        <ele>580.663871</ele>
        <time>2022-04-05T10:54:59.234Z</time>
      </trkpt>
      <trkpt lat="42.28707" lon="23.12189">
        <ele>580.423583</ele>
        <time>2022-04-05T10:55:01.300Z</time>
      </trkpt>
      <trkpt lat="42.28698" lon="23.12196">
        <ele>580.17712</ele>
        <time>2022-04-05T10:55:03.237Z</time>
      </trkpt>
      <trkpt lat="42.28689" lon="23.12202">
        <ele>579.923097</ele>
        <time>2022-04-05T10:55:05.243Z</time>
      </trkpt>
      <trkpt lat="42.2868" lon="23.12208">
        <ele>579.672215</ele>
        <time>2022-04-05T10:55:07.242Z</time>
      </trkpt>
      <trkpt lat="42.28671" lon="23.12214">
        <ele>579.41389</ele>
        <time>2022-04-05T10:55:09.255Z</time>
      </trkpt>
      <trkpt lat="42.28662" lon="23.12221">
        <ele>579.157709</ele>
        <time>2022-04-05T10:55:11.271Z</time>
      </trkpt>
      <trkpt lat="42.28652" lon="23.12227">
        <ele>578.889347</ele>
        <time>2022-04-05T10:55:13.233Z</time>
      </trkpt>
      <trkpt lat="42.28643" lon="23.12233">
        <ele>578.635324</ele>
        <time>2022-04-05T10:55:15.267Z</time>
      </trkpt>
      <trkpt lat="42.28634" lon="23.12239">
        <ele>578.3813</ele>
        <time>2022-04-05T10:55:17.246Z</time>
      </trkpt>
      <trkpt lat="42.28624" lon="23.12245">
        <ele>578.09978</ele>
        <time>2022-04-05T10:55:19.290Z</time>
      </trkpt>
      <trkpt lat="42.28613" lon="23.12249">
        <ele>577.817172</ele>
        <time>2022-04-05T10:55:21.265Z</time>
      </trkpt>
      <trkpt lat="42.28602" lon="23.12253">
        <ele>577.534554</ele>
        <time>2022-04-05T10:55:23.240Z</time>
      </trkpt>
      <trkpt lat="42.28591" lon="23.12255">
        <ele>577.597465</ele>
        <time>2022-04-05T10:55:25.246Z</time>
      </trkpt>
      <trkpt lat="42.28581" lon="23.12257">
        <ele>577.725718</ele>
        <time>2022-04-05T10:55:27.250Z</time>
      </trkpt>
      <trkpt lat="42.28571" lon="23.12258">
        <ele>577.845239</ele>
        <time>2022-04-05T10:55:29.233Z</time>
      </trkpt>
      <trkpt lat="42.28557" lon="23.12258">
        <ele>578.007573</ele>
        <time>2022-04-05T10:55:32.254Z</time>
      </trkpt>
      <trkpt lat="42.28546" lon="23.12258">
        <ele>578.142259</ele>
        <time>2022-04-05T10:55:35.256Z</time>
      </trkpt>
      <trkpt lat="42.28536" lon="23.12258">
        <ele>578.26491</ele>
        <time>2022-04-05T10:55:38.250Z</time>
      </trkpt>
      <trkpt lat="42.28524" lon="23.12259">
        <ele>578.412823</ele>
        <time>2022-04-05T10:55:42.210Z</time>
      </trkpt>
      <trkpt lat="42.28512" lon="23.12259">
        <ele>578.559525</ele>
        <time>2022-04-05T10:55:46.249Z</time>
      </trkpt>
      <trkpt lat="42.28502" lon="23.12258">
        <ele>578.677419</ele>
        <time>2022-04-05T10:55:49.286Z</time>
      </trkpt>
      <trkpt lat="42.28491" lon="23.12258">
        <ele>578.812121</ele>
        <time>2022-04-05T10:55:52.270Z</time>
      </trkpt>
      <trkpt lat="42.2848" lon="23.12258">
        <ele>578.936089</ele>
        <time>2022-04-05T10:55:55.242Z</time>
      </trkpt>
      <trkpt lat="42.2847" lon="23.12259">
        <ele>579.054201</ele>
        <time>2022-04-05T10:55:58.245Z</time>
      </trkpt>
      <trkpt lat="42.28459" lon="23.12262">
        <ele>579.189233</ele>
        <time>2022-04-05T10:56:01.255Z</time>
      </trkpt>
      <trkpt lat="42.28448" lon="23.12266">
        <ele>579.326278</ele>
        <time>2022-04-05T10:56:04.234Z</time>
      </trkpt>
      <trkpt lat="42.28438" lon="23.12271">
        <ele>579.465568</ele>
        <time>2022-04-05T10:56:07.245Z</time>
      </trkpt>
      <trkpt lat="42.28427" lon="23.12278">
        <ele>579.608122</ele>
        <time>2022-04-05T10:56:10.242Z</time>
      </trkpt>
      <trkpt lat="42.28416" lon="23.12287">
        <ele>579.429079</ele>
        <time>2022-04-05T10:56:13.232Z</time>
      </trkpt>
      <trkpt lat="42.28408" lon="23.12294">
        <ele>579.211171</ele>
        <time>2022-04-05T10:56:15.232Z</time>
      </trkpt>
      <trkpt lat="42.28398" lon="23.12305">
        <ele>578.895628</ele>
        <time>2022-04-05T10:56:18.241Z</time>
      </trkpt>
      <trkpt lat="42.28392" lon="23.12315">
        <ele>578.676328</ele>
        <time>2022-04-05T10:56:20.250Z</time>
      </trkpt>
      <trkpt lat="42.28387" lon="23.12326">
        <ele>578.45714</ele>
        <time>2022-04-05T10:56:22.225Z</time>
      </trkpt>
      <trkpt lat="42.28381" lon="23.12338">
        <ele>578.198181</ele>
        <time>2022-04-05T10:56:24.239Z</time>
      </trkpt>
      <trkpt lat="42.28374" lon="23.12352">
        <ele>577.914174</ele>
        <time>2022-04-05T10:56:26.247Z</time>
      </trkpt>
      <trkpt lat="42.28367" lon="23.12368">
        <ele>577.582556</ele>
        <time>2022-04-05T10:56:28.230Z</time>
      </trkpt>
      <trkpt lat="42.28358" lon="23.12386">
        <ele>577.197285</ele>
        <time>2022-04-05T10:56:30.247Z</time>
      </trkpt>
      <trkpt lat="42.28348" lon="23.12406">
        <ele>576.777364</ele>
        <time>2022-04-05T10:56:32.248Z</time>
      </trkpt>
      <trkpt lat="42.28343" lon="23.12417">
        <ele>576.55542</ele>
        <time>2022-04-05T10:56:33.231Z</time>
      </trkpt>
      <trkpt lat="42.28337" lon="23.12428">
        <ele>576.327807</ele>
        <time>2022-04-05T10:56:34.236Z</time>
      </trkpt>
      <trkpt lat="42.28332" lon="23.12439">
        <ele>576.098734</ele>
        <time>2022-04-05T10:56:35.242Z</time>
      </trkpt>
      <trkpt lat="42.28326" lon="23.12451">
        <ele>575.851516</ele>
        <time>2022-04-05T10:56:36.221Z</time>
      </trkpt>
      <trkpt lat="42.28321" lon="23.12463">
        <ele>575.59992</ele>
        <time>2022-04-05T10:56:37.275Z</time>
      </trkpt>
      <trkpt lat="42.28315" lon="23.12475">
        <ele>575.349065</ele>
        <time>2022-04-05T10:56:38.224Z</time>
      </trkpt>
      <trkpt lat="42.28309" lon="23.12488">
        <ele>575.083789</ele>
        <time>2022-04-05T10:56:39.229Z</time>
      </trkpt>
      <trkpt lat="42.28302" lon="23.12501">
        <ele>574.814546</ele>
        <time>2022-04-05T10:56:40.230Z</time>
      </trkpt>
      <trkpt lat="42.28296" lon="23.12514">
        <ele>574.556333</ele>
        <time>2022-04-05T10:56:41.235Z</time>
      </trkpt>
      <trkpt lat="42.2829" lon="23.12526">
        <ele>574.291409</ele>
        <time>2022-04-05T10:56:42.229Z</time>
      </trkpt>
      <trkpt lat="42.28284" lon="23.12539">
        <ele>574.036086</ele>
        <time>2022-04-05T10:56:43.233Z</time>
      </trkpt>
      <trkpt lat="42.28278" lon="23.1255">
        <ele>573.798842</ele>
        <time>2022-04-05T10:56:44.233Z</time>
      </trkpt>
      <trkpt lat="42.28273" lon="23.12561">
        <ele>573.582641</ele>
        <time>2022-04-05T10:56:45.231Z</time>
      </trkpt>
      <trkpt lat="42.28268" lon="23.12572">
        <ele>573.353856</ele>
        <time>2022-04-05T10:56:46.254Z</time>
      </trkpt>
      <trkpt lat="42.28263" lon="23.12582">
        <ele>573.135966</ele>
        <time>2022-04-05T10:56:47.230Z</time>
      </trkpt>
      <trkpt lat="42.28253" lon="23.12601">
        <ele>572.744818</ele>
        <time>2022-04-05T10:56:49.225Z</time>
      </trkpt>
      <trkpt lat="42.28245" lon="23.12617">
        <ele>572.41204</ele>
        <time>2022-04-05T10:56:51.243Z</time>
      </trkpt>
      <trkpt lat="42.28238" lon="23.1263">
        <ele>572.123891</ele>
        <time>2022-04-05T10:56:53.245Z</time>
      </trkpt>
      <trkpt lat="42.28231" lon="23.12641">
        <ele>571.890782</ele>
        <time>2022-04-05T10:56:55.230Z</time>
      </trkpt>
      <trkpt lat="42.28226" lon="23.1265">
        <ele>571.678357</ele>
        <time>2022-04-05T10:56:57.248Z</time>
      </trkpt>
      <trkpt lat="42.28217" lon="23.12662">
        <ele>571.394148</ele>
        <time>2022-04-05T10:57:00.233Z</time>
      </trkpt>
      <trkpt lat="42.28208" lon="23.12672">
        <ele>571.065801</ele>
        <time>2022-04-05T10:57:03.248Z</time>
      </trkpt>
      <trkpt lat="42.28199" lon="23.12681">
        <ele>570.653688</ele>
        <time>2022-04-05T10:57:06.238Z</time>
      </trkpt>
      <trkpt lat="42.28189" lon="23.1269">
        <ele>570.226699</ele>
        <time>2022-04-05T10:57:09.229Z</time>
      </trkpt>
      <trkpt lat="42.28177" lon="23.12697">
        <ele>569.778686</ele>
        <time>2022-04-05T10:57:12.249Z</time>
      </trkpt>
      <trkpt lat="42.28166" lon="23.12702">
        <ele>569.34483</ele>
        <time>2022-04-05T10:57:15.251Z</time>
      </trkpt>
      <trkpt lat="42.28154" lon="23.12708">
        <ele>568.875035</ele>
        <time>2022-04-05T10:57:18.252Z</time>
      </trkpt>
      <trkpt lat="42.28144" lon="23.12712">
        <ele>568.523288</ele>
        <time>2022-04-05T10:57:20.244Z</time>
      </trkpt>
      <trkpt lat="42.28134" lon="23.12715">
        <ele>568.141087</ele>
        <time>2022-04-05T10:57:22.229Z</time>
      </trkpt>
      <trkpt lat="42.28123" lon="23.12719">
        <ele>567.732378</ele>
        <time>2022-04-05T10:57:24.252Z</time>
      </trkpt>
      <trkpt lat="42.28112" lon="23.12724">
        <ele>567.2976</ele>
        <time>2022-04-05T10:57:26.243Z</time>
      </trkpt>
      <trkpt lat="42.281" lon="23.12729">
        <ele>566.857437</ele>
        <time>2022-04-05T10:57:28.245Z</time>
      </trkpt>
      <trkpt lat="42.28088" lon="23.12734">
        <ele>566.383815</ele>
        <time>2022-04-05T10:57:30.237Z</time>
      </trkpt>
      <trkpt lat="42.28074" lon="23.12739">
        <ele>565.89209</ele>
        <time>2022-04-05T10:57:32.233Z</time>
      </trkpt>
      <trkpt lat="42.28061" lon="23.12744">
        <ele>565.38005</ele>
        <time>2022-04-05T10:57:34.219Z</time>
      </trkpt>
      <trkpt lat="42.28047" lon="23.1275">
        <ele>564.844184</ele>
        <time>2022-04-05T10:57:36.241Z</time>
      </trkpt>
      <trkpt lat="42.28032" lon="23.12755">
        <ele>564.332058</ele>
        <time>2022-04-05T10:57:38.234Z</time>
      </trkpt>
      <trkpt lat="42.28018" lon="23.12761">
        <ele>563.814062</ele>
        <time>2022-04-05T10:57:40.226Z</time>
      </trkpt>
      <trkpt lat="42.28002" lon="23.12768">
        <ele>563.271868</ele>
        <time>2022-04-05T10:57:42.239Z</time>
      </trkpt>
      <trkpt lat="42.27987" lon="23.12774">
        <ele>562.719198</ele>
        <time>2022-04-05T10:57:44.231Z</time>
      </trkpt>
      <trkpt lat="42.27971" lon="23.12781">
        <ele>562.161083</ele>
        <time>2022-04-05T10:57:46.233Z</time>
      </trkpt>
      <trkpt lat="42.27955" lon="23.12787">
        <ele>561.600462</ele>
        <time>2022-04-05T10:57:48.255Z</time>
      </trkpt>
      <trkpt lat="42.2794" lon="23.12793">
        <ele>561.055015</ele>
        <time>2022-04-05T10:57:50.225Z</time>
      </trkpt>
      <trkpt lat="42.27924" lon="23.128">
        <ele>560.501849</ele>
        <time>2022-04-05T10:57:52.263Z</time>
      </trkpt>
      <trkpt lat="42.27909" lon="23.12806">
        <ele>559.962173</ele>
        <time>2022-04-05T10:57:54.239Z</time>
      </trkpt>
      <trkpt lat="42.27895" lon="23.12812">
        <ele>559.446683</ele>
        <time>2022-04-05T10:57:56.236Z</time>
      </trkpt>
      <trkpt lat="42.27881" lon="23.12818">
        <ele>558.964086</ele>
        <time>2022-04-05T10:57:58.242Z</time>
      </trkpt>
      <trkpt lat="42.27868" lon="23.12824">
        <ele>558.607953</ele>
        <time>2022-04-05T10:58:00.231Z</time>
      </trkpt>
      <trkpt lat="42.27855" lon="23.12829">
        <ele>558.582893</ele>
        <time>2022-04-05T10:58:02.251Z</time>
      </trkpt>
      <trkpt lat="42.27843" lon="23.12834">
        <ele>558.557993</ele>
        <time>2022-04-05T10:58:04.257Z</time>
      </trkpt>
      <trkpt lat="42.27831" lon="23.12839">
        <ele>558.534297</ele>
        <time>2022-04-05T10:58:06.237Z</time>
      </trkpt>
      <trkpt lat="42.2782" lon="23.12843">
        <ele>558.512233</ele>
        <time>2022-04-05T10:58:08.228Z</time>
      </trkpt>
      <trkpt lat="42.27809" lon="23.12848">
        <ele>558.490901</ele>
        <time>2022-04-05T10:58:10.239Z</time>
      </trkpt>
      <trkpt lat="42.27799" lon="23.12852">
        <ele>558.471285</ele>
        <time>2022-04-05T10:58:12.234Z</time>
      </trkpt>
      <trkpt lat="42.2779" lon="23.12855">
        <ele>558.45326</ele>
        <time>2022-04-05T10:58:14.245Z</time>
      </trkpt>
      <trkpt lat="42.27778" lon="23.12861">
        <ele>558.428117</ele>
        <time>2022-04-05T10:58:17.242Z</time>
      </trkpt>
      <trkpt lat="42.27766" lon="23.12869">
        <ele>558.4022</ele>
        <time>2022-04-05T10:58:20.240Z</time>
      </trkpt>
      <trkpt lat="42.27755" lon="23.12878">
        <ele>558.377738</ele>
        <time>2022-04-05T10:58:23.235Z</time>
      </trkpt>
      <trkpt lat="42.27745" lon="23.12889">
        <ele>558.353271</ele>
        <time>2022-04-05T10:58:26.223Z</time>
      </trkpt>
      <trkpt lat="42.27735" lon="23.129">
        <ele>558.328349</ele>
        <time>2022-04-05T10:58:29.274Z</time>
      </trkpt>
      <trkpt lat="42.27726" lon="23.12912">
        <ele>558.303959</ele>
        <time>2022-04-05T10:58:32.237Z</time>
      </trkpt>
      <trkpt lat="42.27717" lon="23.12923">
        <ele>558.280657</ele>
        <time>2022-04-05T10:58:35.251Z</time>
      </trkpt>
      <trkpt lat="42.27707" lon="23.12935">
        <ele>558.383712</ele>
        <time>2022-04-05T10:58:38.253Z</time>
      </trkpt>
      <trkpt lat="42.27698" lon="23.12947">
        <ele>558.57405</ele>
        <time>2022-04-05T10:58:41.255Z</time>
      </trkpt>
      <trkpt lat="42.27689" lon="23.12959">
        <ele>558.762578</ele>
        <time>2022-04-05T10:58:44.229Z</time>
      </trkpt>
      <trkpt lat="42.2768" lon="23.1297">
        <ele>558.940846</ele>
        <time>2022-04-05T10:58:47.232Z</time>
      </trkpt>
      <trkpt lat="42.27671" lon="23.12982">
        <ele>559.120517</ele>
        <time>2022-04-05T10:58:50.236Z</time>
      </trkpt>
      <trkpt lat="42.27661" lon="23.12995">
        <ele>559.320097</ele>
        <time>2022-04-05T10:58:53.231Z</time>
      </trkpt>
      <trkpt lat="42.27655" lon="23.13003">
        <ele>559.454738</ele>
        <time>2022-04-05T10:58:55.233Z</time>
      </trkpt>
      <trkpt lat="42.27648" lon="23.13013">
        <ele>559.601973</ele>
        <time>2022-04-05T10:58:57.240Z</time>
      </trkpt>
      <trkpt lat="42.27641" lon="23.13022">
        <ele>559.748238</ele>
        <time>2022-04-05T10:58:59.222Z</time>
      </trkpt>
      <trkpt lat="42.27633" lon="23.13031">
        <ele>559.895535</ele>
        <time>2022-04-05T10:59:01.238Z</time>
      </trkpt>
      <trkpt lat="42.27625" lon="23.13039">
        <ele>560.039145</ele>
        <time>2022-04-05T10:59:03.245Z</time>
      </trkpt>
      <trkpt lat="42.27617" lon="23.13046">
        <ele>560.177877</ele>
        <time>2022-04-05T10:59:05.232Z</time>
      </trkpt>
      <trkpt lat="42.27609" lon="23.13053">
        <ele>560.323288</ele>
        <time>2022-04-05T10:59:07.225Z</time>
      </trkpt>
      <trkpt lat="42.27601" lon="23.13061">
        <ele>560.464443</ele>
        <time>2022-04-05T10:59:09.307Z</time>
      </trkpt>
      <trkpt lat="42.27593" lon="23.13067">
        <ele>560.598453</ele>
        <time>2022-04-05T10:59:11.235Z</time>
      </trkpt>
      <trkpt lat="42.27584" lon="23.13072">
        <ele>560.743551</ele>
        <time>2022-04-05T10:59:13.259Z</time>
      </trkpt>
      <trkpt lat="42.27574" lon="23.13075">
        <ele>560.893987</ele>
        <time>2022-04-05T10:59:15.235Z</time>
      </trkpt>
      <trkpt lat="42.27564" lon="23.13076">
        <ele>561.126083</ele>
        <time>2022-04-05T10:59:17.267Z</time>
      </trkpt>
      <trkpt lat="42.27553" lon="23.13075">
        <ele>561.361636</ele>
        <time>2022-04-05T10:59:19.238Z</time>
      </trkpt>
      <trkpt lat="42.27544" lon="23.13075">
        <ele>561.574116</ele>
        <time>2022-04-05T10:59:21.234Z</time>
      </trkpt>
      <trkpt lat="42.27535" lon="23.13074">
        <ele>561.795824</ele>
        <time>2022-04-05T10:59:23.241Z</time>
      </trkpt>
      <trkpt lat="42.27525" lon="23.13074">
        <ele>562.022071</ele>
        <time>2022-04-05T10:59:25.231Z</time>
      </trkpt>
      <trkpt lat="42.27516" lon="23.13074">
        <ele>562.232139</ele>
        <time>2022-04-05T10:59:27.248Z</time>
      </trkpt>
      <trkpt lat="42.27503" lon="23.13072">
        <ele>562.524993</ele>
        <time>2022-04-05T10:59:30.234Z</time>
      </trkpt>
      <trkpt lat="42.27491" lon="23.13072">
        <ele>562.813545</ele>
        <time>2022-04-05T10:59:33.223Z</time>
      </trkpt>
      <trkpt lat="42.27482" lon="23.13072">
        <ele>563.021326</ele>
        <time>2022-04-05T10:59:35.233Z</time>
      </trkpt>
      <trkpt lat="42.27469" lon="23.13071">
        <ele>563.303077</ele>
        <time>2022-04-05T10:59:38.241Z</time>
      </trkpt>
      <trkpt lat="42.2746" lon="23.13071">
        <ele>563.522611</ele>
        <time>2022-04-05T10:59:41.226Z</time>
      </trkpt>
      <trkpt lat="42.27449" lon="23.1307">
        <ele>563.779205</ele>
        <time>2022-04-05T10:59:45.235Z</time>
      </trkpt>
      <trkpt lat="42.27437" lon="23.1307">
        <ele>564.049284</ele>
        <time>2022-04-05T10:59:49.294Z</time>
      </trkpt>
      <trkpt lat="42.27427" lon="23.1307">
        <ele>564.287053</ele>
        <time>2022-04-05T10:59:52.244Z</time>
      </trkpt>
      <trkpt lat="42.27415" lon="23.1307">
        <ele>564.554824</ele>
        <time>2022-04-05T10:59:55.223Z</time>
      </trkpt>
      <trkpt lat="42.27404" lon="23.13069">
        <ele>564.821213</ele>
        <time>2022-04-05T10:59:58.218Z</time>
      </trkpt>
      <trkpt lat="42.27394" lon="23.13068">
        <ele>565.054759</ele>
        <time>2022-04-05T11:00:01.219Z</time>
      </trkpt>
      <trkpt lat="42.27383" lon="23.13067">
        <ele>564.871783</ele>
        <time>2022-04-05T11:00:04.250Z</time>
      </trkpt>
      <trkpt lat="42.27373" lon="23.13066">
        <ele>564.679693</ele>
        <time>2022-04-05T11:00:07.267Z</time>
      </trkpt>
      <trkpt lat="42.27363" lon="23.13066">
        <ele>564.487885</ele>
        <time>2022-04-05T11:00:10.229Z</time>
      </trkpt>
      <trkpt lat="42.27353" lon="23.13066">
        <ele>564.307493</ele>
        <time>2022-04-05T11:00:13.264Z</time>
      </trkpt>
      <trkpt lat="42.27343" lon="23.13065">
        <ele>564.100238</ele>
        <time>2022-04-05T11:00:17.228Z</time>
      </trkpt>
      <trkpt lat="42.27333" lon="23.13063">
        <ele>563.925413</ele>
        <time>2022-04-05T11:00:20.229Z</time>
      </trkpt>
      <trkpt lat="42.27329" lon="23.13052">
        <ele>563.751961</ele>
        <time>2022-04-05T11:00:23.216Z</time>
      </trkpt>
      <trkpt lat="42.2733" lon="23.1304">
        <ele>563.574936</ele>
        <time>2022-04-05T11:00:26.251Z</time>
      </trkpt>
      <trkpt lat="42.27323" lon="23.1303">
        <ele>563.396511</ele>
        <time>2022-04-05T11:00:30.235Z</time>
      </trkpt>
      <trkpt lat="42.27314" lon="23.13028">
        <ele>563.219809</ele>
        <time>2022-04-05T11:00:37.239Z</time>
      </trkpt>
      <trkpt lat="42.27309" lon="23.13097">
        <ele>562.25893</ele>
        <time>2022-04-05T11:10:08.259Z</time>
      </trkpt>
      <trkpt lat="42.27311" lon="23.13055">
        <ele>561.677593</ele>
        <time>2022-04-05T11:10:09.253Z</time>
      </trkpt>
      <trkpt lat="42.27327" lon="23.13048">
        <ele>562.230545</ele>
        <time>2022-04-05T11:14:40.244Z</time>
      </trkpt>
      <trkpt lat="42.27331" lon="23.1306">
        <ele>562.582574</ele>
        <time>2022-04-05T11:14:49.245Z</time>
      </trkpt>
      <trkpt lat="42.27341" lon="23.13077">
        <ele>563.187965</ele>
        <time>2022-04-05T11:15:11.272Z</time>
      </trkpt>
      <trkpt lat="42.27352" lon="23.13077">
        <ele>563.608623</ele>
        <time>2022-04-05T11:15:15.209Z</time>
      </trkpt>
      <trkpt lat="42.27361" lon="23.13083">
        <ele>563.968671</ele>
        <time>2022-04-05T11:15:19.220Z</time>
      </trkpt>
      <trkpt lat="42.27359" lon="23.13098">
        <ele>564.403455</ele>
        <time>2022-04-05T11:15:23.240Z</time>
      </trkpt>
      <trkpt lat="42.27355" lon="23.13111">
        <ele>564.782645</ele>
        <time>2022-04-05T11:15:26.240Z</time>
      </trkpt>
      <trkpt lat="42.27351" lon="23.13123">
        <ele>565.132543</ele>
        <time>2022-04-05T11:15:29.248Z</time>
      </trkpt>
      <trkpt lat="42.27348" lon="23.13136">
        <ele>565.513164</ele>
        <time>2022-04-05T11:15:32.258Z</time>
      </trkpt>
      <trkpt lat="42.27345" lon="23.13148">
        <ele>565.884466</ele>
        <time>2022-04-05T11:15:35.260Z</time>
      </trkpt>
      <trkpt lat="42.2734" lon="23.1316">
        <ele>566.260998</ele>
        <time>2022-04-05T11:15:38.249Z</time>
      </trkpt>
      <trkpt lat="42.27337" lon="23.13173">
        <ele>566.626492</ele>
        <time>2022-04-05T11:15:41.245Z</time>
      </trkpt>
      <trkpt lat="42.27335" lon="23.13184">
        <ele>566.964703</ele>
        <time>2022-04-05T11:15:44.246Z</time>
      </trkpt>
      <trkpt lat="42.27332" lon="23.132">
        <ele>567.416507</ele>
        <time>2022-04-05T11:15:48.289Z</time>
      </trkpt>
      <trkpt lat="42.27328" lon="23.13213">
        <ele>567.78781</ele>
        <time>2022-04-05T11:15:51.235Z</time>
      </trkpt>
      <trkpt lat="42.27326" lon="23.13225">
        <ele>568.150226</ele>
        <time>2022-04-05T11:15:54.235Z</time>
      </trkpt>
      <trkpt lat="42.27322" lon="23.13237">
        <ele>568.47887</ele>
        <time>2022-04-05T11:15:57.234Z</time>
      </trkpt>
      <trkpt lat="42.2732" lon="23.13249">
        <ele>568.757526</ele>
        <time>2022-04-05T11:16:00.242Z</time>
      </trkpt>
      <trkpt lat="42.27317" lon="23.13261">
        <ele>569.035193</ele>
        <time>2022-04-05T11:16:03.258Z</time>
      </trkpt>
      <trkpt lat="42.27314" lon="23.13273">
        <ele>569.307764</ele>
        <time>2022-04-05T11:16:06.237Z</time>
      </trkpt>
      <trkpt lat="42.27311" lon="23.13284">
        <ele>569.575143</ele>
        <time>2022-04-05T11:16:09.255Z</time>
      </trkpt>
      <trkpt lat="42.27309" lon="23.13296">
        <ele>569.844766</ele>
        <time>2022-04-05T11:16:12.228Z</time>
      </trkpt>
      <trkpt lat="42.27307" lon="23.13309">
        <ele>570.116275</ele>
        <time>2022-04-05T11:16:15.250Z</time>
      </trkpt>
      <trkpt lat="42.27305" lon="23.13322">
        <ele>570.403262</ele>
        <time>2022-04-05T11:16:18.247Z</time>
      </trkpt>
      <trkpt lat="42.27301" lon="23.13337">
        <ele>570.753626</ele>
        <time>2022-04-05T11:16:22.234Z</time>
      </trkpt>
      <trkpt lat="42.27298" lon="23.13348">
        <ele>571.023451</ele>
        <time>2022-04-05T11:16:25.244Z</time>
      </trkpt>
      <trkpt lat="42.27295" lon="23.13363">
        <ele>571.351583</ele>
        <time>2022-04-05T11:16:29.238Z</time>
      </trkpt>
      <trkpt lat="42.27295" lon="23.13379">
        <ele>571.699133</ele>
        <time>2022-04-05T11:16:33.234Z</time>
      </trkpt>
      <trkpt lat="42.27294" lon="23.13394">
        <ele>572.026252</ele>
        <time>2022-04-05T11:16:37.236Z</time>
      </trkpt>
      <trkpt lat="42.27294" lon="23.1341">
        <ele>572.384634</ele>
        <time>2022-04-05T11:16:41.228Z</time>
      </trkpt>
      <trkpt lat="42.27295" lon="23.13423">
        <ele>572.662845</ele>
        <time>2022-04-05T11:16:44.239Z</time>
      </trkpt>
      <trkpt lat="42.27295" lon="23.13435">
        <ele>572.93375</ele>
        <time>2022-04-05T11:16:47.249Z</time>
      </trkpt>
      <trkpt lat="42.27296" lon="23.13448">
        <ele>573.206945</ele>
        <time>2022-04-05T11:16:50.244Z</time>
      </trkpt>
      <trkpt lat="42.27296" lon="23.13463">
        <ele>573.545556</ele>
        <time>2022-04-05T11:16:54.246Z</time>
      </trkpt>
      <trkpt lat="42.27296" lon="23.13478">
        <ele>573.948612</ele>
        <time>2022-04-05T11:16:58.260Z</time>
      </trkpt>
      <trkpt lat="42.27297" lon="23.13491">
        <ele>574.401766</ele>
        <time>2022-04-05T11:17:02.282Z</time>
      </trkpt>
      <trkpt lat="42.27296" lon="23.13504">
        <ele>574.84673</ele>
        <time>2022-04-05T11:17:06.252Z</time>
      </trkpt>
      <trkpt lat="42.27296" lon="23.13519">
        <ele>575.368078</ele>
        <time>2022-04-05T11:17:10.252Z</time>
      </trkpt>
      <trkpt lat="42.27296" lon="23.13532">
        <ele>575.780925</ele>
        <time>2022-04-05T11:17:13.253Z</time>
      </trkpt>
      <trkpt lat="42.27293" lon="23.13547">
        <ele>576.309715</ele>
        <time>2022-04-05T11:17:17.256Z</time>
      </trkpt>
      <trkpt lat="42.2729" lon="23.13561">
        <ele>576.806736</ele>
        <time>2022-04-05T11:17:21.226Z</time>
      </trkpt>
      <trkpt lat="42.27289" lon="23.13576">
        <ele>577.316629</ele>
        <time>2022-04-05T11:17:25.283Z</time>
      </trkpt>
      <trkpt lat="42.27286" lon="23.1359">
        <ele>577.804959</ele>
        <time>2022-04-05T11:17:29.242Z</time>
      </trkpt>
      <trkpt lat="42.27285" lon="23.13605">
        <ele>578.325585</ele>
        <time>2022-04-05T11:17:33.242Z</time>
      </trkpt>
      <trkpt lat="42.2728" lon="23.13618">
        <ele>578.816001</ele>
        <time>2022-04-05T11:17:37.250Z</time>
      </trkpt>
      <trkpt lat="42.27275" lon="23.13631">
        <ele>579.293613</ele>
        <time>2022-04-05T11:17:41.229Z</time>
      </trkpt>
      <trkpt lat="42.27269" lon="23.1364">
        <ele>579.709614</ele>
        <time>2022-04-05T11:17:44.245Z</time>
      </trkpt>
      <trkpt lat="42.27265" lon="23.13653">
        <ele>580.178903</ele>
        <time>2022-04-05T11:17:48.285Z</time>
      </trkpt>
      <trkpt lat="42.2726" lon="23.13664">
        <ele>580.619541</ele>
        <time>2022-04-05T11:17:51.241Z</time>
      </trkpt>
      <trkpt lat="42.27253" lon="23.13674">
        <ele>581.081985</ele>
        <time>2022-04-05T11:17:54.237Z</time>
      </trkpt>
      <trkpt lat="42.27245" lon="23.13684">
        <ele>581.569181</ele>
        <time>2022-04-05T11:17:57.255Z</time>
      </trkpt>
      <trkpt lat="42.27237" lon="23.13695">
        <ele>582.060001</ele>
        <time>2022-04-05T11:18:01.228Z</time>
      </trkpt>
      <trkpt lat="42.27232" lon="23.13706">
        <ele>582.408839</ele>
        <time>2022-04-05T11:18:04.257Z</time>
      </trkpt>
      <trkpt lat="42.27225" lon="23.13717">
        <ele>582.788511</ele>
        <time>2022-04-05T11:18:07.259Z</time>
      </trkpt>
      <trkpt lat="42.27219" lon="23.13729">
        <ele>583.20319</ele>
        <time>2022-04-05T11:18:11.247Z</time>
      </trkpt>
      <trkpt lat="42.27213" lon="23.1374">
        <ele>583.576563</ele>
        <time>2022-04-05T11:18:15.257Z</time>
      </trkpt>
      <trkpt lat="42.27208" lon="23.13751">
        <ele>583.929384</ele>
        <time>2022-04-05T11:18:19.227Z</time>
      </trkpt>
      <trkpt lat="42.27202" lon="23.13764">
        <ele>584.339211</ele>
        <time>2022-04-05T11:18:23.229Z</time>
      </trkpt>
      <trkpt lat="42.27196" lon="23.13777">
        <ele>584.764563</ele>
        <time>2022-04-05T11:18:27.277Z</time>
      </trkpt>
      <trkpt lat="42.27191" lon="23.13791">
        <ele>585.192655</ele>
        <time>2022-04-05T11:18:31.241Z</time>
      </trkpt>
      <trkpt lat="42.27186" lon="23.13802">
        <ele>585.524095</ele>
        <time>2022-04-05T11:18:34.239Z</time>
      </trkpt>
      <trkpt lat="42.27182" lon="23.13813">
        <ele>585.86383</ele>
        <time>2022-04-05T11:18:38.235Z</time>
      </trkpt>
      <trkpt lat="42.27178" lon="23.13824">
        <ele>586.19473</ele>
        <time>2022-04-05T11:18:42.237Z</time>
      </trkpt>
      <trkpt lat="42.27175" lon="23.13837">
        <ele>586.550502</ele>
        <time>2022-04-05T11:18:46.248Z</time>
      </trkpt>
      <trkpt lat="42.27172" lon="23.1385">
        <ele>586.922078</ele>
        <time>2022-04-05T11:18:50.242Z</time>
      </trkpt>
      <trkpt lat="42.27169" lon="23.13862">
        <ele>587.269017</ele>
        <time>2022-04-05T11:18:54.224Z</time>
      </trkpt>
      <trkpt lat="42.27166" lon="23.13874">
        <ele>587.6163</ele>
        <time>2022-04-05T11:18:58.241Z</time>
      </trkpt>
      <trkpt lat="42.27163" lon="23.13886">
        <ele>587.95392</ele>
        <time>2022-04-05T11:19:02.236Z</time>
      </trkpt>
      <trkpt lat="42.2716" lon="23.13897">
        <ele>588.283432</ele>
        <time>2022-04-05T11:19:06.247Z</time>
      </trkpt>
      <trkpt lat="42.27156" lon="23.13911">
        <ele>588.550021</ele>
        <time>2022-04-05T11:19:11.270Z</time>
      </trkpt>
      <trkpt lat="42.27153" lon="23.13922">
        <ele>588.602198</ele>
        <time>2022-04-05T11:19:15.237Z</time>
      </trkpt>
      <trkpt lat="42.27149" lon="23.13933">
        <ele>588.653932</ele>
        <time>2022-04-05T11:19:19.250Z</time>
      </trkpt>
      <trkpt lat="42.27146" lon="23.13947">
        <ele>588.713</ele>
        <time>2022-04-05T11:19:23.238Z</time>
      </trkpt>
      <trkpt lat="42.27144" lon="23.1396">
        <ele>588.773166</ele>
        <time>2022-04-05T11:19:27.233Z</time>
      </trkpt>
      <trkpt lat="42.27141" lon="23.13973">
        <ele>588.829853</ele>
        <time>2022-04-05T11:19:31.253Z</time>
      </trkpt>
      <trkpt lat="42.27139" lon="23.13986">
        <ele>588.884265</ele>
        <time>2022-04-05T11:19:35.273Z</time>
      </trkpt>
      <trkpt lat="42.27135" lon="23.13997">
        <ele>588.936377</ele>
        <time>2022-04-05T11:19:39.241Z</time>
      </trkpt>
      <trkpt lat="42.27131" lon="23.14009">
        <ele>588.991293</ele>
        <time>2022-04-05T11:19:44.237Z</time>
      </trkpt>
      <trkpt lat="42.27128" lon="23.1402">
        <ele>589.042814</ele>
        <time>2022-04-05T11:19:48.252Z</time>
      </trkpt>
      <trkpt lat="42.27127" lon="23.14032">
        <ele>589.095233</ele>
        <time>2022-04-05T11:19:54.234Z</time>
      </trkpt>
      <trkpt lat="42.27129" lon="23.14046">
        <ele>589.153827</ele>
        <time>2022-04-05T11:20:03.220Z</time>
      </trkpt>
      <trkpt lat="42.27131" lon="23.14058">
        <ele>589.206822</ele>
        <time>2022-04-05T11:20:10.232Z</time>
      </trkpt>
      <trkpt lat="42.27134" lon="23.1407">
        <ele>589.259738</ele>
        <time>2022-04-05T11:20:17.251Z</time>
      </trkpt>
      <trkpt lat="42.27137" lon="23.14082">
        <ele>589.313505</ele>
        <time>2022-04-05T11:20:24.256Z</time>
      </trkpt>
      <trkpt lat="42.2714" lon="23.14095">
        <ele>589.371428</ele>
        <time>2022-04-05T11:20:32.246Z</time>
      </trkpt>
      <trkpt lat="42.27142" lon="23.14107">
        <ele>589.422723</ele>
        <time>2022-04-05T11:20:37.250Z</time>
      </trkpt>
      <trkpt lat="42.27139" lon="23.14118">
        <ele>589.47485</ele>
        <time>2022-04-05T11:20:43.240Z</time>
      </trkpt>
      <trkpt lat="42.27135" lon="23.1413">
        <ele>589.528741</ele>
        <time>2022-04-05T11:20:48.253Z</time>
      </trkpt>
      <trkpt lat="42.27131" lon="23.14141">
        <ele>589.652572</ele>
        <time>2022-04-05T11:20:53.270Z</time>
      </trkpt>
      <trkpt lat="42.27126" lon="23.14153">
        <ele>589.845378</ele>
        <time>2022-04-05T11:20:58.258Z</time>
      </trkpt>
      <trkpt lat="42.27122" lon="23.14165">
        <ele>590.045804</ele>
        <time>2022-04-05T11:21:03.233Z</time>
      </trkpt>
      <trkpt lat="42.27118" lon="23.14178">
        <ele>590.24377</ele>
        <time>2022-04-05T11:21:08.254Z</time>
      </trkpt>
      <trkpt lat="42.27114" lon="23.14189">
        <ele>590.424756</ele>
        <time>2022-04-05T11:21:13.244Z</time>
      </trkpt>
      <trkpt lat="42.27111" lon="23.14202">
        <ele>590.627786</ele>
        <time>2022-04-05T11:21:18.252Z</time>
      </trkpt>
      <trkpt lat="42.27108" lon="23.14214">
        <ele>590.821331</ele>
        <time>2022-04-05T11:21:23.243Z</time>
      </trkpt>
      <trkpt lat="42.27104" lon="23.14227">
        <ele>591.028496</ele>
        <time>2022-04-05T11:21:28.243Z</time>
      </trkpt>
      <trkpt lat="42.27102" lon="23.14241">
        <ele>591.235536</ele>
        <time>2022-04-05T11:21:33.248Z</time>
      </trkpt>
      <trkpt lat="42.27099" lon="23.14254">
        <ele>591.439709</ele>
        <time>2022-04-05T11:21:38.297Z</time>
      </trkpt>
      <trkpt lat="42.27097" lon="23.14269">
        <ele>591.662051</ele>
        <time>2022-04-05T11:21:43.259Z</time>
      </trkpt>
      <trkpt lat="42.27094" lon="23.14283">
        <ele>591.868164</ele>
        <time>2022-04-05T11:21:48.246Z</time>
      </trkpt>
      <trkpt lat="42.27093" lon="23.14298">
        <ele>592.099509</ele>
        <time>2022-04-05T11:21:53.250Z</time>
      </trkpt>
      <trkpt lat="42.27092" lon="23.14312">
        <ele>592.298492</ele>
        <time>2022-04-05T11:21:57.262Z</time>
      </trkpt>
      <trkpt lat="42.2709" lon="23.14324">
        <ele>592.487858</ele>
        <time>2022-04-05T11:22:01.231Z</time>
      </trkpt>
      <trkpt lat="42.27088" lon="23.14336">
        <ele>592.669462</ele>
        <time>2022-04-05T11:22:05.248Z</time>
      </trkpt>
      <trkpt lat="42.27086" lon="23.14349">
        <ele>592.859767</ele>
        <time>2022-04-05T11:22:09.252Z</time>
      </trkpt>
      <trkpt lat="42.27083" lon="23.14362">
        <ele>593.06068</ele>
        <time>2022-04-05T11:22:13.251Z</time>
      </trkpt>
      <trkpt lat="42.27081" lon="23.14375">
        <ele>593.212448</ele>
        <time>2022-04-05T11:22:17.245Z</time>
      </trkpt>
      <trkpt lat="42.27078" lon="23.14388">
        <ele>593.331515</ele>
        <time>2022-04-05T11:22:22.231Z</time>
      </trkpt>
      <trkpt lat="42.27076" lon="23.14402">
        <ele>593.457408</ele>
        <time>2022-04-05T11:22:27.229Z</time>
      </trkpt>
      <trkpt lat="42.27075" lon="23.14416">
        <ele>593.574314</ele>
        <time>2022-04-05T11:22:31.248Z</time>
      </trkpt>
      <trkpt lat="42.27073" lon="23.1443">
        <ele>593.698341</ele>
        <time>2022-04-05T11:22:35.252Z</time>
      </trkpt>
      <trkpt lat="42.27071" lon="23.14444">
        <ele>593.822471</ele>
        <time>2022-04-05T11:22:39.246Z</time>
      </trkpt>
      <trkpt lat="42.27069" lon="23.14458">
        <ele>593.943107</ele>
        <time>2022-04-05T11:22:43.247Z</time>
      </trkpt>
      <trkpt lat="42.27067" lon="23.14471">
        <ele>594.053937</ele>
        <time>2022-04-05T11:22:47.239Z</time>
      </trkpt>
      <trkpt lat="42.27065" lon="23.14483">
        <ele>594.162679</ele>
        <time>2022-04-05T11:22:51.256Z</time>
      </trkpt>
      <trkpt lat="42.27064" lon="23.14496">
        <ele>594.270974</ele>
        <time>2022-04-05T11:22:55.267Z</time>
      </trkpt>
      <trkpt lat="42.27063" lon="23.14509">
        <ele>594.387274</ele>
        <time>2022-04-05T11:22:59.241Z</time>
      </trkpt>
      <trkpt lat="42.27061" lon="23.14522">
        <ele>594.500119</ele>
        <time>2022-04-05T11:23:03.251Z</time>
      </trkpt>
      <trkpt lat="42.27058" lon="23.14535">
        <ele>594.613916</ele>
        <time>2022-04-05T11:23:07.227Z</time>
      </trkpt>
      <trkpt lat="42.27056" lon="23.14548">
        <ele>594.733716</ele>
        <time>2022-04-05T11:23:11.239Z</time>
      </trkpt>
      <trkpt lat="42.27052" lon="23.14562">
        <ele>594.860029</ele>
        <time>2022-04-05T11:23:15.258Z</time>
      </trkpt>
      <trkpt lat="42.27049" lon="23.14577">
        <ele>594.988321</ele>
        <time>2022-04-05T11:23:19.295Z</time>
      </trkpt>
      <trkpt lat="42.27045" lon="23.14589">
        <ele>595.105163</ele>
        <time>2022-04-05T11:23:23.238Z</time>
      </trkpt>
      <trkpt lat="42.27041" lon="23.14602">
        <ele>595.226975</ele>
        <time>2022-04-05T11:23:27.226Z</time>
      </trkpt>
      <trkpt lat="42.27037" lon="23.14615">
        <ele>595.677705</ele>
        <time>2022-04-05T11:23:31.295Z</time>
      </trkpt>
      <trkpt lat="42.27032" lon="23.14628">
        <ele>596.14746</ele>
        <time>2022-04-05T11:23:35.243Z</time>
      </trkpt>
      <trkpt lat="42.27026" lon="23.1464">
        <ele>596.607148</ele>
        <time>2022-04-05T11:23:39.241Z</time>
      </trkpt>
      <trkpt lat="42.27021" lon="23.14652">
        <ele>597.054308</ele>
        <time>2022-04-05T11:23:43.245Z</time>
      </trkpt>
      <trkpt lat="42.27014" lon="23.14664">
        <ele>597.544396</ele>
        <time>2022-04-05T11:23:47.273Z</time>
      </trkpt>
      <trkpt lat="42.27008" lon="23.14675">
        <ele>597.987997</ele>
        <time>2022-04-05T11:23:51.255Z</time>
      </trkpt>
      <trkpt lat="42.27003" lon="23.14685">
        <ele>598.401995</ele>
        <time>2022-04-05T11:23:55.242Z</time>
      </trkpt>
      <trkpt lat="42.26997" lon="23.14697">
        <ele>598.866204</ele>
        <time>2022-04-05T11:24:00.240Z</time>
      </trkpt>
      <trkpt lat="42.26991" lon="23.14706">
        <ele>599.284978</ele>
        <time>2022-04-05T11:24:04.241Z</time>
      </trkpt>
      <trkpt lat="42.26985" lon="23.14718">
        <ele>599.727909</ele>
        <time>2022-04-05T11:24:08.218Z</time>
      </trkpt>
      <trkpt lat="42.26978" lon="23.1473">
        <ele>600.212662</ele>
        <time>2022-04-05T11:24:12.248Z</time>
      </trkpt>
      <trkpt lat="42.26973" lon="23.14741">
        <ele>600.674731</ele>
        <time>2022-04-05T11:24:16.252Z</time>
      </trkpt>
      <trkpt lat="42.26966" lon="23.14752">
        <ele>601.112603</ele>
        <time>2022-04-05T11:24:20.278Z</time>
      </trkpt>
      <trkpt lat="42.26961" lon="23.14763">
        <ele>601.558203</ele>
        <time>2022-04-05T11:24:24.229Z</time>
      </trkpt>
      <trkpt lat="42.26954" lon="23.14774">
        <ele>601.998629</ele>
        <time>2022-04-05T11:24:28.238Z</time>
      </trkpt>
      <trkpt lat="42.26947" lon="23.14784">
        <ele>602.452088</ele>
        <time>2022-04-05T11:24:32.239Z</time>
      </trkpt>
      <trkpt lat="42.26942" lon="23.14794">
        <ele>602.860901</ele>
        <time>2022-04-05T11:24:36.220Z</time>
      </trkpt>
      <trkpt lat="42.26936" lon="23.14806">
        <ele>603.213273</ele>
        <time>2022-04-05T11:24:41.260Z</time>
      </trkpt>
      <trkpt lat="42.2693" lon="23.14818">
        <ele>603.355656</ele>
        <time>2022-04-05T11:24:46.258Z</time>
      </trkpt>
      <trkpt lat="42.26925" lon="23.14829">
        <ele>603.484638</ele>
        <time>2022-04-05T11:24:50.256Z</time>
      </trkpt>
      <trkpt lat="42.26919" lon="23.14841">
        <ele>603.631888</ele>
        <time>2022-04-05T11:24:55.241Z</time>
      </trkpt>
      <trkpt lat="42.26915" lon="23.14854">
        <ele>603.780892</ele>
        <time>2022-04-05T11:25:00.239Z</time>
      </trkpt>
      <trkpt lat="42.2691" lon="23.14868">
        <ele>603.928654</ele>
        <time>2022-04-05T11:25:05.253Z</time>
      </trkpt>
      <trkpt lat="42.26905" lon="23.1488">
        <ele>604.07553</ele>
        <time>2022-04-05T11:25:10.293Z</time>
      </trkpt>
      <trkpt lat="42.269" lon="23.14891">
        <ele>604.203657</ele>
        <time>2022-04-05T11:25:14.234Z</time>
      </trkpt>
      <trkpt lat="42.26895" lon="23.14902">
        <ele>604.334213</ele>
        <time>2022-04-05T11:25:18.238Z</time>
      </trkpt>
      <trkpt lat="42.2689" lon="23.14914">
        <ele>604.473452</ele>
        <time>2022-04-05T11:25:22.240Z</time>
      </trkpt>
      <trkpt lat="42.26885" lon="23.14927">
        <ele>604.619719</ele>
        <time>2022-04-05T11:25:26.253Z</time>
      </trkpt>
      <trkpt lat="42.26879" lon="23.1494">
        <ele>604.768546</ele>
        <time>2022-04-05T11:25:30.249Z</time>
      </trkpt>
      <trkpt lat="42.26874" lon="23.14951">
        <ele>604.907083</ele>
        <time>2022-04-05T11:25:34.295Z</time>
      </trkpt>
      <trkpt lat="42.2687" lon="23.14963">
        <ele>605.035831</ele>
        <time>2022-04-05T11:25:38.274Z</time>
      </trkpt>
      <trkpt lat="42.26867" lon="23.14976">
        <ele>605.177738</ele>
        <time>2022-04-05T11:25:43.241Z</time>
      </trkpt>
      <trkpt lat="42.26862" lon="23.1499">
        <ele>605.332137</ele>
        <time>2022-04-05T11:25:48.244Z</time>
      </trkpt>
      <trkpt lat="42.26857" lon="23.15003">
        <ele>605.478174</ele>
        <time>2022-04-05T11:25:52.245Z</time>
      </trkpt>
      <trkpt lat="42.26852" lon="23.15016">
        <ele>605.648149</ele>
        <time>2022-04-05T11:25:56.248Z</time>
      </trkpt>
      <trkpt lat="42.26847" lon="23.15028">
        <ele>605.997471</ele>
        <time>2022-04-05T11:26:00.232Z</time>
      </trkpt>
      <trkpt lat="42.26842" lon="23.15041">
        <ele>606.364597</ele>
        <time>2022-04-05T11:26:04.252Z</time>
      </trkpt>
      <trkpt lat="42.26837" lon="23.15052">
        <ele>606.717873</ele>
        <time>2022-04-05T11:26:08.278Z</time>
      </trkpt>
      <trkpt lat="42.26832" lon="23.15065">
        <ele>607.064157</ele>
        <time>2022-04-05T11:26:12.256Z</time>
      </trkpt>
      <trkpt lat="42.26828" lon="23.15076">
        <ele>607.397372</ele>
        <time>2022-04-05T11:26:16.255Z</time>
      </trkpt>
      <trkpt lat="42.26823" lon="23.1509">
        <ele>607.784841</ele>
        <time>2022-04-05T11:26:21.240Z</time>
      </trkpt>
      <trkpt lat="42.2682" lon="23.15102">
        <ele>608.118092</ele>
        <time>2022-04-05T11:26:25.241Z</time>
      </trkpt>
      <trkpt lat="42.26815" lon="23.15114">
        <ele>608.454516</ele>
        <time>2022-04-05T11:26:29.260Z</time>
      </trkpt>
      <trkpt lat="42.2681" lon="23.15125">
        <ele>608.788887</ele>
        <time>2022-04-05T11:26:33.235Z</time>
      </trkpt>
      <trkpt lat="42.26805" lon="23.15137">
        <ele>609.128229</ele>
        <time>2022-04-05T11:26:37.255Z</time>
      </trkpt>
      <trkpt lat="42.26802" lon="23.15148">
        <ele>609.448788</ele>
        <time>2022-04-05T11:26:41.245Z</time>
      </trkpt>
      <trkpt lat="42.26796" lon="23.15161">
        <ele>609.832864</ele>
        <time>2022-04-05T11:26:46.247Z</time>
      </trkpt>
      <trkpt lat="42.26791" lon="23.15172">
        <ele>610.171624</ele>
        <time>2022-04-05T11:26:50.235Z</time>
      </trkpt>
      <trkpt lat="42.26787" lon="23.15184">
        <ele>610.502552</ele>
        <time>2022-04-05T11:26:54.244Z</time>
      </trkpt>
      <trkpt lat="42.26783" lon="23.15196">
        <ele>610.844901</ele>
        <time>2022-04-05T11:26:58.243Z</time>
      </trkpt>
      <trkpt lat="42.26778" lon="23.15207">
        <ele>611.173547</ele>
        <time>2022-04-05T11:27:02.228Z</time>
      </trkpt>
      <trkpt lat="42.26772" lon="23.15219">
        <ele>611.531894</ele>
        <time>2022-04-05T11:27:07.261Z</time>
      </trkpt>
      <trkpt lat="42.26768" lon="23.15233">
        <ele>612.020909</ele>
        <time>2022-04-05T11:27:12.245Z</time>
      </trkpt>
      <trkpt lat="42.26764" lon="23.15245">
        <ele>612.751033</ele>
        <time>2022-04-05T11:27:16.251Z</time>
      </trkpt>
      <trkpt lat="42.2676" lon="23.15256">
        <ele>613.430851</ele>
        <time>2022-04-05T11:27:20.282Z</time>
      </trkpt>
      <trkpt lat="42.26756" lon="23.15269">
        <ele>614.251899</ele>
        <time>2022-04-05T11:27:25.246Z</time>
      </trkpt>
      <trkpt lat="42.26752" lon="23.15282">
        <ele>615.034094</ele>
        <time>2022-04-05T11:27:30.288Z</time>
      </trkpt>
      <trkpt lat="42.26747" lon="23.15293">
        <ele>615.737308</ele>
        <time>2022-04-05T11:27:34.253Z</time>
      </trkpt>
      <trkpt lat="42.26742" lon="23.15304">
        <ele>616.468352</ele>
        <time>2022-04-05T11:27:38.253Z</time>
      </trkpt>
      <trkpt lat="42.26737" lon="23.15316">
        <ele>617.242351</ele>
        <time>2022-04-05T11:27:43.251Z</time>
      </trkpt>
      <trkpt lat="42.26735" lon="23.15331">
        <ele>618.107336</ele>
        <time>2022-04-05T11:27:48.295Z</time>
      </trkpt>
      <trkpt lat="42.26731" lon="23.15344">
        <ele>618.861345</ele>
        <time>2022-04-05T11:27:52.253Z</time>
      </trkpt>
      <trkpt lat="42.26728" lon="23.15355">
        <ele>619.557715</ele>
        <time>2022-04-05T11:27:56.235Z</time>
      </trkpt>
      <trkpt lat="42.26725" lon="23.15368">
        <ele>620.30359</ele>
        <time>2022-04-05T11:28:00.243Z</time>
      </trkpt>
      <trkpt lat="42.26722" lon="23.1538">
        <ele>621.030802</ele>
        <time>2022-04-05T11:28:04.240Z</time>
      </trkpt>
      <trkpt lat="42.26718" lon="23.15392">
        <ele>621.719834</ele>
        <time>2022-04-05T11:28:08.254Z</time>
      </trkpt>
      <trkpt lat="42.26716" lon="23.15403">
        <ele>622.405219</ele>
        <time>2022-04-05T11:28:12.253Z</time>
      </trkpt>
      <trkpt lat="42.26714" lon="23.15415">
        <ele>623.08682</ele>
        <time>2022-04-05T11:28:16.275Z</time>
      </trkpt>
      <trkpt lat="42.26711" lon="23.15427">
        <ele>623.809219</ele>
        <time>2022-04-05T11:28:20.243Z</time>
      </trkpt>
      <trkpt lat="42.26708" lon="23.1544">
        <ele>624.576162</ele>
        <time>2022-04-05T11:28:24.242Z</time>
      </trkpt>
      <trkpt lat="42.26704" lon="23.15453">
        <ele>625.330768</ele>
        <time>2022-04-05T11:28:29.256Z</time>
      </trkpt>
      <trkpt lat="42.26701" lon="23.15466">
        <ele>625.422084</ele>
        <time>2022-04-05T11:28:34.282Z</time>
      </trkpt>
      <trkpt lat="42.26699" lon="23.15479">
        <ele>625.407114</ele>
        <time>2022-04-05T11:28:38.238Z</time>
      </trkpt>
      <trkpt lat="42.26696" lon="23.15491">
        <ele>625.392199</ele>
        <time>2022-04-05T11:28:42.253Z</time>
      </trkpt>
      <trkpt lat="42.26693" lon="23.15504">
        <ele>625.377328</ele>
        <time>2022-04-05T11:28:46.252Z</time>
      </trkpt>
      <trkpt lat="42.2669" lon="23.15515">
        <ele>625.362856</ele>
        <time>2022-04-05T11:28:50.232Z</time>
      </trkpt>
      <trkpt lat="42.26687" lon="23.15527">
        <ele>625.348474</ele>
        <time>2022-04-05T11:28:54.253Z</time>
      </trkpt>
      <trkpt lat="42.26683" lon="23.15539">
        <ele>625.333707</ele>
        <time>2022-04-05T11:28:58.241Z</time>
      </trkpt>
      <trkpt lat="42.26681" lon="23.15553">
        <ele>625.316527</ele>
        <time>2022-04-05T11:29:03.250Z</time>
      </trkpt>
      <trkpt lat="42.26677" lon="23.15565">
        <ele>625.301417</ele>
        <time>2022-04-05T11:29:07.246Z</time>
      </trkpt>
      <trkpt lat="42.26674" lon="23.15577">
        <ele>625.287068</ele>
        <time>2022-04-05T11:29:11.245Z</time>
      </trkpt>
      <trkpt lat="42.26671" lon="23.15589">
        <ele>625.272339</ele>
        <time>2022-04-05T11:29:15.236Z</time>
      </trkpt>
      <trkpt lat="42.26667" lon="23.156">
        <ele>625.258133</ele>
        <time>2022-04-05T11:29:19.253Z</time>
      </trkpt>
      <trkpt lat="42.26663" lon="23.15611">
        <ele>625.243917</ele>
        <time>2022-04-05T11:29:23.250Z</time>
      </trkpt>
      <trkpt lat="42.26658" lon="23.15622">
        <ele>625.228773</ele>
        <time>2022-04-05T11:29:28.242Z</time>
      </trkpt>
      <trkpt lat="42.26653" lon="23.15635">
        <ele>625.211899</ele>
        <time>2022-04-05T11:29:33.236Z</time>
      </trkpt>
      <trkpt lat="42.26648" lon="23.15646">
        <ele>625.196309</ele>
        <time>2022-04-05T11:29:37.269Z</time>
      </trkpt>
      <trkpt lat="42.26644" lon="23.15657">
        <ele>625.182222</ele>
        <time>2022-04-05T11:29:41.251Z</time>
      </trkpt>
      <trkpt lat="42.2664" lon="23.15668">
        <ele>625.16798</ele>
        <time>2022-04-05T11:29:45.269Z</time>
      </trkpt>
      <trkpt lat="42.26635" lon="23.15679">
        <ele>625.180671</ele>
        <time>2022-04-05T11:29:49.243Z</time>
      </trkpt>
      <trkpt lat="42.26631" lon="23.15692">
        <ele>625.593587</ele>
        <time>2022-04-05T11:29:54.272Z</time>
      </trkpt>
      <trkpt lat="42.26626" lon="23.15705">
        <ele>626.036945</ele>
        <time>2022-04-05T11:29:59.256Z</time>
      </trkpt>
      <trkpt lat="42.26623" lon="23.15719">
        <ele>626.465534</ele>
        <time>2022-04-05T11:30:04.236Z</time>
      </trkpt>
      <trkpt lat="42.26619" lon="23.1573">
        <ele>626.832675</ele>
        <time>2022-04-05T11:30:08.245Z</time>
      </trkpt>
      <trkpt lat="42.26614" lon="23.15741">
        <ele>627.196285</ele>
        <time>2022-04-05T11:30:12.253Z</time>
      </trkpt>
      <trkpt lat="42.26609" lon="23.15754">
        <ele>627.626143</ele>
        <time>2022-04-05T11:30:17.248Z</time>
      </trkpt>
      <trkpt lat="42.26604" lon="23.15765">
        <ele>627.996584</ele>
        <time>2022-04-05T11:30:21.256Z</time>
      </trkpt>
      <trkpt lat="42.266" lon="23.15776">
        <ele>628.364633</ele>
        <time>2022-04-05T11:30:25.240Z</time>
      </trkpt>
      <trkpt lat="42.26596" lon="23.15787">
        <ele>628.744212</ele>
        <time>2022-04-05T11:30:29.242Z</time>
      </trkpt>
      <trkpt lat="42.26592" lon="23.15798">
        <ele>629.114095</ele>
        <time>2022-04-05T11:30:33.247Z</time>
      </trkpt>
      <trkpt lat="42.26587" lon="23.15811">
        <ele>629.543004</ele>
        <time>2022-04-05T11:30:38.220Z</time>
      </trkpt>
      <trkpt lat="42.26581" lon="23.15822">
        <ele>629.937376</ele>
        <time>2022-04-05T11:30:42.253Z</time>
      </trkpt>
      <trkpt lat="42.26579" lon="23.15834">
        <ele>630.303685</ele>
        <time>2022-04-05T11:30:46.250Z</time>
      </trkpt>
      <trkpt lat="42.26576" lon="23.15846">
        <ele>630.664335</ele>
        <time>2022-04-05T11:30:50.244Z</time>
      </trkpt>
      <trkpt lat="42.26573" lon="23.1586">
        <ele>631.103395</ele>
        <time>2022-04-05T11:30:55.243Z</time>
      </trkpt>
      <trkpt lat="42.2657" lon="23.15872">
        <ele>631.474858</ele>
        <time>2022-04-05T11:30:59.249Z</time>
      </trkpt>
      <trkpt lat="42.26566" lon="23.15883">
        <ele>631.83696</ele>
        <time>2022-04-05T11:31:03.351Z</time>
      </trkpt>
      <trkpt lat="42.26565" lon="23.15896">
        <ele>632.213252</ele>
        <time>2022-04-05T11:31:07.238Z</time>
      </trkpt>
      <trkpt lat="42.26566" lon="23.15909">
        <ele>632.630842</ele>
        <time>2022-04-05T11:31:11.248Z</time>
      </trkpt>
      <trkpt lat="42.26567" lon="23.15923">
        <ele>633.05258</ele>
        <time>2022-04-05T11:31:15.250Z</time>
      </trkpt>
      <trkpt lat="42.26568" lon="23.15936">
        <ele>633.461807</ele>
        <time>2022-04-05T11:31:19.276Z</time>
      </trkpt>
      <trkpt lat="42.26569" lon="23.15949">
        <ele>633.891891</ele>
        <time>2022-04-05T11:31:23.241Z</time>
      </trkpt>
      <trkpt lat="42.2657" lon="23.15963">
        <ele>634.318849</ele>
        <time>2022-04-05T11:31:27.242Z</time>
      </trkpt>
      <trkpt lat="42.26571" lon="23.15976">
        <ele>634.738334</ele>
        <time>2022-04-05T11:31:31.248Z</time>
      </trkpt>
      <trkpt lat="42.26573" lon="23.1599">
        <ele>635.1804</ele>
        <time>2022-04-05T11:31:35.274Z</time>
      </trkpt>
      <trkpt lat="42.26574" lon="23.16003">
        <ele>635.597119</ele>
        <time>2022-04-05T11:31:39.250Z</time>
      </trkpt>
      <trkpt lat="42.26574" lon="23.16015">
        <ele>635.980668</ele>
        <time>2022-04-05T11:31:42.282Z</time>
      </trkpt>
      <trkpt lat="42.26575" lon="23.16031">
        <ele>636.471979</ele>
        <time>2022-04-05T11:31:46.261Z</time>
      </trkpt>
      <trkpt lat="42.26575" lon="23.16046">
        <ele>636.962408</ele>
        <time>2022-04-05T11:31:50.258Z</time>
      </trkpt>
      <trkpt lat="42.26576" lon="23.16062">
        <ele>637.442128</ele>
        <time>2022-04-05T11:31:54.233Z</time>
      </trkpt>
      <trkpt lat="42.26578" lon="23.16075">
        <ele>637.868778</ele>
        <time>2022-04-05T11:31:58.238Z</time>
      </trkpt>
      <trkpt lat="42.26579" lon="23.16088">
        <ele>638.272427</ele>
        <time>2022-04-05T11:32:02.253Z</time>
      </trkpt>
      <trkpt lat="42.26582" lon="23.161">
        <ele>638.668202</ele>
        <time>2022-04-05T11:32:06.256Z</time>
      </trkpt>
      <trkpt lat="42.26583" lon="23.16112">
        <ele>639.05229</ele>
        <time>2022-04-05T11:32:10.259Z</time>
      </trkpt>
      <trkpt lat="42.26586" lon="23.16124">
        <ele>639.452174</ele>
        <time>2022-04-05T11:32:14.218Z</time>
      </trkpt>
      <trkpt lat="42.26586" lon="23.16137">
        <ele>639.846254</ele>
        <time>2022-04-05T11:32:18.214Z</time>
      </trkpt>
      <trkpt lat="42.26587" lon="23.16152">
        <ele>640.353417</ele>
        <time>2022-04-05T11:32:23.228Z</time>
      </trkpt>
      <trkpt lat="42.26587" lon="23.16164">
        <ele>640.777093</ele>
        <time>2022-04-05T11:32:27.223Z</time>
      </trkpt>
      <trkpt lat="42.26587" lon="23.16178">
        <ele>641.238325</ele>
        <time>2022-04-05T11:32:32.219Z</time>
      </trkpt>
      <trkpt lat="42.26589" lon="23.16193">
        <ele>641.758849</ele>
        <time>2022-04-05T11:32:37.225Z</time>
      </trkpt>
      <trkpt lat="42.2659" lon="23.16205">
        <ele>642.18475</ele>
        <time>2022-04-05T11:32:41.226Z</time>
      </trkpt>
      <trkpt lat="42.26592" lon="23.16219">
        <ele>642.674815</ele>
        <time>2022-04-05T11:32:46.219Z</time>
      </trkpt>
      <trkpt lat="42.26594" lon="23.16233">
        <ele>643.167829</ele>
        <time>2022-04-05T11:32:51.244Z</time>
      </trkpt>
      <trkpt lat="42.26594" lon="23.16247">
        <ele>643.649914</ele>
        <time>2022-04-05T11:32:56.218Z</time>
      </trkpt>
      <trkpt lat="42.26594" lon="23.1626">
        <ele>644.087619</ele>
        <time>2022-04-05T11:33:01.210Z</time>
      </trkpt>
      <trkpt lat="42.26596" lon="23.16273">
        <ele>644.521837</ele>
        <time>2022-04-05T11:33:06.222Z</time>
      </trkpt>
      <trkpt lat="42.26597" lon="23.16288">
        <ele>645.035589</ele>
        <time>2022-04-05T11:33:11.224Z</time>
      </trkpt>
      <trkpt lat="42.26598" lon="23.16302">
        <ele>645.54038</ele>
        <time>2022-04-05T11:33:16.214Z</time>
      </trkpt>
      <trkpt lat="42.26598" lon="23.16318">
        <ele>646.060205</ele>
        <time>2022-04-05T11:33:21.220Z</time>
      </trkpt>
      <trkpt lat="42.26597" lon="23.1633">
        <ele>646.485887</ele>
        <time>2022-04-05T11:33:25.244Z</time>
      </trkpt>
      <trkpt lat="42.26597" lon="23.16343">
        <ele>646.941129</ele>
        <time>2022-04-05T11:33:29.226Z</time>
      </trkpt>
      <trkpt lat="42.26597" lon="23.16356">
        <ele>647.378469</ele>
        <time>2022-04-05T11:33:33.219Z</time>
      </trkpt>
      <trkpt lat="42.26598" lon="23.16368">
        <ele>647.804627</ele>
        <time>2022-04-05T11:33:37.218Z</time>
      </trkpt>
      <trkpt lat="42.26601" lon="23.16384">
        <ele>648.282709</ele>
        <time>2022-04-05T11:33:41.227Z</time>
      </trkpt>
      <trkpt lat="42.26602" lon="23.16399">
        <ele>648.358439</ele>
        <time>2022-04-05T11:33:45.218Z</time>
      </trkpt>
      <trkpt lat="42.26603" lon="23.16411">
        <ele>648.417051</ele>
        <time>2022-04-05T11:33:48.224Z</time>
      </trkpt>
      <trkpt lat="42.26604" lon="23.16428">
        <ele>648.496525</ele>
        <time>2022-04-05T11:33:52.220Z</time>
      </trkpt>
      <trkpt lat="42.26605" lon="23.1644">
        <ele>648.556094</ele>
        <time>2022-04-05T11:33:55.218Z</time>
      </trkpt>
      <trkpt lat="42.26607" lon="23.16455">
        <ele>648.631254</ele>
        <time>2022-04-05T11:33:59.228Z</time>
      </trkpt>
      <trkpt lat="42.26608" lon="23.1647">
        <ele>648.703339</ele>
        <time>2022-04-05T11:34:03.215Z</time>
      </trkpt>
      <trkpt lat="42.2661" lon="23.16486">
        <ele>648.78098</ele>
        <time>2022-04-05T11:34:07.236Z</time>
      </trkpt>
      <trkpt lat="42.26612" lon="23.16502">
        <ele>648.856629</ele>
        <time>2022-04-05T11:34:11.213Z</time>
      </trkpt>
      <trkpt lat="42.26613" lon="23.16514">
        <ele>648.91613</ele>
        <time>2022-04-05T11:34:14.228Z</time>
      </trkpt>
      <trkpt lat="42.26614" lon="23.1653">
        <ele>648.993139</ele>
        <time>2022-04-05T11:34:18.241Z</time>
      </trkpt>
      <trkpt lat="42.26615" lon="23.16545">
        <ele>649.066321</ele>
        <time>2022-04-05T11:34:22.230Z</time>
      </trkpt>
      <trkpt lat="42.26617" lon="23.16561">
        <ele>649.141661</ele>
        <time>2022-04-05T11:34:26.227Z</time>
      </trkpt>
      <trkpt lat="42.26618" lon="23.16575">
        <ele>649.213097</ele>
        <time>2022-04-05T11:34:30.214Z</time>
      </trkpt>
      <trkpt lat="42.26619" lon="23.1659">
        <ele>649.285495</ele>
        <time>2022-04-05T11:34:34.217Z</time>
      </trkpt>
      <trkpt lat="42.2662" lon="23.16605">
        <ele>649.353965</ele>
        <time>2022-04-05T11:34:38.212Z</time>
      </trkpt>
      <trkpt lat="42.2662" lon="23.1662">
        <ele>649.427646</ele>
        <time>2022-04-05T11:34:42.250Z</time>
      </trkpt>
      <trkpt lat="42.2662" lon="23.16635">
        <ele>649.606234</ele>
        <time>2022-04-05T11:34:46.223Z</time>
      </trkpt>
      <trkpt lat="42.26621" lon="23.16647">
        <ele>649.775533</ele>
        <time>2022-04-05T11:34:49.221Z</time>
      </trkpt>
      <trkpt lat="42.26623" lon="23.16663">
        <ele>649.998238</ele>
        <time>2022-04-05T11:34:53.243Z</time>
      </trkpt>
      <trkpt lat="42.26624" lon="23.16677">
        <ele>650.196018</ele>
        <time>2022-04-05T11:34:57.208Z</time>
      </trkpt>
      <trkpt lat="42.26625" lon="23.16692">
        <ele>650.392736</ele>
        <time>2022-04-05T11:35:01.218Z</time>
      </trkpt>
      <trkpt lat="42.26625" lon="23.16706">
        <ele>650.588075</ele>
        <time>2022-04-05T11:35:05.226Z</time>
      </trkpt>
      <trkpt lat="42.26626" lon="23.16718">
        <ele>650.760128</ele>
        <time>2022-04-05T11:35:09.216Z</time>
      </trkpt>
      <trkpt lat="42.26626" lon="23.16733">
        <ele>650.963331</ele>
        <time>2022-04-05T11:35:14.213Z</time>
      </trkpt>
      <trkpt lat="42.26626" lon="23.16748">
        <ele>651.16656</ele>
        <time>2022-04-05T11:35:19.237Z</time>
      </trkpt>
      <trkpt lat="42.26628" lon="23.16762">
        <ele>651.370855</ele>
        <time>2022-04-05T11:35:24.219Z</time>
      </trkpt>
      <trkpt lat="42.26629" lon="23.16776">
        <ele>651.562057</ele>
        <time>2022-04-05T11:35:29.231Z</time>
      </trkpt>
      <trkpt lat="42.26629" lon="23.1679">
        <ele>651.752957</ele>
        <time>2022-04-05T11:35:34.240Z</time>
      </trkpt>
      <trkpt lat="42.2663" lon="23.16802">
        <ele>651.927614</ele>
        <time>2022-04-05T11:35:39.226Z</time>
      </trkpt>
      <trkpt lat="42.26629" lon="23.16816">
        <ele>652.121457</ele>
        <time>2022-04-05T11:35:44.210Z</time>
      </trkpt>
      <trkpt lat="42.26631" lon="23.1683">
        <ele>652.309708</ele>
        <time>2022-04-05T11:35:49.257Z</time>
      </trkpt>
      <trkpt lat="42.26632" lon="23.16842">
        <ele>652.483138</ele>
        <time>2022-04-05T11:35:54.244Z</time>
      </trkpt>
      <trkpt lat="42.26633" lon="23.16855">
        <ele>652.660624</ele>
        <time>2022-04-05T11:35:59.241Z</time>
      </trkpt>
      <trkpt lat="42.26635" lon="23.16868">
        <ele>652.819946</ele>
        <time>2022-04-05T11:36:04.229Z</time>
      </trkpt>
      <trkpt lat="42.26637" lon="23.1688">
        <ele>652.903828</ele>
        <time>2022-04-05T11:36:09.273Z</time>
      </trkpt>
      <trkpt lat="42.26639" lon="23.16894">
        <ele>653.000669</ele>
        <time>2022-04-05T11:36:15.231Z</time>
      </trkpt>
      <trkpt lat="42.26641" lon="23.16909">
        <ele>653.102973</ele>
        <time>2022-04-05T11:36:20.243Z</time>
      </trkpt>
      <trkpt lat="42.26644" lon="23.16923">
        <ele>653.201611</ele>
        <time>2022-04-05T11:36:25.273Z</time>
      </trkpt>
      <trkpt lat="42.26646" lon="23.16936">
        <ele>653.289607</ele>
        <time>2022-04-05T11:36:30.234Z</time>
      </trkpt>
      <trkpt lat="42.2665" lon="23.16949">
        <ele>653.381701</ele>
        <time>2022-04-05T11:36:35.235Z</time>
      </trkpt>
      <trkpt lat="42.26654" lon="23.1696">
        <ele>653.465277</ele>
        <time>2022-04-05T11:36:39.248Z</time>
      </trkpt>
      <trkpt lat="42.26658" lon="23.16973">
        <ele>653.564666</ele>
        <time>2022-04-05T11:36:43.246Z</time>
      </trkpt>
      <trkpt lat="42.26662" lon="23.16988">
        <ele>653.665775</ele>
        <time>2022-04-05T11:36:47.240Z</time>
      </trkpt>
      <trkpt lat="42.26667" lon="23.17001">
        <ele>653.762105</ele>
        <time>2022-04-05T11:36:51.253Z</time>
      </trkpt>
      <trkpt lat="42.26671" lon="23.17014">
        <ele>653.861134</ele>
        <time>2022-04-05T11:36:55.245Z</time>
      </trkpt>
      <trkpt lat="42.26675" lon="23.17028">
        <ele>653.961668</ele>
        <time>2022-04-05T11:36:59.246Z</time>
      </trkpt>
      <trkpt lat="42.26678" lon="23.17042">
        <ele>654.056316</ele>
        <time>2022-04-05T11:37:03.236Z</time>
      </trkpt>
      <trkpt lat="42.26682" lon="23.17055">
        <ele>654.149611</ele>
        <time>2022-04-05T11:37:07.240Z</time>
      </trkpt>
      <trkpt lat="42.26686" lon="23.17069">
        <ele>654.251108</ele>
        <time>2022-04-05T11:37:11.275Z</time>
      </trkpt>
      <trkpt lat="42.2669" lon="23.17082">
        <ele>654.349102</ele>
        <time>2022-04-05T11:37:15.276Z</time>
      </trkpt>
      <trkpt lat="42.26695" lon="23.17097">
        <ele>654.377881</ele>
        <time>2022-04-05T11:37:19.231Z</time>
      </trkpt>
      <trkpt lat="42.26698" lon="23.17109">
        <ele>654.187831</ele>
        <time>2022-04-05T11:37:22.219Z</time>
      </trkpt>
      <trkpt lat="42.26701" lon="23.1712">
        <ele>653.999221</ele>
        <time>2022-04-05T11:37:25.237Z</time>
      </trkpt>
      <trkpt lat="42.26705" lon="23.17135">
        <ele>653.763479</ele>
        <time>2022-04-05T11:37:29.235Z</time>
      </trkpt>
      <trkpt lat="42.26708" lon="23.17147">
        <ele>653.561858</ele>
        <time>2022-04-05T11:37:32.309Z</time>
      </trkpt>
      <trkpt lat="42.26713" lon="23.1716">
        <ele>653.347188</ele>
        <time>2022-04-05T11:37:35.253Z</time>
      </trkpt>
      <trkpt lat="42.26717" lon="23.17173">
        <ele>653.133339</ele>
        <time>2022-04-05T11:37:38.300Z</time>
      </trkpt>
      <trkpt lat="42.26721" lon="23.17187">
        <ele>652.902453</ele>
        <time>2022-04-05T11:37:41.234Z</time>
      </trkpt>
      <trkpt lat="42.26726" lon="23.17202">
        <ele>652.652314</ele>
        <time>2022-04-05T11:37:44.289Z</time>
      </trkpt>
      <trkpt lat="42.2673" lon="23.17218">
        <ele>652.399395</ele>
        <time>2022-04-05T11:37:47.246Z</time>
      </trkpt>
      <trkpt lat="42.26734" lon="23.17234">
        <ele>652.140708</ele>
        <time>2022-04-05T11:37:50.240Z</time>
      </trkpt>
      <trkpt lat="42.26738" lon="23.17251">
        <ele>651.862826</ele>
        <time>2022-04-05T11:37:53.236Z</time>
      </trkpt>
      <trkpt lat="42.26741" lon="23.17263">
        <ele>651.671364</ele>
        <time>2022-04-05T11:37:55.314Z</time>
      </trkpt>
      <trkpt lat="42.26746" lon="23.1728">
        <ele>651.396308</ele>
        <time>2022-04-05T11:37:58.240Z</time>
      </trkpt>
      <trkpt lat="42.26751" lon="23.17295">
        <ele>651.14486</ele>
        <time>2022-04-05T11:38:01.225Z</time>
      </trkpt>
      <trkpt lat="42.26756" lon="23.1731">
        <ele>650.883944</ele>
        <time>2022-04-05T11:38:04.230Z</time>
      </trkpt>
      <trkpt lat="42.26761" lon="23.17326">
        <ele>650.623509</ele>
        <time>2022-04-05T11:38:07.230Z</time>
      </trkpt>
      <trkpt lat="42.26766" lon="23.17341">
        <ele>650.374375</ele>
        <time>2022-04-05T11:38:10.240Z</time>
      </trkpt>
      <trkpt lat="42.26771" lon="23.17355">
        <ele>650.143901</ele>
        <time>2022-04-05T11:38:13.259Z</time>
      </trkpt>
      <trkpt lat="42.26775" lon="23.17368">
        <ele>649.931467</ele>
        <time>2022-04-05T11:38:16.219Z</time>
      </trkpt>
      <trkpt lat="42.26778" lon="23.1738">
        <ele>649.731268</ele>
        <time>2022-04-05T11:38:19.249Z</time>
      </trkpt>
      <trkpt lat="42.26782" lon="23.17393">
        <ele>649.525055</ele>
        <time>2022-04-05T11:38:22.233Z</time>
      </trkpt>
      <trkpt lat="42.26786" lon="23.17404">
        <ele>649.329993</ele>
        <time>2022-04-05T11:38:25.239Z</time>
      </trkpt>
      <trkpt lat="42.26791" lon="23.17415">
        <ele>649.133025</ele>
        <time>2022-04-05T11:38:28.275Z</time>
      </trkpt>
      <trkpt lat="42.26795" lon="23.1743">
        <ele>648.897276</ele>
        <time>2022-04-05T11:38:32.229Z</time>
      </trkpt>
      <trkpt lat="42.26799" lon="23.17445">
        <ele>648.649932</ele>
        <time>2022-04-05T11:38:36.236Z</time>
      </trkpt>
      <trkpt lat="42.26803" lon="23.17456">
        <ele>648.461719</ele>
        <time>2022-04-05T11:38:39.247Z</time>
      </trkpt>
      <trkpt lat="42.26807" lon="23.17468">
        <ele>648.261336</ele>
        <time>2022-04-05T11:38:42.252Z</time>
      </trkpt>
      <trkpt lat="42.26811" lon="23.17481">
        <ele>648.045909</ele>
        <time>2022-04-05T11:38:45.269Z</time>
      </trkpt>
      <trkpt lat="42.26815" lon="23.17493">
        <ele>647.844267</ele>
        <time>2022-04-05T11:38:48.235Z</time>
      </trkpt>
      <trkpt lat="42.26818" lon="23.17505">
        <ele>647.651227</ele>
        <time>2022-04-05T11:38:51.252Z</time>
      </trkpt>
      <trkpt lat="42.26821" lon="23.17517">
        <ele>647.464645</ele>
        <time>2022-04-05T11:38:54.237Z</time>
      </trkpt>
      <trkpt lat="42.26826" lon="23.17531">
        <ele>647.224947</ele>
        <time>2022-04-05T11:38:58.222Z</time>
      </trkpt>
      <trkpt lat="42.26831" lon="23.17545">
        <ele>647.102961</ele>
        <time>2022-04-05T11:39:02.287Z</time>
      </trkpt>
      <trkpt lat="42.26834" lon="23.17557">
        <ele>647.464418</ele>
        <time>2022-04-05T11:39:05.227Z</time>
      </trkpt>
      <trkpt lat="42.26837" lon="23.17569">
        <ele>647.852445</ele>
        <time>2022-04-05T11:39:08.254Z</time>
      </trkpt>
      <trkpt lat="42.2684" lon="23.17581">
        <ele>648.232435</ele>
        <time>2022-04-05T11:39:11.237Z</time>
      </trkpt>
      <trkpt lat="42.26844" lon="23.17594">
        <ele>648.636771</ele>
        <time>2022-04-05T11:39:14.234Z</time>
      </trkpt>
      <trkpt lat="42.26848" lon="23.17607">
        <ele>649.037335</ele>
        <time>2022-04-05T11:39:17.271Z</time>
      </trkpt>
      <trkpt lat="42.26852" lon="23.17618">
        <ele>649.414623</ele>
        <time>2022-04-05T11:39:20.275Z</time>
      </trkpt>
      <trkpt lat="42.26855" lon="23.17631">
        <ele>649.823102</ele>
        <time>2022-04-05T11:39:23.271Z</time>
      </trkpt>
      <trkpt lat="42.26859" lon="23.17644">
        <ele>650.216064</ele>
        <time>2022-04-05T11:39:26.243Z</time>
      </trkpt>
      <trkpt lat="42.26863" lon="23.17655">
        <ele>650.590215</ele>
        <time>2022-04-05T11:39:29.243Z</time>
      </trkpt>
      <trkpt lat="42.26866" lon="23.17667">
        <ele>650.969634</ele>
        <time>2022-04-05T11:39:32.228Z</time>
      </trkpt>
      <trkpt lat="42.26871" lon="23.17681">
        <ele>651.419887</ele>
        <time>2022-04-05T11:39:36.246Z</time>
      </trkpt>
      <trkpt lat="42.26875" lon="23.17693">
        <ele>651.795098</ele>
        <time>2022-04-05T11:39:39.244Z</time>
      </trkpt>
      <trkpt lat="42.26879" lon="23.17705">
        <ele>652.192941</ele>
        <time>2022-04-05T11:39:42.240Z</time>
      </trkpt>
      <trkpt lat="42.26882" lon="23.17717">
        <ele>652.56266</ele>
        <time>2022-04-05T11:39:45.234Z</time>
      </trkpt>
      <trkpt lat="42.26885" lon="23.17728">
        <ele>652.93514</ele>
        <time>2022-04-05T11:39:48.246Z</time>
      </trkpt>
      <trkpt lat="42.26889" lon="23.17741">
        <ele>653.322963</ele>
        <time>2022-04-05T11:39:51.256Z</time>
      </trkpt>
      <trkpt lat="42.26892" lon="23.17753">
        <ele>653.702951</ele>
        <time>2022-04-05T11:39:54.235Z</time>
      </trkpt>
      <trkpt lat="42.26895" lon="23.17767">
        <ele>654.132425</ele>
        <time>2022-04-05T11:39:57.264Z</time>
      </trkpt>
      <trkpt lat="42.269" lon="23.17781">
        <ele>654.207811</ele>
        <time>2022-04-05T11:40:00.244Z</time>
      </trkpt>
      <trkpt lat="42.26904" lon="23.17794">
        <ele>654.215202</ele>
        <time>2022-04-05T11:40:03.235Z</time>
      </trkpt>
      <trkpt lat="42.26908" lon="23.17807">
        <ele>654.222157</ele>
        <time>2022-04-05T11:40:06.295Z</time>
      </trkpt>
      <trkpt lat="42.26912" lon="23.17821">
        <ele>654.229831</ele>
        <time>2022-04-05T11:40:09.251Z</time>
      </trkpt>
      <trkpt lat="42.26915" lon="23.17834">
        <ele>654.237288</ele>
        <time>2022-04-05T11:40:12.240Z</time>
      </trkpt>
      <trkpt lat="42.26919" lon="23.17849">
        <ele>654.245254</ele>
        <time>2022-04-05T11:40:15.241Z</time>
      </trkpt>
      <trkpt lat="42.26924" lon="23.17862">
        <ele>654.25285</ele>
        <time>2022-04-05T11:40:18.252Z</time>
      </trkpt>
      <trkpt lat="42.26928" lon="23.17876">
        <ele>654.260305</ele>
        <time>2022-04-05T11:40:21.243Z</time>
      </trkpt>
      <trkpt lat="42.26933" lon="23.17888">
        <ele>654.267406</ele>
        <time>2022-04-05T11:40:24.228Z</time>
      </trkpt>
      <trkpt lat="42.26935" lon="23.17902">
        <ele>654.274716</ele>
        <time>2022-04-05T11:40:27.255Z</time>
      </trkpt>
      <trkpt lat="42.2694" lon="23.17914">
        <ele>654.281941</ele>
        <time>2022-04-05T11:40:30.256Z</time>
      </trkpt>
      <trkpt lat="42.26945" lon="23.17926">
        <ele>654.288692</ele>
        <time>2022-04-05T11:40:33.228Z</time>
      </trkpt>
      <trkpt lat="42.26948" lon="23.17938">
        <ele>654.295236</ele>
        <time>2022-04-05T11:40:36.253Z</time>
      </trkpt>
      <trkpt lat="42.26952" lon="23.17951">
        <ele>654.302333</ele>
        <time>2022-04-05T11:40:39.258Z</time>
      </trkpt>
      <trkpt lat="42.26956" lon="23.17964">
        <ele>654.309698</ele>
        <time>2022-04-05T11:40:42.248Z</time>
      </trkpt>
      <trkpt lat="42.2696" lon="23.17977">
        <ele>654.316894</ele>
        <time>2022-04-05T11:40:45.282Z</time>
      </trkpt>
      <trkpt lat="42.26963" lon="23.17989">
        <ele>654.323606</ele>
        <time>2022-04-05T11:40:48.252Z</time>
      </trkpt>
      <trkpt lat="42.26968" lon="23.18004">
        <ele>654.393594</ele>
        <time>2022-04-05T11:40:52.229Z</time>
      </trkpt>
      <trkpt lat="42.26972" lon="23.18015">
        <ele>654.465536</ele>
        <time>2022-04-05T11:40:55.224Z</time>
      </trkpt>
      <trkpt lat="42.26976" lon="23.18029">
        <ele>654.557424</ele>
        <time>2022-04-05T11:40:59.229Z</time>
      </trkpt>
      <trkpt lat="42.26981" lon="23.18044">
        <ele>654.648765</ele>
        <time>2022-04-05T11:41:03.248Z</time>
      </trkpt>
      <trkpt lat="42.26986" lon="23.18057">
        <ele>654.739677</ele>
        <time>2022-04-05T11:41:07.245Z</time>
      </trkpt>
      <trkpt lat="42.2699" lon="23.18068">
        <ele>654.812127</ele>
        <time>2022-04-05T11:41:10.252Z</time>
      </trkpt>
      <trkpt lat="42.26993" lon="23.18083">
        <ele>654.899707</ele>
        <time>2022-04-05T11:41:14.241Z</time>
      </trkpt>
      <trkpt lat="42.26996" lon="23.18097">
        <ele>654.988618</ele>
        <time>2022-04-05T11:41:18.252Z</time>
      </trkpt>
      <trkpt lat="42.27001" lon="23.18111">
        <ele>655.076911</ele>
        <time>2022-04-05T11:41:22.273Z</time>
      </trkpt>
      <trkpt lat="42.27005" lon="23.18125">
        <ele>655.170253</ele>
        <time>2022-04-05T11:41:26.246Z</time>
      </trkpt>
      <trkpt lat="42.27008" lon="23.18137">
        <ele>655.2428</ele>
        <time>2022-04-05T11:41:29.234Z</time>
      </trkpt>
      <trkpt lat="42.27012" lon="23.18153">
        <ele>655.33859</ele>
        <time>2022-04-05T11:41:33.248Z</time>
      </trkpt>
      <trkpt lat="42.27015" lon="23.18165">
        <ele>655.418039</ele>
        <time>2022-04-05T11:41:36.238Z</time>
      </trkpt>
      <trkpt lat="42.27019" lon="23.18178">
        <ele>655.497778</ele>
        <time>2022-04-05T11:41:39.261Z</time>
      </trkpt>
      <trkpt lat="42.27022" lon="23.1819">
        <ele>655.573082</ele>
        <time>2022-04-05T11:41:42.229Z</time>
      </trkpt>
      <trkpt lat="42.27025" lon="23.18202">
        <ele>655.645413</ele>
        <time>2022-04-05T11:41:45.296Z</time>
      </trkpt>
      <trkpt lat="42.27028" lon="23.18213">
        <ele>655.717133</ele>
        <time>2022-04-05T11:41:48.266Z</time>
      </trkpt>
      <trkpt lat="42.27032" lon="23.18225">
        <ele>655.801089</ele>
        <time>2022-04-05T11:41:51.227Z</time>
      </trkpt>
      <trkpt lat="42.27036" lon="23.18237">
        <ele>655.902103</ele>
        <time>2022-04-05T11:41:54.240Z</time>
      </trkpt>
      <trkpt lat="42.27041" lon="23.1825">
        <ele>656.003494</ele>
        <time>2022-04-05T11:41:57.251Z</time>
      </trkpt>
      <trkpt lat="42.27045" lon="23.18262">
        <ele>656.103357</ele>
        <time>2022-04-05T11:42:00.228Z</time>
      </trkpt>
      <trkpt lat="42.27049" lon="23.18274">
        <ele>656.197755</ele>
        <time>2022-04-05T11:42:03.274Z</time>
      </trkpt>
      <trkpt lat="42.27052" lon="23.18287">
        <ele>656.29532</ele>
        <time>2022-04-05T11:42:06.267Z</time>
      </trkpt>
      <trkpt lat="42.27055" lon="23.18298">
        <ele>656.387882</ele>
        <time>2022-04-05T11:42:09.241Z</time>
      </trkpt>
      <trkpt lat="42.2706" lon="23.18313">
        <ele>656.500033</ele>
        <time>2022-04-05T11:42:13.280Z</time>
      </trkpt>
      <trkpt lat="42.27063" lon="23.18326">
        <ele>656.60355</ele>
        <time>2022-04-05T11:42:16.251Z</time>
      </trkpt>
      <trkpt lat="42.27067" lon="23.18339">
        <ele>656.708866</ele>
        <time>2022-04-05T11:42:19.273Z</time>
      </trkpt>
      <trkpt lat="42.2707" lon="23.18354">
        <ele>656.82341</ele>
        <time>2022-04-05T11:42:23.241Z</time>
      </trkpt>
      <trkpt lat="42.27074" lon="23.18366">
        <ele>656.91357</ele>
        <time>2022-04-05T11:42:26.244Z</time>
      </trkpt>
      <trkpt lat="42.27079" lon="23.18378">
        <ele>657.015214</ele>
        <time>2022-04-05T11:42:29.231Z</time>
      </trkpt>
      <trkpt lat="42.27083" lon="23.18391">
        <ele>657.119856</ele>
        <time>2022-04-05T11:42:32.253Z</time>
      </trkpt>
      <trkpt lat="42.27086" lon="23.18404">
        <ele>657.22133</ele>
        <time>2022-04-05T11:42:35.292Z</time>
      </trkpt>
      <trkpt lat="42.27089" lon="23.18418">
        <ele>657.325764</ele>
        <time>2022-04-05T11:42:38.237Z</time>
      </trkpt>
      <trkpt lat="42.27092" lon="23.18431">
        <ele>657.424842</ele>
        <time>2022-04-05T11:42:41.237Z</time>
      </trkpt>
      <trkpt lat="42.27096" lon="23.18444">
        <ele>657.525274</ele>
        <time>2022-04-05T11:42:44.255Z</time>
      </trkpt>
      <trkpt lat="42.271" lon="23.18456">
        <ele>657.743091</ele>
        <time>2022-04-05T11:42:47.220Z</time>
      </trkpt>
      <trkpt lat="42.27103" lon="23.18468">
        <ele>657.963873</ele>
        <time>2022-04-05T11:42:50.243Z</time>
      </trkpt>
      <trkpt lat="42.27107" lon="23.18483">
        <ele>658.237642</ele>
        <time>2022-04-05T11:42:54.268Z</time>
      </trkpt>
      <trkpt lat="42.27111" lon="23.18494">
        <ele>658.450559</ele>
        <time>2022-04-05T11:42:57.231Z</time>
      </trkpt>
      <trkpt lat="42.27115" lon="23.18509">
        <ele>658.721183</ele>
        <time>2022-04-05T11:43:01.255Z</time>
      </trkpt>
      <trkpt lat="42.27119" lon="23.18524">
        <ele>658.988638</ele>
        <time>2022-04-05T11:43:05.263Z</time>
      </trkpt>
      <trkpt lat="42.27123" lon="23.18538">
        <ele>659.243147</ele>
        <time>2022-04-05T11:43:09.228Z</time>
      </trkpt>
      <trkpt lat="42.27127" lon="23.18551">
        <ele>659.490432</ele>
        <time>2022-04-05T11:43:13.250Z</time>
      </trkpt>
      <trkpt lat="42.27129" lon="23.18565">
        <ele>659.740876</ele>
        <time>2022-04-05T11:43:17.249Z</time>
      </trkpt>
      <trkpt lat="42.27131" lon="23.1858">
        <ele>659.992154</ele>
        <time>2022-04-05T11:43:21.276Z</time>
      </trkpt>
      <trkpt lat="42.27133" lon="23.18593">
        <ele>660.219021</ele>
        <time>2022-04-05T11:43:25.247Z</time>
      </trkpt>
      <trkpt lat="42.27135" lon="23.18606">
        <ele>660.444645</ele>
        <time>2022-04-05T11:43:29.241Z</time>
      </trkpt>
      <trkpt lat="42.27135" lon="23.18619">
        <ele>660.662273</ele>
        <time>2022-04-05T11:43:33.280Z</time>
      </trkpt>
      <trkpt lat="42.27136" lon="23.18633">
        <ele>660.90749</ele>
        <time>2022-04-05T11:43:38.245Z</time>
      </trkpt>
      <trkpt lat="42.27137" lon="23.18647">
        <ele>661.149677</ele>
        <time>2022-04-05T11:43:43.252Z</time>
      </trkpt>
      <trkpt lat="42.27137" lon="23.18661">
        <ele>661.398312</ele>
        <time>2022-04-05T11:43:48.248Z</time>
      </trkpt>
      <trkpt lat="42.27139" lon="23.18676">
        <ele>661.650422</ele>
        <time>2022-04-05T11:43:53.242Z</time>
      </trkpt>
      <trkpt lat="42.2714" lon="23.1869">
        <ele>662.232206</ele>
        <time>2022-04-05T11:43:58.249Z</time>
      </trkpt>
      <trkpt lat="42.27142" lon="23.18702">
        <ele>662.813718</ele>
        <time>2022-04-05T11:44:03.242Z</time>
      </trkpt>
      <trkpt lat="42.27142" lon="23.18716">
        <ele>663.459814</ele>
        <time>2022-04-05T11:44:08.287Z</time>
      </trkpt>
      <trkpt lat="42.27145" lon="23.1873">
        <ele>664.073984</ele>
        <time>2022-04-05T11:44:13.235Z</time>
      </trkpt>
      <trkpt lat="42.27146" lon="23.18742">
        <ele>664.663185</ele>
        <time>2022-04-05T11:44:18.257Z</time>
      </trkpt>
      <trkpt lat="42.27148" lon="23.18755">
        <ele>665.282704</ele>
        <time>2022-04-05T11:44:24.243Z</time>
      </trkpt>
      <trkpt lat="42.27149" lon="23.18769">
        <ele>665.897194</ele>
        <time>2022-04-05T11:44:29.256Z</time>
      </trkpt>
      <trkpt lat="42.27152" lon="23.18781">
        <ele>666.485966</ele>
        <time>2022-04-05T11:44:33.244Z</time>
      </trkpt>
      <trkpt lat="42.27153" lon="23.18793">
        <ele>667.065985</ele>
        <time>2022-04-05T11:44:38.252Z</time>
      </trkpt>
      <trkpt lat="42.27154" lon="23.18807">
        <ele>667.684455</ele>
        <time>2022-04-05T11:44:43.231Z</time>
      </trkpt>
      <trkpt lat="42.27156" lon="23.1882">
        <ele>668.285953</ele>
        <time>2022-04-05T11:44:48.256Z</time>
      </trkpt>
      <trkpt lat="42.27156" lon="23.18833">
        <ele>668.913965</ele>
        <time>2022-04-05T11:44:54.256Z</time>
      </trkpt>
      <trkpt lat="42.27158" lon="23.18846">
        <ele>669.487809</ele>
        <time>2022-04-05T11:44:59.259Z</time>
      </trkpt>
      <trkpt lat="42.2716" lon="23.1886">
        <ele>670.140439</ele>
        <time>2022-04-05T11:45:05.241Z</time>
      </trkpt>
      <trkpt lat="42.2716" lon="23.18873">
        <ele>670.745773</ele>
        <time>2022-04-05T11:45:10.242Z</time>
      </trkpt>
      <trkpt lat="42.27161" lon="23.18886">
        <ele>671.330351</ele>
        <time>2022-04-05T11:45:15.261Z</time>
      </trkpt>
      <trkpt lat="42.27164" lon="23.189">
        <ele>671.99916</ele>
        <time>2022-04-05T11:45:20.272Z</time>
      </trkpt>
      <trkpt lat="42.27164" lon="23.18913">
        <ele>672.583181</ele>
        <time>2022-04-05T11:45:25.243Z</time>
      </trkpt>
      <trkpt lat="42.27164" lon="23.18927">
        <ele>673.019636</ele>
        <time>2022-04-05T11:45:30.230Z</time>
      </trkpt>
      <trkpt lat="42.27165" lon="23.1894">
        <ele>673.306853</ele>
        <time>2022-04-05T11:45:35.236Z</time>
      </trkpt>
      <trkpt lat="42.27166" lon="23.18955">
        <ele>673.621905</ele>
        <time>2022-04-05T11:45:41.230Z</time>
      </trkpt>
      <trkpt lat="42.27167" lon="23.18967">
        <ele>673.88644</ele>
        <time>2022-04-05T11:45:46.262Z</time>
      </trkpt>
      <trkpt lat="42.27167" lon="23.1898">
        <ele>674.158529</ele>
        <time>2022-04-05T11:45:51.252Z</time>
      </trkpt>
      <trkpt lat="42.27166" lon="23.18993">
        <ele>674.447816</ele>
        <time>2022-04-05T11:45:56.239Z</time>
      </trkpt>
      <trkpt lat="42.27165" lon="23.19006">
        <ele>674.726018</ele>
        <time>2022-04-05T11:46:01.248Z</time>
      </trkpt>
      <trkpt lat="42.27165" lon="23.19018">
        <ele>674.989601</ele>
        <time>2022-04-05T11:46:06.278Z</time>
      </trkpt>
      <trkpt lat="42.27166" lon="23.19033">
        <ele>675.293676</ele>
        <time>2022-04-05T11:46:11.235Z</time>
      </trkpt>
      <trkpt lat="42.27168" lon="23.19046">
        <ele>675.58236</ele>
        <time>2022-04-05T11:46:16.250Z</time>
      </trkpt>
      <trkpt lat="42.27169" lon="23.19058">
        <ele>675.849297</ele>
        <time>2022-04-05T11:46:21.234Z</time>
      </trkpt>
      <trkpt lat="42.27169" lon="23.19072">
        <ele>676.144967</ele>
        <time>2022-04-05T11:46:26.237Z</time>
      </trkpt>
      <trkpt lat="42.27168" lon="23.19086">
        <ele>676.448434</ele>
        <time>2022-04-05T11:46:32.233Z</time>
      </trkpt>
      <trkpt lat="42.27168" lon="23.19099">
        <ele>676.716379</ele>
        <time>2022-04-05T11:46:37.252Z</time>
      </trkpt>
      <trkpt lat="42.27168" lon="23.19112">
        <ele>676.995136</ele>
        <time>2022-04-05T11:46:42.258Z</time>
      </trkpt>
      <trkpt lat="42.27168" lon="23.19125">
        <ele>677.271509</ele>
        <time>2022-04-05T11:46:48.217Z</time>
      </trkpt>
      <trkpt lat="42.27168" lon="23.19137">
        <ele>677.535172</ele>
        <time>2022-04-05T11:46:55.241Z</time>
      </trkpt>
      <trkpt lat="42.27168" lon="23.19151">
        <ele>677.839741</ele>
        <time>2022-04-05T11:47:01.237Z</time>
      </trkpt>
      <trkpt lat="42.27168" lon="23.19165">
        <ele>678.03908</ele>
        <time>2022-04-05T11:47:07.239Z</time>
      </trkpt>
      <trkpt lat="42.27167" lon="23.19178">
        <ele>678.03908</ele>
        <time>2022-04-05T11:47:13.275Z</time>
      </trkpt>
      <trkpt lat="42.27167" lon="23.19191">
        <ele>678.03908</ele>
        <time>2022-04-05T11:47:19.231Z</time>
      </trkpt>
      <trkpt lat="42.27167" lon="23.19204">
        <ele>678.03908</ele>
        <time>2022-04-05T11:47:25.248Z</time>
      </trkpt>
      <trkpt lat="42.27165" lon="23.19216">
        <ele>678.03908</ele>
        <time>2022-04-05T11:47:31.254Z</time>
      </trkpt>
      <trkpt lat="42.27164" lon="23.19229">
        <ele>678.03908</ele>
        <time>2022-04-05T11:47:38.238Z</time>
      </trkpt>
      <trkpt lat="42.27165" lon="23.19244">
        <ele>678.03908</ele>
        <time>2022-04-05T11:47:45.234Z</time>
      </trkpt>
      <trkpt lat="42.27164" lon="23.19256">
        <ele>678.03908</ele>
        <time>2022-04-05T11:47:51.259Z</time>
      </trkpt>
      <trkpt lat="42.27165" lon="23.19269">
        <ele>678.03908</ele>
        <time>2022-04-05T11:47:57.239Z</time>
      </trkpt>
      <trkpt lat="42.27167" lon="23.19282">
        <ele>678.03908</ele>
        <time>2022-04-05T11:48:03.245Z</time>
      </trkpt>
      <trkpt lat="42.27167" lon="23.19296">
        <ele>678.03908</ele>
        <time>2022-04-05T11:48:10.224Z</time>
      </trkpt>
      <trkpt lat="42.27165" lon="23.1931">
        <ele>678.03908</ele>
        <time>2022-04-05T11:48:17.235Z</time>
      </trkpt>
      <trkpt lat="42.27163" lon="23.19322">
        <ele>678.03908</ele>
        <time>2022-04-05T11:48:23.246Z</time>
      </trkpt>
      <trkpt lat="42.27161" lon="23.19336">
        <ele>678.03908</ele>
        <time>2022-04-05T11:48:29.252Z</time>
      </trkpt>
      <trkpt lat="42.2716" lon="23.1935">
        <ele>678.03908</ele>
        <time>2022-04-05T11:48:35.261Z</time>
      </trkpt>
      <trkpt lat="42.2716" lon="23.19363">
        <ele>678.03908</ele>
        <time>2022-04-05T11:48:41.235Z</time>
      </trkpt>
      <trkpt lat="42.27161" lon="23.19377">
        <ele>678.03908</ele>
        <time>2022-04-05T11:48:47.242Z</time>
      </trkpt>
      <trkpt lat="42.27159" lon="23.1939">
        <ele>678.03908</ele>
        <time>2022-04-05T11:48:54.254Z</time>
      </trkpt>
      <trkpt lat="42.27158" lon="23.19403">
        <ele>678.03908</ele>
        <time>2022-04-05T11:49:01.243Z</time>
      </trkpt>
      <trkpt lat="42.27156" lon="23.19417">
        <ele>678.03908</ele>
        <time>2022-04-05T11:49:08.227Z</time>
      </trkpt>
      <trkpt lat="42.27154" lon="23.1943">
        <ele>678.03908</ele>
        <time>2022-04-05T11:49:15.243Z</time>
      </trkpt>
      <trkpt lat="42.27152" lon="23.19444">
        <ele>678.03908</ele>
        <time>2022-04-05T11:49:22.232Z</time>
      </trkpt>
      <trkpt lat="42.27149" lon="23.19455">
        <ele>678.03908</ele>
        <time>2022-04-05T11:49:29.244Z</time>
      </trkpt>
      <trkpt lat="42.27146" lon="23.19468">
        <ele>678.03908</ele>
        <time>2022-04-05T11:49:37.228Z</time>
      </trkpt>
      <trkpt lat="42.27143" lon="23.1948">
        <ele>678.03908</ele>
        <time>2022-04-05T11:49:43.248Z</time>
      </trkpt>
      <trkpt lat="42.27141" lon="23.19492">
        <ele>678.03908</ele>
        <time>2022-04-05T11:49:49.232Z</time>
      </trkpt>
      <trkpt lat="42.27141" lon="23.19505">
        <ele>678.03908</ele>
        <time>2022-04-05T11:49:56.222Z</time>
      </trkpt>
      <trkpt lat="42.27141" lon="23.19512">
        <ele>678.03908</ele>
        <time>2022-04-05T11:51:29.835Z</time>
      </trkpt>
    </trkseg>
  </trk>
</gpx>